# Wetter Temperatur Luftdruck Luftfeuchtigkeit Sichtweite Windgeschwindigkeit Windrichtung Zeit
1 Fog 6 1037 87 4000 2.6 80 13:21 14.10.2019
2 -273 0 0 0 0 0 12:43 14.10.2019
3 Fog 5 1036 93 4000 2.6 90 12:21 14.10.2019
4 Fog 6 1035 87 4000 4.1 80 12:00 14.10.2019
5 Fog 6 1035 87 4000 4.1 80 11:41 14.10.2019
6 Fog 6 1035 87 4000 4.1 80 11:22 14.10.2019
7 Fog 6 1035 87 4000 3.1 80 10:44 14.10.2019
8 Fog 6 1035 87 4000 3.1 80 10:23 14.10.2019
9 Fog 7 1035 87 4000 1 0 09:59 14.10.2019
10 Fog 7 1035 87 4000 1 0 09:40 14.10.2019
11 -273 0 0 0 0 0 09:20 14.10.2019
12 Clouds 7 1036 75 10000 1 0 08:48 14.10.2019
13 Clouds 7 1036 75 10000 1 0 08:23 14.10.2019
14 Clouds 8 1036 61 10000 3.6 320 07:45 14.10.2019
15 Clouds 8 1036 61 10000 3.6 320 07:23 14.10.2019
16 Clouds 7 1037 70 10000 4.1 310 06:56 14.10.2019
17 Clouds 7 1037 70 10000 4.1 310 06:56 14.10.2019
18 Clouds 7 1037 70 10000 4.1 310 06:28 14.10.2019
19 Clouds 9 1037 66 10000 2.1 320 05:53 14.10.2019
20 Clouds 9 1037 57 10000 1 0 04:53 14.10.2019
21 Clouds 9 1036 57 10000 1 0 03:49 14.10.2019
22 Clouds 9 1036 57 10000 1 0 03:22 14.10.2019
23 Clouds 10 1033 59 10000 3.1 70 01:52 14.10.2019
24 Clouds 10 1033 56 10000 3.1 70 01:18 14.10.2019
25 Clouds 13 1033 56 10000 5.7 60 00:36 14.10.2019
26 Clouds 13 1033 36 10000 5.7 60 00:18 14.10.2019
27 Clouds 14 1032 36 10000 5.7 60 23:40 13.10.2019
28 Clouds 14 1032 36 10000 5.7 60 23:19 13.10.2019
29 Clouds 14 1032 36 10000 4.6 50 22:41 13.10.2019
30 Clouds 14 1032 36 10000 4.6 50 22:22 13.10.2019
31 Clouds 14 1032 36 10000 4.6 50 22:22 13.10.2019
32 Clouds 15 1033 33 10000 5.1 60 21:59 13.10.2019
33 Clouds 15 1033 33 10000 5.1 60 21:39 13.10.2019
34 Clouds 15 1033 33 10000 5.1 60 21:19 13.10.2019
35 Clouds 17 1034 33 10000 4.6 100 20:58 13.10.2019
36 Clouds 17 1034 33 10000 4.6 100 20:40 13.10.2019
37 Clouds 17 1034 33 10000 4.6 100 20:21 13.10.2019
38 Clouds 16 1035 29 10000 3.6 100 20:00 13.10.2019
39 Clouds 16 1035 29 10000 3.6 100 19:39 13.10.2019
40 Clouds 16 1035 29 10000 3.6 100 19:39 13.10.2019
41 Clouds 16 1035 29 10000 3.6 100 19:39 13.10.2019
42 Clouds 16 1035 29 10000 3.6 100 19:21 13.10.2019
43 -273 0 0 0 0 0 18:59 13.10.2019
44 Clouds 14 1036 29 10000 2.6 100 18:59 13.10.2019
45 Clouds 14 1036 29 10000 2.6 100 18:58 13.10.2019
46 -273 0 0 0 0 0 18:58 13.10.2019
47 Clouds 14 1036 29 10000 2.6 100 18:58 13.10.2019
48 Clouds 14 1036 29 10000 2.6 100 18:37 13.10.2019
49 Clouds 14 1036 35 10000 2.6 100 18:19 13.10.2019
50 Clouds 14 1036 35 10000 2.6 100 18:19 13.10.2019
51 Clouds 14 1036 41 10000 2.1 160 17:57 13.10.2019
52 Clouds 14 1036 41 10000 2.1 160 17:39 13.10.2019
53 Clouds 14 1036 41 10000 2.1 160 17:21 13.10.2019
54 Clouds 12 1037 40 10000 1 0 16:43 13.10.2019
55 -273 0 0 0 0 0 16:19 13.10.2019
56 Clouds 10 1037 35 10000 2.6 240 15:57 13.10.2019
57 -273 0 0 0 0 0 15:57 13.10.2019
58 Clouds 10 1037 35 10000 2.6 240 15:57 13.10.2019
59 Clouds 10 1037 35 10000 2.6 240 15:57 13.10.2019
60 Clouds 10 1037 35 10000 2.6 240 15:38 13.10.2019
61 Clouds 10 1037 67 10000 2.6 240 15:19 13.10.2019
62 Clouds 7 1037 56 10000 1 0 14:57 13.10.2019
63 Clouds 7 1037 56 10000 1 0 14:38 13.10.2019
64 Clouds 7 1037 56 10000 1 0 14:19 13.10.2019
65 Clouds 2 1036 67 10000 2.6 70 13:41 13.10.2019
66 Clouds 2 1036 68 10000 2.6 70 13:23 13.10.2019
67 Clouds -1 1035 86 10000 2.6 80 12:59 13.10.2019
68 Clouds -1 1035 86 10000 2.6 80 12:39 13.10.2019
69 Clouds -1 1035 86 10000 2.6 80 12:20 13.10.2019
70 Clouds -1 1034 86 10000 1 0 11:58 13.10.2019
71 Clouds -1 1034 86 10000 1 0 11:39 13.10.2019
72 Clouds -1 1034 86 10000 1 0 11:20 13.10.2019
73 Clouds 0 1034 88 10000 2.1 50 10:56 13.10.2019
74 Clouds 0 1034 88 10000 2.1 50 10:38 13.10.2019
75 Clouds 0 1034 88 10000 2.1 50 10:19 13.10.2019
76 Fog 3 1034 86 4000 1 0 09:39 13.10.2019
77 Fog 3 1034 86 4000 1 0 09:20 13.10.2019
78 Fog 0 1034 78 4000 2.1 70 08:43 13.10.2019
79 Fog 0 1034 78 4000 2.1 70 08:25 13.10.2019
80 Fog 0 1034 78 4000 2.1 70 07:51 13.10.2019
81 Fog 0 1034 78 4000 2.1 70 07:33 13.10.2019
82 Clouds 1 1035 86 10000 2.6 70 06:51 13.10.2019
83 Clouds 1 1035 86 10000 2.6 70 06:23 13.10.2019
84 Clouds 1 1035 86 10000 2.6 70 06:23 13.10.2019
85 Clear 0 1035 71 10000 3.6 70 05:19 13.10.2019
86 Clear 1 1035 55 10000 3.1 80 04:34 13.10.2019
87 Clouds 6 1034 52 10000 1.5 90 02:53 13.10.2019
88 Clouds 6 1034 52 10000 1.5 90 02:27 13.10.2019
89 Clouds 9 1033 42 10000 2.6 80 01:36 13.10.2019
90 Clouds 13 1033 32 10000 5.1 80 00:55 13.10.2019
91 Clouds 13 1033 32 10000 5.1 80 00:37 13.10.2019
92 Clouds 13 1033 32 10000 5.1 80 00:18 13.10.2019
93 Clouds 15 1033 26 10000 2.6 80 23:41 12.10.2019
94 Clouds 15 1033 26 10000 2.6 80 23:22 12.10.2019
95 Clouds 14 1033 24 10000 2.6 330 22:58 12.10.2019
96 Clouds 14 1033 24 10000 2.6 330 22:40 12.10.2019
97 Clouds 14 1033 24 10000 2.6 330 22:21 12.10.2019
98 Clouds 10 1034 46 10000 7.2 330 21:57 12.10.2019
99 Clouds 10 1034 46 10000 7.2 330 21:38 12.10.2019
100 Clouds 10 1034 46 10000 7.2 330 21:19 12.10.2019
101 Thunderstorm 13 1034 37 10000 4.6 60 20:44 12.10.2019
102 Clouds 15 1035 33 10000 4.6 100 20:26 12.10.2019
103 Clouds 14 1036 28 10000 2.6 200 19:42 12.10.2019
104 Clouds 14 1036 28 10000 2.6 200 19:23 12.10.2019
105 Clouds 14 1037 26 10000 3.1 340 18:59 12.10.2019
106 Clouds 14 1037 26 10000 3.1 340 18:59 12.10.2019
107 Clouds 14 1037 26 10000 3.1 340 18:41 12.10.2019
108 Clouds 14 1037 26 10000 3.1 340 18:23 12.10.2019
109 Clouds 13 1038 24 10000 3.1 290 17:45 12.10.2019
110 Clouds 13 1038 24 10000 3.1 290 17:20 12.10.2019
111 Clouds 11 1038 37 10000 1 0 16:55 12.10.2019
112 Clouds 11 1038 37 10000 1 0 16:37 12.10.2019
113 Clouds 11 1038 37 10000 1 0 16:18 12.10.2019
114 Clouds 9 1038 57 10000 1 0 15:44 12.10.2019
115 Clouds 9 1038 57 10000 1 0 15:25 12.10.2019
116 -273 0 0 0 0 0 15:25 12.10.2019
117 Clouds 6 1037 75 10000 1 0 14:55 12.10.2019
118 Clouds 6 1037 75 10000 1 0 14:55 12.10.2019
119 Clouds 6 1037 75 10000 1 0 14:37 12.10.2019
120 Fog 2 1036 93 4000 1 0 14:18 12.10.2019
121 Fog 2 1036 93 4000 1 0 13:43 12.10.2019
122 Fog 2 1036 93 4000 1 0 13:25 12.10.2019
123 Fog -1 1036 92 4000 2.1 70 12:40 12.10.2019
124 Fog -1 1036 92 4000 2.1 70 12:22 12.10.2019
125 Fog -1 1035 92 4000 2.6 50 11:59 12.10.2019
126 Fog -1 1035 92 4000 2.6 50 11:39 12.10.2019
127 Fog -1 1035 92 4000 2.6 50 11:20 12.10.2019
128 Fog 0 1035 79 4000 3.1 80 10:44 12.10.2019
129 Fog 0 1035 79 4000 2.6 60 10:24 12.10.2019
130 Fog 0 1035 79 4000 2.6 60 09:58 12.10.2019
131 Fog 0 1035 79 4000 2.6 60 09:58 12.10.2019
132 Fog 0 1035 79 4000 2.6 60 09:39 12.10.2019
133 Fog 0 1035 70 4000 2.6 60 09:21 12.10.2019
134 Clear -2 1035 79 10000 3.1 80 08:57 12.10.2019
135 Clear -2 1035 79 10000 3.1 80 08:38 12.10.2019
136 Clear -2 1035 79 10000 3.1 80 08:19 12.10.2019
137 Clear -1 1036 68 10000 2.6 60 07:34 12.10.2019
138 Clear 1 1036 55 10000 1 0 06:56 12.10.2019
139 Clear 4 1037 48 10000 1.5 10 05:47 12.10.2019
140 Clear 4 1037 48 10000 1.5 10 05:23 12.10.2019
141 Clear 6 1037 48 10000 1 0 04:24 12.10.2019
142 Clear 6 1036 56 10000 1 0 03:30 12.10.2019
143 Clouds 9 1035 39 10000 4.6 90 01:38 12.10.2019
144 Clouds 9 1035 39 10000 4.6 90 01:19 12.10.2019
145 Clouds 13 1034 26 10000 4.6 80 00:40 12.10.2019
146 Clouds 16 1034 25 10000 6.7 100 23:59 11.10.2019
147 Clouds 16 1034 25 10000 6.7 100 23:40 11.10.2019
148 Clouds 16 1034 25 10000 6.7 100 23:20 11.10.2019
149 Clouds 16 1034 23 10000 6.2 100 22:40 11.10.2019
150 Clouds 16 1034 23 10000 6.2 100 22:40 11.10.2019
151 Clouds 16 1034 23 10000 6.2 100 22:21 11.10.2019
152 Clouds 17 1035 25 10000 5.7 120 21:56 11.10.2019
153 Clouds 17 1035 25 10000 5.7 120 21:38 11.10.2019
154 Clouds 17 1035 25 10000 5.7 120 21:20 11.10.2019
155 Clouds 15 1036 33 10000 4.1 90 20:44 11.10.2019
156 Clouds 15 1036 33 10000 4.1 90 20:26 11.10.2019
157 Clouds 15 1037 30 10000 4.1 150 19:57 11.10.2019
158 Clouds 15 1037 30 10000 4.1 150 19:38 11.10.2019
159 Clouds 15 1037 30 10000 4.1 150 19:18 11.10.2019
160 Clouds 14 1038 30 10000 3.6 150 18:58 11.10.2019
161 Clouds 14 1038 30 10000 3.6 150 18:58 11.10.2019
162 Clouds 14 1038 30 10000 3.6 150 18:38 11.10.2019
163 Clouds 14 1038 30 10000 3.6 150 18:19 11.10.2019
164 Clouds 12 1038 34 10000 3.6 150 17:58 11.10.2019
165 Clouds 12 1038 34 10000 3.6 150 17:37 11.10.2019
166 Clouds 12 1038 34 10000 3.6 150 17:18 11.10.2019
167 Clouds 11 1038 25 10000 2.1 140 16:54 11.10.2019
168 Clouds 11 1038 25 10000 2.1 140 16:54 11.10.2019
169 Clouds 11 1038 25 10000 2.1 140 16:36 11.10.2019
170 Clouds 11 1038 25 10000 2.1 140 16:18 11.10.2019
171 Clouds 9 1038 34 10000 1 0 15:39 11.10.2019
172 Clouds 9 1038 34 10000 1 0 15:19 11.10.2019
173 Clouds 7 1038 48 10000 1 0 14:49 11.10.2019
174 Clouds 7 1038 48 10000 1 0 14:30 11.10.2019
175 Clouds 4 1037 56 6000 1.5 10 13:57 11.10.2019
176 Clouds 4 1037 56 6000 1.5 10 13:39 11.10.2019
177 Clouds 4 1037 59 6000 1.5 10 13:21 11.10.2019
178 Clouds 4 1037 59 6000 1.5 10 13:21 11.10.2019
179 Fog 0 1037 59 4000 1.5 10 12:56 11.10.2019
180 Fog 0 1037 59 4000 1.5 10 12:38 11.10.2019
181 Fog 0 1037 80 4000 1.5 10 12:19 11.10.2019
182 Fog 2 1036 80 4000 1 0 11:41 11.10.2019
183 Fog 2 1036 80 4000 1 0 11:22 11.10.2019
184 Fog 2 1036 80 4000 1 0 11:22 11.10.2019
185 Fog 2 1036 80 4000 1 0 10:58 11.10.2019
186 Fog 2 1036 80 4000 1 0 10:58 11.10.2019
187 Fog 2 1036 80 4000 1 0 10:58 11.10.2019
188 Fog 2 1036 80 4000 1 0 10:40 11.10.2019
189 Fog 2 1036 80 4000 1 0 10:22 11.10.2019
190 Fog -1 1035 92 4000 1 0 09:56 11.10.2019
191 Fog -1 1035 92 4000 1 0 09:37 11.10.2019
192 Fog -1 1035 92 4000 1 0 09:19 11.10.2019
193 Clear -1 1035 74 10000 1 0 08:55 11.10.2019
194 Clear -1 1035 74 10000 1 0 08:36 11.10.2019
195 Clear -1 1035 74 10000 1 0 08:18 11.10.2019
196 Clear 1 1036 47 10000 3.1 80 07:41 11.10.2019
197 Clear 1 1036 47 10000 3.1 80 07:22 11.10.2019
198 Clear 3 1037 23 10000 2.6 80 06:47 11.10.2019
199 Clear 3 1037 23 10000 2.6 80 06:22 11.10.2019
200 Clear 7 1037 16 10000 5.1 60 05:39 11.10.2019
201 Clear 7 1037 16 10000 4.6 60 04:59 11.10.2019
202 Clear 7 1037 16 10000 4.6 60 04:24 11.10.2019
203 Clear 9 1036 21 10000 4.6 50 02:19 11.10.2019
204 Clouds 14 1035 15 10000 4.1 100 00:47 11.10.2019
205 Clouds 14 1035 15 10000 4.1 100 00:27 11.10.2019
206 Clouds 15 1035 14 10000 3.6 80 23:43 10.10.2019
207 Clouds 15 1035 14 10000 3.6 80 23:21 10.10.2019
208 Clouds 16 1035 11 10000 5.1 80 22:57 10.10.2019
209 Clouds 16 1035 11 10000 5.1 80 22:38 10.10.2019
210 Clouds 16 1035 11 10000 5.1 80 22:20 10.10.2019
211 Clouds 17 1035 10 10000 4.6 60 21:56 10.10.2019
212 Clouds 17 1035 10 10000 4.6 60 21:56 10.10.2019
213 Clouds 17 1035 10 10000 4.6 60 21:56 10.10.2019
214 Clouds 17 1035 10 10000 4.6 60 21:38 10.10.2019
215 Clouds 17 1035 10 10000 4.6 60 21:20 10.10.2019
216 Clouds 17 1036 11 10000 4.6 80 20:42 10.10.2019
217 Clouds 17 1036 11 10000 4.6 80 20:21 10.10.2019
218 Clouds 17 1037 13 10000 6.2 120 19:58 10.10.2019
219 Clouds 17 1037 13 10000 6.2 120 19:40 10.10.2019
220 Clouds 17 1037 13 10000 6.2 120 19:20 10.10.2019
221 Clouds 15 1038 18 10000 4.6 110 18:56 10.10.2019
222 Clouds 15 1038 18 10000 4.6 110 18:38 10.10.2019
223 Clouds 15 1038 18 10000 4.6 110 18:19 10.10.2019
224 Clouds 13 1039 37 10000 3.6 140 17:41 10.10.2019
225 Clouds 13 1039 37 10000 3.6 140 17:20 10.10.2019
226 Clouds 11 1039 50 10000 2.1 130 16:58 10.10.2019
227 Clouds 11 1039 50 10000 2.1 130 16:39 10.10.2019
228 Clouds 11 1039 50 10000 2.1 130 16:21 10.10.2019
229 Clouds 9 1039 42 10000 1 0 15:43 10.10.2019
230 Clouds 9 1039 42 10000 1 0 15:24 10.10.2019
231 Clouds 6 1039 70 10000 1.5 80 14:59 10.10.2019
232 Clouds 6 1039 70 10000 1.5 80 14:37 10.10.2019
233 Clouds 6 1039 70 10000 1.5 80 14:37 10.10.2019
234 Clouds 6 1039 70 10000 1.5 80 14:19 10.10.2019
235 Clouds 2 1038 93 6000 1.5 20 13:58 10.10.2019
236 Clouds 2 1038 93 6000 1.5 20 13:39 10.10.2019
237 Clouds 2 1038 93 6000 1.5 20 13:18 10.10.2019
238 Fog -2 1037 92 4000 2.6 70 12:43 10.10.2019
239 Fog -2 1037 92 4000 2.6 70 12:21 10.10.2019
240 Fog -1 1036 92 4000 3.1 90 11:58 10.10.2019
241 Fog -1 1036 92 4000 3.1 90 11:40 10.10.2019
242 Fog -1 1036 92 4000 3.1 90 11:20 10.10.2019
243 Fog -1 1036 100 4000 1 0 10:57 10.10.2019
244 Fog -1 1036 100 4000 1 0 10:39 10.10.2019
245 Fog -1 1036 100 4000 1 0 10:20 10.10.2019
246 Fog -1 1036 100 4000 1.5 100 09:41 10.10.2019
247 Fog -1 1036 100 4000 1.5 100 09:23 10.10.2019
248 Fog 1 1037 71 4000 2.1 110 08:59 10.10.2019
249 Fog 1 1037 71 4000 2.1 110 08:40 10.10.2019
250 Fog 1 1037 71 4000 2.1 110 08:21 10.10.2019
251 Clear 2 1037 71 10000 3.1 90 07:48 10.10.2019
252 Clear 2 1037 71 10000 3.1 90 07:26 10.10.2019
253 Clear 3 1038 71 10000 2.1 120 06:56 10.10.2019
254 Clear 3 1038 71 10000 2.1 120 06:38 10.10.2019
255 Clear 3 1038 59 10000 3.6 70 05:50 10.10.2019
256 Clear 3 1038 59 10000 3.6 70 05:19 10.10.2019
257 Clear 5 1038 65 10000 4.1 80 04:35 10.10.2019
258 Clouds 8 1037 39 10000 4.6 60 02:42 10.10.2019
259 Clouds 9 1036 39 10000 6.2 50 01:37 10.10.2019
260 Clouds 9 1036 39 10000 6.2 50 01:18 10.10.2019
261 Clouds 12 1036 30 10000 3.1 80 00:33 10.10.2019
262 Clouds 14 1036 24 10000 4.1 50 23:42 09.10.2019
263 Clouds 14 1036 24 10000 4.1 50 23:24 09.10.2019
264 Clouds 14 1036 24 10000 4.1 50 23:24 09.10.2019
265 Clouds 15 1036 21 10000 4.1 110 22:59 09.10.2019
266 Clouds 15 1036 21 10000 4.1 110 22:41 09.10.2019
267 Clouds 15 1036 21 10000 4.1 110 22:22 09.10.2019
268 Clouds 15 1037 19 10000 5.7 80 21:56 09.10.2019
269 Clouds 15 1037 19 10000 5.7 80 21:38 09.10.2019
270 Clouds 15 1037 19 10000 5.7 80 21:38 09.10.2019
271 Clouds 15 1037 19 10000 5.7 80 21:18 09.10.2019
272 Clouds 15 1038 19 10000 5.7 80 20:54 09.10.2019
273 Clouds 15 1038 19 10000 5.7 80 20:36 09.10.2019
274 Clouds 15 1038 19 10000 5.7 80 20:18 09.10.2019
275 Clouds 14 1039 26 10000 5.7 140 19:43 09.10.2019
276 Clouds 14 1039 26 10000 5.7 140 19:22 09.10.2019
277 Clouds 13 1040 32 10000 5.1 130 18:39 09.10.2019
278 Clouds 13 1040 32 10000 5.1 130 18:20 09.10.2019
279 Clouds 12 1040 37 10000 4.1 110 17:58 09.10.2019
280 Clouds 12 1040 37 10000 4.1 110 17:39 09.10.2019
281 Clouds 12 1040 37 10000 4.1 110 17:21 09.10.2019
282 Clouds 10 1040 26 10000 3.6 140 16:56 09.10.2019
283 Clouds 10 1040 26 10000 3.6 140 16:37 09.10.2019
284 Clouds 10 1040 26 10000 3.6 140 16:19 09.10.2019
285 Clouds 7 1040 70 10000 3.6 100 15:55 09.10.2019
286 Clouds 7 1040 70 10000 3.6 100 15:55 09.10.2019
287 Clouds 7 1040 70 10000 3.6 100 15:37 09.10.2019
288 Clouds 7 1040 70 10000 3.6 100 15:18 09.10.2019
289 Clouds 6 1040 70 10000 4.1 80 14:44 09.10.2019
290 Clouds 6 1040 70 10000 4.1 80 14:44 09.10.2019
291 Clouds 6 1040 70 10000 4.1 80 14:19 09.10.2019
292 Clouds 3 1039 86 6000 4.6 90 13:59 09.10.2019
293 Clouds 3 1039 86 6000 4.6 90 13:37 09.10.2019
294 Clouds 3 1039 86 6000 4.6 90 13:18 09.10.2019
295 Fog 2 1038 93 4000 2.6 100 12:43 09.10.2019
296 Fog 2 1038 93 4000 2.6 100 12:22 09.10.2019
297 Mist -2 1037 92 3000 2.6 70 11:58 09.10.2019
298 Mist -2 1037 92 3000 2.6 70 11:39 09.10.2019
299 Mist -2 1037 92 3000 2.6 70 11:20 09.10.2019
300 Fog -2 1037 86 4000 1.5 70 10:57 09.10.2019
301 Fog -2 1037 86 4000 1.5 70 10:57 09.10.2019
302 Fog -2 1037 86 4000 1.5 70 10:39 09.10.2019
303 Fog -2 1037 86 4000 1.5 70 10:18 09.10.2019
304 Clouds -1 1037 80 10000 2.48 124.1 09:42 09.10.2019
305 Clouds -1 1037 80 10000 2.78 151.33 09:20 09.10.2019
306 Clear 0 1037 71 10000 1 0 08:56 09.10.2019
307 Clear 0 1037 70 10000 1 0 08:37 09.10.2019
308 Clear 0 1037 70 10000 1 0 08:18 09.10.2019
309 Clear 0 1037 70 10000 1 0 08:18 09.10.2019
310 Clear 0 1038 70 10000 1 0 07:43 09.10.2019
311 Clear 0 1038 70 10000 1 0 07:23 09.10.2019
312 Clear 3 1038 32 10000 2.1 70 06:52 09.10.2019
313 Clear 3 1038 32 10000 2.1 70 06:20 09.10.2019
314 Clear 4 1038 25 10000 3.6 80 05:46 09.10.2019
315 Clear 6 1038 18 10000 5.1 80 04:27 09.10.2019
316 Clear 8 1037 22 10000 7.2 40 02:54 09.10.2019
317 Clouds 8 1036 36 10000 6.7 50 01:44 09.10.2019
318 Clouds 8 1036 36 10000 6.7 50 01:21 09.10.2019
319 Clouds 8 1036 36 10000 6.7 50 01:21 09.10.2019
320 Clouds 8 1036 36 10000 6.7 50 01:21 09.10.2019
321 Clouds 11 1036 25 10000 6.7 40 00:57 09.10.2019
322 Clouds 11 1036 25 10000 6.7 40 00:39 09.10.2019
323 Clouds 11 1036 25 10000 6.7 40 00:20 09.10.2019
324 Clouds 13 1035 30 10000 7.7 50 23:39 08.10.2019
325 Clouds 13 1035 30 10000 7.7 50 23:19 08.10.2019
326 Clouds 15 1035 22 10000 4.6 80 22:57 08.10.2019
327 Clouds 15 1035 22 10000 4.6 80 22:38 08.10.2019
328 Clouds 15 1035 22 10000 4.6 80 22:19 08.10.2019
329 Clouds 16 1036 17 10000 4.1 110 21:57 08.10.2019
330 Clouds 16 1036 17 10000 4.1 110 21:39 08.10.2019
331 Clouds 16 1036 17 10000 4.1 110 21:19 08.10.2019
332 Clouds 14 1037 5 10000 5.1 160 20:56 08.10.2019
333 Clouds 14 1037 5 10000 5.1 160 20:37 08.10.2019
334 Clouds 14 1037 5 10000 5.1 160 20:19 08.10.2019
335 Clouds 14 1038 16 10000 4.1 110 19:57 08.10.2019
336 Clouds 14 1038 16 10000 4.1 110 19:38 08.10.2019
337 Clouds 14 1038 16 10000 4.1 110 19:19 08.10.2019
338 Clouds 13 1039 16 10000 3.1 160 18:46 08.10.2019
339 Clouds 13 1039 16 10000 3.1 160 18:27 08.10.2019
340 Clouds 11 1040 15 10000 3.1 130 17:59 08.10.2019
341 Clouds 11 1040 15 10000 3.1 130 17:40 08.10.2019
342 Clouds 11 1040 15 10000 3.1 130 17:40 08.10.2019
343 Clouds 11 1040 15 10000 3.1 130 17:20 08.10.2019
344 Clear 10 1040 23 10000 2.1 130 16:56 08.10.2019
345 Clear 10 1040 23 10000 2.1 130 16:56 08.10.2019
346 Clear 10 1040 23 10000 2.1 130 16:37 08.10.2019
347 Clear 10 1040 23 10000 2.1 130 16:19 08.10.2019
348 Clear 8 1040 42 10000 1 0 15:40 08.10.2019
349 Clear 8 1040 42 10000 1 0 15:20 08.10.2019
350 Clear 8 1040 42 10000 1 0 15:20 08.10.2019
351 Clouds 5 1039 65 10000 1 0 14:57 08.10.2019
352 Clouds 5 1039 65 10000 1 0 14:38 08.10.2019
353 Clouds 5 1039 65 10000 1 0 14:19 08.10.2019
354 Clear 1 1038 54 10000 1.5 70 13:55 08.10.2019
355 Clear 1 1038 54 10000 1.5 70 13:37 08.10.2019
356 Clear 1 1038 54 10000 1.5 70 13:37 08.10.2019
357 Clear 1 1038 54 10000 1.5 70 13:37 08.10.2019
358 Clear 1 1038 54 10000 1.5 70 13:18 08.10.2019
359 Clear -2 1037 100 10000 1.5 60 12:41 08.10.2019
360 Clear -2 1037 100 10000 1.5 60 12:20 08.10.2019
361 Clear -2 1037 100 10000 1.5 60 12:20 08.10.2019
362 Fog -2 1036 100 4000 3.1 70 11:58 08.10.2019
363 Fog -2 1036 100 4000 3.1 70 11:39 08.10.2019
364 Fog -2 1036 100 4000 3.1 70 11:21 08.10.2019
365 Fog -2 1036 100 4000 3.1 70 11:21 08.10.2019
366 Fog -2 1036 92 4000 3.1 70 10:42 08.10.2019
367 Fog -2 1036 92 4000 3.1 70 10:23 08.10.2019
368 Fog -2 1036 100 4000 2.6 90 09:59 08.10.2019
369 Fog -2 1036 100 4000 2.6 90 09:40 08.10.2019
370 Clouds -3 1036 92 10000 2.1 90 09:22 08.10.2019
371 Clear 0 1036 75 10000 3.1 90 08:45 08.10.2019
372 Clear 0 1036 76 10000 3.1 90 08:25 08.10.2019
373 Clear 2 1037 93 10000 2.6 100 07:48 08.10.2019
374 Clear 2 1037 93 10000 2.6 100 07:24 08.10.2019
375 Clear 3 1037 86 10000 3.6 110 06:59 08.10.2019
376 Clear 3 1037 86 10000 3.6 110 06:39 08.10.2019
377 Clear 3 1037 86 10000 3.6 110 06:21 08.10.2019
378 Clear 1 1037 86 10000 3.6 80 05:43 08.10.2019
379 Clear 3 1036 74 10000 3.6 60 04:56 08.10.2019
380 Clear 6 1036 60 10000 4.6 110 03:31 08.10.2019
381 Clear 6 1034 52 10000 3.1 90 02:41 08.10.2019
382 Clouds 9 1033 34 10000 3.1 120 01:56 08.10.2019
383 Clouds 9 1033 34 10000 3.1 120 01:38 08.10.2019
384 Clouds 12 1033 11 10000 2.6 340 00:55 08.10.2019
385 Clouds 12 1033 11 10000 2.6 340 00:23 08.10.2019
386 Clouds 13 1032 11 10000 2.6 330 23:44 07.10.2019
387 Clouds 13 1032 11 10000 2.6 330 23:21 07.10.2019
388 Clouds 14 1033 14 10000 3.1 280 22:59 07.10.2019
389 Clouds 14 1033 14 10000 3.1 280 22:40 07.10.2019
390 Clouds 14 1033 14 10000 3.1 280 22:21 07.10.2019
391 Clouds 14 1033 14 10000 3.1 280 22:21 07.10.2019
392 Clouds 13 1034 16 10000 3.6 330 21:58 07.10.2019
393 Clouds 13 1034 16 10000 3.6 330 21:40 07.10.2019
394 Clouds 13 1034 16 10000 3.6 330 21:20 07.10.2019
395 Clouds 13 1035 15 10000 5.1 280 20:58 07.10.2019
396 Clouds 13 1035 15 10000 5.1 280 20:39 07.10.2019
397 Clouds 13 1035 15 10000 5.1 280 20:20 07.10.2019
398 Clouds 12 1036 14 10000 3.6 250 19:58 07.10.2019
399 Clouds 12 1036 14 10000 3.6 250 19:40 07.10.2019
400 Clouds 12 1036 14 10000 3.6 250 19:19 07.10.2019
401 Clouds 11 1037 17 10000 3.6 240 18:57 07.10.2019
402 Clouds 11 1037 17 10000 3.6 240 18:38 07.10.2019
403 Clouds 11 1037 17 10000 3.6 240 18:18 07.10.2019
404 Clouds 11 1037 17 10000 3.6 240 18:18 07.10.2019
405 Clouds 9 1037 18 10000 3.1 250 17:43 07.10.2019
406 Clouds 9 1037 18 10000 3.1 250 17:20 07.10.2019
407 Clouds 7 1037 19 10000 2.6 200 16:56 07.10.2019
408 Clouds 7 1037 19 10000 2.6 200 16:38 07.10.2019
409 Clouds 7 1037 19 10000 2.6 200 16:19 07.10.2019
410 Clouds 6 1037 28 10000 2.6 190 15:44 07.10.2019
411 Clouds 6 1037 28 10000 2.6 190 15:25 07.10.2019
412 Clouds 4 1037 80 10000 1 0 14:55 07.10.2019
413 Clouds 4 1037 80 10000 1 0 14:37 07.10.2019
414 Clouds 4 1037 80 10000 1 0 14:18 07.10.2019
415 Fog 0 1035 49 4000 1.5 70 13:41 07.10.2019
416 Fog 0 1035 41 4000 1.5 70 13:19 07.10.2019
417 Fog 0 1035 41 4000 1.5 70 12:55 07.10.2019
418 Fog 0 1035 41 4000 1.5 70 12:55 07.10.2019
419 Clouds 6 1020 41 0 1.05 139.731 12:36 07.10.2019
420 Clouds 4 1019 63 0 0.73 118.206 12:18 07.10.2019
421 Fog 3 1034 93 4000 1.5 60 11:56 07.10.2019
422 Fog 3 1034 93 4000 1.5 60 11:37 07.10.2019
423 Fog 3 1034 93 4000 1.5 60 11:18 07.10.2019
424 Fog 3 1034 93 4000 2.1 60 10:40 07.10.2019
425 Fog 3 1034 93 4000 2.1 60 10:20 07.10.2019
426 Fog 3 1035 93 4000 1 0 09:42 07.10.2019
427 Fog 3 1035 93 4000 1 0 09:23 07.10.2019
428 Fog 3 1036 93 4000 2.1 80 08:56 07.10.2019
429 Fog 3 1036 93 4000 2.1 80 08:37 07.10.2019
430 Fog 3 1036 93 4000 2.1 80 08:18 07.10.2019
431 Fog 3 1036 86 4000 2.1 70 07:40 07.10.2019
432 Fog 3 1036 86 4000 2.1 70 07:20 07.10.2019
433 Fog 4 1037 86 4000 3.6 100 06:44 07.10.2019
434 Fog 4 1037 86 4000 3.6 100 06:23 07.10.2019
435 Fog 4 1036 93 4000 4.1 120 05:30 07.10.2019
436 Fog 4 1036 93 4000 3.1 70 04:58 07.10.2019
437 Fog 4 1036 93 4000 3.1 70 04:20 07.10.2019
438 Fog 5 1035 86 4000 3.1 100 03:44 07.10.2019
439 Fog 5 1035 86 4000 3.1 100 03:44 07.10.2019
440 Fog 5 1035 86 4000 3.1 100 03:19 07.10.2019
441 Clouds 6 1033 81 10000 5.1 110 02:20 07.10.2019
442 Clouds 7 1032 75 10000 4.6 110 01:47 07.10.2019
443 Clouds 7 1032 75 10000 4.6 110 01:19 07.10.2019
444 Clouds 9 1031 61 10000 5.7 110 00:38 07.10.2019
445 Clouds 9 1031 61 10000 5.7 110 00:19 07.10.2019
446 Clouds 12 1031 18 10000 4.1 300 23:42 06.10.2019
447 Clouds 12 1031 18 10000 4.1 300 23:21 06.10.2019
448 Clouds 12 1031 16 10000 5.7 290 22:58 06.10.2019
449 Clouds 12 1031 16 10000 5.7 290 22:40 06.10.2019
450 Clouds 12 1031 16 10000 5.7 290 22:21 06.10.2019
451 Clouds 13 1032 19 10000 6.7 300 21:57 06.10.2019
452 Clouds 13 1032 19 10000 6.7 300 21:37 06.10.2019
453 Clouds 13 1032 19 10000 6.7 300 21:37 06.10.2019
454 Clouds 13 1032 19 10000 6.7 300 21:19 06.10.2019
455 Clouds 12 1033 18 10000 7.2 300 20:57 06.10.2019
456 Clouds 12 1033 18 10000 7.2 300 20:38 06.10.2019
457 Clouds 12 1033 18 10000 7.2 300 20:20 06.10.2019
458 Clouds 13 1034 26 10000 7.2 280 19:57 06.10.2019
459 Clouds 13 1034 26 10000 7.2 280 19:37 06.10.2019
460 Clouds 13 1034 26 10000 7.2 280 19:19 06.10.2019
461 Clouds 11 1035 29 10000 7.2 300 18:56 06.10.2019
462 Clouds 11 1035 29 10000 7.2 300 18:56 06.10.2019
463 Clouds 11 1035 29 10000 7.2 300 18:37 06.10.2019
464 Clouds 11 1035 29 10000 7.2 300 18:18 06.10.2019
465 Clouds 10 1036 43 10000 5.1 300 17:43 06.10.2019
466 Clouds 10 1036 43 10000 5.1 300 17:20 06.10.2019
467 Clouds 8 1036 52 10000 6.2 280 16:56 06.10.2019
468 Clouds 8 1036 52 10000 6.2 280 16:38 06.10.2019
469 Clouds 8 1036 52 10000 6.2 280 16:19 06.10.2019
470 Clouds 6 1036 75 9000 2.6 250 15:43 06.10.2019
471 Clouds 6 1036 75 9000 2.6 250 15:22 06.10.2019
472 Clouds 5 1036 80 6000 1 0 14:56 06.10.2019
473 Clouds 5 1036 80 6000 1 0 14:38 06.10.2019
474 Clouds 5 1036 80 6000 1 0 14:19 06.10.2019
475 Fog 3 1035 93 3000 1 0 13:42 06.10.2019
476 Fog 3 1035 93 3000 1 0 13:24 06.10.2019
477 Mist 2 1034 93 4000 2.1 230 12:59 06.10.2019
478 Mist 2 1034 93 4000 2.1 230 12:40 06.10.2019
479 Mist 2 1034 93 4000 2.1 230 12:21 06.10.2019
480 Fog 2 1033 93 4000 1 0 11:59 06.10.2019
481 Fog 2 1033 93 4000 1 0 11:40 06.10.2019
482 Fog 2 1033 93 4000 1 0 11:21 06.10.2019
483 Fog 3 1033 86 4000 1 0 10:55 06.10.2019
484 Fog 3 1033 86 4000 1 0 10:37 06.10.2019
485 Fog 3 1033 86 4000 1 0 10:19 06.10.2019
486 Fog 2 1034 93 8000 3.6 50 09:41 06.10.2019
487 Fog 2 1034 93 8000 3.6 50 09:19 06.10.2019
488 Clouds 1 1035 87 4000 3.6 280 08:48 06.10.2019
489 Clouds 1 1035 92 4000 3.6 280 08:21 06.10.2019
490 Snow 1 1036 92 1200 2.6 290 07:57 06.10.2019
491 Snow 1 1036 92 1200 2.6 290 07:38 06.10.2019
492 Fog 2 1036 93 4000 2.1 40 06:39 06.10.2019
493 Snow 1 1036 89 1200 4.1 200 05:36 06.10.2019
494 Rain 4 1035 80 6000 5.7 200 04:29 06.10.2019
495 Clouds 6 1032 87 10000 5.1 100 02:48 06.10.2019
496 Clouds 6 1032 87 10000 5.1 100 02:28 06.10.2019
497 Clouds 7 1031 81 10000 5.7 100 01:46 06.10.2019
498 Clouds 7 1031 81 10000 5.7 100 01:27 06.10.2019
499 Clouds 7 1031 81 10000 5.7 100 01:27 06.10.2019
500 Clouds 9 1031 76 10000 6.7 110 00:59 06.10.2019
501 Clouds 9 1031 76 10000 6.7 110 00:59 06.10.2019
502 Clouds 9 1031 76 10000 6.7 110 00:59 06.10.2019
503 Clouds 9 1031 76 10000 6.7 110 00:31 06.10.2019
504 Clouds 14 1031 33 10000 4.6 330 23:46 05.10.2019
505 Clouds 14 1031 33 10000 4.6 330 23:24 05.10.2019
506 Clouds 14 1031 35 10000 6.7 290 22:59 05.10.2019
507 Clouds 14 1031 35 10000 6.7 290 22:40 05.10.2019
508 Clouds 14 1031 35 10000 6.7 290 22:21 05.10.2019
509 Clouds 14 1032 41 10000 6.2 300 21:57 05.10.2019
510 Clouds 14 1032 41 10000 6.2 300 21:39 05.10.2019
511 Clouds 14 1032 41 10000 6.2 300 21:20 05.10.2019
512 Clouds 12 1033 50 10000 7.2 320 20:56 05.10.2019
513 Clouds 12 1033 50 10000 7.2 320 20:38 05.10.2019
514 Clouds 12 1033 50 10000 7.2 320 20:19 05.10.2019
515 Clouds 12 1033 50 10000 7.2 320 20:19 05.10.2019
516 Clouds 12 1033 50 10000 7.2 320 20:19 05.10.2019
517 Clouds 12 1034 50 10000 3.1 320 19:38 05.10.2019
518 Clouds 12 1034 50 10000 3.1 320 19:20 05.10.2019
519 Clouds 12 1035 50 10000 4.1 10 18:56 05.10.2019
520 Clouds 12 1035 50 10000 4.1 10 18:38 05.10.2019
521 Clouds 12 1035 50 10000 4.1 10 18:20 05.10.2019
522 Clouds 10 1036 66 10000 2.1 210 17:46 05.10.2019
523 Clouds 10 1036 66 10000 2.1 210 17:27 05.10.2019
524 Clouds 7 1037 75 10000 1 0 16:59 05.10.2019
525 Clouds 7 1037 75 10000 1 0 16:41 05.10.2019
526 Clouds 7 1037 75 10000 1 0 16:21 05.10.2019
527 Clouds 3 1037 93 10000 4.1 220 15:57 05.10.2019
528 Clouds 3 1037 93 10000 4.1 220 15:39 05.10.2019
529 Clouds 3 1037 93 10000 4.1 220 15:21 05.10.2019
530 Clouds 4 1036 86 6000 3.1 210 14:44 05.10.2019
531 Clouds 4 1036 86 6000 3.1 210 14:26 05.10.2019
532 Fog 3 1035 100 6000 1 0 13:59 05.10.2019
533 Fog 3 1035 100 6000 1 0 13:41 05.10.2019
534 Fog 3 1035 100 6000 1 0 13:20 05.10.2019
535 Mist 3 1035 100 2000 4.6 240 12:44 05.10.2019
536 Mist 3 1035 100 2000 4.6 240 12:20 05.10.2019
537 Fog 5 1034 93 4000 2.1 120 11:45 05.10.2019
538 Fog 5 1034 93 4000 2.1 120 11:23 05.10.2019
539 Fog 5 1034 86 4000 1 0 10:59 05.10.2019
540 Fog 5 1034 86 4000 1 0 10:40 05.10.2019
541 Fog 5 1034 86 4000 1 0 10:21 05.10.2019
542 Fog 5 1034 93 4000 3.6 100 09:55 05.10.2019
543 Fog 5 1034 93 4000 3.6 100 09:37 05.10.2019
544 Fog 5 1034 93 4000 3.6 100 09:18 05.10.2019
545 Fog 4 1034 100 4000 3.6 100 08:39 05.10.2019
546 Fog 4 1034 100 4000 3.6 100 08:19 05.10.2019
547 Fog 4 1035 100 3000 4.1 80 07:52 05.10.2019
548 Fog 4 1035 100 3000 4.1 80 07:30 05.10.2019
549 Fog 4 1035 100 4000 4.1 80 06:56 05.10.2019
550 Fog 4 1035 100 4000 4.1 80 06:23 05.10.2019
551 Fog 5 1036 93 3000 2.6 60 05:39 05.10.2019
552 Fog 6 1035 93 4000 3.1 50 03:32 05.10.2019
553 Clouds 6 1035 87 10000 2.6 100 02:38 05.10.2019
554 Clouds 7 1034 87 10000 2.6 80 01:27 05.10.2019
555 Clouds 8 1034 81 10000 2.6 110 00:49 05.10.2019
556 Clouds 8 1034 81 10000 2.6 110 00:28 05.10.2019
557 Clouds 10 1033 71 10000 3.1 70 23:58 04.10.2019
558 Clouds 10 1033 71 10000 3.1 70 23:40 04.10.2019
559 Clouds 10 1033 71 10000 3.1 70 23:21 04.10.2019
560 Rain 12 1034 58 8000 4.1 290 22:56 04.10.2019
561 Rain 12 1034 58 8000 4.1 290 22:37 04.10.2019
562 Rain 12 1034 58 8000 4.1 290 22:19 04.10.2019
563 Clouds 12 1035 54 10000 4.1 290 21:40 04.10.2019
564 Clouds 12 1035 54 10000 4.1 290 21:22 04.10.2019
565 Rain 10 1036 71 8000 3.1 310 20:58 04.10.2019
566 Rain 10 1036 71 8000 3.1 310 20:40 04.10.2019
567 Rain 10 1036 71 8000 3.1 310 20:22 04.10.2019
568 Rain 8 1037 75 6000 3.6 330 19:55 04.10.2019
569 Rain 8 1037 75 6000 3.6 330 19:37 04.10.2019
570 Rain 8 1037 75 6000 3.6 330 19:19 04.10.2019
571 Rain 7 1038 87 8000 5.1 270 18:40 04.10.2019
572 Rain 7 1038 87 8000 5.1 270 18:20 04.10.2019
573 Clouds 8 1039 70 10000 1.5 330 17:59 04.10.2019
574 Clouds 8 1039 70 10000 1.5 330 17:39 04.10.2019
575 Clouds 8 1039 70 10000 1.5 330 17:21 04.10.2019
576 Clouds 7 1039 70 10000 1 0 16:55 04.10.2019
577 Clouds 7 1039 70 10000 1 0 16:37 04.10.2019
578 Clouds 7 1039 70 10000 1 0 16:18 04.10.2019
579 Rain 5 1039 86 6000 2.1 70 15:55 04.10.2019
580 Rain 5 1039 86 6000 2.1 70 15:37 04.10.2019
581 Rain 5 1039 86 6000 2.1 70 15:19 04.10.2019
582 Rain 5 1038 86 6000 1.5 60 14:54 04.10.2019
583 Rain 5 1038 86 6000 1.5 60 14:36 04.10.2019
584 Rain 5 1038 86 6000 1.5 60 14:18 04.10.2019
585 Clouds 4 1038 93 10000 1.5 60 13:42 04.10.2019
586 Clouds 4 1038 93 10000 1.5 60 13:19 04.10.2019
587 Clouds 4 1037 86 10000 2.6 70 12:46 04.10.2019
588 Clouds 4 1037 86 10000 2.6 70 12:46 04.10.2019
589 Clouds 4 1037 86 10000 2.6 70 12:28 04.10.2019
590 Rain 4 1036 93 8000 2.1 60 11:58 04.10.2019
591 Rain 4 1036 93 8000 2.1 60 11:40 04.10.2019
592 Rain 4 1036 93 8000 2.1 60 11:40 04.10.2019
593 Rain 4 1036 93 8000 2.1 60 11:20 04.10.2019
594 Rain 4 1036 93 8000 1.5 60 10:40 04.10.2019
595 Rain 4 1037 93 8000 2.6 50 10:20 04.10.2019
596 Rain 4 1037 93 8000 2.6 50 09:45 04.10.2019
597 Rain 4 1037 93 8000 2.6 50 09:45 04.10.2019
598 Rain 4 1037 93 8000 2.6 50 09:27 04.10.2019
599 Rain 3 1038 93 8000 2.6 350 08:56 04.10.2019
600 Rain 3 1038 93 8000 2.6 350 08:37 04.10.2019
601 Rain 3 1038 93 8000 2.6 350 08:19 04.10.2019
602 Rain 4 1038 86 6000 2.6 350 07:43 04.10.2019
603 Rain 4 1038 86 6000 2.6 350 07:21 04.10.2019
604 Rain 5 1038 86 8000 3.1 310 06:41 04.10.2019
605 Rain 5 1038 86 8000 3.1 310 06:23 04.10.2019
606 Clouds 6 1038 81 10000 2.1 120 05:23 04.10.2019
607 Clouds 5 1038 86 10000 4.6 140 04:54 04.10.2019
608 Clouds 6 1037 75 10000 5.7 180 03:42 04.10.2019
609 Clouds 7 1036 81 10000 4.1 70 02:53 04.10.2019
610 Clouds 8 1035 75 10000 5.1 110 01:54 04.10.2019
611 Clouds 8 1035 75 10000 5.1 110 01:54 04.10.2019
612 Clouds 8 1035 75 10000 5.1 110 01:27 04.10.2019
613 Clouds 13 1034 69 10000 3.1 20 00:44 04.10.2019
614 Clouds 13 1034 37 10000 5.1 320 23:42 03.10.2019
615 Clouds 13 1034 37 10000 5.1 320 23:22 03.10.2019
616 Clouds 13 1034 37 10000 5.1 320 23:22 03.10.2019
617 Clouds 13 1034 43 10000 5.7 300 22:58 03.10.2019
618 Clouds 13 1034 43 10000 5.7 300 22:40 03.10.2019
619 Clouds 13 1034 43 10000 5.7 300 22:21 03.10.2019
620 Clouds 12 1035 50 10000 7.2 330 21:59 03.10.2019
621 Clouds 12 1035 50 10000 7.2 330 21:40 03.10.2019
622 Clouds 12 1035 50 10000 7.2 330 21:20 03.10.2019
623 Clouds 13 1036 43 10000 6.2 280 20:58 03.10.2019
624 Clouds 13 1036 43 10000 6.2 280 20:40 03.10.2019
625 Clouds 13 1036 43 10000 6.2 280 20:21 03.10.2019
626 Clouds 12 1037 50 10000 4.6 290 19:57 03.10.2019
627 Clouds 12 1037 50 10000 4.6 290 19:57 03.10.2019
628 Clouds 12 1037 50 10000 4.6 290 19:39 03.10.2019
629 Clouds 12 1037 50 10000 4.6 290 19:20 03.10.2019
630 Clouds 12 1038 50 10000 3.1 270 18:56 03.10.2019
631 Clouds 12 1038 50 10000 3.1 270 18:37 03.10.2019
632 Clouds 12 1038 50 10000 3.1 270 18:18 03.10.2019
633 Clouds 11 1038 50 10000 3.1 260 17:42 03.10.2019
634 Clouds 11 1038 50 10000 3.1 260 17:22 03.10.2019
635 Clouds 8 1039 75 10000 1 0 16:57 03.10.2019
636 Clouds 8 1039 75 10000 1 0 16:39 03.10.2019
637 Clouds 8 1039 75 10000 1 0 16:20 03.10.2019
638 Clouds 6 1039 87 10000 2.6 250 15:44 03.10.2019
639 Clouds 6 1039 87 10000 2.6 250 15:24 03.10.2019
640 Clouds 6 1039 87 10000 2.6 250 15:24 03.10.2019
641 Clouds 5 1038 93 10000 1 0 14:58 03.10.2019
642 Clouds 5 1038 93 10000 1 0 14:36 03.10.2019
643 -273 0 0 0 0 0 14:36 03.10.2019
644 Clouds 5 1038 93 10000 1 0 14:36 03.10.2019
645 Clouds 5 1038 93 10000 1 0 14:18 03.10.2019
646 Clouds 3 1037 100 10000 1 0 13:43 03.10.2019
647 Clouds 3 1037 100 10000 1 0 13:24 03.10.2019
648 Fog 3 1036 100 4000 1 0 12:58 03.10.2019
649 Fog 3 1036 100 4000 1 0 12:39 03.10.2019
650 Fog 3 1036 100 4000 1 0 12:39 03.10.2019
651 Fog 3 1036 100 4000 1 0 12:20 03.10.2019
652 Fog 2 1036 100 6000 2.1 260 11:57 03.10.2019
653 Fog 2 1036 100 6000 2.1 260 11:38 03.10.2019
654 Fog 2 1036 100 6000 2.1 260 11:20 03.10.2019
655 Fog 3 1035 93 2000 3.1 250 10:56 03.10.2019
656 Fog 3 1035 93 2000 3.1 250 10:37 03.10.2019
657 Fog 3 1035 93 2000 3.1 250 10:18 03.10.2019
658 Clouds 3 1035 93 10000 2.2 92.32 09:55 03.10.2019
659 Fog 3 1036 100 4000 2.1 60 09:37 03.10.2019
660 Fog 3 1036 100 4000 2.1 60 09:18 03.10.2019
661 Fog 3 1036 100 4000 2.1 60 08:41 03.10.2019
662 Fog 3 1036 100 4000 2.1 60 08:23 03.10.2019
663 Fog 3 1037 93 4000 1 0 07:41 03.10.2019
664 Fog 3 1037 93 4000 1 0 07:41 03.10.2019
665 Fog 3 1037 93 4000 1 0 07:20 03.10.2019
666 Fog 3 1037 93 4000 1 0 07:20 03.10.2019
667 Rain 2 1038 93 6000 2.6 320 06:51 03.10.2019
668 Rain 2 1038 93 6000 2.6 320 06:25 03.10.2019
669 Rain 3 1039 93 4000 4.6 280 05:47 03.10.2019
670 Rain 3 1039 93 4000 4.6 280 05:20 03.10.2019
671 Rain 5 1038 93 4000 6.7 260 04:39 03.10.2019
672 Clouds 6 1037 81 10000 3.6 240 03:26 03.10.2019
673 Clouds 7 1036 75 10000 2.1 260 02:43 03.10.2019
674 Clouds 6 1035 81 10000 3.1 220 01:59 03.10.2019
675 Thunderstorm 7 1034 70 10000 6.7 220 01:37 03.10.2019
676 Clouds 9 1033 76 10000 3.1 150 00:51 03.10.2019
677 Clouds 9 1033 76 10000 3.1 150 00:23 03.10.2019
678 Clouds 11 1031 66 10000 6.7 90 23:44 02.10.2019
679 Clouds 11 1031 66 10000 6.7 90 23:22 02.10.2019
680 Clouds 9 1032 70 10000 6.2 90 22:46 02.10.2019
681 Clouds 9 1032 70 10000 6.2 90 22:23 02.10.2019
682 Clouds 10 1032 66 10000 5.7 70 21:58 02.10.2019
683 Clouds 10 1032 66 10000 5.7 70 21:58 02.10.2019
684 Clouds 10 1032 66 10000 5.7 70 21:39 02.10.2019
685 Clouds 10 1032 66 10000 5.7 70 21:20 02.10.2019
686 Clouds 12 1034 62 10000 4.6 80 20:57 02.10.2019
687 Clouds 12 1034 62 10000 4.6 80 20:38 02.10.2019
688 Clouds 12 1034 62 10000 4.6 80 20:20 02.10.2019
689 Thunderstorm 12 1034 62 10000 4.1 300 19:55 02.10.2019
690 Thunderstorm 12 1034 62 10000 4.1 300 19:37 02.10.2019
691 Thunderstorm 12 1034 62 10000 4.1 300 19:18 02.10.2019
692 Thunderstorm 13 1035 54 10000 3.6 270 18:56 02.10.2019
693 Clouds 13 1035 50 10000 3.6 260 18:36 02.10.2019
694 Clouds 13 1035 50 10000 3.6 260 18:18 02.10.2019
695 Clouds 10 1036 61 10000 2.6 300 17:42 02.10.2019
696 Clouds 10 1036 61 10000 2.6 300 17:21 02.10.2019
697 Clouds 9 1036 70 10000 2.6 280 16:58 02.10.2019
698 Clouds 9 1036 70 10000 2.6 280 16:39 02.10.2019
699 Clouds 7 1036 75 10000 2.6 200 16:20 02.10.2019
700 Clouds 7 1036 75 10000 2.6 200 15:57 02.10.2019
701 Clouds 7 1036 75 10000 2.6 200 15:37 02.10.2019
702 Clouds 7 1036 75 10000 2.6 200 15:18 02.10.2019
703 Clouds 7 1035 75 10000 1 0 14:45 02.10.2019
704 Clouds 7 1035 75 10000 1 0 14:27 02.10.2019
705 Smoke 3 1035 93 10000 1 0 13:57 02.10.2019
706 Mist 2 1034 100 2000 2.1 340 13:39 02.10.2019
707 Mist 2 1034 100 2000 2.1 340 13:21 02.10.2019
708 Fog 2 1034 100 500 3.6 240 12:40 02.10.2019
709 Clouds 3 1033 93 10000 1 0 12:22 02.10.2019
710 Clouds 3 1033 93 10000 1 0 12:22 02.10.2019
711 Clouds 3 1033 93 10000 1 0 11:59 02.10.2019
712 Clouds 3 1033 93 10000 1 0 11:41 02.10.2019
713 Clouds 3 1033 93 10000 1 0 11:20 02.10.2019
714 Rain 3 1033 93 4000 2.1 30 10:38 02.10.2019
715 Rain 3 1033 93 4000 2.1 30 10:19 02.10.2019
716 Fog 2 1034 93 4000 1 0 09:41 02.10.2019
717 Fog 2 1034 93 4000 1 0 09:20 02.10.2019
718 Snow 1 1034 100 4000 2.1 290 08:56 02.10.2019
719 Snow 1 1034 100 4000 2.1 290 08:56 02.10.2019
720 Snow 1 1034 100 4000 2.1 290 08:38 02.10.2019
721 Snow 1 1034 100 4000 2.1 290 08:19 02.10.2019
722 Fog 1 1035 90 4000 4.6 250 07:41 02.10.2019
723 Fog 1 1035 90 4000 4.6 250 07:22 02.10.2019
724 Thunderstorm 6 1035 87 4000 2.1 120 06:57 02.10.2019
725 Fog 6 1035 93 4000 4.6 110 05:56 02.10.2019
726 Fog 6 1035 93 4000 4.6 110 05:25 02.10.2019
727 Fog 6 1035 93 4000 4.6 110 05:25 02.10.2019
728 Rain 7 1034 87 4000 4.1 100 04:58 02.10.2019
729 Rain 8 1033 70 10000 3.6 220 03:53 02.10.2019
730 Rain 8 1033 70 10000 3.6 220 03:19 02.10.2019
731 Clouds 8 1032 65 10000 2.6 90 02:25 02.10.2019
732 Clouds 8 1032 65 10000 2.6 90 02:25 02.10.2019
733 Clouds 10 1031 46 10000 2.1 280 01:52 02.10.2019
734 Clouds 10 1030 53 10000 4.6 80 00:51 02.10.2019
735 Clouds 10 1030 53 10000 4.6 80 00:29 02.10.2019
736 Clouds 11 1030 42 10000 4.6 70 23:46 01.10.2019
737 Clouds 11 1030 42 10000 4.6 70 23:27 01.10.2019
738 Clouds 12 1030 54 10000 3.6 60 22:59 01.10.2019
739 Clouds 12 1030 54 10000 3.6 60 22:41 01.10.2019
740 Clouds 12 1030 54 10000 3.6 60 22:20 01.10.2019
741 Clouds 12 1031 46 10000 4.1 80 21:59 01.10.2019
742 Clouds 12 1031 46 10000 4.1 80 21:40 01.10.2019
743 Clouds 12 1031 46 10000 4.1 80 21:22 01.10.2019
744 Clouds 12 1031 46 10000 4.1 80 21:22 01.10.2019
745 Clouds 12 1032 46 10000 3.1 130 20:57 01.10.2019
746 Clouds 12 1032 46 10000 3.1 130 20:38 01.10.2019
747 Clouds 12 1032 46 10000 3.1 130 20:20 01.10.2019
748 Clouds 13 1034 34 10000 2.6 140 19:56 01.10.2019
749 Clouds 13 1034 34 10000 2.6 140 19:38 01.10.2019
750 Clouds 12 1034 46 10000 3.1 150 19:19 01.10.2019
751 Clouds 12 1034 46 10000 3.1 150 18:41 01.10.2019
752 Clouds 12 1034 46 10000 3.1 150 18:22 01.10.2019
753 Clouds 12 1035 32 9000 4.1 100 17:58 01.10.2019
754 Clouds 12 1035 32 9000 4.1 100 17:40 01.10.2019
755 Clouds 12 1035 32 9000 4.1 100 17:19 01.10.2019
756 Clouds 10 1035 57 8000 4.1 120 16:57 01.10.2019
757 Clouds 10 1035 57 8000 4.1 120 16:39 01.10.2019
758 Clouds 10 1035 57 8000 4.1 120 16:21 01.10.2019
759 Clouds 9 1035 61 8000 2.1 160 15:46 01.10.2019
760 Clouds 9 1035 61 8000 2.1 160 15:23 01.10.2019
761 Clouds 7 1034 65 8000 1 0 14:42 01.10.2019
762 Clouds 7 1034 65 8000 1 0 14:21 01.10.2019
763 Clouds 2 1033 80 8000 0.81 78.137 13:59 01.10.2019
764 Clouds 2 1033 80 8000 0.81 78.137 13:39 01.10.2019
765 Clouds 2 1033 80 8000 1.05 97.483 13:21 01.10.2019
766 Fog 1 1033 63 4000 1.05 97.483 12:58 01.10.2019
767 Fog 1 1033 63 4000 1.05 97.483 12:39 01.10.2019
768 Fog 1 1033 86 4000 0.36 241.161 12:19 01.10.2019
769 Fog 0 1032 86 4000 1.5 70 11:58 01.10.2019
770 Fog 0 1032 86 4000 1.5 70 11:38 01.10.2019
771 Fog 0 1032 86 4000 1.5 70 11:18 01.10.2019
772 Clouds 1 1032 69 10000 1.5 60 10:49 01.10.2019
773 Clouds 1 1032 69 10000 1.5 60 10:29 01.10.2019
774 Clouds 4 1033 64 10000 1 0 09:49 01.10.2019
775 Clouds 4 1033 64 10000 1 0 09:31 01.10.2019
776 Clouds 5 1033 60 10000 1.5 10 08:57 01.10.2019
777 Clouds 5 1033 60 10000 1.5 10 08:39 01.10.2019
778 Clouds 5 1033 60 10000 1.5 10 08:39 01.10.2019
779 Clouds 5 1033 60 10000 1.5 10 08:21 01.10.2019
780 Clouds 5 1033 65 10000 1 0 07:43 01.10.2019
781 Clouds 5 1033 65 10000 1 0 07:24 01.10.2019
782 Clouds 5 1034 77 10000 5.7 60 06:46 01.10.2019
783 Clouds 5 1034 65 10000 2.1 80 06:18 01.10.2019
784 Clouds 5 1034 65 10000 2.1 80 05:45 01.10.2019
785 Clouds 7 1033 56 10000 2.1 120 04:50 01.10.2019
786 Clouds 7 1033 56 10000 2.1 120 04:26 01.10.2019
787 Clouds 9 1032 57 10000 3.6 50 02:26 01.10.2019
788 Clouds 12 1031 32 10000 4.1 110 01:58 01.10.2019
789 Clouds 15 1031 28 10000 4.1 90 00:53 01.10.2019
790 Clouds 15 1031 28 10000 4.1 90 00:26 01.10.2019
791 Clouds 16 1031 26 10000 3.1 90 23:55 30.09.2019
792 Clouds 16 1031 26 10000 3.1 90 23:37 30.09.2019
793 Clouds 16 1031 26 10000 3.1 90 23:18 30.09.2019
794 Clouds 18 1032 18 10000 3.6 90 22:42 30.09.2019
795 Clouds 18 1032 18 10000 3.6 90 22:24 30.09.2019
796 Clouds 18 1033 17 10000 5.7 110 21:56 30.09.2019
797 Clouds 18 1033 17 10000 5.7 110 21:38 30.09.2019
798 Clouds 18 1033 17 10000 5.7 110 21:38 30.09.2019
799 Clouds 18 1033 17 10000 5.7 110 21:19 30.09.2019
800 Clouds 17 1034 14 10000 4.1 120 20:55 30.09.2019
801 Clouds 17 1034 14 10000 4.1 120 20:55 30.09.2019
802 Clouds 17 1034 14 10000 4.1 120 20:37 30.09.2019
803 Clouds 17 1034 14 10000 4.1 120 20:19 30.09.2019
804 Clouds 17 1035 17 10000 2.1 30 19:56 30.09.2019
805 Clouds 17 1035 17 10000 2.1 30 19:56 30.09.2019
806 Clouds 17 1035 17 10000 2.1 30 19:38 30.09.2019
807 Clouds 16 1036 21 10000 2.6 190 19:18 30.09.2019
808 Clouds 16 1036 21 10000 2.6 190 18:42 30.09.2019
809 Clouds 16 1036 21 10000 2.6 190 18:22 30.09.2019
810 Clouds 13 1037 28 10000 2.6 290 17:59 30.09.2019
811 Clouds 13 1037 28 10000 2.6 290 17:40 30.09.2019
812 Clouds 13 1037 28 10000 2.6 290 17:21 30.09.2019
813 Clouds 11 1038 37 10000 2.1 290 16:56 30.09.2019
814 Clouds 11 1038 37 10000 2.1 290 16:37 30.09.2019
815 Clouds 11 1038 37 10000 2.1 290 16:18 30.09.2019
816 Clouds 11 1038 37 10000 2.1 290 16:18 30.09.2019
817 Clouds 9 1037 42 10000 1 0 15:55 30.09.2019
818 Clouds 9 1037 42 10000 1 0 15:55 30.09.2019
819 Clouds 9 1037 42 10000 1 0 15:36 30.09.2019
820 Clouds 6 1037 48 10000 1 0 15:18 30.09.2019
821 Clouds 6 1037 48 10000 1 0 14:55 30.09.2019
822 Clouds 6 1037 48 10000 1 0 14:36 30.09.2019
823 Clouds 0 1036 61 10000 1.5 70 14:18 30.09.2019
824 Clouds 0 1036 61 10000 1.5 70 13:44 30.09.2019
825 Clouds -1 1036 68 10000 1.5 20 13:22 30.09.2019
826 Clouds -1 1036 68 10000 1.5 20 12:57 30.09.2019
827 Clouds -1 1036 68 10000 1.5 20 12:39 30.09.2019
828 Clouds -1 1035 74 10000 1 0 12:19 30.09.2019
829 Clouds -1 1035 74 10000 1 0 11:43 30.09.2019
830 Clouds -1 1035 74 10000 1 0 11:22 30.09.2019
831 Fog -1 1035 92 4000 2.1 80 10:59 30.09.2019
832 Fog -1 1035 92 4000 2.1 80 10:38 30.09.2019
833 Fog -1 1035 92 4000 2.1 80 10:18 30.09.2019
834 Clear 2 1016 79 0 0.72 16.425 09:57 30.09.2019
835 Clear 2 1016 79 0 0.72 16.425 09:38 30.09.2019
836 Clouds 1 1035 69 10000 1.5 330 09:18 30.09.2019
837 Clouds 1 1035 69 10000 1.5 330 08:46 30.09.2019
838 Clouds 1 1035 69 10000 1.5 330 08:27 30.09.2019
839 Clear 3 1036 74 10000 1 0 07:40 30.09.2019
840 Clear 4 1036 70 10000 1 0 07:19 30.09.2019
841 Clear 4 1036 70 10000 1 0 06:47 30.09.2019
842 Clear 4 1036 70 10000 1 0 06:27 30.09.2019
843 Clear 6 1036 60 10000 3.1 110 05:41 30.09.2019
844 Clouds 8 1035 33 10000 2.6 90 02:54 30.09.2019
845 Clouds 8 1035 33 10000 2.6 90 02:36 30.09.2019
846 Clouds 11 1035 8 10000 3.6 50 01:31 30.09.2019
847 Clouds 14 1034 5 10000 6.7 40 00:38 30.09.2019
848 Clouds 14 1034 5 10000 6.7 40 00:19 30.09.2019
849 Clouds 16 1035 5 10000 7.7 30 23:42 29.09.2019
850 Clouds 16 1035 5 10000 7.7 30 23:21 29.09.2019
851 Clouds 19 1035 8 10000 6.2 90 22:55 29.09.2019
852 Clouds 19 1035 8 10000 6.2 90 22:36 29.09.2019
853 Clouds 19 1035 8 10000 6.2 90 22:36 29.09.2019
854 Clouds 19 1035 8 10000 6.2 90 22:36 29.09.2019
855 Clouds 19 1035 14 10000 6.2 100 22:18 29.09.2019
856 Clouds 19 1035 14 10000 6.2 100 21:55 29.09.2019
857 Clouds 19 1035 14 10000 6.2 100 21:36 29.09.2019
858 Clouds 19 1035 14 10000 6.2 100 21:18 29.09.2019
859 Clouds 18 1036 23 10000 5.1 130 20:43 29.09.2019
860 Clouds 18 1036 23 10000 5.1 130 20:19 29.09.2019
861 Clouds 17 1037 25 10000 3.1 150 19:58 29.09.2019
862 Clouds 17 1037 25 10000 3.1 150 19:37 29.09.2019
863 Clear 16 1038 26 10000 2.1 130 19:19 29.09.2019
864 Clear 16 1038 26 10000 2.1 130 18:55 29.09.2019
865 Clear 16 1038 26 10000 2.1 130 18:37 29.09.2019
866 Clear 16 1038 26 10000 2.1 130 18:18 29.09.2019
867 Clear 14 1039 30 10000 2.6 240 17:55 29.09.2019
868 Clear 14 1039 30 10000 2.6 240 17:55 29.09.2019
869 Clear 14 1039 30 10000 2.6 240 17:55 29.09.2019
870 Clear 14 1039 30 10000 2.6 240 17:55 29.09.2019
871 Clear 14 1039 30 10000 2.6 240 17:37 29.09.2019
872 Clear 14 1039 30 10000 2.6 240 17:19 29.09.2019
873 Clouds 11 1039 43 10000 2.1 240 16:55 29.09.2019
874 Clouds 11 1039 43 10000 2.1 240 16:55 29.09.2019
875 Clouds 11 1039 43 10000 2.1 240 16:37 29.09.2019
876 Clouds 9 1039 22 8000 2.1 270 16:18 29.09.2019
877 Clouds 9 1039 22 8000 2.1 270 15:41 29.09.2019
878 Clouds 9 1039 56 8000 2.1 270 15:19 29.09.2019
879 Clouds 6 1038 75 6000 1 0 14:59 29.09.2019
880 Clouds 6 1038 75 6000 1 0 14:38 29.09.2019
881 Clouds 6 1038 75 6000 1 0 14:20 29.09.2019
882 Fog 2 1037 56 3000 1 0 13:57 29.09.2019
883 Fog 2 1037 56 3000 1 0 13:38 29.09.2019
884 Fog 0 1037 53 4000 2.6 70 13:18 29.09.2019
885 Fog 2 1037 53 3000 1 0 13:18 29.09.2019
886 Fog 0 1037 53 4000 2.6 70 12:56 29.09.2019
887 Fog 0 1037 53 4000 2.6 70 12:38 29.09.2019
888 Fog 0 1037 81 4000 2.6 70 12:20 29.09.2019
889 Fog 2 1037 93 4000 3.6 90 11:41 29.09.2019
890 Fog 2 1037 93 4000 3.6 90 11:20 29.09.2019
891 Fog 4 1037 86 4000 2.1 100 10:58 29.09.2019
892 Fog 4 1037 86 4000 2.1 100 10:40 29.09.2019
893 Fog 4 1037 86 4000 2.1 100 10:21 29.09.2019
894 Fog 4 1037 86 4000 2.1 100 10:21 29.09.2019
895 Fog 4 1036 93 4000 4.6 100 09:59 29.09.2019
896 Fog 4 1036 93 4000 4.6 100 09:41 29.09.2019
897 Fog 4 1036 93 4000 4.6 100 09:19 29.09.2019
898 Fog 4 1037 86 4000 4.6 110 08:43 29.09.2019
899 Fog 4 1037 86 4000 4.6 110 08:22 29.09.2019
900 Clouds 4 1037 86 10000 5.1 90 07:44 29.09.2019
901 Clouds 4 1037 86 10000 5.1 90 07:44 29.09.2019
902 Clear 4 1037 80 10000 5.1 90 07:26 29.09.2019
903 Clear 4 1037 80 10000 5.1 90 06:50 29.09.2019
904 Clear 4 1038 64 10000 4.1 80 05:59 29.09.2019
905 Clear 6 1038 52 10000 3.6 60 04:46 29.09.2019
906 Clear 6 1038 52 10000 3.6 60 04:23 29.09.2019
907 Clear 8 1037 28 10000 3.1 110 02:58 29.09.2019
908 Clear 8 1037 28 10000 3.1 110 02:19 29.09.2019
909 Clouds 12 1036 20 10000 4.1 120 01:42 29.09.2019
910 Clouds 15 1036 10 10000 6.7 80 00:55 29.09.2019
911 Clouds 15 1036 10 10000 6.7 80 00:36 29.09.2019
912 Clouds 15 1036 10 10000 6.7 80 00:18 29.09.2019
913 Clouds 18 1035 8 10000 7.7 80 23:37 28.09.2019
914 Clouds 18 1035 8 10000 7.7 80 23:19 28.09.2019
915 Clouds 19 1035 9 10000 6.7 80 22:40 28.09.2019
916 Clouds 19 1035 9 10000 6.7 80 22:21 28.09.2019
917 Clouds 19 1036 13 10000 5.7 110 21:57 28.09.2019
918 Clouds 19 1036 13 10000 5.7 110 21:39 28.09.2019
919 Clouds 19 1036 13 10000 5.7 110 21:21 28.09.2019
920 Clouds 19 1037 20 10000 4.6 120 20:57 28.09.2019
921 Clouds 19 1037 20 10000 4.6 120 20:38 28.09.2019
922 Clouds 18 1038 23 10000 5.1 120 20:18 28.09.2019
923 Clouds 18 1038 23 10000 5.1 120 19:56 28.09.2019
924 Clouds 18 1038 23 10000 5.1 120 19:56 28.09.2019
925 Clouds 18 1038 23 10000 5.1 120 19:38 28.09.2019
926 Clouds 18 1038 23 10000 5.1 120 19:19 28.09.2019
927 Clouds 16 1038 26 10000 6.7 130 18:54 28.09.2019
928 Clouds 16 1038 26 10000 6.7 130 18:36 28.09.2019
929 Clouds 16 1038 26 10000 6.7 130 18:18 28.09.2019
930 Clouds 15 1039 38 10000 5.7 130 17:42 28.09.2019
931 Clouds 15 1039 38 10000 5.7 130 17:22 28.09.2019
932 Clouds 12 1039 54 10000 3.6 80 16:58 28.09.2019
933 Clouds 12 1039 54 10000 3.6 80 16:38 28.09.2019
934 Clouds 12 1039 54 10000 3.6 80 16:20 28.09.2019
935 Clouds 10 1038 66 9000 4.1 90 15:41 28.09.2019
936 Clouds 10 1038 66 9000 4.1 90 15:22 28.09.2019
937 Clouds 7 1038 75 10000 3.1 110 14:56 28.09.2019
938 Clouds 7 1038 75 10000 3.1 110 14:56 28.09.2019
939 Clouds 7 1038 75 10000 3.1 110 14:37 28.09.2019
940 Clouds 7 1038 75 10000 3.1 110 14:19 28.09.2019
941 Fog 4 1037 93 3000 2.6 80 13:55 28.09.2019
942 Fog 4 1037 93 3000 2.6 80 13:55 28.09.2019
943 Fog 4 1037 93 3000 2.6 80 13:36 28.09.2019
944 Fog 2 1036 100 4000 3.6 80 13:18 28.09.2019
945 Fog 2 1036 100 4000 3.6 80 12:39 28.09.2019
946 Fog 3 1036 100 8000 2.6 80 12:18 28.09.2019
947 Fog 3 1036 100 8000 2.6 80 11:42 28.09.2019
948 Fog 3 1036 100 8000 2.6 80 11:21 28.09.2019
949 Fog 3 1036 100 6000 3.1 80 10:59 28.09.2019
950 Fog 3 1036 93 500 1 0 10:39 28.09.2019
951 Fog 4 1036 93 500 1 0 10:19 28.09.2019
952 Fog 3 1036 100 8000 3.6 60 09:41 28.09.2019
953 Fog 3 1036 100 8000 3.6 60 09:22 28.09.2019
954 Fog 3 1036 100 2000 3.1 70 08:48 28.09.2019
955 Fog 3 1036 100 2000 3.1 70 08:48 28.09.2019
956 Clouds 4 1036 93 10000 4.1 80 08:30 28.09.2019
957 Clouds 4 1037 93 10000 3.6 80 07:59 28.09.2019
958 Clouds 4 1037 93 10000 3.6 80 07:41 28.09.2019
959 Clouds 5 1037 86 10000 4.1 80 07:19 28.09.2019
960 Clouds 5 1037 86 10000 4.1 80 06:45 28.09.2019
961 Clouds 5 1037 86 10000 4.1 80 06:25 28.09.2019
962 Clear 5 1038 86 10000 4.6 70 05:41 28.09.2019
963 Clear 5 1038 86 10000 4.6 70 05:19 28.09.2019
964 Clear 6 1038 75 10000 4.1 70 04:36 28.09.2019
965 Clear 9 1037 49 10000 4.1 100 03:42 28.09.2019
966 Clouds 11 1037 37 10000 5.1 110 03:18 28.09.2019
967 Clouds 11 1037 37 10000 5.1 110 02:41 28.09.2019
968 Clouds 11 1037 37 10000 5.1 110 02:23 28.09.2019
969 Clouds 13 1036 28 10000 4.1 110 01:43 28.09.2019
970 Clouds 13 1036 28 10000 4.1 110 01:23 28.09.2019
971 Clouds 16 1036 14 10000 4.6 100 00:48 28.09.2019
972 Clouds 16 1036 14 10000 4.6 100 00:29 28.09.2019
973 Clouds 17 1036 12 10000 6.7 110 23:39 27.09.2019
974 Clouds 17 1036 12 10000 6.7 110 23:21 27.09.2019
975 Clouds 18 1036 10 10000 6.2 120 22:57 27.09.2019
976 Clouds 18 1036 10 10000 6.2 120 22:38 27.09.2019
977 Clouds 18 1036 10 10000 6.2 120 22:18 27.09.2019
978 Clouds 17 1037 11 10000 6.2 110 21:54 27.09.2019
979 Clouds 17 1037 11 10000 6.2 110 21:36 27.09.2019
980 Clouds 17 1037 11 10000 6.2 110 21:18 27.09.2019
981 Clouds 17 1038 14 10000 6.2 100 20:41 27.09.2019
982 Clouds 17 1038 14 10000 6.2 100 20:20 27.09.2019
983 Clouds 16 1039 18 10000 5.7 120 19:58 27.09.2019
984 Clouds 16 1039 18 10000 5.7 120 19:39 27.09.2019
985 Clouds 16 1039 18 10000 5.7 120 19:21 27.09.2019
986 Clouds 15 1040 26 10000 4.6 140 18:43 27.09.2019
987 Clouds 15 1040 26 10000 4.6 140 18:25 27.09.2019
988 Clouds 14 1041 28 10000 3.1 190 17:57 27.09.2019
989 Clouds 14 1041 28 10000 3.1 190 17:39 27.09.2019
990 Clouds 14 1041 28 10000 3.1 190 17:20 27.09.2019
991 Clouds 11 1041 43 10000 2.6 200 16:58 27.09.2019
992 Clouds 11 1041 43 10000 2.6 200 16:39 27.09.2019
993 Clouds 11 1041 43 10000 2.6 200 16:19 27.09.2019
994 Clouds 11 1041 43 10000 2.6 200 16:19 27.09.2019
995 Clouds 9 1041 49 9000 1 0 15:55 27.09.2019
996 Clouds 9 1041 49 9000 1 0 15:36 27.09.2019
997 Clouds 9 1041 49 9000 1 0 15:36 27.09.2019
998 Clouds 9 1041 49 9000 1 0 15:18 27.09.2019
999 Clouds 6 1040 70 6000 1 0 14:41 27.09.2019
1000 Clouds 6 1040 70 6000 1 0 14:41 27.09.2019
1001 Clouds 6 1040 70 6000 1 0 14:23 27.09.2019
1002 Clouds 3 1040 73 6000 1 0 13:58 27.09.2019
1003 Clouds 3 1040 73 6000 1 0 13:40 27.09.2019
1004 Clouds 3 1040 73 6000 1 0 13:21 27.09.2019
1005 Fog 1 1039 73 4000 2.1 60 12:56 27.09.2019
1006 Fog 1 1039 73 4000 2.1 60 12:37 27.09.2019
1007 Fog 3 1039 93 4000 1 0 12:18 27.09.2019
1008 Fog 3 1039 93 4000 1 0 11:39 27.09.2019
1009 Fog 3 1039 93 4000 1 0 11:39 27.09.2019
1010 Fog 3 1039 93 4000 1 0 11:20 27.09.2019
1011 Fog 3 1038 93 4000 2.1 110 10:54 27.09.2019
1012 Fog 3 1038 93 4000 2.1 110 10:36 27.09.2019
1013 Fog 3 1038 93 4000 2.1 110 10:18 27.09.2019
1014 Fog 2 1038 93 4000 3.6 80 09:41 27.09.2019
1015 Fog 2 1038 93 4000 3.6 80 09:20 27.09.2019
1016 Fog 4 1039 93 4000 5.1 90 08:42 27.09.2019
1017 Fog 4 1039 93 4000 5.1 90 08:22 27.09.2019
1018 Fog 4 1039 93 4000 3.1 100 07:58 27.09.2019
1019 Fog 4 1039 93 4000 3.1 100 07:39 27.09.2019
1020 Fog 5 1039 86 4000 4.6 100 07:20 27.09.2019
1021 Fog 5 1039 86 4000 4.6 100 06:40 27.09.2019
1022 Fog 5 1039 86 4000 4.6 100 06:22 27.09.2019
1023 Fog 5 1040 93 4000 3.6 120 05:49 27.09.2019
1024 Fog 5 1040 93 4000 3.6 120 05:30 27.09.2019
1025 Clouds 6 1038 81 10000 8.2 100 03:52 27.09.2019
1026 Clouds 9 1037 66 10000 6.7 100 01:57 27.09.2019
1027 Clouds 9 1037 66 10000 6.7 100 01:57 27.09.2019
1028 Clouds 9 1037 66 10000 6.7 100 01:34 27.09.2019
1029 Clouds 13 1036 51 10000 6.7 100 00:44 27.09.2019
1030 Clouds 16 1036 23 10000 6.2 100 23:58 26.09.2019
1031 Clouds 16 1036 23 10000 6.2 100 23:40 26.09.2019
1032 Clouds 16 1036 23 10000 6.2 100 23:20 26.09.2019
1033 Clouds 17 1036 21 10000 6.2 110 22:58 26.09.2019
1034 Clouds 17 1036 21 10000 6.2 110 22:40 26.09.2019
1035 Clouds 17 1036 23 10000 4.6 120 22:18 26.09.2019
1036 Clouds 17 1036 23 10000 4.6 120 21:59 26.09.2019
1037 Clouds 17 1036 23 10000 4.6 120 21:38 26.09.2019
1038 Clouds 17 1036 23 10000 4.6 120 21:19 26.09.2019
1039 Clouds 17 1036 23 10000 4.6 120 21:19 26.09.2019
1040 Clouds 16 1037 26 10000 3.1 170 20:58 26.09.2019
1041 Clouds 16 1037 26 10000 3.1 170 20:40 26.09.2019
1042 Clouds 16 1037 26 10000 3.1 170 20:21 26.09.2019
1043 Clouds 14 1039 30 9000 2.6 170 19:58 26.09.2019
1044 Clouds 14 1039 30 9000 2.6 170 19:39 26.09.2019
1045 Clouds 13 1040 27 9000 2.1 220 19:18 26.09.2019
1046 Clouds 13 1040 27 9000 2.1 220 18:44 26.09.2019
1047 Clouds 13 1040 41 9000 2.1 220 18:22 26.09.2019
1048 Clouds 13 1041 35 8000 2.1 160 17:59 26.09.2019
1049 Clouds 13 1041 35 8000 2.1 160 17:38 26.09.2019
1050 Clouds 13 1041 35 8000 2.1 160 17:19 26.09.2019
1051 Clouds 13 1041 35 8000 2.1 160 17:19 26.09.2019
1052 Clouds 11 1041 53 8000 2.1 230 16:56 26.09.2019
1053 Clouds 11 1041 53 8000 2.1 230 16:37 26.09.2019
1054 Clouds 11 1041 53 8000 2.1 230 16:37 26.09.2019
1055 Clouds 11 1041 53 8000 2.1 230 16:18 26.09.2019
1056 Clouds 9 1041 70 7000 2.1 150 15:42 26.09.2019
1057 Clouds 9 1041 70 7000 2.1 150 15:23 26.09.2019
1058 Clouds 6 1041 87 6000 2.6 70 14:59 26.09.2019
1059 Clouds 6 1041 87 6000 2.6 70 14:40 26.09.2019
1060 Clouds 6 1041 87 6000 2.6 70 14:21 26.09.2019
1061 Fog 4 1040 93 8000 2.1 60 13:57 26.09.2019
1062 Fog 4 1040 93 8000 2.1 60 13:39 26.09.2019
1063 Fog 4 1040 93 8000 2.1 60 13:39 26.09.2019
1064 Fog 4 1040 93 8000 2.1 60 13:19 26.09.2019
1065 Fog 3 1039 93 4000 2.1 60 12:43 26.09.2019
1066 Fog 3 1039 93 4000 2.1 60 12:22 26.09.2019
1067 Fog 3 1039 93 4000 2.1 60 11:57 26.09.2019
1068 Fog 3 1039 93 4000 2.1 60 11:39 26.09.2019
1069 Fog 3 1039 93 4000 2.1 60 11:19 26.09.2019
1070 Fog 3 1039 100 3000 1 0 10:42 26.09.2019
1071 Fog 3 1039 100 3000 1 0 10:23 26.09.2019
1072 Fog 1 1039 88 4000 1 0 09:57 26.09.2019
1073 Clear 5 1021 88 0 1.77 317.269 09:39 26.09.2019
1074 Clouds 3 1039 86 10000 1 0 09:18 26.09.2019
1075 Clouds 3 1039 86 10000 1 0 08:48 26.09.2019
1076 Clouds 3 1039 86 10000 1 0 08:30 26.09.2019
1077 Fog 4 1039 93 4000 1 0 07:47 26.09.2019
1078 Fog 5 1040 93 4000 3.1 80 07:22 26.09.2019
1079 Fog 5 1040 93 4000 3.1 80 06:52 26.09.2019
1080 Fog 5 1040 93 4000 3.1 80 06:28 26.09.2019
1081 Clouds 4 1040 80 10000 2.1 60 05:52 26.09.2019
1082 Clouds 4 1040 80 10000 2.1 60 05:26 26.09.2019
1083 Clouds 7 1039 70 10000 4.1 10 03:27 26.09.2019
1084 Rain 11 1038 57 8000 7.2 100 01:56 26.09.2019
1085 Rain 11 1038 57 8000 7.2 100 01:38 26.09.2019
1086 Clouds 12 1037 50 10000 4.6 40 01:19 26.09.2019
1087 Clouds 12 1037 50 10000 4.6 40 00:41 26.09.2019
1088 Clouds 12 1037 50 10000 4.6 40 00:21 26.09.2019
1089 Clouds 15 1036 41 10000 5.1 60 23:43 25.09.2019
1090 Clouds 15 1036 41 10000 5.1 60 23:19 25.09.2019
1091 Clouds 18 1036 22 10000 2.6 260 22:54 25.09.2019
1092 Clouds 18 1036 22 10000 2.6 260 22:36 25.09.2019
1093 Clouds 18 1036 22 10000 2.6 260 22:18 25.09.2019
1094 Clouds 18 1037 23 10000 2.6 330 21:55 25.09.2019
1095 Clouds 18 1037 23 10000 2.6 330 21:36 25.09.2019
1096 Clouds 18 1037 23 10000 2.6 330 21:18 25.09.2019
1097 Clouds 18 1037 23 10000 2.6 330 21:18 25.09.2019
1098 Clouds 17 1038 27 10000 4.6 280 20:55 25.09.2019
1099 Clouds 17 1038 27 10000 4.6 280 20:37 25.09.2019
1100 Clouds 17 1038 27 10000 4.6 280 20:18 25.09.2019
1101 Clouds 16 1040 39 10000 2.1 200 19:38 25.09.2019
1102 Clouds 15 1041 39 10000 2.6 300 19:20 25.09.2019
1103 Clouds 15 1041 39 10000 2.6 300 18:56 25.09.2019
1104 Clouds 15 1041 39 10000 2.6 300 18:56 25.09.2019
1105 Clouds 15 1041 39 10000 2.6 300 18:37 25.09.2019
1106 Clouds 14 1042 47 10000 3.1 290 18:18 25.09.2019
1107 Clouds 14 1042 47 10000 3.1 290 17:40 25.09.2019
1108 Clouds 14 1042 47 10000 3.1 290 17:21 25.09.2019
1109 Clouds 12 1042 47 10000 1 0 16:57 25.09.2019
1110 Clouds 12 1042 47 10000 1 0 16:37 25.09.2019
1111 Clouds 9 1042 47 8000 1 0 16:19 25.09.2019
1112 Clouds 9 1042 47 8000 1 0 15:42 25.09.2019
1113 Clouds 9 1042 64 8000 1 0 15:23 25.09.2019
1114 Clouds 7 1042 56 8000 2.1 20 14:59 25.09.2019
1115 Clouds 7 1042 56 8000 2.1 20 14:41 25.09.2019
1116 Clouds 7 1042 56 8000 2.1 20 14:21 25.09.2019
1117 Clouds 1 1041 64 8000 1.5 40 13:56 25.09.2019
1118 Clouds 1 1041 64 8000 1.5 40 13:56 25.09.2019
1119 Clouds 1 1041 68 8000 1.5 40 13:38 25.09.2019
1120 Clouds -1 1040 92 8000 2.1 70 13:19 25.09.2019
1121 Clouds -1 1040 92 8000 2.1 70 12:42 25.09.2019
1122 Clouds 0 1040 82 10000 1 0 12:23 25.09.2019
1123 Clouds 0 1040 82 10000 1 0 11:58 25.09.2019
1124 Clouds 0 1040 82 10000 1 0 11:40 25.09.2019
1125 Clouds 0 1040 82 10000 1 0 11:19 25.09.2019
1126 Clouds 3 1040 74 10000 1 0 10:45 25.09.2019
1127 Clouds 3 1040 74 10000 1 0 10:26 25.09.2019
1128 Fog 3 1040 86 4000 2.1 50 09:58 25.09.2019
1129 Fog 3 1040 86 4000 2.1 50 09:58 25.09.2019
1130 Fog 3 1040 86 4000 2.1 50 09:37 25.09.2019
1131 Fog 3 1040 86 4000 2.1 50 09:19 25.09.2019
1132 Fog 3 1041 93 4000 2.6 60 08:44 25.09.2019
1133 Fog 3 1041 93 4000 2.6 60 08:21 25.09.2019
1134 Fog 3 1041 93 4000 2.1 90 07:57 25.09.2019
1135 Fog 3 1041 93 4000 2.1 90 07:38 25.09.2019
1136 Clear 5 1041 86 10000 3.1 80 07:20 25.09.2019
1137 Clear 5 1041 86 10000 3.1 80 06:43 25.09.2019
1138 Clear 5 1041 86 10000 3.1 80 06:22 25.09.2019
1139 Clear 4 1041 62 10000 3.6 70 05:35 25.09.2019
1140 Clear 6 1041 62 10000 3.1 90 04:55 25.09.2019
1141 Clouds 9 1040 49 10000 4.1 50 02:19 25.09.2019
1142 Clouds 12 1039 37 10000 4.6 50 00:46 25.09.2019
1143 Clouds 12 1039 37 10000 4.6 50 00:26 25.09.2019
1144 Clouds 15 1039 30 10000 6.7 50 23:58 24.09.2019
1145 Clouds 15 1039 30 10000 6.7 50 23:39 24.09.2019
1146 Clouds 15 1039 30 10000 6.7 50 23:20 24.09.2019
1147 Clouds 17 1039 25 10000 7.7 70 22:39 24.09.2019
1148 Clouds 17 1039 25 10000 7.7 70 22:21 24.09.2019
1149 Clouds 18 1039 25 10000 6.7 70 21:58 24.09.2019
1150 Clouds 18 1039 25 10000 6.7 70 21:58 24.09.2019
1151 Clouds 18 1039 25 10000 6.7 70 21:37 24.09.2019
1152 Clouds 18 1039 25 10000 6.7 70 21:19 24.09.2019
1153 Clouds 18 1040 23 10000 5.7 120 20:58 24.09.2019
1154 Clouds 18 1040 23 10000 5.7 120 20:40 24.09.2019
1155 Clouds 18 1040 23 10000 5.7 120 20:21 24.09.2019
1156 Clouds 17 1041 20 10000 5.7 90 19:55 24.09.2019
1157 Clouds 17 1041 20 10000 5.7 90 19:36 24.09.2019
1158 Clouds 16 1043 23 10000 5.7 90 19:18 24.09.2019
1159 Clouds 16 1043 23 10000 5.7 90 18:42 24.09.2019
1160 Clouds 16 1043 23 10000 5.7 90 18:22 24.09.2019
1161 Clouds 16 1043 23 10000 5.7 90 18:22 24.09.2019
1162 Clouds 15 1044 24 10000 2.6 60 17:58 24.09.2019
1163 Clouds 15 1044 24 10000 2.6 60 17:39 24.09.2019
1164 Clouds 15 1044 24 10000 2.6 60 17:20 24.09.2019
1165 Clouds 11 1044 34 10000 2.1 240 16:58 24.09.2019
1166 Clouds 11 1044 34 10000 2.1 240 16:40 24.09.2019
1167 Clouds 11 1044 34 10000 2.1 240 16:19 24.09.2019
1168 Clear 9 1043 36 10000 2.6 270 15:42 24.09.2019
1169 Clear 9 1043 36 10000 2.6 270 15:23 24.09.2019
1170 Clear 8 1043 42 10000 1 0 14:45 24.09.2019
1171 Clear 8 1043 42 10000 1 0 14:20 24.09.2019
1172 Clear 1 1042 59 10000 1.5 60 13:57 24.09.2019
1173 Clear 1 1042 59 10000 1.5 60 13:38 24.09.2019
1174 Clear 1 1042 59 10000 1.5 60 13:20 24.09.2019
1175 Clear 2 1041 64 10000 2.1 340 12:40 24.09.2019
1176 Clear 0 1041 79 10000 1.69 136.221 12:21 24.09.2019
1177 Clear 0 1041 79 10000 1.69 136.221 11:54 24.09.2019
1178 Clear 0 1041 79 10000 1.69 136.221 11:36 24.09.2019
1179 Clear 0 1040 79 10000 1 0 11:18 24.09.2019
1180 Clear 0 1040 79 10000 1 0 10:39 24.09.2019
1181 Clear 0 1040 79 10000 1 0 10:21 24.09.2019
1182 Clear -1 1040 68 10000 2.1 90 09:47 24.09.2019
1183 Clear -1 1040 68 10000 2.1 90 09:28 24.09.2019
1184 Clear 0 1041 74 10000 2.6 110 08:58 24.09.2019
1185 Clear 0 1041 78 10000 2.6 110 08:40 24.09.2019
1186 Clear 0 1041 78 10000 2.6 110 08:40 24.09.2019
1187 Clear 0 1041 78 10000 2.6 110 08:22 24.09.2019
1188 Clear -1 1041 63 10000 3.6 70 07:57 24.09.2019
1189 Clear -1 1041 63 10000 3.6 70 07:38 24.09.2019
1190 Clear 1 1042 55 10000 3.1 80 07:19 24.09.2019
1191 Clear 1 1042 55 10000 3.1 80 06:37 24.09.2019
1192 Clear 1 1042 55 10000 3.1 80 06:37 24.09.2019
1193 Clear 3 1042 55 10000 2.1 80 06:18 24.09.2019
1194 Clear 3 1042 55 10000 2.1 80 05:21 24.09.2019
1195 Clear 4 1041 51 10000 2.1 80 03:46 24.09.2019
1196 Clear 4 1041 51 10000 2.1 80 03:22 24.09.2019
1197 Clear 7 1041 45 10000 2.6 50 02:43 24.09.2019
1198 Clouds 11 1040 37 10000 4.6 90 01:41 24.09.2019
1199 Clouds 14 1040 26 10000 6.2 110 00:41 24.09.2019
1200 Clouds 14 1040 26 10000 6.2 110 00:22 24.09.2019
1201 Clouds 17 1039 21 10000 5.1 80 23:41 23.09.2019
1202 Clouds 17 1039 21 10000 5.1 80 23:22 23.09.2019
1203 Clouds 17 1039 27 10000 7.2 100 22:40 23.09.2019
1204 Clouds 17 1039 27 10000 7.2 100 22:21 23.09.2019
1205 Clouds 17 1039 27 10000 7.2 100 22:21 23.09.2019
1206 Clouds 17 1040 33 10000 6.2 120 21:59 23.09.2019
1207 Clouds 17 1040 33 10000 6.2 120 21:41 23.09.2019
1208 Clouds 17 1040 33 10000 6.2 120 21:20 23.09.2019
1209 Clouds 17 1040 33 10000 4.1 140 20:58 23.09.2019
1210 Clouds 17 1040 33 10000 4.1 140 20:39 23.09.2019
1211 Clouds 17 1040 33 10000 4.1 140 20:18 23.09.2019
1212 Clouds 17 1040 33 10000 4.1 140 20:18 23.09.2019
1213 Clouds 16 1041 36 10000 2.6 160 19:40 23.09.2019
1214 Clouds 15 1043 38 10000 2.6 160 19:22 23.09.2019
1215 Clouds 15 1043 38 10000 2.6 160 18:58 23.09.2019
1216 Clouds 15 1043 38 10000 2.6 160 18:40 23.09.2019
1217 Clouds 15 1043 38 10000 2.6 160 18:40 23.09.2019
1218 Clouds 13 1043 47 9000 2.1 140 18:18 23.09.2019
1219 Clouds 13 1043 47 9000 2.1 140 17:56 23.09.2019
1220 Clouds 13 1043 47 9000 2.1 140 17:38 23.09.2019
1221 Clouds 13 1043 47 9000 2.1 140 17:19 23.09.2019
1222 Clouds 11 1044 53 8000 2.1 130 16:54 23.09.2019
1223 Clouds 11 1044 53 8000 2.1 130 16:36 23.09.2019
1224 Clouds 11 1044 53 8000 2.1 130 16:36 23.09.2019
1225 Clouds 9 1043 66 8000 1 0 16:18 23.09.2019
1226 Clouds 9 1043 66 8000 1 0 15:55 23.09.2019
1227 Clouds 9 1043 66 8000 1 0 15:36 23.09.2019
1228 Clouds 9 1043 66 8000 1 0 15:18 23.09.2019
1229 Clouds 6 1043 81 8000 1 0 14:39 23.09.2019
1230 Clouds 6 1043 81 8000 1 0 14:20 23.09.2019
1231 Clouds 0 1042 75 6000 1 0 13:58 23.09.2019
1232 Clouds 0 1042 75 6000 1 0 13:37 23.09.2019
1233 Fog -1 1041 92 4000 1 0 13:18 23.09.2019
1234 Fog -1 1041 92 4000 1 0 12:41 23.09.2019
1235 Fog -1 1041 92 4000 1 0 12:22 23.09.2019
1236 Fog 3 1041 93 4000 1 0 11:55 23.09.2019
1237 Fog 3 1041 93 4000 1 0 11:37 23.09.2019
1238 Fog 3 1040 93 4000 2.6 70 11:19 23.09.2019
1239 Fog 3 1040 93 4000 2.6 70 10:48 23.09.2019
1240 Fog 3 1040 100 4000 3.1 80 10:21 23.09.2019
1241 Fog 3 1040 100 4000 3.1 80 09:49 23.09.2019
1242 Fog 3 1040 100 4000 3.1 80 09:29 23.09.2019
1243 Fog 3 1041 100 4000 3.6 60 08:59 23.09.2019
1244 Fog 3 1041 100 4000 3.6 60 08:39 23.09.2019
1245 Fog 3 1041 100 4000 3.6 60 08:20 23.09.2019
1246 Fog 4 1042 93 4000 2.1 60 07:38 23.09.2019
1247 Clouds 6 1041 87 10000 2.1 120 07:20 23.09.2019
1248 Clouds 6 1041 87 10000 2.1 120 06:20 23.09.2019
1249 Clouds 6 1042 87 10000 2.6 110 05:38 23.09.2019
1250 Clouds 7 1041 75 10000 3.6 110 04:58 23.09.2019
1251 Clouds 9 1041 70 10000 2.6 150 04:00 23.09.2019
1252 Clouds 11 1039 40 10000 5.1 50 01:26 23.09.2019
1253 Thunderstorm 14 1039 44 10000 5.7 120 00:38 23.09.2019
1254 Clouds 15 1038 38 10000 6.2 110 00:18 23.09.2019
1255 Clouds 15 1038 38 10000 6.2 110 23:41 22.09.2019
1256 Clouds 15 1038 38 10000 6.2 110 23:22 22.09.2019
1257 Clouds 17 1038 29 10000 4.1 90 22:55 22.09.2019
1258 Clouds 17 1038 29 10000 4.1 90 22:37 22.09.2019
1259 Clouds 17 1039 34 10000 4.1 90 22:18 22.09.2019
1260 Clouds 17 1039 34 10000 4.1 90 21:42 22.09.2019
1261 Clouds 17 1039 30 10000 4.1 90 21:20 22.09.2019
1262 Clouds 16 1039 38 10000 4.1 140 20:45 22.09.2019
1263 Clouds 16 1039 38 10000 4.1 140 20:27 22.09.2019
1264 Clouds 17 1041 36 10000 4.1 110 19:57 22.09.2019
1265 Clouds 17 1041 36 10000 4.1 110 19:39 22.09.2019
1266 Clouds 15 1042 47 10000 4.1 120 19:20 22.09.2019
1267 Clouds 15 1042 47 10000 4.1 120 18:57 22.09.2019
1268 Clouds 15 1042 47 10000 4.1 120 18:37 22.09.2019
1269 Clouds 13 1042 54 10000 4.1 120 18:18 22.09.2019
1270 Clouds 13 1042 54 10000 4.1 120 17:45 22.09.2019
1271 Clouds 13 1042 54 10000 4.1 120 17:26 22.09.2019
1272 Clouds 11 1042 66 10000 3.1 120 16:56 22.09.2019
1273 Clouds 11 1042 66 10000 3.1 120 16:56 22.09.2019
1274 Clouds 11 1042 66 10000 3.1 120 16:56 22.09.2019
1275 Clouds 11 1042 66 10000 3.1 120 16:38 22.09.2019
1276 Clouds 11 1042 66 10000 3.1 120 16:19 22.09.2019
1277 Clouds 9 1042 76 10000 3.1 80 15:43 22.09.2019
1278 Clouds 9 1042 76 10000 3.1 80 15:25 22.09.2019
1279 Fog 6 1041 93 4000 4.6 100 14:55 22.09.2019
1280 Fog 6 1041 93 4000 4.6 100 14:36 22.09.2019
1281 Fog 6 1041 93 4000 4.6 100 14:36 22.09.2019
1282 Fog 6 1041 93 4000 2.6 100 14:18 22.09.2019
1283 Fog 6 1041 93 4000 2.6 100 13:41 22.09.2019
1284 Fog 6 1041 93 4000 2.6 100 13:41 22.09.2019
1285 Fog 3 1040 93 4000 2.6 80 13:23 22.09.2019
1286 Fog 3 1040 93 4000 2.6 80 12:56 22.09.2019
1287 Fog 3 1040 93 4000 2.6 80 12:38 22.09.2019
1288 Fog 3 1039 93 4000 3.6 80 12:18 22.09.2019
1289 Fog 3 1039 93 4000 3.6 80 11:43 22.09.2019
1290 -273 0 0 0 0 0 11:24 22.09.2019
1291 Fog 5 1039 93 4000 3.6 80 10:56 22.09.2019
1292 Fog 5 1039 93 4000 3.6 80 10:37 22.09.2019
1293 Fog 5 1039 93 4000 3.6 80 10:19 22.09.2019
1294 Fog 5 1039 93 4000 3.6 80 10:19 22.09.2019
1295 Fog 5 1039 93 4000 3.6 80 09:42 22.09.2019
1296 Fog 5 1039 93 4000 3.6 80 09:21 22.09.2019
1297 Fog 5 1040 93 4000 3.1 70 08:49 22.09.2019
1298 Fog 5 1040 93 4000 3.1 70 08:26 22.09.2019
1299 Fog 5 1040 100 4000 2.1 80 07:58 22.09.2019
1300 Fog 5 1040 100 4000 2.1 80 07:39 22.09.2019
1301 Fog 7 1040 93 3000 2.1 100 07:20 22.09.2019
1302 Fog 7 1040 93 3000 2.1 100 06:55 22.09.2019
1303 Fog 6 1040 100 4000 2.1 70 05:36 22.09.2019
1304 Clouds 7 1039 87 10000 3.1 70 03:49 22.09.2019
1305 Clouds 8 1039 81 10000 5.1 110 02:38 22.09.2019
1306 Clouds 8 1039 81 10000 5.1 110 02:20 22.09.2019
1307 Clouds 9 1038 76 10000 4.6 110 01:23 22.09.2019
1308 Clouds 11 1037 66 10000 3.6 90 00:37 22.09.2019
1309 Clouds 13 1037 54 10000 3.6 100 00:18 22.09.2019
1310 Clouds 13 1037 54 10000 3.6 100 23:40 21.09.2019
1311 Clouds 13 1037 54 10000 3.6 100 23:20 21.09.2019
1312 Clouds 13 1037 50 10000 1 0 22:39 21.09.2019
1313 Clouds 13 1037 50 10000 1 0 22:21 21.09.2019
1314 Rain 12 1038 66 10000 3.1 110 21:55 21.09.2019
1315 Rain 12 1038 66 10000 3.1 110 21:55 21.09.2019
1316 Rain 12 1038 66 10000 3.1 110 21:36 21.09.2019
1317 Clouds 16 1038 38 10000 3.6 30 21:18 21.09.2019
1318 Clouds 16 1038 38 10000 3.6 30 20:39 21.09.2019
1319 Clouds 16 1038 38 10000 3.6 30 20:21 21.09.2019
1320 Clouds 14 1040 44 10000 4.6 80 19:47 21.09.2019
1321 Clouds 14 1040 44 10000 4.6 80 19:23 21.09.2019
1322 Clouds 12 1040 54 8000 3.1 30 18:55 21.09.2019
1323 Clouds 12 1040 54 8000 3.1 30 18:37 21.09.2019
1324 Rain 9 1041 70 8000 4.6 30 18:18 21.09.2019
1325 Rain 9 1041 70 8000 4.6 30 17:40 21.09.2019
1326 Rain 9 1041 70 8000 4.6 30 17:20 21.09.2019
1327 Clouds 9 1040 76 7000 3.6 80 16:43 21.09.2019
1328 Clouds 9 1040 76 7000 3.6 80 16:24 21.09.2019
1329 Clouds 9 1040 76 6000 3.6 80 15:48 21.09.2019
1330 Clouds 9 1040 76 6000 3.6 80 15:25 21.09.2019
1331 Fog 8 1039 93 6000 2.6 80 14:51 21.09.2019
1332 Fog 8 1039 93 6000 2.6 80 14:32 21.09.2019
1333 Fog 6 1039 93 8000 1 0 13:58 21.09.2019
1334 Fog 6 1039 93 8000 1 0 13:40 21.09.2019
1335 Fog 6 1039 93 8000 1 0 13:40 21.09.2019
1336 Fog 6 1039 93 8000 1 0 13:22 21.09.2019
1337 Fog 6 1038 93 4000 1 0 12:57 21.09.2019
1338 Fog 6 1038 93 4000 1 0 12:38 21.09.2019
1339 Fog 5 1038 93 4000 1 0 12:20 21.09.2019
1340 Fog 5 1038 93 4000 1 0 11:44 21.09.2019
1341 Fog 5 1038 93 4000 1 0 11:24 21.09.2019
1342 Fog 5 1038 93 4000 1 0 11:24 21.09.2019
1343 Fog 6 1038 93 4000 1 0 10:55 21.09.2019
1344 Fog 6 1038 93 4000 1 0 10:36 21.09.2019
1345 Clouds 6 1019 87 0 0.55 278.73 10:18 21.09.2019
1346 Clouds 6 1019 87 0 0.55 278.73 09:40 21.09.2019
1347 Fog 6 1038 93 4000 1 0 09:21 21.09.2019
1348 Fog 6 1038 93 4000 1 0 08:52 21.09.2019
1349 Fog 6 1038 93 4000 1 0 08:29 21.09.2019
1350 Fog 6 1038 93 4000 2.1 130 07:43 21.09.2019
1351 Clouds 8 1038 61 10000 3.6 40 07:24 21.09.2019
1352 Clouds 8 1038 61 10000 3.6 40 06:58 21.09.2019
1353 Clouds 8 1038 61 10000 3.6 40 06:33 21.09.2019
1354 Clouds 8 1038 75 10000 4.6 60 05:36 21.09.2019
1355 Clouds 8 1038 75 10000 4.6 60 05:36 21.09.2019
1356 Clouds 9 1038 70 10000 4.1 110 04:37 21.09.2019
1357 Clouds 10 1038 61 10000 3.1 70 03:22 21.09.2019
1358 Clouds 11 1037 57 10000 2.1 50 02:21 21.09.2019
1359 Clouds 12 1037 50 10000 3.1 50 01:46 21.09.2019
1360 Rain 13 1036 47 10000 5.1 50 00:51 21.09.2019
1361 Rain 13 1036 47 10000 5.1 50 00:20 21.09.2019
1362 Clouds 14 1035 41 10000 3.1 40 23:46 20.09.2019
1363 Clouds 14 1035 41 10000 3.1 40 23:28 20.09.2019
1364 Clouds 15 1035 37 10000 3.6 70 22:42 20.09.2019
1365 Clouds 15 1035 37 10000 3.6 70 22:24 20.09.2019
1366 Clouds 16 1035 31 10000 4.1 110 21:57 20.09.2019
1367 Clouds 16 1035 31 10000 4.1 110 21:38 20.09.2019
1368 Clouds 16 1035 31 10000 4.1 110 21:20 20.09.2019
1369 Clouds 16 1037 29 8000 2.6 130 20:56 20.09.2019
1370 Clouds 16 1037 29 8000 2.6 130 20:37 20.09.2019
1371 Clouds 16 1038 27 8000 2.6 130 20:18 20.09.2019
1372 Clouds 16 1038 27 8000 2.6 130 19:45 20.09.2019
1373 Clouds 16 1038 27 8000 2.6 130 19:25 20.09.2019
1374 Clouds 15 1039 38 8000 2.6 230 18:58 20.09.2019
1375 Clouds 15 1039 38 8000 2.6 230 18:38 20.09.2019
1376 Clouds 15 1039 38 8000 2.6 230 18:38 20.09.2019
1377 Clouds 13 1039 31 8000 3.1 230 18:18 20.09.2019
1378 Clouds 13 1039 31 8000 3.1 230 17:45 20.09.2019
1379 Clouds 13 1039 31 8000 3.1 230 17:45 20.09.2019
1380 Clouds 13 1039 31 8000 3.1 230 17:45 20.09.2019
1381 Clouds 13 1039 31 8000 3.1 230 17:26 20.09.2019
1382 Clouds 11 1040 50 6000 2.6 260 16:43 20.09.2019
1383 Clouds 11 1040 50 6000 2.6 260 16:22 20.09.2019
1384 Clouds 9 1039 61 6000 3.1 250 15:58 20.09.2019
1385 Clouds 9 1039 61 6000 3.1 250 15:40 20.09.2019
1386 Clouds 9 1039 61 6000 3.1 250 15:22 20.09.2019
1387 Clouds 6 1038 70 8000 2.1 300 14:43 20.09.2019
1388 Clouds 8 1020 36 0 1.65 146.022 14:19 20.09.2019
1389 Clouds 8 1020 36 0 1.65 146.022 14:19 20.09.2019
1390 Clouds 8 1020 36 0 1.65 146.022 13:48 20.09.2019
1391 Fog 1 1037 47 8000 1.5 90 13:29 20.09.2019
1392 Fog 1 1037 47 8000 1.5 90 12:58 20.09.2019
1393 Fog 1 1037 47 8000 1.5 90 12:37 20.09.2019
1394 Fog 3 1036 93 4000 3.6 100 12:19 20.09.2019
1395 Fog 3 1036 93 4000 3.6 100 12:19 20.09.2019
1396 Fog 3 1036 93 4000 3.6 100 12:19 20.09.2019
1397 Fog 3 1036 93 4000 3.6 100 11:50 20.09.2019
1398 Fog 3 1036 93 4000 3.6 80 11:21 20.09.2019
1399 Fog 3 1036 93 4000 3.6 80 10:57 20.09.2019
1400 Fog 3 1036 93 4000 3.6 80 10:39 20.09.2019
1401 Fog 3 1036 93 4000 3.6 80 10:19 20.09.2019
1402 Fog 5 1036 93 4000 5.1 90 09:38 20.09.2019
1403 Fog 5 1036 93 4000 4.1 80 09:18 20.09.2019
1404 Fog 5 1036 93 4000 4.1 80 08:42 20.09.2019
1405 Fog 5 1036 93 4000 4.1 80 08:23 20.09.2019
1406 Fog 4 1037 100 4000 2.6 100 07:47 20.09.2019
1407 Clouds 6 1037 93 10000 4.1 90 07:28 20.09.2019
1408 Clouds 6 1037 93 10000 4.1 90 06:45 20.09.2019
1409 Clouds 6 1037 93 10000 4.1 90 06:25 20.09.2019
1410 Clouds 5 1037 86 10000 2.6 80 05:47 20.09.2019
1411 Clouds 10 1036 66 10000 3.6 130 03:42 20.09.2019
1412 Clouds 10 1036 66 10000 3.6 130 03:19 20.09.2019
1413 Clouds 12 1033 46 10000 4.6 100 01:45 20.09.2019
1414 Clouds 16 1033 17 10000 2.6 210 00:53 20.09.2019
1415 Clouds 16 1033 17 10000 2.6 210 00:25 20.09.2019
1416 Clouds 18 1033 17 10000 2.6 290 23:42 19.09.2019
1417 Clouds 18 1033 17 10000 2.6 290 23:19 19.09.2019
1418 Clouds 18 1033 17 10000 4.6 240 22:56 19.09.2019
1419 Clouds 18 1033 17 10000 4.6 240 22:37 19.09.2019
1420 Clouds 18 1033 17 10000 4.6 240 22:18 19.09.2019
1421 Clouds 18 1033 18 10000 5.1 280 21:55 19.09.2019
1422 Clouds 18 1033 18 10000 5.1 280 21:36 19.09.2019
1423 Clouds 17 1034 21 10000 5.1 260 21:18 19.09.2019
1424 Clouds 17 1034 21 10000 5.1 260 20:43 19.09.2019
1425 Clouds 16 1035 23 10000 5.1 260 20:22 19.09.2019
1426 Clouds 16 1035 23 10000 5.1 260 19:55 19.09.2019
1427 Clouds 16 1035 23 10000 5.1 260 19:37 19.09.2019
1428 Clouds 16 1035 23 10000 5.1 260 19:19 19.09.2019
1429 Clouds 15 1037 22 10000 3.1 280 18:42 19.09.2019
1430 Clouds 15 1037 22 10000 3.1 280 18:24 19.09.2019
1431 Clouds 15 1037 22 10000 3.1 280 18:24 19.09.2019
1432 Clouds 13 1037 28 10000 3.1 250 17:54 19.09.2019
1433 Clouds 13 1037 28 10000 3.1 250 17:36 19.09.2019
1434 Clouds 13 1037 28 10000 3.1 250 17:18 19.09.2019
1435 Clouds 12 1037 37 10000 2.1 260 16:42 19.09.2019
1436 Clouds 9 1037 57 8000 2.1 260 16:20 19.09.2019
1437 Clouds 9 1037 57 8000 2.1 260 15:55 19.09.2019
1438 Clouds 9 1037 57 8000 2.1 260 15:55 19.09.2019
1439 Clouds 9 1037 57 8000 2.1 260 15:55 19.09.2019
1440 Clouds 9 1037 57 8000 2.1 260 15:55 19.09.2019
1441 -273 0 0 0 0 0 15:55 19.09.2019
1442 Clouds 9 1037 57 8000 2.1 260 15:36 19.09.2019
1443 Clouds 9 1037 57 8000 2.1 260 15:18 19.09.2019
1444 Clouds 6 1036 65 8000 1 0 14:39 19.09.2019
1445 Clouds 6 1036 65 8000 1 0 14:21 19.09.2019
1446 Clouds 1 1035 80 8000 1 0 13:57 19.09.2019
1447 Clouds 1 1035 80 8000 1 0 13:37 19.09.2019
1448 Clouds 1 1035 80 8000 1 0 13:37 19.09.2019
1449 Clouds 1 1035 86 10000 1 0 13:18 19.09.2019
1450 Clouds 1 1035 86 10000 1 0 12:37 19.09.2019
1451 Clouds 1 1034 83 10000 1 0 12:18 19.09.2019
1452 Clouds 1 1034 83 10000 1 0 11:41 19.09.2019
1453 Clouds 1 1034 83 10000 1 0 11:22 19.09.2019
1454 Fog 1 1034 83 4000 2.1 70 10:58 19.09.2019
1455 Fog 1 1034 83 4000 2.1 70 10:39 19.09.2019
1456 Fog 1 1034 83 4000 2.1 70 10:21 19.09.2019
1457 Fog 2 1034 100 3000 2.6 80 09:56 19.09.2019
1458 Fog 2 1034 100 3000 2.6 80 09:38 19.09.2019
1459 Fog 2 1034 100 3000 2.6 80 09:19 19.09.2019
1460 Fog 3 1035 100 4000 3.6 70 08:49 19.09.2019
1461 Fog 3 1035 100 4000 3.6 70 08:23 19.09.2019
1462 Fog 4 1035 93 4000 2.1 90 07:44 19.09.2019
1463 Clouds 4 1036 93 10000 3.1 70 07:22 19.09.2019
1464 Clouds 4 1036 93 10000 3.1 70 06:51 19.09.2019
1465 Clouds 4 1036 93 10000 3.1 70 06:32 19.09.2019
1466 Clouds 7 1036 87 10000 2.6 110 05:53 19.09.2019
1467 Clouds 7 1036 87 10000 2.6 110 05:33 19.09.2019
1468 Clouds 7 1034 65 10000 2.1 50 03:54 19.09.2019
1469 Clouds 9 1034 61 10000 2.6 80 03:18 19.09.2019
1470 Clouds 11 1033 50 10000 4.1 50 01:34 19.09.2019
1471 Clouds 15 1032 22 10000 3.6 310 00:51 19.09.2019
1472 Clouds 15 1032 22 10000 3.6 310 00:26 19.09.2019
1473 Clouds 18 1033 17 10000 4.6 280 00:26 19.09.2019
1474 Clouds 18 1033 17 10000 4.6 280 23:43 18.09.2019
1475 Clouds 18 1033 17 10000 4.6 280 23:23 18.09.2019
1476 Clouds 18 1033 17 10000 6.2 290 22:55 18.09.2019
1477 Clouds 18 1033 17 10000 6.2 290 22:55 18.09.2019
1478 Clouds 19 1033 22 10000 3.6 50 22:37 18.09.2019
1479 Clouds 19 1034 14 10000 3.6 270 22:18 18.09.2019
1480 Clouds 19 1034 14 10000 3.6 270 21:55 18.09.2019
1481 Clouds 19 1034 14 10000 3.6 270 21:37 18.09.2019
1482 Clouds 18 1035 18 10000 2.1 230 21:18 18.09.2019
1483 Clouds 18 1035 18 10000 2.1 230 20:55 18.09.2019
1484 Clouds 18 1035 18 10000 2.1 230 20:37 18.09.2019
1485 Clouds 18 1036 17 10000 2.6 220 20:18 18.09.2019
1486 Clouds 18 1036 17 10000 2.6 220 19:41 18.09.2019
1487 Clouds 17 1037 20 10000 2.1 190 19:20 18.09.2019
1488 Clouds 17 1037 20 10000 2.1 190 18:57 18.09.2019
1489 Clouds 17 1037 20 10000 2.1 190 18:38 18.09.2019
1490 Clouds 15 1038 22 10000 2.1 270 18:19 18.09.2019
1491 Clouds 15 1038 22 10000 2.1 270 17:59 18.09.2019
1492 Clouds 15 1038 22 10000 2.1 270 17:40 18.09.2019
1493 Clouds 15 1038 22 10000 2.1 270 17:19 18.09.2019
1494 Clouds 15 1038 22 10000 2.1 270 17:19 18.09.2019
1495 Clouds 13 1038 28 8000 2.1 230 16:56 18.09.2019
1496 Clouds 13 1038 28 8000 2.1 230 16:38 18.09.2019
1497 Clouds 13 1038 28 8000 2.1 230 16:19 18.09.2019
1498 Clouds 11 1038 32 6000 1 0 15:56 18.09.2019
1499 Clouds 11 1038 32 6000 1 0 15:37 18.09.2019
1500 Clouds 7 1038 45 6000 0.47 305.153 15:19 18.09.2019
1501 Clouds 7 1038 45 6000 0.47 305.153 14:57 18.09.2019
1502 Clouds 7 1038 45 6000 0.47 305.153 14:39 18.09.2019
1503 Clouds 7 1038 45 6000 0.47 305.153 14:21 18.09.2019
1504 Clouds 7 1038 45 6000 0.47 305.153 14:21 18.09.2019
1505 Clouds 4 1037 48 10000 3.1 10 13:44 18.09.2019
1506 Clouds 4 1036 48 10000 2.6 10 13:19 18.09.2019
1507 Clouds 4 1036 48 10000 2.6 10 12:56 18.09.2019
1508 Clouds 4 1036 48 10000 2.6 10 12:37 18.09.2019
1509 Clouds 4 1036 51 10000 3.1 10 12:18 18.09.2019
1510 Clouds 4 1036 51 10000 3.1 10 11:40 18.09.2019
1511 Clouds 4 1036 51 10000 3.1 10 11:19 18.09.2019
1512 Clouds 5 1036 48 10000 3.1 10 10:41 18.09.2019
1513 Clouds 5 1036 48 10000 3.1 10 10:22 18.09.2019
1514 Clouds 2 1037 64 10000 2.1 50 09:59 18.09.2019
1515 Clouds 5 1017 72 0 0.46 301.459 09:41 18.09.2019
1516 Clouds 6 1037 45 10000 2.6 10 09:22 18.09.2019
1517 Clouds 6 1037 45 10000 2.6 10 08:55 18.09.2019
1518 Clouds 6 1037 45 10000 2.6 10 08:37 18.09.2019
1519 Clouds 6 1038 60 10000 3.1 20 08:18 18.09.2019
1520 Clouds 6 1038 60 10000 3.1 20 07:41 18.09.2019
1521 Clouds 6 1038 71 10000 3.6 30 07:23 18.09.2019
1522 Clouds 6 1038 71 10000 3.6 30 06:41 18.09.2019
1523 Clouds 6 1038 70 10000 2.1 230 05:54 18.09.2019
1524 Clouds 6 1038 70 10000 2.1 230 05:21 18.09.2019
1525 Clouds 8 1037 52 10000 2.6 40 03:23 18.09.2019
1526 Clouds 10 1037 42 10000 2.6 10 02:39 18.09.2019
1527 Clouds 13 1037 30 10000 3.6 300 01:34 18.09.2019
1528 Clouds 14 1037 30 10000 3.6 300 00:50 18.09.2019
1529 Clouds 15 1036 30 10000 3.6 290 00:25 18.09.2019
1530 Clouds 15 1036 30 10000 3.6 290 23:47 17.09.2019
1531 Clouds 15 1036 30 10000 3.6 290 23:23 17.09.2019
1532 Clouds 15 1037 28 10000 2.6 270 22:44 17.09.2019
1533 Clouds 15 1037 28 10000 2.6 270 22:24 17.09.2019
1534 Clouds 16 1037 31 10000 2.1 150 21:56 17.09.2019
1535 Clouds 16 1037 31 10000 2.1 150 21:37 17.09.2019
1536 Clouds 16 1038 29 10000 3.1 20 21:19 17.09.2019
1537 Clouds 16 1038 29 10000 3.1 20 21:19 17.09.2019
1538 Clouds 16 1038 29 10000 3.1 20 20:58 17.09.2019
1539 Clouds 16 1038 29 10000 3.1 20 20:58 17.09.2019
1540 Clouds 16 1038 29 10000 3.1 20 20:40 17.09.2019
1541 Clouds 16 1038 29 10000 3.1 20 20:40 17.09.2019
1542 Clouds 16 1038 29 10000 3.1 20 20:40 17.09.2019
1543 Clouds 16 1038 29 10000 3.1 20 20:22 17.09.2019
1544 Clouds 16 1038 29 10000 3.1 20 20:22 17.09.2019
1545 Clouds 16 1038 29 10000 3.1 20 20:22 17.09.2019
1546 Clouds 15 1039 30 10000 4.1 240 19:58 17.09.2019
1547 Clouds 15 1039 30 10000 4.1 240 19:58 17.09.2019
1548 Clouds 15 1039 30 10000 4.1 240 19:39 17.09.2019
1549 Clouds 15 1039 30 10000 4.1 240 19:20 17.09.2019
1550 Clouds 15 1039 30 10000 4.1 240 18:57 17.09.2019
1551 Clouds 13 1040 35 10000 3.6 260 18:38 17.09.2019
1552 Clouds 13 1040 35 10000 3.6 260 18:20 17.09.2019
1553 Clouds 13 1040 35 10000 3.6 260 18:20 17.09.2019
1554 Clouds 12 1041 37 10000 2.1 220 17:46 17.09.2019
1555 Clouds 12 1041 37 10000 2.1 220 17:46 17.09.2019
1556 Clouds 9 1041 28 10000 1 0 17:20 17.09.2019
1557 Clouds 9 1041 28 10000 1 0 16:58 17.09.2019
1558 Clouds 9 1041 28 10000 1 0 16:39 17.09.2019
1559 Clouds 9 1041 28 10000 1 0 16:21 17.09.2019
1560 Clouds 7 1041 65 9000 1 0 15:40 17.09.2019
1561 Clouds 7 1041 65 9000 1 0 15:20 17.09.2019
1562 Clouds 6 1040 81 8000 2.1 120 14:57 17.09.2019
1563 Clouds 6 1040 81 8000 2.1 120 14:39 17.09.2019
1564 Clouds 1 1040 62 10000 1.5 40 14:19 17.09.2019
1565 Clouds 1 1040 62 10000 1.5 40 13:57 17.09.2019
1566 Clouds 1 1040 62 10000 1.5 40 13:38 17.09.2019
1567 Clouds 1 1040 63 10000 1.5 40 13:20 17.09.2019
1568 Fog 3 1039 93 4000 2.6 100 12:42 17.09.2019
1569 Fog 3 1038 93 4000 2.1 70 12:19 17.09.2019
1570 Fog 3 1038 93 4000 2.1 70 11:45 17.09.2019
1571 Fog 3 1038 93 4000 2.1 70 11:26 17.09.2019
1572 Fog 3 1038 93 4000 3.1 110 10:59 17.09.2019
1573 Fog 3 1038 93 4000 3.1 110 10:40 17.09.2019
1574 Fog 3 1038 93 4000 3.1 110 10:20 17.09.2019
1575 Fog 3 1038 93 4000 4.1 80 09:54 17.09.2019
1576 Fog 3 1038 93 4000 4.1 80 09:36 17.09.2019
1577 Fog 3 1038 93 4000 4.1 80 09:18 17.09.2019
1578 Fog 2 1038 100 4000 2.6 70 08:43 17.09.2019
1579 Fog 2 1038 100 4000 2.6 70 08:24 17.09.2019
1580 Fog 3 1038 93 4000 2.6 100 07:42 17.09.2019
1581 Fog 3 1038 93 4000 2.6 100 07:42 17.09.2019
1582 Fog 3 1038 93 4000 2.6 100 07:24 17.09.2019
1583 Fog 3 1038 93 4000 2.6 100 07:24 17.09.2019
1584 Clouds 3 1039 86 10000 1 0 06:53 17.09.2019
1585 Clouds 3 1039 86 10000 1 0 06:29 17.09.2019
1586 Clear 4 1039 66 10000 4.1 70 05:53 17.09.2019
1587 Clear 5 1039 66 10000 3.1 80 04:46 17.09.2019
1588 Clear 6 1039 60 10000 3.1 80 03:34 17.09.2019
1589 Clouds 8 1039 49 10000 2.1 60 02:39 17.09.2019
1590 Clouds 11 1038 40 10000 4.6 70 01:34 17.09.2019
1591 Clouds 14 1037 30 10000 6.2 120 00:45 17.09.2019
1592 Clouds 16 1037 31 10000 4.6 120 23:41 16.09.2019
1593 Clouds 16 1037 31 10000 4.6 120 23:19 16.09.2019
1594 Clouds 17 1037 27 10000 6.2 110 22:56 16.09.2019
1595 Clouds 17 1037 27 10000 6.2 110 22:56 16.09.2019
1596 Clouds 17 1037 27 10000 6.2 110 22:38 16.09.2019
1597 Clouds 17 1037 27 10000 6.2 110 22:20 16.09.2019
1598 Clouds 17 1037 33 10000 4.1 140 21:55 16.09.2019
1599 Clouds 17 1037 33 10000 4.1 140 21:55 16.09.2019
1600 Clouds 17 1037 33 10000 4.1 140 21:36 16.09.2019
1601 Clouds 17 1039 33 10000 4.1 140 21:18 16.09.2019
1602 Clouds 17 1039 33 10000 4.1 140 20:40 16.09.2019
1603 Clouds 17 1039 33 10000 4.1 140 20:40 16.09.2019
1604 Clouds 17 1039 33 10000 4.1 140 20:40 16.09.2019
1605 Clouds 17 1039 33 10000 4.1 140 20:21 16.09.2019
1606 Clouds 15 1040 38 10000 4.1 140 19:57 16.09.2019
1607 Clouds 15 1040 38 10000 4.1 140 19:39 16.09.2019
1608 Clouds 14 1041 44 10000 3.6 130 19:19 16.09.2019
1609 Clouds 14 1041 44 10000 3.6 130 18:47 16.09.2019
1610 Clouds 14 1041 44 10000 3.6 130 18:28 16.09.2019
1611 Clouds 12 1042 46 10000 3.6 140 17:57 16.09.2019
1612 Clouds 12 1042 46 10000 3.6 140 17:57 16.09.2019
1613 Clouds 12 1042 46 10000 3.6 140 17:38 16.09.2019
1614 Clouds 12 1042 46 10000 3.6 140 17:19 16.09.2019
1615 Clouds 11 1042 57 10000 2.1 150 16:44 16.09.2019
1616 Clouds 11 1042 57 10000 2.1 150 16:22 16.09.2019
1617 Clouds 9 1041 70 9000 2.1 110 15:57 16.09.2019
1618 Clouds 9 1041 70 9000 2.1 110 15:39 16.09.2019
1619 Clouds 9 1041 70 9000 2.1 110 15:20 16.09.2019
1620 Clouds 7 1040 81 10000 2.1 70 14:58 16.09.2019
1621 Clouds 7 1040 81 10000 2.1 70 14:40 16.09.2019
1622 Clouds 7 1040 81 10000 2.1 70 14:20 16.09.2019
1623 Clouds 2 1038 93 10000 1.5 20 13:43 16.09.2019
1624 Clouds 0 1038 69 10000 1.5 60 13:22 16.09.2019
1625 Clouds 0 1038 69 10000 1.5 60 12:57 16.09.2019
1626 Clouds 0 1038 69 10000 1.5 60 12:38 16.09.2019
1627 Clouds 0 1037 83 10000 1.5 30 12:19 16.09.2019
1628 Clouds 0 1037 83 10000 1.5 30 11:45 16.09.2019
1629 Clouds 0 1037 83 10000 1.5 30 11:23 16.09.2019
1630 Clouds 1 1037 100 10000 1.5 20 10:56 16.09.2019
1631 Clouds 1 1037 100 10000 1.5 20 10:37 16.09.2019
1632 Clouds 1 1037 100 10000 1.5 20 10:18 16.09.2019
1633 Clouds 3 1037 93 1200 1 0 09:41 16.09.2019
1634 Clouds 3 1037 93 1200 1 0 09:21 16.09.2019
1635 Clouds 3 1038 93 10000 1.42 353.267 08:53 16.09.2019
1636 Clouds 3 1038 93 10000 1.01 22.17 08:34 16.09.2019
1637 Clouds 4 1039 86 10000 1.5 10 07:59 16.09.2019
1638 Clouds 4 1039 86 10000 1.5 10 07:40 16.09.2019
1639 Clouds 4 1040 86 10000 1 0 07:20 16.09.2019
1640 Clouds 4 1040 86 10000 1 0 06:49 16.09.2019
1641 Clouds 4 1040 86 10000 1 0 06:31 16.09.2019
1642 Clouds 3 1040 93 10000 2.1 50 05:57 16.09.2019
1643 Clouds 3 1040 93 10000 2.1 50 05:39 16.09.2019
1644 Clouds 6 1039 81 10000 1.5 240 04:57 16.09.2019
1645 Clouds 28 1007 54 10000 5.1 350 03:35 16.09.2019
1646 Clouds 10 1037 53 10000 3.1 300 00:57 16.09.2019
1647 Clouds 10 1037 53 10000 3.1 300 00:57 16.09.2019
1648 Clouds 10 1037 53 10000 3.1 300 00:36 16.09.2019
1649 Thunderstorm 10 1036 53 10000 6.7 10 00:18 16.09.2019
1650 Thunderstorm 10 1036 53 10000 6.7 10 23:38 15.09.2019
1651 Thunderstorm 10 1036 53 10000 6.7 10 23:19 15.09.2019
1652 Clouds 13 1036 50 10000 4.6 30 22:39 15.09.2019
1653 Clouds 15 1036 38 10000 2.1 70 22:20 15.09.2019
1654 Clouds 15 1036 38 10000 2.1 70 21:56 15.09.2019
1655 Clouds 15 1036 38 10000 2.1 70 21:38 15.09.2019
1656 Clouds 15 1036 38 10000 2.1 70 21:38 15.09.2019
1657 Clouds 15 1038 37 10000 3.1 170 21:19 15.09.2019
1658 Clouds 15 1038 36 10000 3.1 170 20:45 15.09.2019
1659 Clouds 15 1038 36 10000 3.1 170 20:26 15.09.2019
1660 Clouds 15 1038 36 10000 3.1 170 20:26 15.09.2019
1661 Clouds 15 1039 41 10000 2.6 140 19:56 15.09.2019
1662 Clouds 15 1039 41 10000 2.6 140 19:37 15.09.2019
1663 Clouds 14 1040 41 10000 2.6 240 19:19 15.09.2019
1664 Clouds 14 1040 41 10000 2.6 240 18:40 15.09.2019
1665 Clouds 13 1040 47 10000 1 0 18:20 15.09.2019
1666 Clouds 13 1040 47 10000 1 0 17:43 15.09.2019
1667 Clouds 13 1040 47 10000 1 0 17:22 15.09.2019
1668 Clouds 11 1041 53 10000 1 0 16:58 15.09.2019
1669 Clouds 11 1041 53 10000 1 0 16:40 15.09.2019
1670 Clouds 11 1041 53 10000 1 0 16:40 15.09.2019
1671 Clouds 11 1041 53 10000 1 0 16:21 15.09.2019
1672 Clouds 9 1040 61 10000 1 0 15:56 15.09.2019
1673 Clouds 9 1040 61 10000 1 0 15:56 15.09.2019
1674 Clouds 9 1040 61 10000 1 0 15:36 15.09.2019
1675 Clouds 5 1039 75 10000 0.27 331.597 15:18 15.09.2019
1676 Clouds 5 1039 75 10000 0.27 331.597 14:42 15.09.2019
1677 Clouds 5 1039 75 10000 0.27 331.597 14:23 15.09.2019
1678 Clouds 0 1038 69 10000 1.5 10 13:55 15.09.2019
1679 Clouds 0 1038 69 10000 1.5 10 13:37 15.09.2019
1680 Clouds 3 1038 69 10000 2.1 10 13:18 15.09.2019
1681 Clouds 3 1038 69 10000 2.1 10 12:40 15.09.2019
1682 Clouds 3 1038 69 10000 2.1 10 12:40 15.09.2019
1683 Clouds 1 1037 88 10000 1.5 20 12:22 15.09.2019
1684 Clouds 1 1037 88 10000 1.5 20 11:43 15.09.2019
1685 Clouds 1 1037 88 10000 1.5 20 11:24 15.09.2019
1686 Clouds 0 1037 88 10000 1 0 10:59 15.09.2019
1687 Clouds 0 1037 88 10000 1 0 10:40 15.09.2019
1688 Clouds 0 1037 88 10000 1 0 10:21 15.09.2019
1689 Clouds 2 1038 93 10000 1.5 30 09:44 15.09.2019
1690 Clouds 2 1038 93 10000 1.5 30 09:21 15.09.2019
1691 Fog 3 1038 100 4000 1.5 290 08:59 15.09.2019
1692 Fog 3 1038 100 4000 1.5 290 08:59 15.09.2019
1693 Fog 3 1038 100 4000 1.5 290 08:40 15.09.2019
1694 Fog 3 1039 93 3000 1 0 08:19 15.09.2019
1695 Fog 3 1039 93 3000 1 0 07:46 15.09.2019
1696 Clouds 3 1039 100 10000 1 0 06:45 15.09.2019
1697 Clouds 3 1039 100 10000 1 0 06:27 15.09.2019
1698 Clouds 7 1039 81 10000 3.1 130 03:20 15.09.2019
1699 Clouds 8 1038 75 10000 3.1 90 02:20 15.09.2019
1700 Clouds 8 1038 75 10000 3.1 90 01:36 15.09.2019
1701 Clouds 8 1038 75 10000 3.1 90 01:36 15.09.2019
1702 Clouds 10 1036 66 10000 4.1 90 00:57 15.09.2019
1703 Clouds 10 1036 66 10000 4.1 90 00:57 15.09.2019
1704 Clouds 10 1036 66 10000 4.1 90 00:37 15.09.2019
1705 Clouds 12 1036 54 10000 4.6 70 00:18 15.09.2019
1706 Clouds 12 1036 54 10000 4.6 70 23:55 14.09.2019
1707 Clouds 12 1036 54 10000 4.6 70 23:37 14.09.2019
1708 Clouds 13 1036 50 10000 5.7 50 23:19 14.09.2019
1709 Clouds 13 1036 50 10000 5.7 50 22:55 14.09.2019
1710 Clouds 13 1036 50 10000 5.7 50 22:37 14.09.2019
1711 Clouds 13 1036 50 10000 5.7 50 22:18 14.09.2019
1712 Thunderstorm 11 1037 62 10000 4.6 60 21:40 14.09.2019
1713 Thunderstorm 11 1037 62 10000 4.6 60 21:20 14.09.2019
1714 Clouds 12 1038 58 10000 3.6 90 20:57 14.09.2019
1715 Clouds 12 1038 58 10000 3.6 90 20:38 14.09.2019
1716 Clouds 12 1038 58 10000 3.6 90 20:20 14.09.2019
1717 Clouds 11 1039 62 10000 3.1 120 19:46 14.09.2019
1718 Clouds 11 1040 66 10000 3.6 130 19:22 14.09.2019
1719 Clouds 11 1040 66 10000 3.6 130 18:57 14.09.2019
1720 Clouds 11 1040 66 10000 3.6 130 18:38 14.09.2019
1721 Clouds 11 1040 66 10000 3.6 130 18:38 14.09.2019
1722 Clouds 10 1041 71 10000 3.1 110 18:19 14.09.2019
1723 Clouds 10 1041 71 10000 3.1 110 17:44 14.09.2019
1724 Clouds 10 1041 71 10000 3.1 110 17:23 14.09.2019
1725 Clouds 8 1041 75 6000 3.1 100 16:50 14.09.2019
1726 Clouds 8 1041 75 6000 3.1 100 16:29 14.09.2019
1727 Fog 6 1040 93 4000 4.1 90 15:59 14.09.2019
1728 Fog 6 1040 93 4000 4.1 90 15:40 14.09.2019
1729 Fog 6 1040 93 4000 4.1 90 15:21 14.09.2019
1730 Fog 5 1040 93 3000 3.1 90 14:44 14.09.2019
1731 Fog 4 1040 93 4000 2.6 80 14:19 14.09.2019
1732 Fog 4 1040 93 4000 2.6 80 13:55 14.09.2019
1733 Fog 4 1040 93 4000 2.6 80 13:37 14.09.2019
1734 Fog 4 1039 93 3000 4.1 80 13:18 14.09.2019
1735 Fog 4 1039 93 3000 4.1 80 12:40 14.09.2019
1736 Fog 4 1038 100 4000 2.6 90 12:18 14.09.2019
1737 Fog 4 1038 100 4000 2.6 90 11:40 14.09.2019
1738 Fog 4 1038 100 800 2.1 100 11:20 14.09.2019
1739 Fog 4 1038 100 800 2.1 100 10:39 14.09.2019
1740 Fog 4 1038 100 800 2.1 100 10:21 14.09.2019
1741 Fog 5 1038 93 3000 2.6 90 09:57 14.09.2019
1742 Fog 5 1038 93 3000 2.6 90 09:39 14.09.2019
1743 Fog 5 1038 93 3000 2.6 90 09:19 14.09.2019
1744 Fog 4 1039 100 4000 1 0 08:47 14.09.2019
1745 Fog 4 1039 100 4000 1 0 08:25 14.09.2019
1746 Fog 5 1039 93 2000 2.6 60 07:48 14.09.2019
1747 Fog 5 1039 93 2000 2.6 60 07:28 14.09.2019
1748 Fog 5 1040 93 4000 2.1 120 06:52 14.09.2019
1749 Fog 5 1040 93 4000 2.1 120 06:28 14.09.2019
1750 Fog 5 1040 93 4000 4.1 100 05:26 14.09.2019
1751 Fog 6 1039 93 4000 4.1 110 03:46 14.09.2019
1752 Fog 5 1038 100 4000 4.1 100 02:54 14.09.2019
1753 Fog 5 1038 100 4000 4.1 100 02:54 14.09.2019
1754 Clouds 6 1037 93 10000 5.1 110 01:52 14.09.2019
1755 Clouds 6 1037 93 10000 5.1 110 01:23 14.09.2019
1756 Clouds 8 1037 81 10000 5.1 120 00:58 14.09.2019
1757 Clouds 8 1037 81 10000 5.1 120 00:38 14.09.2019
1758 Clouds 11 1036 66 10000 5.7 70 00:20 14.09.2019
1759 Clouds 11 1036 66 10000 5.7 70 23:38 13.09.2019
1760 Clouds 11 1036 66 10000 5.7 70 23:19 13.09.2019
1761 Clouds 11 1037 66 10000 5.1 100 22:58 13.09.2019
1762 Clouds 11 1037 66 10000 5.1 100 22:38 13.09.2019
1763 Clouds 11 1037 66 10000 5.1 100 22:38 13.09.2019
1764 Clouds 11 1037 66 10000 5.1 100 22:20 13.09.2019
1765 Clouds 10 1038 76 10000 5.1 80 21:42 13.09.2019
1766 Clouds 10 1038 76 10000 5.1 80 21:20 13.09.2019
1767 Rain 7 1039 87 8000 3.1 70 20:59 13.09.2019
1768 Rain 7 1039 87 8000 3.1 70 20:40 13.09.2019
1769 Clouds 9 1040 76 6000 2.1 90 20:21 13.09.2019
1770 Clouds 9 1040 76 6000 2.1 90 19:56 13.09.2019
1771 Clouds 9 1040 76 6000 2.1 90 19:37 13.09.2019
1772 Clouds 9 1040 76 6000 2.1 90 19:37 13.09.2019
1773 Clouds 7 1040 81 6000 2.1 180 19:19 13.09.2019
1774 Clouds 7 1040 81 6000 2.1 180 18:55 13.09.2019
1775 Clouds 7 1040 81 6000 2.1 180 18:36 13.09.2019
1776 Fog 6 1041 93 8000 3.1 140 18:18 13.09.2019
1777 Fog 6 1041 93 8000 3.1 140 17:38 13.09.2019
1778 Fog 6 1041 93 8000 3.1 140 17:18 13.09.2019
1779 Clouds 6 1041 87 6000 2.6 100 16:41 13.09.2019
1780 Clouds 6 1041 87 6000 2.6 100 16:20 13.09.2019
1781 Clouds 6 1041 87 6000 2.6 100 16:20 13.09.2019
1782 Clouds 5 1041 86 6000 2.6 130 15:46 13.09.2019
1783 Clouds 5 1041 86 6000 2.6 130 15:27 13.09.2019
1784 Mist 3 1040 93 4000 1 0 14:57 13.09.2019
1785 Mist 3 1040 93 4000 1 0 14:39 13.09.2019
1786 Mist 3 1040 93 4000 1 0 14:19 13.09.2019
1787 Fog 2 1039 100 4000 1 0 13:45 13.09.2019
1788 Fog 2 1039 100 4000 1 0 13:23 13.09.2019
1789 Fog 2 1038 100 4000 1 0 12:54 13.09.2019
1790 Fog 2 1038 100 4000 1 0 12:36 13.09.2019
1791 Rain 1 1038 100 4000 1 0 12:18 13.09.2019
1792 Rain 1 1038 100 4000 1 0 11:54 13.09.2019
1793 Rain 1 1038 100 4000 1 0 11:18 13.09.2019
1794 Rain 2 1038 100 4000 2.1 260 10:37 13.09.2019
1795 Rain 2 1038 100 4000 2.1 260 10:19 13.09.2019
1796 Fog 2 1037 100 4000 2.6 210 09:44 13.09.2019
1797 Fog 2 1037 100 4000 2.6 210 09:44 13.09.2019
1798 Fog 2 1037 100 4000 2.6 210 09:23 13.09.2019
1799 Fog 3 1038 93 4000 3.6 200 08:58 13.09.2019
1800 Fog 3 1038 93 4000 3.6 200 08:40 13.09.2019
1801 Fog 3 1038 93 4000 3.6 200 08:20 13.09.2019
1802 Rain 5 1038 100 4000 5.1 200 07:43 13.09.2019
1803 Rain 5 1038 100 4000 5.1 200 07:24 13.09.2019
1804 Fog 5 1038 100 3000 3.1 140 06:39 13.09.2019
1805 Fog 5 1037 100 800 5.1 110 05:39 13.09.2019
1806 Fog 5 1038 100 3000 4.6 120 04:34 13.09.2019
1807 Fog 5 1037 100 2000 4.6 110 03:33 13.09.2019
1808 Fog 6 1036 93 3000 4.1 110 02:20 13.09.2019
1809 Fog 6 1035 93 4000 5.1 100 01:38 13.09.2019
1810 Fog 7 1034 87 4000 4.1 110 00:59 13.09.2019
1811 Fog 7 1034 87 4000 4.1 110 00:36 13.09.2019
1812 Fog 7 1034 87 4000 5.1 90 23:54 12.09.2019
1813 Fog 7 1034 87 4000 5.1 90 23:30 12.09.2019
1814 Fog 7 1034 93 2000 7.2 90 22:58 12.09.2019
1815 Fog 7 1034 93 2000 7.2 90 22:40 12.09.2019
1816 Fog 7 1034 93 2000 7.2 90 22:22 12.09.2019
1817 Clouds 5 1035 93 6000 6.2 100 21:56 12.09.2019
1818 Clouds 5 1035 93 6000 6.2 100 21:37 12.09.2019
1819 Clouds 6 1035 93 6000 7.2 90 21:19 12.09.2019
1820 Clouds 7 1036 87 10000 5.1 100 20:44 12.09.2019
1821 Clouds 7 1036 87 10000 5.1 100 20:23 12.09.2019
1822 Rain 7 1037 87 4000 5.1 80 19:58 12.09.2019
1823 Rain 7 1037 87 4000 5.1 80 19:39 12.09.2019
1824 Clouds 9 1038 76 6000 2.6 100 19:19 12.09.2019
1825 Clouds 9 1038 76 6000 2.6 100 18:56 12.09.2019
1826 Clouds 9 1038 76 6000 2.6 100 18:36 12.09.2019
1827 Clouds 8 1038 81 6000 4.6 110 18:18 12.09.2019
1828 Clouds 8 1038 81 6000 4.6 110 17:40 12.09.2019
1829 Clouds 8 1038 81 6000 4.6 110 17:20 12.09.2019
1830 Clouds 8 1038 81 6000 4.6 110 17:20 12.09.2019
1831 Fog 5 1039 93 4000 4.1 90 16:56 12.09.2019
1832 Fog 5 1039 93 4000 4.1 90 16:37 12.09.2019
1833 Fog 6 1039 93 1500 4.6 80 16:19 12.09.2019
1834 Clouds 5 1039 93 6000 2.6 100 15:41 12.09.2019
1835 Clouds 5 1039 93 6000 2.6 100 15:23 12.09.2019
1836 Rain 3 1038 93 8000 1 0 14:45 12.09.2019
1837 Rain 3 1038 93 8000 1 0 14:22 12.09.2019
1838 Rain 3 1038 93 8000 1 0 13:58 12.09.2019
1839 Rain 3 1038 93 8000 1 0 13:37 12.09.2019
1840 Rain 3 1038 93 8000 1 0 13:37 12.09.2019
1841 Rain 3 1038 93 8000 1 0 13:18 12.09.2019
1842 Clouds 2 1037 93 10000 2.1 200 12:44 12.09.2019
1843 Clouds 1 1037 89 10000 1.5 70 12:19 12.09.2019
1844 -273 0 0 0 0 0 11:55 12.09.2019
1845 Clouds 1 1037 89 10000 1.5 70 11:37 12.09.2019
1846 Clouds 1 1037 89 3000 1 0 11:19 12.09.2019
1847 Clouds 1 1037 89 3000 1 0 10:44 12.09.2019
1848 Clouds 1 1037 89 3000 1 0 10:24 12.09.2019
1849 Rain 2 1037 93 6000 4.6 220 09:44 12.09.2019
1850 Rain 2 1037 93 6000 4.6 220 09:23 12.09.2019
1851 Fog 6 1036 93 4000 2.6 110 08:58 12.09.2019
1852 Fog 6 1036 93 4000 2.6 110 08:39 12.09.2019
1853 Fog 6 1036 93 4000 2.6 110 08:21 12.09.2019
1854 Fog 6 1037 93 3000 3.6 110 07:39 12.09.2019
1855 Fog 6 1037 93 4000 4.1 130 07:19 12.09.2019
1856 Fog 6 1037 93 4000 4.1 130 06:50 12.09.2019
1857 Fog 6 1037 93 4000 4.1 130 06:50 12.09.2019
1858 Fog 6 1037 93 4000 3.6 130 06:19 12.09.2019
1859 Fog 6 1038 93 800 4.1 120 05:48 12.09.2019
1860 Fog 6 1038 93 800 4.1 120 05:27 12.09.2019
1861 Fog 6 1036 93 4000 4.6 110 04:34 12.09.2019
1862 Clouds 12 1034 40 6000 6.2 100 01:48 12.09.2019
1863 Clouds 12 1034 40 10000 5.7 280 01:30 12.09.2019
1864 Clouds 12 1034 40 10000 5.7 280 00:51 12.09.2019
1865 Clouds 12 1034 40 10000 5.7 280 00:31 12.09.2019
1866 Clouds 14 1033 40 10000 7.2 280 23:57 11.09.2019
1867 Clouds 14 1033 40 10000 7.2 280 23:37 11.09.2019
1868 Clouds 14 1033 40 10000 7.2 280 23:19 11.09.2019
1869 Clouds 12 1033 62 10000 2.1 100 22:55 11.09.2019
1870 Clouds 12 1033 62 10000 2.1 100 22:36 11.09.2019
1871 Clouds 12 1033 62 10000 2.1 100 22:18 11.09.2019
1872 Clouds 12 1034 66 10000 3.6 70 21:41 11.09.2019
1873 Clouds 12 1034 66 10000 3.6 70 21:23 11.09.2019
1874 Clouds 11 1035 62 9000 3.6 90 20:56 11.09.2019
1875 Clouds 11 1035 62 9000 3.6 90 20:38 11.09.2019
1876 Clouds 14 1036 41 9000 4.6 290 20:19 11.09.2019
1877 Clouds 14 1036 41 9000 4.6 290 20:19 11.09.2019
1878 Clouds 14 1036 41 9000 4.6 290 19:56 11.09.2019
1879 Clouds 14 1036 41 9000 4.6 290 19:38 11.09.2019
1880 Clouds 11 1038 53 9000 3.6 290 19:19 11.09.2019
1881 Clouds 11 1038 53 9000 3.6 290 18:44 11.09.2019
1882 Clouds 11 1038 53 9000 3.6 290 18:26 11.09.2019
1883 Clouds 10 1038 66 8000 1 0 18:00 11.09.2019
1884 Clouds 10 1038 66 8000 1 0 17:41 11.09.2019
1885 Clouds 10 1038 66 8000 1 0 17:41 11.09.2019
1886 Clouds 10 1038 66 8000 1 0 17:22 11.09.2019
1887 Fog 7 1038 87 8000 3.1 80 16:57 11.09.2019
1888 Fog 7 1038 87 8000 3.1 80 16:38 11.09.2019
1889 Fog 7 1038 87 8000 3.1 80 16:19 11.09.2019
1890 Fog 6 1038 87 8000 1.5 60 15:46 11.09.2019
1891 Fog 6 1038 87 8000 1.5 60 15:24 11.09.2019
1892 Fog 5 1037 100 6000 3.1 90 14:58 11.09.2019
1893 Fog 5 1037 100 6000 3.1 90 14:39 11.09.2019
1894 Fog 5 1037 100 6000 3.1 90 14:20 11.09.2019
1895 Mist 2 1037 100 2000 1.5 90 13:57 11.09.2019
1896 Mist 2 1037 100 2000 1.5 90 13:36 11.09.2019
1897 Fog 2 1036 93 500 2.1 50 13:18 11.09.2019
1898 Fog 2 1036 93 700 2.1 50 12:41 11.09.2019
1899 Fog 2 1036 93 700 2.1 50 12:21 11.09.2019
1900 Clouds 5 1036 86 10000 2.6 20 11:56 11.09.2019
1901 Clouds 5 1036 86 10000 2.6 20 11:36 11.09.2019
1902 Clouds 4 1036 100 10000 2.6 60 11:18 11.09.2019
1903 Clouds 5 1036 86 10000 2.6 20 11:18 11.09.2019
1904 Clouds 4 1036 100 10000 2.6 60 10:40 11.09.2019
1905 Clouds 4 1036 100 10000 2.6 60 10:22 11.09.2019
1906 Fog 5 1036 93 4000 2.1 80 09:41 11.09.2019
1907 Fog 5 1036 93 4000 2.1 80 09:20 11.09.2019
1908 Fog 5 1036 93 4000 2.1 80 09:20 11.09.2019
1909 Fog 4 1037 93 4000 1 0 08:59 11.09.2019
1910 Fog 4 1037 93 4000 1 0 08:39 11.09.2019
1911 Fog 4 1037 93 4000 1 0 08:21 11.09.2019
1912 Rain 6 1037 93 4000 3.1 110 07:45 11.09.2019
1913 Rain 6 1037 93 4000 3.1 110 07:23 11.09.2019
1914 Rain 6 1038 93 4000 2.1 80 06:53 11.09.2019
1915 Rain 6 1038 93 4000 2.1 80 06:35 11.09.2019
1916 Fog 6 1038 93 4000 3.1 70 05:49 11.09.2019
1917 Fog 6 1038 93 4000 3.1 70 05:28 11.09.2019
1918 Fog 7 1037 87 4000 3.6 140 04:46 11.09.2019
1919 Clouds 7 1036 87 10000 4.6 100 03:36 11.09.2019
1920 Clouds 7 1034 81 10000 3.6 70 02:49 11.09.2019
1921 Clouds 7 1034 81 10000 3.6 70 02:20 11.09.2019
1922 Clouds 12 1034 50 10000 3.1 100 00:53 11.09.2019
1923 Clouds 12 1034 50 10000 3.1 100 00:26 11.09.2019
1924 Clouds 15 1034 24 10000 5.7 290 23:56 10.09.2019
1925 Clouds 15 1034 24 10000 5.7 290 23:37 10.09.2019
1926 Clouds 15 1034 26 10000 5.1 260 23:19 10.09.2019
1927 Clouds 15 1034 26 10000 5.1 260 23:19 10.09.2019
1928 Clouds 15 1034 26 10000 5.1 260 22:41 10.09.2019
1929 Clouds 15 1034 26 10000 5.1 260 22:19 10.09.2019
1930 Clouds 13 1034 47 10000 5.1 80 21:55 10.09.2019
1931 Clouds 13 1034 47 10000 5.1 80 21:37 10.09.2019
1932 Clouds 13 1034 47 10000 5.1 80 21:19 10.09.2019
1933 Clouds 13 1036 47 10000 6.7 80 20:58 10.09.2019
1934 Clouds 13 1036 47 10000 6.7 80 20:38 10.09.2019
1935 Clouds 13 1036 47 10000 6.7 80 20:20 10.09.2019
1936 Clouds 14 1037 29 10000 3.1 280 19:56 10.09.2019
1937 Clouds 14 1037 29 10000 3.1 280 19:37 10.09.2019
1938 Clouds 13 1037 43 10000 5.1 270 19:19 10.09.2019
1939 Clouds 13 1037 43 10000 5.1 270 18:55 10.09.2019
1940 Clouds 13 1037 43 10000 5.1 270 18:37 10.09.2019
1941 Clouds 11 1038 53 8000 2.6 270 18:18 10.09.2019
1942 Clouds 11 1038 53 8000 2.6 270 17:42 10.09.2019
1943 Clouds 11 1038 53 8000 2.6 270 17:21 10.09.2019
1944 Clouds 10 1038 53 8000 1 0 16:58 10.09.2019
1945 Clouds 10 1038 53 8000 1 0 16:39 10.09.2019
1946 Clouds 7 1038 65 8000 1 0 16:20 10.09.2019
1947 Clouds 7 1038 65 8000 1 0 15:57 10.09.2019
1948 Clouds 7 1038 65 8000 1 0 15:39 10.09.2019
1949 Clouds 7 1038 65 8000 1 0 15:20 10.09.2019
1950 Clouds 3 1037 100 6000 1.5 70 14:40 10.09.2019
1951 Clouds 3 1037 100 6000 1.5 70 14:22 10.09.2019
1952 Fog -2 1037 92 4000 3.1 90 13:49 10.09.2019
1953 Fog -2 1037 92 4000 3.1 90 13:24 10.09.2019
1954 Fog -2 1036 92 4000 3.1 80 12:56 10.09.2019
1955 Fog -2 1036 92 4000 3.1 80 12:38 10.09.2019
1956 Fog -2 1035 92 4000 2.1 90 12:19 10.09.2019
1957 Fog -2 1035 92 4000 2.1 90 11:42 10.09.2019
1958 Fog -1 1035 92 4000 3.1 70 11:23 10.09.2019
1959 Fog -1 1035 92 4000 3.1 70 10:59 10.09.2019
1960 Fog -1 1035 92 4000 3.1 70 10:38 10.09.2019
1961 Fog 1 1036 91 4000 2.6 90 10:18 10.09.2019
1962 Fog 1 1036 91 4000 2.6 90 09:46 10.09.2019
1963 Fog 0 1036 86 4000 1 0 09:20 10.09.2019
1964 Fog 0 1036 86 4000 1 0 08:57 10.09.2019
1965 Fog 0 1036 86 4000 1 0 08:38 10.09.2019
1966 Fog 0 1037 86 4000 1 0 08:20 10.09.2019
1967 Fog 0 1037 86 4000 1 0 07:43 10.09.2019
1968 Fog 0 1037 86 4000 1 0 07:25 10.09.2019
1969 Fog 2 1038 86 4000 1 0 06:46 10.09.2019
1970 Fog 2 1038 78 4000 1 0 06:28 10.09.2019
1971 Clouds 6 1036 81 10000 4.6 90 04:25 10.09.2019
1972 Clouds 6 1036 70 10000 3.6 50 02:41 10.09.2019
1973 Clouds 10 1035 23 10000 2.6 330 02:21 10.09.2019
1974 Clouds 10 1035 23 10000 2.6 330 01:52 10.09.2019
1975 Clouds 10 1035 23 10000 2.6 330 01:52 10.09.2019
1976 Clouds 10 1035 23 10000 2.6 330 01:23 10.09.2019
1977 Clouds 12 1035 22 10000 4.6 300 00:43 10.09.2019
1978 Clouds 14 1035 20 10000 5.7 300 00:23 10.09.2019
1979 Clouds 14 1035 20 10000 5.7 300 23:41 09.09.2019
1980 Clouds 15 1036 22 10000 6.7 270 23:19 09.09.2019
1981 Clouds 15 1036 22 10000 6.7 270 22:55 09.09.2019
1982 Clouds 15 1036 22 10000 6.7 270 22:37 09.09.2019
1983 Clouds 15 1036 22 10000 6.7 280 22:19 09.09.2019
1984 Clouds 15 1036 22 10000 6.7 280 21:55 09.09.2019
1985 Clouds 15 1036 22 10000 6.7 280 21:37 09.09.2019
1986 Clouds 15 1036 22 10000 6.7 280 21:37 09.09.2019
1987 Clouds 14 1037 22 10000 5.1 280 21:18 09.09.2019
1988 Clouds 14 1037 22 10000 5.1 280 21:18 09.09.2019
1989 Clouds 14 1037 22 10000 5.1 280 20:55 09.09.2019
1990 Clouds 14 1037 22 10000 5.1 280 20:36 09.09.2019
1991 Clouds 13 1038 37 10000 5.1 260 20:18 09.09.2019
1992 Clouds 13 1038 37 10000 5.1 260 19:56 09.09.2019
1993 Clouds 13 1038 37 10000 5.1 260 19:37 09.09.2019
1994 Clouds 13 1038 37 10000 5.1 260 19:19 09.09.2019
1995 Clouds 11 1039 34 10000 6.2 290 18:54 09.09.2019
1996 Clouds 11 1039 34 10000 6.2 290 18:36 09.09.2019
1997 Clouds 11 1039 34 10000 6.2 290 18:36 09.09.2019
1998 Clouds 10 1040 39 10000 5.7 280 18:18 09.09.2019
1999 Clouds 10 1040 39 10000 5.7 280 17:41 09.09.2019
2000 Clouds 10 1040 39 10000 5.7 280 17:41 09.09.2019
2001 Clouds 9 1040 49 10000 4.6 270 17:21 09.09.2019
2002 Clouds 9 1040 49 10000 4.6 270 16:59 09.09.2019
2003 Clouds 9 1040 49 10000 4.6 270 16:40 09.09.2019
2004 Clear 7 1039 52 10000 3.6 310 16:20 09.09.2019
2005 Clear 7 1039 52 10000 3.6 310 15:56 09.09.2019
2006 Clear 7 1039 52 10000 3.6 310 15:37 09.09.2019
2007 Clouds 5 1039 48 10000 2.6 340 15:19 09.09.2019
2008 Clouds 5 1039 48 10000 2.6 340 14:57 09.09.2019
2009 Clouds 5 1039 48 10000 2.6 340 14:38 09.09.2019
2010 Clouds 2 1038 55 10000 2.1 310 14:19 09.09.2019
2011 Clouds 2 1038 55 10000 2.1 310 13:44 09.09.2019
2012 Clouds 0 1038 68 10000 1 0 13:21 09.09.2019
2013 Clouds 0 1038 68 10000 1 0 12:58 09.09.2019
2014 Clouds 0 1038 68 10000 1 0 12:58 09.09.2019
2015 Clouds 0 1038 68 10000 1 0 12:40 09.09.2019
2016 Clear 1 1037 59 10000 2.6 290 12:20 09.09.2019
2017 Clear 1 1037 59 10000 2.6 290 11:47 09.09.2019
2018 Clear 2 1038 64 10000 2.6 310 11:23 09.09.2019
2019 Clear 2 1038 64 10000 2.6 310 10:59 09.09.2019
2020 Clear 2 1038 64 10000 2.6 310 10:41 09.09.2019
2021 Clear 2 1038 64 10000 2.6 310 10:41 09.09.2019
2022 Clouds 3 1038 69 10000 2.6 310 10:20 09.09.2019
2023 Clouds 3 1038 69 10000 2.6 310 09:57 09.09.2019
2024 Clouds 3 1038 69 10000 2.6 310 09:57 09.09.2019
2025 Clouds 3 1038 69 10000 2.6 310 09:38 09.09.2019
2026 Clouds 1 1039 85 10000 1 0 09:19 09.09.2019
2027 Clouds 1 1039 86 10000 1 0 08:39 09.09.2019
2028 Clouds 1 1039 86 10000 1 0 08:39 09.09.2019
2029 Fog 1 1040 86 4000 1.5 50 08:20 09.09.2019
2030 Fog 1 1040 86 4000 1.5 50 08:20 09.09.2019
2031 Fog 1 1040 86 4000 1.5 50 07:46 09.09.2019
2032 Fog 4 1041 86 4000 2.1 310 07:22 09.09.2019
2033 Fog 4 1041 86 4000 2.1 310 06:56 09.09.2019
2034 Fog 4 1041 86 4000 2.1 310 06:32 09.09.2019
2035 Thunderstorm 5 1041 86 6000 1 0 04:55 09.09.2019
2036 Thunderstorm 5 1041 86 6000 1 0 04:55 09.09.2019
2037 Thunderstorm 5 1041 86 6000 1 0 04:55 09.09.2019
2038 Clouds 5 1038 86 10000 4.1 130 02:43 09.09.2019
2039 Clouds 6 1036 70 10000 2.6 70 02:19 09.09.2019
2040 Clouds 11 1036 34 10000 5.1 330 00:39 09.09.2019
2041 Clouds 10 1036 46 10000 7.2 360 00:21 09.09.2019
2042 Clouds 10 1036 46 10000 7.2 360 23:44 08.09.2019
2043 Clouds 10 1036 46 10000 7.2 360 23:23 08.09.2019
2044 Clouds 11 1037 37 10000 7.2 320 22:55 08.09.2019
2045 Clouds 11 1037 37 10000 7.2 320 22:36 08.09.2019
2046 Clouds 11 1037 37 10000 7.2 320 22:36 08.09.2019
2047 Clouds 14 1037 78 10000 6.7 300 22:18 08.09.2019
2048 Clouds 14 1037 78 10000 6.7 300 21:41 08.09.2019
2049 Clouds 13 1038 40 10000 7.2 290 21:22 08.09.2019
2050 Clouds 13 1038 40 10000 7.2 290 20:57 08.09.2019
2051 Clouds 13 1038 40 10000 7.2 290 20:37 08.09.2019
2052 Clouds 13 1038 40 10000 7.2 290 20:37 08.09.2019
2053 Clouds 11 1039 43 10000 6.2 290 20:19 08.09.2019
2054 Clouds 11 1039 43 10000 6.2 290 19:56 08.09.2019
2055 Clouds 11 1039 43 10000 6.2 290 19:37 08.09.2019
2056 Clouds 11 1040 40 10000 8.2 290 19:18 08.09.2019
2057 Clouds 11 1040 40 10000 8.2 290 19:18 08.09.2019
2058 Clouds 11 1040 40 10000 8.2 290 18:55 08.09.2019
2059 Clouds 11 1040 40 10000 8.2 290 18:37 08.09.2019
2060 Clouds 9 1041 61 10000 4.1 290 18:18 08.09.2019
2061 Clouds 9 1041 61 10000 4.1 290 17:38 08.09.2019
2062 Clouds 7 1041 42 6000 3.1 270 17:19 08.09.2019
2063 Clouds 7 1041 42 6000 3.1 270 16:58 08.09.2019
2064 Clouds 7 1041 42 6000 3.1 270 16:40 08.09.2019
2065 Clouds 7 1040 42 6000 4.1 320 16:20 08.09.2019
2066 Clouds 7 1040 42 6000 4.1 320 16:20 08.09.2019
2067 Clouds 7 1040 42 6000 4.1 320 15:56 08.09.2019
2068 Clouds 7 1040 42 6000 4.1 320 15:37 08.09.2019
2069 Clouds 5 1039 69 10000 3.1 30 15:18 08.09.2019
2070 Clouds 5 1039 69 10000 3.1 30 14:40 08.09.2019
2071 Fog 2 1039 100 4000 1 0 14:22 08.09.2019
2072 Fog 2 1039 100 4000 1 0 13:58 08.09.2019
2073 Fog 2 1039 100 4000 1 0 13:40 08.09.2019
2074 Fog 2 1038 100 3000 1.5 40 13:22 08.09.2019
2075 Fog 2 1038 100 3000 1.5 40 12:55 08.09.2019
2076 Fog 2 1038 100 3000 1.5 40 12:37 08.09.2019
2077 Fog 2 1037 100 2500 2.1 80 12:18 08.09.2019
2078 Fog 2 1037 100 2500 2.1 80 11:56 08.09.2019
2079 Fog 2 1037 100 2500 2.1 80 11:37 08.09.2019
2080 Fog 3 1037 93 4000 2.1 60 11:18 08.09.2019
2081 Fog 3 1037 93 4000 2.1 60 10:42 08.09.2019
2082 Fog 3 1037 93 4000 2.1 60 10:23 08.09.2019
2083 Fog 3 1037 100 3000 2.1 70 09:56 08.09.2019
2084 Fog 3 1037 100 3000 2.1 70 09:37 08.09.2019
2085 Fog 3 1038 100 3000 2.6 90 09:19 08.09.2019
2086 Fog 3 1038 100 3000 2.6 90 08:39 08.09.2019
2087 Fog 3 1038 100 4000 3.1 70 08:19 08.09.2019
2088 Fog 3 1038 100 4000 3.1 70 07:43 08.09.2019
2089 Fog 3 1038 100 2500 2.6 110 07:21 08.09.2019
2090 Fog 3 1038 100 2500 2.6 110 06:57 08.09.2019
2091 Fog 3 1038 100 2500 2.6 110 06:34 08.09.2019
2092 Fog 2 1038 100 3000 2.6 90 05:40 08.09.2019
2093 Fog 3 1038 100 3000 1 0 04:59 08.09.2019
2094 Fog 3 1038 100 4000 3.1 80 03:23 08.09.2019
2095 Fog 3 1036 100 4000 2.6 130 02:48 08.09.2019
2096 Clouds 4 1036 86 10000 1 0 01:54 08.09.2019
2097 Clouds 5 1036 86 10000 2.6 130 01:26 08.09.2019
2098 Clouds 5 1036 86 10000 2.6 130 00:47 08.09.2019
2099 Rain 5 1037 93 7000 4.1 260 00:29 08.09.2019
2100 Rain 5 1037 93 7000 4.1 260 23:55 07.09.2019
2101 Rain 5 1037 93 7000 4.1 260 23:36 07.09.2019
2102 Rain 5 1037 93 7000 4.1 260 23:36 07.09.2019
2103 Rain 5 1037 93 4000 2.6 290 23:18 07.09.2019
2104 Rain 5 1037 93 4000 2.6 290 22:42 07.09.2019
2105 Rain 6 1037 81 8000 4.6 310 22:22 07.09.2019
2106 Rain 6 1037 81 8000 4.6 310 21:54 07.09.2019
2107 Rain 6 1037 81 8000 4.6 310 21:36 07.09.2019
2108 Rain 5 1038 86 6000 6.2 330 21:18 07.09.2019
2109 Rain 5 1038 86 6000 6.2 330 20:39 07.09.2019
2110 Rain 8 1038 65 8000 4.1 30 20:20 07.09.2019
2111 Rain 8 1038 65 8000 4.1 30 20:20 07.09.2019
2112 Rain 8 1038 65 8000 4.1 30 19:56 07.09.2019
2113 Rain 8 1038 65 8000 4.1 30 19:37 07.09.2019
2114 Clouds 9 1039 61 10000 3.6 260 19:19 07.09.2019
2115 Clouds 9 1039 61 10000 3.6 260 18:56 07.09.2019
2116 Clouds 9 1039 61 10000 3.6 260 18:37 07.09.2019
2117 Clouds 9 1039 61 10000 3.6 260 18:18 07.09.2019
2118 Clouds 8 1040 70 10000 3.6 280 17:56 07.09.2019
2119 Clouds 8 1040 70 10000 3.6 280 17:38 07.09.2019
2120 Clouds 8 1040 70 10000 3.6 280 17:38 07.09.2019
2121 Clouds 6 1040 87 6000 2.6 100 17:18 07.09.2019
2122 Clouds 6 1040 87 6000 2.6 100 16:43 07.09.2019
2123 Clouds 6 1040 87 6000 2.6 100 16:43 07.09.2019
2124 Fog 4 1040 93 4000 3.6 90 16:23 07.09.2019
2125 Fog 4 1040 93 4000 3.6 90 15:57 07.09.2019
2126 Fog 4 1040 93 4000 3.6 90 15:38 07.09.2019
2127 Fog 3 1039 93 2500 3.1 90 15:20 07.09.2019
2128 Fog 3 1039 93 2500 3.1 90 14:54 07.09.2019
2129 Fog 3 1039 93 2500 3.1 90 14:54 07.09.2019
2130 Fog 3 1039 93 2500 3.1 90 14:36 07.09.2019
2131 Fog 3 1039 93 2000 3.1 80 14:18 07.09.2019
2132 Mist 2 1038 100 1500 2.1 100 13:43 07.09.2019
2133 Fog 2 1038 100 500 2.6 90 13:25 07.09.2019
2134 Fog 2 1038 100 500 2.6 90 12:46 07.09.2019
2135 Fog 2 1038 100 500 2.6 90 12:26 07.09.2019
2136 Fog 2 1037 100 2000 2.1 100 11:59 07.09.2019
2137 Fog 2 1037 100 2000 2.1 100 11:40 07.09.2019
2138 Mist 2 1037 100 2000 3.1 80 11:20 07.09.2019
2139 Mist 2 1037 100 2000 3.1 80 10:41 07.09.2019
2140 Fog 2 1038 100 500 2.6 80 10:22 07.09.2019
2141 Fog 2 1038 100 500 2.6 80 09:57 07.09.2019
2142 Fog 2 1038 100 500 2.6 80 09:38 07.09.2019
2143 Fog 2 1037 100 200 3.1 120 09:20 07.09.2019
2144 Fog 2 1037 100 200 3.1 120 09:20 07.09.2019
2145 Fog 2 1037 100 200 3.1 120 08:44 07.09.2019
2146 Fog 2 1037 100 200 3.1 120 08:26 07.09.2019
2147 Fog 2 1038 93 4000 2.1 60 07:47 07.09.2019
2148 Rain 2 1040 93 8000 4.6 320 07:28 07.09.2019
2149 Rain 2 1040 93 8000 4.6 320 06:52 07.09.2019
2150 Rain 2 1040 93 8000 4.6 320 06:20 07.09.2019
2151 Rain 1 1040 100 4000 2.1 20 04:49 07.09.2019
2152 Rain 1 1040 100 4000 2.1 20 04:23 07.09.2019
2153 Clouds 1 1039 100 3000 2.1 280 02:49 07.09.2019
2154 Clouds 3 1039 93 5000 5.7 220 01:53 07.09.2019
2155 Clouds 6 1037 75 10000 3.6 90 01:23 07.09.2019
2156 Clouds 7 1036 75 10000 4.1 80 00:40 07.09.2019
2157 Clouds 8 1036 75 10000 3.1 100 00:19 07.09.2019
2158 Clouds 8 1036 75 10000 3.1 100 23:41 06.09.2019
2159 Clouds 8 1036 75 10000 3.1 80 23:22 06.09.2019
2160 Clouds 8 1036 75 10000 3.1 80 22:58 06.09.2019
2161 Clouds 8 1036 75 10000 3.1 80 22:38 06.09.2019
2162 Clouds 8 1037 81 10000 6.2 110 22:19 06.09.2019
2163 Clouds 8 1037 81 10000 6.2 110 22:19 06.09.2019
2164 Clouds 8 1037 81 10000 6.2 110 21:57 06.09.2019
2165 Clouds 8 1037 81 10000 6.2 110 21:39 06.09.2019
2166 Clouds 9 1038 66 10000 1 0 21:20 06.09.2019
2167 Clouds 9 1038 66 10000 1 0 20:57 06.09.2019
2168 Clouds 9 1038 66 10000 1 0 20:38 06.09.2019
2169 Clouds 8 1039 81 10000 1 0 20:18 06.09.2019
2170 Clouds 8 1039 81 10000 1 0 19:42 06.09.2019
2171 Clouds 8 1039 81 10000 1 0 19:24 06.09.2019
2172 Clouds 8 1039 81 10000 1 0 18:59 06.09.2019
2173 Clouds 9 1040 66 10000 2.6 70 18:40 06.09.2019
2174 Clouds 9 1040 66 10000 2.6 70 18:40 06.09.2019
2175 Clouds 7 1041 75 10000 2.1 210 18:22 06.09.2019
2176 Clouds 7 1041 75 10000 2.1 210 17:57 06.09.2019
2177 Clouds 7 1041 75 10000 2.1 210 17:57 06.09.2019
2178 Clouds 7 1041 75 10000 2.1 210 17:37 06.09.2019
2179 Clouds 5 1041 86 10000 1 0 17:18 06.09.2019
2180 Clouds 5 1041 86 10000 1 0 16:39 06.09.2019
2181 Rain 2 1041 93 4000 1 0 16:18 06.09.2019
2182 Rain 2 1041 93 4000 1 0 15:41 06.09.2019
2183 Clouds 2 1041 93 3000 2.6 310 15:23 06.09.2019
2184 Rain 3 1040 100 5000 4.1 270 14:48 06.09.2019
2185 Fog 3 1039 100 3000 1 0 14:20 06.09.2019
2186 Fog 3 1039 100 3000 1 0 13:45 06.09.2019
2187 Fog 3 1039 100 3000 1 0 13:26 06.09.2019
2188 Rain 3 1038 93 4000 2.6 80 12:59 06.09.2019
2189 Rain 3 1038 93 4000 2.6 80 12:37 06.09.2019
2190 Fog 4 1038 93 4000 2.6 60 12:18 06.09.2019
2191 Fog 4 1038 93 4000 2.6 60 12:18 06.09.2019
2192 Fog 4 1038 93 4000 2.6 60 11:42 06.09.2019
2193 Rain 4 1039 93 4000 2.1 120 11:24 06.09.2019
2194 Rain 4 1039 93 4000 2.1 120 10:58 06.09.2019
2195 Rain 4 1039 93 4000 2.1 120 10:39 06.09.2019
2196 Fog 4 1039 93 1500 2.6 120 10:21 06.09.2019
2197 Fog 4 1039 93 1500 2.6 120 09:40 06.09.2019
2198 Fog 4 1039 93 4000 3.1 90 09:21 06.09.2019
2199 Fog 4 1039 93 4000 3.1 90 08:57 06.09.2019
2200 Fog 4 1039 93 4000 3.1 90 08:38 06.09.2019
2201 Fog 4 1040 93 4000 2.6 140 08:20 06.09.2019
2202 Fog 4 1040 93 4000 2.6 140 07:45 06.09.2019
2203 Fog 4 1040 93 4000 2.6 140 07:26 06.09.2019
2204 Rain 4 1041 93 4000 2.6 110 06:56 06.09.2019
2205 Fog 5 1041 93 4000 3.1 110 05:58 06.09.2019
2206 Fog 5 1041 93 4000 3.1 110 05:27 06.09.2019
2207 Fog 5 1041 93 4000 3.6 110 04:41 06.09.2019
2208 Fog 5 1040 93 4000 3.6 110 03:42 06.09.2019
2209 Rain 7 1022 63 0 2.98 85.356 01:51 06.09.2019
2210 Fog 5 1038 100 3000 5.7 90 00:38 06.09.2019
2211 Clouds 6 1037 93 10000 6.2 80 23:44 05.09.2019
2212 Clouds 6 1037 93 10000 6.2 80 23:24 05.09.2019
2213 Clouds 6 1037 93 10000 4.1 110 22:54 05.09.2019
2214 Clouds 6 1037 93 10000 4.1 110 22:54 05.09.2019
2215 Clouds 6 1037 93 10000 4.1 110 22:36 05.09.2019
2216 Rain 6 1038 87 8000 6.7 70 22:18 05.09.2019
2217 Rain 6 1038 87 8000 6.7 70 21:55 05.09.2019
2218 Rain 6 1038 87 8000 6.7 70 21:37 05.09.2019
2219 Thunderstorm 7 1039 75 8000 6.2 60 21:19 05.09.2019
2220 Thunderstorm 7 1039 75 8000 6.2 60 20:54 05.09.2019
2221 Thunderstorm 7 1039 75 8000 6.2 60 20:36 05.09.2019
2222 Clouds 8 1039 70 8000 7.2 90 20:18 05.09.2019
2223 Clouds 8 1039 70 8000 7.2 90 19:41 05.09.2019
2224 Clouds 11 1040 50 10000 2.6 240 19:22 05.09.2019
2225 Clouds 10 1041 61 10000 1 0 18:57 05.09.2019
2226 Clouds 10 1041 61 10000 1 0 18:38 05.09.2019
2227 Clouds 10 1041 61 10000 1 0 18:19 05.09.2019
2228 Clouds 8 1042 65 10000 1 0 17:41 05.09.2019
2229 Clouds 8 1042 65 10000 1 0 17:22 05.09.2019
2230 Clouds 6 1042 75 10000 1 0 16:58 05.09.2019
2231 Clouds 6 1042 75 10000 1 0 16:40 05.09.2019
2232 Clouds 5 1041 80 6000 1 0 16:19 05.09.2019
2233 Clouds 5 1041 80 6000 1 0 15:41 05.09.2019
2234 Fog 4 1040 86 4000 1 0 15:20 05.09.2019
2235 Fog 4 1040 86 4000 1 0 14:59 05.09.2019
2236 Fog 4 1040 86 4000 1 0 14:40 05.09.2019
2237 Fog 3 1040 93 4000 1 0 14:20 05.09.2019
2238 Fog 3 1040 93 4000 1 0 13:43 05.09.2019
2239 Fog 3 1040 93 4000 1 0 13:23 05.09.2019
2240 Fog 3 1039 93 4000 1 0 12:54 05.09.2019
2241 Fog 3 1039 93 4000 1 0 12:36 05.09.2019
2242 Fog 3 1039 93 4000 1 0 12:36 05.09.2019
2243 Fog 3 1039 93 4000 1 0 12:36 05.09.2019
2244 Fog 3 1039 93 3000 2.6 100 12:18 05.09.2019
2245 Fog 3 1039 93 3000 2.6 100 11:43 05.09.2019
2246 Fog 3 1039 93 4000 2.1 70 11:19 05.09.2019
2247 Fog 3 1039 93 4000 2.1 70 11:19 05.09.2019
2248 Fog 3 1039 93 4000 2.1 70 10:42 05.09.2019
2249 Fog 3 1039 93 4000 2.1 70 10:23 05.09.2019
2250 Fog 3 1039 93 4000 2.1 70 09:58 05.09.2019
2251 Fog 3 1039 93 4000 2.1 70 09:40 05.09.2019
2252 Fog 2 1040 100 4000 2.1 90 09:18 05.09.2019
2253 Fog 2 1040 100 4000 2.1 90 08:45 05.09.2019
2254 Fog 2 1040 100 4000 2.1 90 08:26 05.09.2019
2255 Fog 3 1040 86 4000 2.1 30 07:46 05.09.2019
2256 Fog 3 1040 86 4000 2.1 30 07:27 05.09.2019
2257 Clouds 3 1041 93 10000 2.1 350 06:57 05.09.2019
2258 Clouds 3 1041 93 10000 2.1 350 06:31 05.09.2019
2259 Clouds 5 1024 77 0 2.08 89.67 05:50 05.09.2019
2260 Clouds 5 1024 77 0 2.08 89.67 05:30 05.09.2019
2261 Fog 3 1040 93 4000 2.1 50 04:50 05.09.2019
2262 Fog 3 1040 93 4000 2.1 50 04:25 05.09.2019
2263 Fog 3 1039 100 4000 4.1 110 03:38 05.09.2019
2264 Clouds 3 1039 86 10000 3.1 80 02:46 05.09.2019
2265 Clouds 5 1038 75 10000 5.7 80 02:26 05.09.2019
2266 Clouds 5 1038 75 10000 5.7 80 01:36 05.09.2019
2267 Clouds 6 1038 81 10000 5.1 90 00:42 05.09.2019
2268 Clouds 6 1038 81 10000 5.1 90 00:20 05.09.2019
2269 Thunderstorm 4 1038 86 8000 2.6 200 23:51 04.09.2019
2270 Thunderstorm 8 1037 81 8000 1 0 23:26 04.09.2019
2271 Thunderstorm 8 1037 81 8000 1 0 22:59 04.09.2019
2272 Thunderstorm 8 1037 81 8000 1 0 22:40 04.09.2019
2273 Clouds 9 1037 76 10000 3.6 80 22:18 04.09.2019
2274 Clouds 9 1037 76 10000 3.6 80 21:40 04.09.2019
2275 Thunderstorm 8 1038 75 8000 3.1 70 21:20 04.09.2019
2276 Thunderstorm 8 1038 75 8000 3.1 70 21:20 04.09.2019
2277 Thunderstorm 8 1038 75 8000 3.1 70 20:56 04.09.2019
2278 Thunderstorm 8 1038 75 8000 3.1 70 20:56 04.09.2019
2279 Thunderstorm 8 1038 75 8000 3.1 70 20:38 04.09.2019
2280 Thunderstorm 9 1038 61 10000 4.6 110 20:19 04.09.2019
2281 Thunderstorm 9 1038 61 10000 4.6 110 19:56 04.09.2019
2282 Clouds 8 1039 70 10000 3.1 130 19:37 04.09.2019
2283 Clouds 8 1039 70 10000 3.1 130 19:19 04.09.2019
2284 Clouds 7 1040 70 10000 2.1 200 18:38 04.09.2019
2285 Clouds 7 1040 70 10000 2.1 200 18:19 04.09.2019
2286 Rain 6 1040 81 8000 3.1 250 17:42 04.09.2019
2287 Clouds 7 1040 75 6000 2.6 130 17:23 04.09.2019
2288 Clouds 7 1040 75 6000 2.6 130 17:23 04.09.2019
2289 Clouds 7 1040 75 6000 2.6 130 16:58 04.09.2019
2290 Clouds 7 1040 75 6000 2.6 130 16:40 04.09.2019
2291 Clouds 7 1040 75 6000 2.6 130 16:21 04.09.2019
2292 Clouds 6 1040 81 6000 2.1 140 15:55 04.09.2019
2293 Clouds 6 1040 81 6000 2.1 140 15:37 04.09.2019
2294 Clouds 5 1040 86 6000 2.1 50 15:18 04.09.2019
2295 Clouds 5 1040 86 6000 2.1 50 14:54 04.09.2019
2296 Clouds 5 1040 86 6000 2.1 50 14:36 04.09.2019
2297 Clouds 3 1039 93 10000 1 0 14:18 04.09.2019
2298 Clouds 3 1039 93 10000 1 0 13:39 04.09.2019
2299 Fog 4 1038 86 4000 4.1 90 13:21 04.09.2019
2300 Fog 4 1038 86 4000 4.1 90 12:46 04.09.2019
2301 Fog 4 1037 86 4000 2.6 100 12:27 04.09.2019
2302 Fog 4 1037 86 4000 2.6 100 11:58 04.09.2019
2303 Fog 4 1037 86 4000 2.6 100 11:39 04.09.2019
2304 Fog 4 1037 93 4000 2.1 70 11:21 04.09.2019
2305 Fog 4 1037 93 4000 2.1 70 10:56 04.09.2019
2306 Fog 4 1037 93 4000 2.1 70 10:38 04.09.2019
2307 Fog 4 1037 93 4000 2.1 70 10:38 04.09.2019
2308 Fog 4 1037 93 4000 2.1 70 10:38 04.09.2019
2309 Fog 4 1037 93 4000 2.6 80 10:19 04.09.2019
2310 Fog 4 1037 93 4000 2.6 80 09:45 04.09.2019
2311 Fog 4 1038 93 4000 3.6 80 09:21 04.09.2019
2312 Fog 4 1038 93 4000 3.6 80 08:43 04.09.2019
2313 Fog 4 1038 93 4000 3.6 80 08:24 04.09.2019
2314 Fog 5 1038 86 4000 4.1 90 07:59 04.09.2019
2315 Fog 5 1038 86 4000 4.1 90 07:36 04.09.2019
2316 Fog 5 1038 86 4000 4.1 90 06:58 04.09.2019
2317 Fog 4 1038 93 4000 3.6 80 06:38 04.09.2019
2318 Clouds 4 1037 66 10000 2.1 60 04:55 04.09.2019
2319 Clouds 4 1037 66 10000 2.1 60 04:22 04.09.2019
2320 Clouds 7 1035 60 10000 5.1 100 02:50 04.09.2019
2321 Clouds 8 1034 52 10000 6.2 80 01:18 04.09.2019
2322 Clouds 12 1034 40 10000 5.1 90 00:41 04.09.2019
2323 Clouds 12 1033 40 10000 6.2 60 00:22 04.09.2019
2324 Clouds 12 1033 40 10000 6.2 60 23:48 03.09.2019
2325 Clouds 14 1033 35 10000 6.2 110 23:26 03.09.2019
2326 Clouds 14 1033 35 10000 6.2 110 22:41 03.09.2019
2327 Clouds 15 1034 30 10000 7.2 90 22:22 03.09.2019
2328 Clouds 15 1034 30 10000 7.2 90 21:57 03.09.2019
2329 Clouds 15 1034 30 10000 7.2 90 21:38 03.09.2019
2330 Clouds 14 1035 35 10000 7.2 80 21:20 03.09.2019
2331 Clouds 14 1035 35 10000 7.2 80 20:56 03.09.2019
2332 Clouds 14 1035 35 10000 7.2 80 20:37 03.09.2019
2333 Rain 8 1037 65 6000 7.7 50 20:18 03.09.2019
2334 Rain 8 1037 65 6000 7.7 50 19:43 03.09.2019
2335 Rain 8 1037 65 6000 7.7 50 19:20 03.09.2019
2336 Clouds 13 1037 37 10000 3.1 80 18:57 03.09.2019
2337 Clouds 13 1037 37 10000 3.1 80 18:38 03.09.2019
2338 Clouds 13 1037 36 10000 3.1 80 18:19 03.09.2019
2339 Clouds 12 1038 46 8000 2.6 130 17:55 03.09.2019
2340 Clouds 12 1038 46 8000 2.6 130 17:55 03.09.2019
2341 Clouds 12 1038 46 8000 2.6 130 17:55 03.09.2019
2342 Clouds 12 1038 46 8000 2.6 130 17:36 03.09.2019
2343 Clouds 10 1038 53 8000 3.1 100 17:18 03.09.2019
2344 Clouds 10 1038 53 8000 3.1 100 16:42 03.09.2019
2345 Clouds 8 1038 81 8000 2.6 100 16:22 03.09.2019
2346 Clouds 8 1038 81 8000 2.6 100 15:55 03.09.2019
2347 Clouds 8 1038 81 8000 2.6 100 15:37 03.09.2019
2348 Clouds 5 1037 80 6000 3.1 100 15:19 03.09.2019
2349 Clouds 5 1037 80 6000 3.1 100 14:41 03.09.2019
2350 Fog 2 1036 93 4000 3.1 90 14:22 03.09.2019
2351 Fog 2 1036 93 4000 3.1 90 13:58 03.09.2019
2352 Fog 2 1036 93 4000 3.1 90 13:38 03.09.2019
2353 Fog 2 1036 93 4000 3.1 90 13:20 03.09.2019
2354 Fog 2 1036 93 4000 3.1 90 12:58 03.09.2019
2355 Fog 3 1036 93 4000 2.6 110 12:39 03.09.2019
2356 Fog 2 1035 93 4000 2.6 70 12:21 03.09.2019
2357 Fog 2 1035 93 4000 2.6 70 11:43 03.09.2019
2358 Fog 2 1035 93 4000 2.6 70 11:23 03.09.2019
2359 Fog 3 1035 100 4000 3.6 120 11:23 03.09.2019
2360 Fog 3 1035 100 4000 3.6 120 10:58 03.09.2019
2361 Fog 3 1035 100 4000 3.6 120 10:39 03.09.2019
2362 Fog 1 1035 92 3000 2.6 80 10:20 03.09.2019
2363 Fog 1 1035 90 3000 2.6 80 09:48 03.09.2019
2364 Fog 1 1035 90 3000 2.6 80 09:48 03.09.2019
2365 Fog 1 1035 90 3000 2.6 80 09:30 03.09.2019
2366 Fog 2 1036 93 4000 3.6 80 08:56 03.09.2019
2367 Fog 2 1036 93 4000 3.6 80 08:37 03.09.2019
2368 Fog 3 1036 93 4000 4.1 90 08:19 03.09.2019
2369 Fog 3 1036 93 4000 4.1 90 07:42 03.09.2019
2370 Clouds 2 1037 84 10000 2.1 70 07:23 03.09.2019
2371 Clouds 2 1037 84 10000 2.1 70 06:45 03.09.2019
2372 Clear 2 1037 44 10000 2.1 70 06:18 03.09.2019
2373 Clear 6 1035 52 10000 1 0 03:43 03.09.2019
2374 Clear 10 1034 18 10000 3.1 30 02:47 03.09.2019
2375 Clouds 12 1033 18 10000 1 0 02:25 03.09.2019
2376 Clouds 12 1033 18 10000 1 0 01:51 03.09.2019
2377 Clouds 12 1033 18 10000 1 0 01:32 03.09.2019
2378 Clouds 15 1033 14 10000 2.6 330 00:44 03.09.2019
2379 Clouds 15 1033 14 10000 2.6 330 00:25 03.09.2019
2380 Clouds 16 1033 12 10000 4.6 300 23:40 02.09.2019
2381 Clouds 16 1033 12 10000 5.1 290 23:20 02.09.2019
2382 Clouds 16 1033 12 10000 5.1 290 23:20 02.09.2019
2383 Clouds 16 1033 12 10000 5.1 290 22:56 02.09.2019
2384 Clouds 16 1033 12 10000 5.1 290 22:38 02.09.2019
2385 Clouds 16 1034 12 10000 5.1 300 22:19 02.09.2019
2386 Clouds 16 1034 12 10000 5.1 300 21:57 02.09.2019
2387 Clouds 16 1034 12 10000 5.1 300 21:38 02.09.2019
2388 Clouds 16 1035 15 10000 6.2 280 21:20 02.09.2019
2389 Clouds 16 1035 15 10000 6.2 280 20:57 02.09.2019
2390 Clouds 16 1035 15 10000 6.2 280 20:39 02.09.2019
2391 Clouds 15 1036 19 10000 6.7 290 20:18 02.09.2019
2392 Clouds 15 1036 19 10000 6.7 290 19:55 02.09.2019
2393 Clouds 15 1036 19 10000 6.7 290 19:55 02.09.2019
2394 Clouds 15 1036 19 10000 6.7 290 19:37 02.09.2019
2395 Clouds 15 1036 19 10000 6.7 290 19:19 02.09.2019
2396 Clouds 14 1037 26 10000 7.2 290 18:38 02.09.2019
2397 Clouds 14 1037 26 10000 7.2 290 18:38 02.09.2019
2398 Clouds 12 1037 40 9000 6.2 270 18:20 02.09.2019
2399 Clouds 12 1037 40 9000 6.2 270 17:56 02.09.2019
2400 Clouds 12 1037 40 9000 6.2 270 17:38 02.09.2019
2401 Clouds 10 1038 57 9000 4.6 270 17:19 02.09.2019
2402 Clouds 10 1038 57 9000 4.6 270 16:41 02.09.2019
2403 Clouds 7 1037 28 8000 2.6 240 16:21 02.09.2019
2404 Clouds 7 1037 28 8000 2.6 240 15:55 02.09.2019
2405 Clouds 7 1037 28 8000 2.6 240 15:37 02.09.2019
2406 Clear 4 1036 69 8000 1 0 15:18 02.09.2019
2407 Clear 4 1036 69 8000 1 0 14:56 02.09.2019
2408 Clear 4 1036 69 8000 1 0 14:36 02.09.2019
2409 Clear -1 1036 74 8000 1.57 313.321 14:18 02.09.2019
2410 Clear -1 1036 74 8000 1.57 313.321 13:43 02.09.2019
2411 Clear -1 1036 74 8000 1.54 316.686 13:24 02.09.2019
2412 Clouds 0 1035 72 10000 2.1 10 12:47 02.09.2019
2413 Clouds 1 1035 74 10000 2.1 330 12:27 02.09.2019
2414 Clouds 1 1035 74 10000 2.1 330 11:59 02.09.2019
2415 Clouds 1 1035 74 10000 2.1 330 11:40 02.09.2019
2416 Clouds 1 1035 74 10000 2.1 330 11:40 02.09.2019
2417 Clouds -3 1035 86 10000 1.5 40 11:22 02.09.2019
2418 Clouds -3 1035 86 10000 1.5 40 10:58 02.09.2019
2419 Clouds -3 1035 86 10000 1.5 40 10:39 02.09.2019
2420 Clouds -1 1035 86 10000 0.78 294.224 10:21 02.09.2019
2421 Clouds -1 1035 86 10000 0.78 294.224 09:58 02.09.2019
2422 Clouds -1 1035 86 10000 0.29 244.935 09:37 02.09.2019
2423 Fog -1 1035 92 4000 3.6 90 09:18 02.09.2019
2424 Fog -1 1035 92 4000 3.6 90 08:39 02.09.2019
2425 Fog 0 1036 88 4000 1 0 08:18 02.09.2019
2426 Fog 0 1036 88 4000 1 0 08:18 02.09.2019
2427 Fog 0 1036 88 4000 1 0 07:41 02.09.2019
2428 Fog 2 1037 93 4000 3.1 80 07:21 02.09.2019
2429 Fog 2 1037 93 4000 3.1 80 06:48 02.09.2019
2430 Fog 3 1037 93 4000 3.1 70 06:30 02.09.2019
2431 Fog 3 1037 93 4000 3.1 70 05:49 02.09.2019
2432 Clouds 4 1037 86 10000 3.6 100 05:19 02.09.2019
2433 Clouds 4 1037 86 10000 3.6 100 04:34 02.09.2019
2434 Clouds 10 1034 62 10000 5.1 100 01:48 02.09.2019
2435 Clouds 14 1034 33 10000 3.6 110 00:53 02.09.2019
2436 Clouds 14 1034 33 10000 3.6 110 00:32 02.09.2019
2437 Clouds 16 1033 14 10000 4.6 270 23:48 01.09.2019
2438 Clouds 16 1033 15 10000 5.1 290 23:23 01.09.2019
2439 Clouds 16 1033 15 10000 5.1 290 22:59 01.09.2019
2440 Clouds 16 1033 15 10000 5.1 290 22:40 01.09.2019
2441 Clouds 16 1034 15 10000 5.1 280 22:19 01.09.2019
2442 Clouds 16 1034 15 10000 5.1 280 21:57 01.09.2019
2443 Clouds 16 1034 15 10000 5.1 280 21:39 01.09.2019
2444 Clouds 16 1036 18 10000 5.1 320 21:20 01.09.2019
2445 Clouds 16 1036 18 10000 5.1 320 20:57 01.09.2019
2446 Clouds 16 1036 18 10000 5.1 320 20:38 01.09.2019
2447 Clouds 15 1037 21 10000 5.1 260 20:18 01.09.2019
2448 Clouds 15 1037 21 10000 5.1 260 19:57 01.09.2019
2449 Clouds 15 1037 21 10000 5.1 260 19:37 01.09.2019
2450 Clouds 15 1037 21 10000 5.1 260 19:19 01.09.2019
2451 Clouds 14 1038 28 10000 6.2 280 18:43 01.09.2019
2452 Clouds 14 1038 28 10000 6.2 280 18:25 01.09.2019
2453 Clouds 12 1039 32 10000 5.1 280 17:55 01.09.2019
2454 Clouds 12 1039 32 10000 5.1 280 17:55 01.09.2019
2455 Clouds 12 1039 32 10000 5.1 280 17:37 01.09.2019
2456 Clouds 10 1039 34 9000 3.1 270 17:18 01.09.2019
2457 Clouds 10 1039 34 9000 3.1 270 17:18 01.09.2019
2458 Clouds 10 1039 34 9000 3.1 270 16:39 01.09.2019
2459 Clouds 7 1039 45 8000 1 0 16:19 01.09.2019
2460 Clouds 7 1039 45 8000 1 0 15:47 01.09.2019
2461 Clouds 7 1039 45 8000 1 0 15:29 01.09.2019
2462 Clouds 4 1038 80 8000 2.1 80 14:57 01.09.2019
2463 Clouds 4 1038 80 8000 2.1 80 14:38 01.09.2019
2464 Clouds -1 1038 100 6000 3.1 80 14:20 01.09.2019
2465 Clouds -1 1038 100 6000 3.1 80 13:43 01.09.2019
2466 Clouds -1 1038 100 6000 3.1 80 13:24 01.09.2019
2467 Clouds -1 1038 100 6000 3.1 80 12:59 01.09.2019
2468 Fog -2 1037 100 4000 3.1 80 12:40 01.09.2019
2469 Fog -2 1037 100 4000 3.1 80 12:40 01.09.2019
2470 Fog -3 1036 86 4000 3.6 70 12:21 01.09.2019
2471 Fog -3 1036 86 4000 3.6 70 12:21 01.09.2019
2472 Fog -3 1036 86 4000 3.6 70 11:40 01.09.2019
2473 Clouds -1 1036 86 10000 2.1 50 11:20 01.09.2019
2474 Clouds -1 1036 86 10000 2.1 50 10:58 01.09.2019
2475 Clouds -1 1036 86 10000 2.1 50 10:58 01.09.2019
2476 Clouds -1 1036 86 10000 2.1 50 10:39 01.09.2019
2477 Clouds -2 1037 92 10000 2.6 80 10:21 01.09.2019
2478 Clouds -2 1037 92 10000 2.6 80 09:42 01.09.2019
2479 Clouds -2 1037 92 10000 2.6 80 09:24 01.09.2019
2480 Clouds -1 1037 92 10000 2.1 60 08:44 01.09.2019
2481 Clouds -1 1037 92 10000 2.1 60 08:23 01.09.2019
2482 Clouds -2 1038 74 10000 1.5 90 07:49 01.09.2019
2483 Clouds -2 1038 74 10000 1.5 90 07:31 01.09.2019
2484 Clouds 3 1038 47 10000 2.1 10 06:42 01.09.2019
2485 Clouds 3 1038 47 10000 2.1 10 06:19 01.09.2019
2486 Clouds 3 1038 51 10000 1 0 05:38 01.09.2019
2487 Clouds 4 1038 51 10000 2.1 70 04:27 01.09.2019
2488 Clouds 5 1037 52 10000 3.6 70 03:39 01.09.2019
2489 Clouds 5 1036 52 10000 3.1 80 02:57 01.09.2019
2490 Clouds 7 1036 45 10000 5.7 60 02:26 01.09.2019
2491 Clouds 7 1036 45 10000 5.7 60 01:41 01.09.2019
2492 Clouds 7 1036 45 10000 5.7 60 01:22 01.09.2019
2493 Clouds 10 1035 39 10000 6.7 30 00:42 01.09.2019
2494 Clouds 15 1034 26 10000 3.1 20 00:21 01.09.2019
2495 Clouds 15 1034 26 10000 3.1 20 00:21 01.09.2019
2496 Clouds 15 1034 26 10000 3.1 20 23:48 31.08.2019
2497 Clouds 15 1035 22 10000 2.6 80 23:22 31.08.2019
2498 Clouds 15 1035 22 10000 2.6 80 22:56 31.08.2019
2499 Clouds 15 1035 22 10000 2.6 80 22:56 31.08.2019
2500 Clouds 15 1035 22 10000 2.6 80 22:38 31.08.2019
2501 Clouds 15 1036 24 10000 3.6 50 22:20 31.08.2019
2502 Clouds 15 1036 24 10000 3.6 50 21:54 31.08.2019
2503 Clouds 15 1036 24 10000 3.6 50 21:54 31.08.2019
2504 Clouds 15 1036 24 10000 3.6 50 21:36 31.08.2019
2505 Clouds 15 1037 16 10000 3.1 80 21:18 31.08.2019
2506 Clouds 15 1037 16 10000 3.1 80 20:42 31.08.2019
2507 Clouds 15 1038 14 10000 3.1 150 20:23 31.08.2019
2508 Clouds 15 1038 14 10000 3.1 150 19:43 31.08.2019
2509 Clouds 15 1038 14 10000 3.1 150 19:23 31.08.2019
2510 Clouds 15 1039 16 10000 3.1 120 18:58 31.08.2019
2511 Clouds 15 1039 16 10000 3.1 120 18:38 31.08.2019
2512 Clouds 15 1039 16 10000 3.1 120 18:19 31.08.2019
2513 Clouds 13 1040 13 10000 2.1 120 17:55 31.08.2019
2514 Clouds 13 1040 13 10000 2.1 120 17:37 31.08.2019
2515 Clouds 13 1040 13 10000 2.1 120 17:37 31.08.2019
2516 Clear 11 1040 17 8000 1 0 17:18 31.08.2019
2517 Clear 11 1040 17 8000 1 0 16:55 31.08.2019
2518 Clear 11 1040 17 8000 1 0 16:36 31.08.2019
2519 Clouds 9 1039 24 8000 1 0 16:18 31.08.2019
2520 Clouds 9 1039 24 8000 1 0 15:41 31.08.2019
2521 Clouds 5 1039 27 10000 1 0 15:18 31.08.2019
2522 Clouds 5 1039 27 10000 1 0 14:44 31.08.2019
2523 Clouds 5 1039 27 10000 1 0 14:26 31.08.2019
2524 Clouds -1 1038 39 10000 1 0 14:26 31.08.2019
2525 Clouds -1 1038 39 10000 1 0 13:59 31.08.2019
2526 Clouds -1 1038 39 10000 1 0 13:38 31.08.2019
2527 Clouds 0 1037 54 10000 1.5 20 13:19 31.08.2019
2528 Clouds 0 1037 54 10000 1.5 20 12:54 31.08.2019
2529 Clouds 0 1037 54 10000 1.5 20 12:36 31.08.2019
2530 Clouds -2 1037 74 10000 1.5 30 12:18 31.08.2019
2531 Clouds -2 1037 74 10000 1.5 30 11:42 31.08.2019
2532 Clouds -3 1037 79 10000 2.1 60 11:24 31.08.2019
2533 Clouds -3 1037 79 10000 2.1 60 10:55 31.08.2019
2534 Clouds -3 1037 79 10000 2.1 60 10:36 31.08.2019
2535 Fog -2 1037 92 4000 2.6 70 10:18 31.08.2019
2536 Fog -2 1037 92 4000 2.6 70 09:40 31.08.2019
2537 Fog -2 1037 92 4000 2.6 70 09:21 31.08.2019
2538 Clouds -1 1037 92 10000 1 0 08:45 31.08.2019
2539 Clouds -1 1037 92 10000 1 0 08:45 31.08.2019
2540 Clouds -1 1037 92 10000 1 0 08:27 31.08.2019
2541 Clear 0 1037 75 10000 2.1 70 07:58 31.08.2019
2542 Clear 0 1037 75 10000 2.1 70 07:37 31.08.2019
2543 Clear 2 1038 80 10000 1 0 07:18 31.08.2019
2544 Clear 2 1038 66 10000 2.6 60 06:26 31.08.2019
2545 Clear 2 1038 66 10000 2.6 60 05:50 31.08.2019
2546 Clear 2 1038 66 10000 2.6 60 05:27 31.08.2019
2547 Clear 3 1037 69 10000 3.1 90 04:28 31.08.2019
2548 Clear 7 1037 56 10000 3.6 110 03:42 31.08.2019
2549 Clouds 11 1035 32 10000 2.6 50 02:22 31.08.2019
2550 Clouds 11 1035 32 10000 2.6 50 01:47 31.08.2019
2551 Clouds 11 1035 32 10000 2.6 50 01:28 31.08.2019
2552 Clouds 15 1034 24 10000 3.6 100 00:45 31.08.2019
2553 Clouds 15 1034 24 10000 3.6 100 00:27 31.08.2019
2554 Clouds 15 1034 24 10000 3.6 100 00:27 31.08.2019
2555 Clouds 18 1034 9 10000 4.1 260 23:48 30.08.2019
2556 Clouds 18 1034 8 10000 3.1 250 23:19 30.08.2019
2557 Clouds 18 1034 8 10000 3.1 250 22:57 30.08.2019
2558 Clouds 18 1034 8 10000 3.1 250 22:37 30.08.2019
2559 Clouds 18 1034 8 10000 3.1 250 22:19 30.08.2019
2560 Clouds 18 1035 10 10000 4.1 270 21:56 30.08.2019
2561 Clouds 18 1035 10 10000 4.1 270 21:36 30.08.2019
2562 Clouds 18 1035 10 10000 4.1 270 21:36 30.08.2019
2563 Clouds 17 1036 12 10000 4.1 190 21:18 30.08.2019
2564 Clouds 17 1036 12 10000 4.1 190 20:42 30.08.2019
2565 Clouds 16 1037 13 10000 3.1 210 20:22 30.08.2019
2566 Clouds 16 1037 13 10000 3.1 210 19:59 30.08.2019
2567 Clouds 16 1037 13 10000 3.1 210 19:40 30.08.2019
2568 Clouds 16 1037 13 10000 3.1 210 19:21 30.08.2019
2569 Clouds 15 1038 14 10000 2.1 210 18:58 30.08.2019
2570 Clouds 15 1038 14 10000 2.1 210 18:39 30.08.2019
2571 Clouds 15 1038 14 10000 2.1 210 18:18 30.08.2019
2572 Clear 14 1039 16 9000 2.1 200 17:55 30.08.2019
2573 Clear 14 1039 16 9000 2.1 200 17:37 30.08.2019
2574 Clear 12 1040 18 9000 2.1 250 17:18 30.08.2019
2575 Clear 12 1040 18 9000 2.1 250 16:43 30.08.2019
2576 Clear 10 1039 29 8000 1 0 16:24 30.08.2019
2577 Clear 10 1039 29 8000 1 0 15:45 30.08.2019
2578 Clear 10 1039 29 8000 1 0 15:25 30.08.2019
2579 Clear 6 1038 33 10000 2.1 20 14:58 30.08.2019
2580 Clear 6 1038 33 10000 2.1 20 14:40 30.08.2019
2581 Clear 6 1038 33 10000 2.1 20 14:22 30.08.2019
2582 Clear 2 1038 43 10000 2.1 30 13:43 30.08.2019
2583 Clear 2 1037 51 10000 2.1 10 13:23 30.08.2019
2584 Clear 2 1037 51 10000 2.1 10 12:56 30.08.2019
2585 Clear 2 1037 51 10000 2.1 10 12:38 30.08.2019
2586 Clear 2 1037 55 10000 2.1 20 12:20 30.08.2019
2587 Clear 2 1037 55 10000 2.1 20 11:41 30.08.2019
2588 Clear 1 1037 50 10000 1 0 11:23 30.08.2019
2589 Clear 1 1037 50 10000 1 0 10:39 30.08.2019
2590 Clear 4 1037 48 10000 2.6 20 10:21 30.08.2019
2591 Clear 4 1037 48 10000 2.6 20 09:58 30.08.2019
2592 Clear 4 1037 48 10000 2.6 20 09:38 30.08.2019
2593 Clouds 4 1038 44 10000 3.1 20 09:19 30.08.2019
2594 Clouds 4 1038 44 10000 3.1 20 08:44 30.08.2019
2595 Clouds 4 1038 44 10000 3.1 20 08:25 30.08.2019
2596 Clouds 4 1038 44 10000 4.1 20 07:58 30.08.2019
2597 Clouds 4 1038 44 10000 4.1 20 07:38 30.08.2019
2598 Clouds 1 1038 80 10000 1 0 07:20 30.08.2019
2599 Clouds 1 1038 80 10000 1 0 06:40 30.08.2019
2600 Clouds 1 1038 80 10000 1 0 06:22 30.08.2019
2601 Clouds 1 1038 50 10000 2.6 110 05:40 30.08.2019
2602 Clouds 4 1038 41 10000 3.1 50 03:58 30.08.2019
2603 Clouds 4 1038 41 10000 3.1 50 03:37 30.08.2019
2604 Clouds 10 1037 29 10000 2.1 320 02:45 30.08.2019
2605 Clouds 10 1036 27 10000 2.1 40 02:19 30.08.2019
2606 Clouds 10 1036 27 10000 2.1 40 00:58 30.08.2019
2607 Clouds 15 1036 10 10000 3.6 80 00:23 30.08.2019
2608 Clouds 16 1036 8 10000 4.1 140 23:49 29.08.2019
2609 Clouds 16 1036 8 10000 4.1 140 23:49 29.08.2019
2610 Clouds 16 1036 9 10000 4.6 160 23:23 29.08.2019
2611 Clouds 16 1036 9 10000 4.6 160 22:58 29.08.2019
2612 Clouds 16 1036 9 10000 4.6 160 22:38 29.08.2019
2613 Clouds 16 1037 9 10000 4.6 140 22:20 29.08.2019
2614 Clouds 16 1037 9 10000 4.6 140 21:42 29.08.2019
2615 Clouds 16 1037 9 10000 4.6 140 21:42 29.08.2019
2616 Clouds 16 1037 12 10000 4.1 160 21:22 29.08.2019
2617 Clouds 16 1037 12 10000 4.1 160 20:59 29.08.2019
2618 Clouds 16 1037 12 10000 4.1 160 20:59 29.08.2019
2619 Clouds 16 1037 12 10000 4.1 160 20:41 29.08.2019
2620 Clouds 15 1038 14 10000 4.6 120 20:19 29.08.2019
2621 Clouds 15 1038 14 10000 4.6 120 19:56 29.08.2019
2622 Clouds 15 1038 14 10000 4.6 120 19:38 29.08.2019
2623 Clouds 15 1038 14 10000 4.6 120 19:19 29.08.2019
2624 Clouds 14 1040 15 10000 3.6 140 18:41 29.08.2019
2625 Clouds 13 1041 19 10000 2.6 260 18:20 29.08.2019
2626 Clouds 13 1041 19 10000 2.6 260 17:56 29.08.2019
2627 Clouds 13 1041 19 10000 2.6 260 17:36 29.08.2019
2628 Clouds 13 1041 19 10000 2.6 260 17:18 29.08.2019
2629 Clear 12 1019 20 0 0.96 104.007 16:43 29.08.2019
2630 Clear 8 1040 33 9000 2.1 250 16:23 29.08.2019
2631 Clear 8 1040 33 9000 2.1 250 15:57 29.08.2019
2632 Clear 8 1040 33 9000 2.1 250 15:37 29.08.2019
2633 Clear 5 1040 44 9000 1 0 15:18 29.08.2019
2634 Clear 5 1040 44 9000 1 0 14:43 29.08.2019
2635 Clear 2 1039 47 9000 3.1 360 14:21 29.08.2019
2636 Clear 2 1039 47 9000 3.1 360 13:58 29.08.2019
2637 Clear 2 1039 47 9000 3.1 360 13:58 29.08.2019
2638 Clear 2 1039 47 9000 3.1 360 13:39 29.08.2019
2639 Clear 2 1039 47 9000 3.1 360 13:39 29.08.2019
2640 Clear 1 1039 55 10000 2.6 10 13:19 29.08.2019
2641 Clear 1 1039 55 10000 2.6 10 12:57 29.08.2019
2642 Clear 1 1039 55 10000 2.6 10 12:38 29.08.2019
2643 Clear 1 1038 47 10000 3.1 10 12:20 29.08.2019
2644 Clear 1 1038 47 10000 3.1 10 11:56 29.08.2019
2645 Clear 1 1038 47 10000 3.1 10 11:36 29.08.2019
2646 Clear 1 1038 47 10000 2.1 10 11:18 29.08.2019
2647 Clear 1 1038 47 10000 2.1 10 10:41 29.08.2019
2648 Clear -2 1039 50 10000 1 0 10:22 29.08.2019
2649 Clear -2 1039 50 10000 1 0 09:42 29.08.2019
2650 Clear 0 1039 84 10000 1 0 09:20 29.08.2019
2651 Clear 0 1039 84 10000 1 0 08:56 29.08.2019
2652 Clear 0 1039 84 10000 1 0 08:36 29.08.2019
2653 Clear -1 1039 58 10000 1.5 20 08:18 29.08.2019
2654 Clear -1 1039 58 10000 1.5 20 07:41 29.08.2019
2655 Clear -1 1040 68 10000 2.6 70 07:23 29.08.2019
2656 Clear -1 1040 68 10000 2.6 70 06:41 29.08.2019
2657 Clear 1 1040 50 10000 3.1 70 05:54 29.08.2019
2658 Clear 1 1040 50 10000 3.1 70 05:33 29.08.2019
2659 Clear 2 1039 55 10000 2.1 60 04:49 29.08.2019
2660 Clear 2 1039 55 10000 2.1 60 04:28 29.08.2019
2661 Clouds 9 1038 34 10000 4.6 120 02:21 29.08.2019
2662 Clouds 9 1038 34 10000 4.6 120 01:41 29.08.2019
2663 Clouds 12 1037 11 10000 4.6 100 00:51 29.08.2019
2664 Clouds 14 1037 8 10000 4.1 90 00:24 29.08.2019
2665 Clouds 14 1037 8 10000 4.1 90 23:59 28.08.2019
2666 Clouds 14 1037 8 10000 4.1 90 23:40 28.08.2019
2667 Clouds 14 1037 8 10000 4.1 90 23:22 28.08.2019
2668 Clouds 14 1037 8 10000 4.1 90 23:22 28.08.2019
2669 Clouds 14 1038 17 10000 5.1 120 22:56 28.08.2019
2670 Clouds 14 1038 17 10000 5.1 120 22:38 28.08.2019
2671 Clouds 15 1038 13 10000 4.1 90 22:18 28.08.2019
2672 Clouds 15 1038 13 10000 4.1 90 22:18 28.08.2019
2673 Clouds 15 1038 13 10000 4.1 90 21:43 28.08.2019
2674 Clouds 15 1038 13 10000 4.1 90 21:25 28.08.2019
2675 Clouds 13 1040 9 10000 4.6 140 20:59 28.08.2019
2676 Clouds 13 1040 9 10000 4.6 140 20:40 28.08.2019
2677 Clouds 12 1041 16 10000 4.6 110 20:22 28.08.2019
2678 Clouds 12 1041 16 10000 4.6 110 20:22 28.08.2019
2679 Clouds 12 1041 16 10000 4.6 110 19:43 28.08.2019
2680 Clouds 12 1041 16 10000 4.6 110 19:22 28.08.2019
2681 Clouds 12 1042 23 10000 4.1 170 18:59 28.08.2019
2682 Clouds 12 1042 23 10000 4.1 170 18:39 28.08.2019
2683 Clouds 12 1042 23 10000 4.1 170 18:21 28.08.2019
2684 Clouds 10 1043 34 9000 1 0 17:39 28.08.2019
2685 Clear 8 1043 42 8000 1 0 17:19 28.08.2019
2686 Clear 8 1043 42 8000 1 0 16:45 28.08.2019
2687 Clouds 5 1042 56 8000 1 0 16:23 28.08.2019
2688 Clouds 5 1042 56 8000 1 0 16:23 28.08.2019
2689 Clouds 5 1042 56 8000 1 0 15:59 28.08.2019
2690 Clouds 5 1042 56 8000 1 0 15:38 28.08.2019
2691 Clouds 2 1041 69 8000 0.45 164.003 15:20 28.08.2019
2692 Clouds 2 1041 69 8000 0.45 164.003 14:57 28.08.2019
2693 Clouds 2 1041 69 8000 0.45 164.003 14:38 28.08.2019
2694 Clouds -5 1040 79 6000 1 0 14:20 28.08.2019
2695 Clouds -5 1040 79 6000 1 0 13:58 28.08.2019
2696 Clouds -5 1040 79 6000 1 0 13:38 28.08.2019
2697 Fog -2 1040 92 4000 1 0 13:19 28.08.2019
2698 Fog -2 1040 92 4000 1 0 12:42 28.08.2019
2699 Fog 0 1039 82 4000 2.6 40 12:23 28.08.2019
2700 Fog 0 1039 82 4000 2.6 40 11:55 28.08.2019
2701 Fog 0 1039 82 4000 2.6 40 11:37 28.08.2019
2702 Fog -1 1039 86 4000 1.5 360 11:18 28.08.2019
2703 Fog -1 1039 86 4000 1.5 360 10:41 28.08.2019
2704 Fog -4 1039 92 4000 2.1 110 10:22 28.08.2019
2705 Fog -4 1039 92 4000 2.1 110 09:59 28.08.2019
2706 Fog -4 1039 92 4000 2.1 110 09:40 28.08.2019
2707 Fog -3 1040 86 4000 2.1 70 09:19 28.08.2019
2708 Fog -3 1040 86 4000 2.1 70 08:39 28.08.2019
2709 Clouds -2 1040 86 10000 2.1 90 08:20 28.08.2019
2710 Clouds -2 1040 86 10000 2.1 90 07:43 28.08.2019
2711 Clouds -2 1040 86 10000 2.1 90 07:24 28.08.2019
2712 Clear -1 1041 74 10000 2.6 90 06:55 28.08.2019
2713 Clear -1 1041 74 10000 2.6 90 06:36 28.08.2019
2714 Clear 2 1041 64 10000 3.6 80 05:43 28.08.2019
2715 Clouds 5 1040 38 10000 3.6 60 02:50 28.08.2019
2716 Clouds 6 1039 45 10000 5.7 50 01:32 28.08.2019
2717 Clouds 8 1039 39 10000 5.1 60 00:59 28.08.2019
2718 Clouds 8 1039 39 10000 5.1 60 00:40 28.08.2019
2719 Clouds 11 1038 32 10000 7.2 50 23:59 27.08.2019
2720 Clouds 11 1038 32 10000 7.2 50 23:39 27.08.2019
2721 Clouds 11 1038 29 9000 8.2 50 23:21 27.08.2019
2722 Clouds 11 1038 29 9000 8.2 50 22:43 27.08.2019
2723 Clouds 12 1038 30 10000 7.2 50 22:23 27.08.2019
2724 Clouds 12 1038 30 10000 7.2 50 21:57 27.08.2019
2725 Clouds 12 1038 30 10000 7.2 50 21:39 27.08.2019
2726 Clouds 12 1039 32 10000 5.7 130 21:21 27.08.2019
2727 Clouds 12 1039 32 10000 5.7 130 20:59 27.08.2019
2728 Clouds 12 1039 32 10000 5.7 130 20:40 27.08.2019
2729 Clouds 13 1040 32 10000 3.6 100 20:20 27.08.2019
2730 Clouds 13 1040 32 10000 3.6 100 19:55 27.08.2019
2731 Clouds 13 1040 32 10000 3.6 100 19:37 27.08.2019
2732 Clouds 11 1041 40 10000 5.1 130 19:18 27.08.2019
2733 Clouds 11 1041 40 10000 5.1 130 18:41 27.08.2019
2734 Clouds 11 1041 40 10000 5.1 130 18:18 27.08.2019
2735 Clouds 9 1042 31 10000 3.6 130 17:56 27.08.2019
2736 Clouds 9 1042 31 10000 3.6 130 17:56 27.08.2019
2737 Clouds 9 1042 31 10000 3.6 130 17:37 27.08.2019
2738 Clouds 7 1042 31 8000 3.6 130 17:18 27.08.2019
2739 Clouds 7 1042 31 8000 3.6 130 16:43 27.08.2019
2740 Clouds 5 1041 31 8000 3.1 130 16:24 27.08.2019
2741 Clouds 5 1041 31 8000 3.1 130 15:57 27.08.2019
2742 Clouds 5 1041 31 8000 3.1 130 15:38 27.08.2019
2743 Fog 2 1040 93 4000 2.6 100 15:19 27.08.2019
2744 Fog 2 1040 93 4000 2.6 100 15:19 27.08.2019
2745 Fog 2 1040 93 4000 2.6 100 14:43 27.08.2019
2746 Fog 2 1040 93 4000 2.6 100 14:24 27.08.2019
2747 Mist -1 1040 92 2000 2.6 90 13:56 27.08.2019
2748 Mist -1 1040 92 2000 2.6 90 13:36 27.08.2019
2749 Fog -5 1040 92 800 1 0 13:18 27.08.2019
2750 Fog -2 1039 92 4000 1 0 12:41 27.08.2019
2751 Fog -2 1038 92 4000 2.1 70 12:20 27.08.2019
2752 Fog -2 1038 92 4000 2.1 70 11:47 27.08.2019
2753 Fog -2 1038 92 4000 2.1 70 11:28 27.08.2019
2754 Fog -3 1038 92 4000 1 0 10:56 27.08.2019
2755 Fog -3 1038 92 4000 1 0 10:38 27.08.2019
2756 Fog -3 1038 92 4000 1 0 10:18 27.08.2019
2757 Fog -3 1038 92 4000 1 0 09:41 27.08.2019
2758 Clear 2 1024 84 0 2.54 151.748 09:21 27.08.2019
2759 Clouds -4 1039 79 10000 1.5 110 08:59 27.08.2019
2760 Clouds -4 1039 79 10000 1.5 110 08:59 27.08.2019
2761 Clouds -4 1039 79 10000 1.5 110 08:40 27.08.2019
2762 Clouds -4 1039 79 10000 1.5 110 08:21 27.08.2019
2763 Clear 0 1039 84 10000 1 0 07:41 27.08.2019
2764 Clear 0 1039 84 10000 3.6 60 07:20 27.08.2019
2765 Clear 0 1039 84 10000 3.6 60 06:54 27.08.2019
2766 Clear 0 1039 84 10000 3.6 60 06:27 27.08.2019
2767 Clear 3 1039 69 10000 4.1 90 05:47 27.08.2019
2768 Clear 3 1038 55 10000 3.6 70 04:44 27.08.2019
2769 Clear 4 1038 48 10000 4.1 70 03:39 27.08.2019
2770 Clouds 8 1037 36 10000 3.6 60 02:23 27.08.2019
2771 Clouds 8 1037 36 10000 3.6 60 01:40 27.08.2019
2772 Clouds 11 1036 13 10000 4.6 90 01:21 27.08.2019
2773 Clouds 11 1036 13 10000 4.6 90 00:43 27.08.2019
2774 Clouds 14 1036 14 10000 4.6 90 00:23 27.08.2019
2775 Clouds 14 1036 14 10000 4.6 90 23:39 26.08.2019
2776 Clouds 14 1036 14 10000 3.1 160 23:20 26.08.2019
2777 Clouds 14 1036 14 10000 3.1 160 22:40 26.08.2019
2778 Clouds 14 1036 14 10000 3.1 160 22:20 26.08.2019
2779 Clouds 14 1037 12 10000 2.6 100 21:59 26.08.2019
2780 Clouds 14 1037 12 10000 2.6 100 21:38 26.08.2019
2781 Clouds 14 1037 12 10000 2.6 100 21:20 26.08.2019
2782 Clouds 14 1038 12 10000 3.1 120 20:56 26.08.2019
2783 Clouds 14 1038 12 10000 3.1 120 20:37 26.08.2019
2784 Clouds 14 1038 12 10000 3.1 120 20:37 26.08.2019
2785 Clouds 14 1038 12 10000 3.1 120 20:18 26.08.2019
2786 Clouds 13 1039 16 10000 2.1 150 19:42 26.08.2019
2787 Clouds 13 1039 16 10000 2.1 150 19:19 26.08.2019
2788 Clouds 12 1040 17 9000 2.6 100 19:19 26.08.2019
2789 Clouds 13 1039 16 10000 2.1 150 19:19 26.08.2019
2790 Clouds 12 1040 17 9000 2.6 100 18:58 26.08.2019
2791 Clouds 12 1040 17 9000 2.6 100 18:38 26.08.2019
2792 Clouds 12 1040 17 9000 2.6 100 18:19 26.08.2019
2793 Clouds 11 1041 34 9000 2.1 140 17:44 26.08.2019
2794 Clouds 11 1041 34 9000 2.1 140 17:20 26.08.2019
2795 Clouds 8 1041 49 8000 2.1 170 16:57 26.08.2019
2796 Clouds 8 1041 49 8000 2.1 170 16:39 26.08.2019
2797 Clouds 8 1041 49 8000 2.1 170 16:18 26.08.2019
2798 Clouds 5 1040 60 8000 1 0 16:18 26.08.2019
2799 Clouds 5 1040 60 8000 1 0 15:54 26.08.2019
2800 Clouds 5 1040 60 8000 1 0 15:36 26.08.2019
2801 Clouds 5 1040 60 8000 1 0 15:18 26.08.2019
2802 Clouds 2 1040 93 6000 1 0 14:42 26.08.2019
2803 Clouds 2 1040 93 6000 1 0 14:22 26.08.2019
2804 Fog -6 1039 92 1200 3.1 80 13:43 26.08.2019
2805 Fog -6 1039 92 1200 3.1 80 13:23 26.08.2019
2806 Clouds -8 1038 67 6000 3.1 80 12:57 26.08.2019
2807 Clouds -8 1038 67 6000 3.1 80 12:39 26.08.2019
2808 Clouds -8 1038 67 6000 3.1 80 12:20 26.08.2019
2809 Clouds -6 1038 62 6000 3.1 70 11:38 26.08.2019
2810 Clouds -6 1038 62 6000 3.1 70 11:20 26.08.2019
2811 Clear 0 1039 21 10000 2.1 10 10:57 26.08.2019
2812 Clear 0 1039 21 10000 2.1 10 10:39 26.08.2019
2813 Clear 0 1039 21 10000 2.1 10 10:18 26.08.2019
2814 Clear 0 1039 21 10000 2.1 10 09:42 26.08.2019
2815 Clear 1 1023 22 0 1.41 173.736 09:23 26.08.2019
2816 Clear 0 1039 22 10000 2.6 360 08:56 26.08.2019
2817 Clear 0 1039 22 10000 2.6 360 08:37 26.08.2019
2818 Clear 0 1039 22 10000 2.6 360 08:19 26.08.2019
2819 Clear 1 1039 24 10000 2.6 360 07:42 26.08.2019
2820 Clear 1 1039 24 10000 2.6 360 07:24 26.08.2019
2821 Clear 2 1040 24 10000 2.6 360 06:50 26.08.2019
2822 Clear 2 1040 24 10000 2.6 360 06:26 26.08.2019
2823 Clear 3 1040 17 10000 1 0 05:58 26.08.2019
2824 Clouds 4 1040 35 10000 1 0 04:35 26.08.2019
2825 Clouds 3 1039 59 10000 3.6 100 03:48 26.08.2019
2826 Clouds 7 1037 48 10000 2.6 150 02:19 26.08.2019
2827 Clouds 13 1035 7 10000 4.6 240 01:22 26.08.2019
2828 Clouds 13 1035 7 10000 4.6 240 00:42 26.08.2019
2829 Clouds 13 1035 7 10000 4.6 240 00:24 26.08.2019
2830 Clouds 14 1035 9 10000 3.6 190 23:44 25.08.2019
2831 Clouds 14 1035 9 10000 3.6 190 23:20 25.08.2019
2832 Clouds 12 1036 9 10000 6.2 240 22:58 25.08.2019
2833 Clouds 12 1036 9 10000 6.2 240 22:39 25.08.2019
2834 Clouds 12 1036 9 10000 6.2 240 22:20 25.08.2019
2835 Clouds 15 1036 11 10000 4.1 240 21:57 25.08.2019
2836 Clouds 15 1036 11 10000 4.1 240 21:38 25.08.2019
2837 Clouds 13 1037 12 10000 4.1 210 21:18 25.08.2019
2838 Clouds 13 1037 12 10000 4.1 210 20:40 25.08.2019
2839 Clouds 13 1037 12 10000 4.1 210 20:20 25.08.2019
2840 Clouds 13 1039 12 10000 4.6 290 19:58 25.08.2019
2841 Clouds 13 1039 12 10000 4.6 290 19:39 25.08.2019
2842 Clouds 13 1039 12 10000 4.6 290 19:19 25.08.2019
2843 Clouds 13 1040 15 10000 4.6 280 18:57 25.08.2019
2844 Clouds 13 1040 15 10000 4.6 280 18:39 25.08.2019
2845 Clouds 9 1040 42 9000 2.6 230 18:20 25.08.2019
2846 Clouds 9 1040 42 9000 2.6 230 17:43 25.08.2019
2847 Clouds 9 1040 42 9000 2.6 230 17:25 25.08.2019
2848 Clouds 8 1040 45 8000 2.1 230 16:54 25.08.2019
2849 Clouds 8 1040 45 8000 2.1 230 16:36 25.08.2019
2850 Clouds 8 1040 45 8000 2.1 230 16:18 25.08.2019
2851 Clouds 6 1040 25 8000 1 0 15:42 25.08.2019
2852 Clouds 6 1040 60 8000 1 0 15:23 25.08.2019
2853 Clouds 4 1039 80 6000 1.5 90 14:43 25.08.2019
2854 Clouds 4 1039 80 6000 1.5 90 14:24 25.08.2019
2855 Fog 0 1038 60 3000 1.5 70 13:56 25.08.2019
2856 Fog 0 1038 60 3000 1.5 70 13:37 25.08.2019
2857 Fog 0 1038 69 3000 1.5 70 13:18 25.08.2019
2858 Fog 1 1038 69 500 3.1 90 12:41 25.08.2019
2859 Fog 1 1038 87 500 3.1 90 12:23 25.08.2019
2860 Fog -2 1037 92 4000 1.5 100 11:57 25.08.2019
2861 Fog -2 1037 92 4000 1.5 100 11:37 25.08.2019
2862 Fog -2 1037 92 4000 1.5 100 11:19 25.08.2019
2863 Clouds -1 1037 92 10000 2.1 20 10:56 25.08.2019
2864 Clouds -1 1037 92 10000 2.1 20 10:37 25.08.2019
2865 Clouds -1 1037 80 10000 1 0 10:19 25.08.2019
2866 Clouds -1 1037 80 10000 1 0 09:42 25.08.2019
2867 Clouds -1 1037 80 10000 1 0 09:23 25.08.2019
2868 Clouds 0 1038 76 10000 1 0 08:47 25.08.2019
2869 Clouds 0 1038 76 10000 1 0 08:28 25.08.2019
2870 Clouds 1 1038 86 10000 1 0 07:49 25.08.2019
2871 Clouds 1 1038 86 10000 1 0 07:30 25.08.2019
2872 Clouds 2 1039 76 10000 3.1 80 06:37 25.08.2019
2873 Clouds 4 1039 64 10000 2.6 80 05:27 25.08.2019
2874 Thunderstorm 7 1039 52 10000 4.6 140 03:43 25.08.2019
2875 Clouds 7 1038 48 10000 2.6 130 02:42 25.08.2019
2876 Clouds 7 1037 48 10000 5.1 100 01:45 25.08.2019
2877 Clouds 10 1036 39 10000 4.6 60 00:42 25.08.2019
2878 Clouds 10 1036 39 10000 4.6 60 00:22 25.08.2019
2879 Clouds 10 1036 46 10000 6.2 40 23:54 24.08.2019
2880 Clouds 10 1036 46 10000 6.2 40 23:24 24.08.2019
2881 Thunderstorm 10 1036 39 10000 8.2 360 22:58 24.08.2019
2882 Thunderstorm 10 1036 39 10000 8.2 360 22:40 24.08.2019
2883 Thunderstorm 10 1036 39 10000 8.2 360 22:19 24.08.2019
2884 Clouds 14 1036 28 10000 5.1 130 21:56 24.08.2019
2885 Clouds 14 1036 28 10000 5.1 130 21:38 24.08.2019
2886 Clouds 14 1036 28 10000 5.1 130 21:20 24.08.2019
2887 Clouds 11 1038 29 10000 4.1 160 20:56 24.08.2019
2888 Clouds 11 1038 29 10000 4.1 160 20:56 24.08.2019
2889 Clouds 11 1038 29 10000 4.1 160 20:37 24.08.2019
2890 Clouds 11 1038 29 10000 4.1 160 20:37 24.08.2019
2891 Clouds 11 1038 29 10000 4.1 160 20:18 24.08.2019
2892 Thunderstorm 12 1038 28 10000 3.1 200 19:57 24.08.2019
2893 Thunderstorm 12 1038 28 10000 3.1 200 19:57 24.08.2019
2894 Thunderstorm 12 1038 28 10000 3.1 200 19:38 24.08.2019
2895 Thunderstorm 12 1038 28 10000 3.1 200 19:18 24.08.2019
2896 Thunderstorm 12 1038 28 10000 3.1 200 19:18 24.08.2019
2897 Clouds 12 1040 46 9000 3.6 140 18:42 24.08.2019
2898 Clouds 12 1040 46 9000 3.6 140 18:23 24.08.2019
2899 Clouds 9 1040 61 8000 3.1 90 17:45 24.08.2019
2900 Clouds 9 1040 61 8000 3.1 90 17:25 24.08.2019
2901 Clouds 7 1041 75 8000 3.1 110 16:51 24.08.2019
2902 Clouds 7 1041 75 8000 3.1 110 16:51 24.08.2019
2903 Clouds 7 1041 75 8000 3.1 110 16:21 24.08.2019
2904 Clouds 6 1040 41 8000 1 0 15:59 24.08.2019
2905 Clouds 6 1040 41 8000 1 0 15:41 24.08.2019
2906 Clouds 6 1040 41 8000 1 0 15:41 24.08.2019
2907 Clouds 6 1040 77 8000 1 0 15:23 24.08.2019
2908 Clouds 3 1040 86 8000 2.1 80 14:44 24.08.2019
2909 Clouds 3 1040 86 8000 2.1 80 14:23 24.08.2019
2910 Clouds -3 1039 92 9000 2.1 70 13:59 24.08.2019
2911 Clouds -3 1039 92 9000 2.1 70 13:59 24.08.2019
2912 Clouds -3 1039 92 9000 2.1 70 13:40 24.08.2019
2913 Clouds -3 1039 92 9000 2.1 70 13:21 24.08.2019
2914 Clouds -3 1039 92 10000 2.6 80 12:58 24.08.2019
2915 Clouds -3 1039 92 10000 2.6 80 12:39 24.08.2019
2916 Fog -2 1039 92 4000 2.1 70 12:20 24.08.2019
2917 Fog -2 1039 92 4000 2.1 70 11:45 24.08.2019
2918 Fog -2 1039 92 4000 2.1 70 11:22 24.08.2019
2919 Clouds -1 1038 86 10000 1 0 10:52 24.08.2019
2920 Clouds -1 1038 86 10000 1 0 10:24 24.08.2019
2921 Fog -2 1039 92 4000 2.1 60 09:45 24.08.2019
2922 Fog -2 1039 92 4000 2.1 60 09:22 24.08.2019
2923 Clouds 0 1039 86 10000 0.23 34.571 08:58 24.08.2019
2924 Clouds 0 1039 86 10000 0.23 34.571 08:40 24.08.2019
2925 Clouds 0 1039 86 10000 0.23 34.571 08:21 24.08.2019
2926 Clouds 1 1040 86 10000 0.23 34.571 07:49 24.08.2019
2927 Clouds 1 1040 86 10000 0.23 34.571 07:27 24.08.2019
2928 Clouds 1 1040 86 10000 2.6 50 06:29 24.08.2019
2929 Clouds 2 1041 93 10000 2.6 80 05:42 24.08.2019
2930 Clouds 3 1040 86 10000 3.6 80 04:46 24.08.2019
2931 Clouds 4 1040 80 10000 3.1 60 03:37 24.08.2019
2932 Clouds 5 1039 75 10000 2.1 50 02:26 24.08.2019
2933 Clouds 6 1039 75 10000 4.1 70 01:31 24.08.2019
2934 Thunderstorm 7 1039 56 9000 3.6 140 00:53 24.08.2019
2935 Thunderstorm 9 1038 49 9000 5.1 110 00:26 24.08.2019
2936 Clouds 13 1037 30 9000 5.1 120 23:58 23.08.2019
2937 Clouds 13 1037 30 9000 5.1 120 23:37 23.08.2019
2938 Clouds 13 1037 30 9000 5.1 120 23:18 23.08.2019
2939 Clouds 14 1038 28 9000 4.6 100 22:42 23.08.2019
2940 Clouds 14 1038 28 9000 4.6 100 22:23 23.08.2019
2941 Clouds 14 1039 28 9000 3.1 140 21:40 23.08.2019
2942 Clouds 14 1039 28 9000 3.1 140 21:21 23.08.2019
2943 Clouds 15 1040 22 9000 3.1 150 20:56 23.08.2019
2944 Clouds 15 1040 22 9000 3.1 150 20:37 23.08.2019
2945 Clouds 15 1040 22 9000 3.1 150 20:19 23.08.2019
2946 Clouds 13 1041 26 9000 3.1 280 19:43 23.08.2019
2947 Clouds 11 1042 34 9000 2.6 230 19:18 23.08.2019
2948 Clouds 11 1042 34 9000 2.6 230 18:44 23.08.2019
2949 Clouds 11 1042 34 9000 2.6 230 18:44 23.08.2019
2950 Clouds 11 1042 34 9000 2.6 230 18:26 23.08.2019
2951 Clouds 9 1043 45 9000 2.6 150 17:47 23.08.2019
2952 Clouds 9 1043 45 9000 2.6 150 17:28 23.08.2019
2953 Clouds 7 1043 56 8000 2.1 220 16:59 23.08.2019
2954 Clouds 7 1043 56 8000 2.1 220 16:40 23.08.2019
2955 Clouds 7 1043 56 8000 2.1 220 16:22 23.08.2019
2956 Clouds 5 1043 42 8000 2.1 230 15:41 23.08.2019
2957 Clouds 5 1043 76 8000 2.1 230 15:22 23.08.2019
2958 Clouds 2 1042 74 8000 2.1 360 14:59 23.08.2019
2959 Clouds 2 1042 74 8000 2.1 360 14:40 23.08.2019
2960 Clouds 2 1042 74 8000 2.1 360 14:20 23.08.2019
2961 Clouds 0 1042 76 8000 2.1 360 13:56 23.08.2019
2962 Clouds 0 1042 76 8000 2.1 360 13:38 23.08.2019
2963 Clouds 0 1041 74 10000 1.5 360 13:19 23.08.2019
2964 Clouds 0 1041 74 10000 1.5 360 12:44 23.08.2019
2965 -273 0 0 0 0 0 12:25 23.08.2019
2966 Clouds -1 1041 92 10000 1.5 10 11:59 23.08.2019
2967 Clouds -1 1041 92 10000 1.5 10 11:41 23.08.2019
2968 Clouds -1 1041 92 10000 1.5 10 11:41 23.08.2019
2969 Clouds -1 1041 92 10000 1.5 10 11:20 23.08.2019
2970 Clouds -1 1041 80 10000 1.5 30 10:58 23.08.2019
2971 Clouds -1 1041 80 10000 1.5 30 10:58 23.08.2019
2972 Clouds -1 1041 80 10000 1.5 30 10:40 23.08.2019
2973 Clouds -1 1041 80 10000 1.5 30 10:21 23.08.2019
2974 Fog 0 1041 83 4000 1 0 09:45 23.08.2019
2975 Fog 0 1041 83 4000 1 0 09:45 23.08.2019
2976 Fog 0 1041 83 4000 1 0 09:26 23.08.2019
2977 Fog 2 1041 72 4000 3.6 80 08:57 23.08.2019
2978 Fog 2 1041 72 4000 3.6 80 08:37 23.08.2019
2979 Fog 2 1041 72 4000 3.6 80 08:37 23.08.2019
2980 Fog 2 1041 72 4000 3.6 80 08:18 23.08.2019
2981 Clear 3 1041 74 10000 4.1 100 07:41 23.08.2019
2982 Clear 3 1041 74 10000 4.1 100 07:23 23.08.2019
2983 Clear 3 1041 64 10000 3.1 80 06:43 23.08.2019
2984 Clear 3 1041 64 10000 3.1 80 06:22 23.08.2019
2985 Clear 3 1041 64 10000 3.1 100 05:45 23.08.2019
2986 Clear 3 1041 64 10000 3.1 100 05:25 23.08.2019
2987 Clear 6 1040 41 10000 4.6 80 03:57 23.08.2019
2988 Clouds 8 1039 45 10000 5.1 90 02:39 23.08.2019
2989 Clouds 8 1039 45 10000 5.1 90 02:20 23.08.2019
2990 Clouds 13 1038 20 10000 5.7 40 00:58 23.08.2019
2991 Clouds 13 1038 20 10000 5.7 40 00:39 23.08.2019
2992 Clouds 15 1038 16 10000 5.1 90 00:18 23.08.2019
2993 Clouds 15 1038 16 10000 5.1 90 23:41 22.08.2019
2994 Clouds 15 1038 16 10000 5.1 90 23:21 22.08.2019
2995 Clouds 16 1038 11 10000 5.7 100 22:42 22.08.2019
2996 Clouds 16 1038 11 10000 5.7 100 22:24 22.08.2019
2997 Clouds 16 1038 11 10000 5.7 100 22:24 22.08.2019
2998 Clouds 16 1038 8 10000 7.2 110 21:58 22.08.2019
2999 Clouds 16 1038 8 10000 7.2 110 21:40 22.08.2019
3000 Clouds 16 1038 8 10000 7.2 110 21:22 22.08.2019
3001 Clouds 15 1039 21 10000 4.6 120 20:58 22.08.2019
3002 Clouds 15 1039 21 10000 4.6 120 20:39 22.08.2019
3003 Clouds 15 1039 21 10000 4.6 120 20:20 22.08.2019
3004 Clouds 14 1040 24 10000 4.1 110 19:56 22.08.2019
3005 Clouds 14 1040 24 10000 4.1 110 19:38 22.08.2019
3006 Clouds 14 1040 24 10000 4.1 110 19:20 22.08.2019
3007 Clouds 13 1041 30 9000 2.6 160 18:57 22.08.2019
3008 Clouds 13 1041 30 9000 2.6 160 18:39 22.08.2019
3009 Clouds 11 1042 43 8000 2.6 140 18:18 22.08.2019
3010 Clouds 11 1042 43 8000 2.6 140 17:43 22.08.2019
3011 Clouds 8 1042 61 8000 3.1 130 17:24 22.08.2019
3012 Clouds 8 1042 61 8000 3.1 130 16:59 22.08.2019
3013 Clouds 8 1042 61 8000 3.1 130 16:40 22.08.2019
3014 Clouds 8 1042 61 8000 3.1 130 16:21 22.08.2019
3015 Clouds 8 1042 61 8000 3.1 130 16:21 22.08.2019
3016 Clouds 8 1042 61 8000 3.1 130 16:21 22.08.2019
3017 Clouds 6 1042 70 7000 4.6 90 15:59 22.08.2019
3018 Clouds 6 1042 70 7000 4.6 90 15:59 22.08.2019
3019 Clouds 6 1042 70 7000 4.6 90 15:38 22.08.2019
3020 Clouds 6 1042 70 7000 4.6 90 15:38 22.08.2019
3021 Clouds 6 1042 70 7000 4.6 90 15:20 22.08.2019
3022 Clouds 6 1042 70 7000 4.6 90 15:20 22.08.2019
3023 Clouds 4 1041 80 8000 4.1 90 14:56 22.08.2019
3024 Clouds 4 1041 80 8000 4.1 90 14:38 22.08.2019
3025 Clouds 4 1041 80 8000 4.1 90 14:18 22.08.2019
3026 Fog 0 1040 81 4000 4.1 80 13:42 22.08.2019
3027 Fog 0 1040 77 4000 4.1 80 13:24 22.08.2019
3028 Fog 0 1040 77 4000 3.1 90 12:59 22.08.2019
3029 Fog 0 1040 77 4000 3.1 90 12:39 22.08.2019
3030 Fog 0 1040 90 4000 3.1 90 12:20 22.08.2019
3031 Fog -1 1039 92 4000 3.6 80 11:43 22.08.2019
3032 Fog -1 1039 92 4000 3.6 80 11:22 22.08.2019
3033 Fog 0 1040 90 4000 3.6 70 10:59 22.08.2019
3034 Fog 0 1040 90 4000 3.6 70 10:41 22.08.2019
3035 Fog 0 1040 90 4000 3.6 70 10:41 22.08.2019
3036 Fog 0 1040 90 4000 3.6 70 10:23 22.08.2019
3037 Clouds -2 1039 79 10000 1.5 100 10:00 22.08.2019
3038 Clouds -2 1039 79 10000 1.5 100 09:39 22.08.2019
3039 Clouds -2 1039 79 10000 1.5 100 09:21 22.08.2019
3040 Clear -1 1040 74 10000 3.6 90 08:57 22.08.2019
3041 Clear -1 1040 74 10000 3.6 90 08:38 22.08.2019
3042 Clear -1 1040 74 10000 3.6 90 08:20 22.08.2019
3043 Clear 0 1040 87 10000 2.6 50 07:41 22.08.2019
3044 Clear -1 1041 63 10000 1 0 07:20 22.08.2019
3045 Clear -1 1041 63 10000 1 0 06:55 22.08.2019
3046 Clear -1 1041 63 10000 1 0 06:24 22.08.2019
3047 Clear 3 1041 37 10000 1 0 05:58 22.08.2019
3048 Clear 3 1040 51 10000 2.1 60 04:38 22.08.2019
3049 Clear 7 1039 33 10000 1 0 02:51 22.08.2019
3050 Clear 7 1039 33 10000 1 0 02:33 22.08.2019
3051 Clouds 9 1039 29 10000 3.1 50 01:25 22.08.2019
3052 Clouds 12 1038 25 10000 5.1 120 00:45 22.08.2019
3053 Clouds 12 1038 25 10000 5.1 120 00:27 22.08.2019
3054 Clouds 14 1038 26 10000 5.1 120 23:54 21.08.2019
3055 Clouds 14 1038 26 10000 5.1 120 23:36 21.08.2019
3056 Clouds 14 1038 26 10000 5.1 120 23:18 21.08.2019
3057 Clouds 14 1038 24 10000 3.6 120 22:41 21.08.2019
3058 Clouds 14 1038 24 10000 3.6 120 22:22 21.08.2019
3059 Clouds 15 1039 11 10000 5.1 130 21:59 21.08.2019
3060 Clouds 15 1039 11 10000 5.1 130 21:39 21.08.2019
3061 Clouds 15 1039 11 10000 5.1 130 21:20 21.08.2019
3062 Clouds 14 1040 20 10000 4.1 160 20:59 21.08.2019
3063 Clouds 14 1040 20 10000 4.1 160 20:41 21.08.2019
3064 Clouds 14 1040 20 10000 4.1 160 20:23 21.08.2019
3065 Clouds 13 1041 30 10000 3.6 230 19:56 21.08.2019
3066 Clouds 13 1041 30 10000 3.6 230 19:37 21.08.2019
3067 Clouds 12 1042 34 8000 3.1 280 19:19 21.08.2019
3068 Clouds 12 1042 34 8000 3.1 280 18:43 21.08.2019
3069 Clouds 12 1042 34 8000 3.1 280 18:23 21.08.2019
3070 Clouds 10 1043 46 8000 1 0 18:23 21.08.2019
3071 Clouds 10 1043 46 8000 1 0 17:54 21.08.2019
3072 Clouds 10 1043 46 8000 1 0 17:36 21.08.2019
3073 Clouds 10 1043 46 8000 1 0 17:18 21.08.2019
3074 Clouds 8 1043 46 7000 1 0 16:42 21.08.2019
3075 Clouds 8 1043 46 7000 1 0 16:23 21.08.2019
3076 Clouds 5 1042 75 6000 1 0 15:59 21.08.2019
3077 Clouds 5 1042 75 6000 1 0 15:41 21.08.2019
3078 Clouds 5 1042 75 6000 1 0 15:21 21.08.2019
3079 Fog 2 1041 93 4000 1 0 14:57 21.08.2019
3080 Fog 2 1041 93 4000 1 0 14:39 21.08.2019
3081 Fog 2 1041 93 4000 1 0 14:20 21.08.2019
3082 Fog -3 1041 92 4000 2.6 70 13:46 21.08.2019
3083 Fog -3 1041 92 4000 2.6 70 13:23 21.08.2019
3084 Clouds -4 1040 79 8000 1 0 12:59 21.08.2019
3085 Clouds -4 1040 79 8000 1 0 12:40 21.08.2019
3086 Clouds -4 1040 79 8000 1 0 12:21 21.08.2019
3087 Fog -2 1040 92 4000 1.5 30 11:58 21.08.2019
3088 Fog -2 1040 92 4000 1.5 30 11:39 21.08.2019
3089 Fog -2 1040 92 4000 1.5 30 11:39 21.08.2019
3090 Fog -2 1040 92 4000 1.5 30 11:21 21.08.2019
3091 Fog 0 1039 92 4000 1 0 10:56 21.08.2019
3092 Fog 0 1039 92 4000 1 0 10:37 21.08.2019
3093 Fog 0 1039 92 4000 1 0 10:19 21.08.2019
3094 Fog 1 1039 92 4000 1.5 90 09:42 21.08.2019
3095 Fog 1 1039 82 4000 1.5 90 09:23 21.08.2019
3096 Fog 2 1040 93 4000 5.1 90 08:58 21.08.2019
3097 Fog 2 1040 93 4000 5.1 90 08:39 21.08.2019
3098 Fog 2 1040 93 4000 5.1 90 08:20 21.08.2019
3099 Fog 2 1040 93 4000 5.1 70 07:40 21.08.2019
3100 Fog 2 1040 93 4000 5.1 70 07:20 21.08.2019
3101 Fog 1 1040 82 4000 3.6 70 06:48 21.08.2019
3102 Fog 1 1040 72 4000 3.6 70 06:21 21.08.2019
3103 Clear 0 1040 72 10000 3.1 60 05:41 21.08.2019
3104 Clear 0 1040 72 10000 3.1 60 05:19 21.08.2019
3105 Clouds 3 1040 64 10000 2.1 80 03:23 21.08.2019
3106 Clouds 8 1038 45 10000 3.1 60 01:42 21.08.2019
3107 Clouds 12 1037 32 10000 5.7 100 00:44 21.08.2019
3108 Clouds 12 1037 32 10000 5.7 100 00:24 21.08.2019
3109 Clouds 14 1037 28 10000 5.7 120 23:56 20.08.2019
3110 Clouds 14 1037 28 10000 5.7 120 23:38 20.08.2019
3111 Clouds 14 1037 28 10000 5.7 120 23:18 20.08.2019
3112 Clouds 15 1037 21 10000 4.6 130 22:55 20.08.2019
3113 Clouds 15 1037 21 10000 4.6 130 22:36 20.08.2019
3114 Clouds 15 1038 21 10000 4.1 120 22:18 20.08.2019
3115 Clouds 15 1038 21 10000 4.1 120 21:56 20.08.2019
3116 Clouds 15 1038 21 10000 4.1 120 21:37 20.08.2019
3117 Clouds 15 1038 21 10000 4.1 120 21:18 20.08.2019
3118 Clouds 14 1039 28 10000 4.6 120 20:42 20.08.2019
3119 Clouds 14 1039 28 10000 4.6 120 20:42 20.08.2019
3120 Clouds 14 1039 28 10000 4.6 120 20:24 20.08.2019
3121 Clouds 13 1040 20 8000 3.6 140 19:42 20.08.2019
3122 Clouds 13 1040 20 8000 3.6 140 19:23 20.08.2019
3123 Clouds 12 1040 37 7000 2.1 210 18:59 20.08.2019
3124 Clear 15 1017 20 0 1.83 316.838 18:41 20.08.2019
3125 Clear 15 1017 20 0 1.83 316.838 18:41 20.08.2019
3126 Clouds 10 1041 46 7000 2.1 250 18:20 20.08.2019
3127 Clouds 10 1041 46 7000 2.1 250 17:59 20.08.2019
3128 Clouds 10 1041 46 7000 2.1 250 17:39 20.08.2019
3129 Clouds 8 1041 52 7000 2.6 210 17:20 20.08.2019
3130 Clouds 8 1041 52 7000 2.6 210 16:46 20.08.2019
3131 Clouds 8 1041 52 7000 2.6 210 16:28 20.08.2019
3132 Clouds 5 1040 75 7000 1 0 15:58 20.08.2019
3133 Clouds 5 1040 75 7000 1 0 15:40 20.08.2019
3134 Clouds 2 1040 77 6000 1 0 15:18 20.08.2019
3135 Clouds 2 1040 77 6000 1 0 14:44 20.08.2019
3136 Clouds 2 1040 77 6000 1 0 14:44 20.08.2019
3137 Fog -1 1039 92 3000 1 0 14:22 20.08.2019
3138 Fog -1 1039 92 3000 1 0 13:58 20.08.2019
3139 Fog -1 1039 92 3000 1 0 13:39 20.08.2019
3140 Fog -1 1038 92 4000 1 0 13:20 20.08.2019
3141 Fog -1 1038 92 4000 1 0 12:51 20.08.2019
3142 Fog -1 1038 92 4000 1 0 12:31 20.08.2019
3143 Fog -2 1038 100 4000 2.6 80 11:59 20.08.2019
3144 Fog -2 1038 100 4000 2.6 80 11:40 20.08.2019
3145 Mist 1 1038 100 2000 3.6 80 11:21 20.08.2019
3146 Mist 1 1038 100 2000 3.6 80 11:21 20.08.2019
3147 Mist 1 1038 100 2000 3.6 80 10:57 20.08.2019
3148 Mist 1 1038 100 2000 3.6 80 10:38 20.08.2019
3149 Fog 2 1038 93 600 3.6 90 10:20 20.08.2019
3150 Clear 1 1020 89 0 1.09 138.134 09:54 20.08.2019
3151 Clear 1 1020 89 0 1.09 138.134 09:36 20.08.2019
3152 Fog 2 1039 93 3000 4.1 60 09:18 20.08.2019
3153 Fog 2 1039 93 3000 4.1 60 08:41 20.08.2019
3154 Fog 1 1039 79 4000 3.6 80 08:21 20.08.2019
3155 Fog 1 1039 79 4000 3.6 80 07:57 20.08.2019
3156 Fog 1 1039 79 4000 3.6 80 07:37 20.08.2019
3157 Clear 2 1039 93 10000 3.1 80 07:18 20.08.2019
3158 Clear 2 1039 93 10000 3.1 80 07:18 20.08.2019
3159 Clear 2 1039 93 10000 3.1 80 06:28 20.08.2019
3160 Clear 4 1039 80 10000 3.1 80 05:58 20.08.2019
3161 Clear 4 1039 80 10000 3.1 80 05:38 20.08.2019
3162 Clear 4 1038 64 10000 2.6 90 04:21 20.08.2019
3163 Clear 6 1037 60 8000 2.1 60 02:46 20.08.2019
3164 Clear 8 1035 49 9000 5.1 110 01:43 20.08.2019
3165 Clouds 11 1035 37 8000 5.1 120 00:59 20.08.2019
3166 Clouds 11 1035 37 8000 5.1 120 00:40 20.08.2019
3167 Clouds 15 1035 26 8000 2.6 150 00:19 20.08.2019
3168 Clouds 15 1035 26 8000 2.6 150 23:40 19.08.2019
3169 Clouds 16 1035 14 9000 3.1 180 23:18 19.08.2019
3170 Clouds 16 1035 14 9000 3.1 180 23:18 19.08.2019
3171 Clouds 16 1035 14 9000 3.1 180 22:54 19.08.2019
3172 Clouds 16 1035 14 9000 3.1 180 22:36 19.08.2019
3173 Clouds 16 1035 14 9000 3.1 180 22:36 19.08.2019
3174 Clouds 16 1036 19 9000 3.6 270 22:18 19.08.2019
3175 Clouds 16 1036 19 9000 3.6 270 21:55 19.08.2019
3176 Clouds 16 1036 19 9000 3.6 270 21:36 19.08.2019
3177 Clouds 15 1037 30 9000 3.1 140 21:18 19.08.2019
3178 Clouds 15 1037 30 9000 3.1 140 20:39 19.08.2019
3179 Clouds 15 1037 30 9000 3.1 140 20:39 19.08.2019
3180 Clouds 14 1038 35 9000 3.1 110 20:20 19.08.2019
3181 Clouds 14 1038 35 9000 3.1 110 19:58 19.08.2019
3182 Clouds 14 1038 35 9000 3.1 110 19:39 19.08.2019
3183 Clouds 14 1038 35 9000 3.1 110 19:19 19.08.2019
3184 Clouds 12 1039 37 8000 2.6 120 18:45 19.08.2019
3185 Clouds 10 1040 46 8000 2.6 170 18:27 19.08.2019
3186 Clouds 10 1040 46 8000 2.6 170 17:59 19.08.2019
3187 Clouds 10 1040 46 8000 2.6 170 17:41 19.08.2019
3188 Clouds 8 1040 52 8000 3.1 100 17:20 19.08.2019
3189 Clouds 8 1040 52 8000 3.1 100 16:58 19.08.2019
3190 Clouds 8 1040 52 8000 3.1 100 16:37 19.08.2019
3191 Clouds 8 1040 52 8000 3.1 100 16:19 19.08.2019
3192 Clouds 5 1040 46 8000 4.1 100 15:55 19.08.2019
3193 Clouds 5 1040 46 8000 4.1 100 15:36 19.08.2019
3194 Clouds 5 1040 84 8000 4.1 100 15:18 19.08.2019
3195 Clouds 3 1039 86 6000 4.1 100 14:40 19.08.2019
3196 Clouds 3 1039 86 6000 4.1 100 14:21 19.08.2019
3197 Fog 1 1038 84 4000 4.1 100 13:57 19.08.2019
3198 Fog 1 1038 84 4000 4.1 100 13:57 19.08.2019
3199 Fog 1 1038 84 4000 4.1 100 13:37 19.08.2019
3200 Fog 1 1038 85 4000 4.1 100 13:19 19.08.2019
3201 Fog 2 1038 93 4000 4.1 90 12:44 19.08.2019
3202 Fog 2 1038 93 4000 4.1 90 12:24 19.08.2019
3203 Fog 3 1038 86 4000 4.6 90 11:59 19.08.2019
3204 Fog 3 1038 86 4000 4.6 90 11:37 19.08.2019
3205 Fog 3 1038 86 4000 4.6 90 11:19 19.08.2019
3206 Fog 3 1038 93 4000 4.1 90 10:40 19.08.2019
3207 Fog 3 1038 93 4000 4.1 90 10:20 19.08.2019
3208 Fog 3 1038 93 4000 4.1 90 10:20 19.08.2019
3209 Fog 3 1038 93 4000 4.1 90 10:19 19.08.2019
3210 Fog 2 1038 100 3000 4.6 90 09:59 19.08.2019
3211 Fog 2 1038 100 3000 4.6 90 09:41 19.08.2019
3212 Fog 2 1038 100 3000 4.6 90 09:21 19.08.2019
3213 Fog 2 1038 93 4000 4.1 70 08:54 19.08.2019
3214 Fog 2 1038 93 4000 4.1 70 08:36 19.08.2019
3215 Fog 2 1038 93 4000 4.1 70 08:18 19.08.2019
3216 Fog 1 1038 88 4000 3.6 90 07:42 19.08.2019
3217 Fog 1 1038 88 4000 3.6 90 07:23 19.08.2019
3218 Clouds 1 1038 64 10000 3.1 70 06:42 19.08.2019
3219 Clouds 3 1038 74 10000 3.1 50 06:18 19.08.2019
3220 Clouds 7 1038 52 10000 1 0 04:46 19.08.2019
3221 Clouds 4 1037 38 10000 3.6 80 03:59 19.08.2019
3222 Clouds 4 1037 38 10000 3.6 80 03:19 19.08.2019
3223 Clouds 10 1036 25 10000 3.1 100 01:46 19.08.2019
3224 Clouds 15 1035 12 10000 5.1 260 00:59 19.08.2019
3225 Clouds 15 1035 12 10000 5.1 260 00:38 19.08.2019
3226 Clear 15 1035 12 10000 5.1 260 00:18 19.08.2019
3227 Clouds 17 1035 10 10000 4.6 280 23:40 18.08.2019
3228 Clouds 17 1035 10 10000 4.6 280 23:20 18.08.2019
3229 Clouds 17 1035 10 10000 4.6 280 23:20 18.08.2019
3230 Clouds 17 1035 9 10000 4.6 350 22:40 18.08.2019
3231 Clouds 17 1035 9 10000 4.6 350 22:22 18.08.2019
3232 Clouds 18 1036 10 10000 4.1 290 21:57 18.08.2019
3233 Clouds 18 1036 10 10000 4.1 290 21:39 18.08.2019
3234 Clouds 18 1036 10 10000 4.1 290 21:20 18.08.2019
3235 Clouds 17 1037 8 10000 4.6 240 20:57 18.08.2019
3236 Clouds 17 1037 8 10000 4.6 240 20:38 18.08.2019
3237 Clouds 17 1037 8 10000 4.6 240 20:20 18.08.2019
3238 Clouds 16 1038 9 10000 1 0 19:42 18.08.2019
3239 Clouds 16 1038 9 10000 1 0 19:23 18.08.2019
3240 Clear 15 1039 9 10000 2.6 100 18:57 18.08.2019
3241 Clear 15 1039 9 10000 2.6 100 18:39 18.08.2019
3242 Clear 15 1039 9 10000 2.6 100 18:21 18.08.2019
3243 Clear 13 1040 13 10000 2.6 150 17:54 18.08.2019
3244 Clear 13 1040 13 10000 2.6 150 17:36 18.08.2019
3245 Clear 13 1040 13 10000 2.6 150 17:18 18.08.2019
3246 Clear 11 1040 17 10000 3.1 130 16:43 18.08.2019
3247 Clear 11 1040 17 10000 3.1 130 16:23 18.08.2019
3248 Clear 9 1039 18 10000 2.6 180 15:59 18.08.2019
3249 Clear 9 1039 18 10000 2.6 180 15:39 18.08.2019
3250 Clear 9 1039 18 10000 2.6 180 15:20 18.08.2019
3251 Clear 6 1038 28 10000 1.5 30 14:57 18.08.2019
3252 Clear 6 1038 28 10000 1.5 30 14:38 18.08.2019
3253 Clear 6 1038 28 10000 1.5 30 14:38 18.08.2019
3254 Clear 6 1038 28 10000 1.5 30 14:19 18.08.2019
3255 Clear -2 1038 39 10000 1.5 30 13:56 18.08.2019
3256 Clear -2 1038 39 10000 1.5 30 13:37 18.08.2019
3257 Clear -2 1038 39 10000 1.5 30 13:19 18.08.2019
3258 Clear 2 1037 29 10000 2.1 20 12:41 18.08.2019
3259 Clear 2 1037 29 10000 2.1 20 12:22 18.08.2019
3260 Clear 0 1037 37 10000 1 0 11:55 18.08.2019
3261 Clear 0 1037 37 10000 1 0 11:36 18.08.2019
3262 Clear 0 1037 37 10000 1 0 11:18 18.08.2019
3263 Clear 3 1037 40 10000 2.1 360 10:41 18.08.2019
3264 Clear 4 1037 41 10000 2.1 10 10:21 18.08.2019
3265 Clear 4 1037 41 10000 2.1 10 09:50 18.08.2019
3266 Clear 4 1037 41 10000 2.1 10 09:22 18.08.2019
3267 Clear 3 1037 44 10000 1 0 08:54 18.08.2019
3268 Clear 3 1037 44 10000 1 0 08:36 18.08.2019
3269 Clear 3 1037 44 10000 1 0 08:18 18.08.2019
3270 Clear 4 1038 41 10000 1.64 145.836 07:42 18.08.2019
3271 Clear 4 1038 41 10000 1.64 145.836 07:23 18.08.2019
3272 Clouds 4 1038 51 10000 1 0 05:46 18.08.2019
3273 Clouds 3 1037 47 10000 2.6 90 04:51 18.08.2019
3274 Clouds 5 1037 44 10000 3.6 70 03:22 18.08.2019
3275 Clouds 10 1036 31 10000 1 0 02:45 18.08.2019
3276 Clouds 10 1036 31 10000 1 0 02:18 18.08.2019
3277 Clouds 12 1036 20 10000 1 0 01:30 18.08.2019
3278 Clouds 15 1035 14 10000 4.1 110 00:44 18.08.2019
3279 Clouds 15 1035 14 10000 4.1 110 00:24 18.08.2019
3280 Clouds 19 1035 7 10000 1.5 200 23:58 17.08.2019
3281 Clouds 19 1035 7 10000 1.5 200 23:58 17.08.2019
3282 Clouds 19 1035 7 10000 1.5 200 23:39 17.08.2019
3283 Clouds 19 1035 7 10000 1.5 200 23:21 17.08.2019
3284 Clouds 18 1035 7 10000 2.6 200 22:59 17.08.2019
3285 Clouds 18 1035 7 10000 2.6 200 22:41 17.08.2019
3286 Clouds 18 1035 7 10000 2.6 200 22:23 17.08.2019
3287 Clouds 17 1036 9 10000 3.6 210 21:55 17.08.2019
3288 Clouds 17 1036 9 10000 3.6 210 21:37 17.08.2019
3289 Clouds 17 1036 9 10000 3.6 210 21:19 17.08.2019
3290 Clouds 17 1037 12 10000 3.1 290 20:39 17.08.2019
3291 Clouds 17 1037 12 10000 3.1 290 20:20 17.08.2019
3292 Clouds 17 1038 13 10000 3.1 240 19:56 17.08.2019
3293 Clouds 17 1038 13 10000 3.1 240 19:38 17.08.2019
3294 Clouds 17 1038 13 10000 3.1 240 19:19 17.08.2019
3295 Clouds 15 1039 15 10000 3.6 260 18:39 17.08.2019
3296 Clouds 13 1040 19 10000 3.6 210 18:19 17.08.2019
3297 Clouds 13 1040 19 10000 3.6 210 18:19 17.08.2019
3298 Clouds 13 1040 19 10000 3.6 210 18:19 17.08.2019
3299 Clouds 13 1040 19 10000 3.6 210 17:56 17.08.2019
3300 Clouds 13 1040 19 10000 3.6 210 17:38 17.08.2019
3301 Clouds 13 1040 19 10000 3.6 210 17:19 17.08.2019
3302 Clouds 11 1040 25 10000 3.6 240 16:43 17.08.2019
3303 Clouds 11 1040 25 10000 3.6 240 16:25 17.08.2019
3304 Clouds 10 1039 34 9000 2.1 280 15:58 17.08.2019
3305 Clouds 10 1039 34 9000 2.1 280 15:39 17.08.2019
3306 Clear 10 1039 34 9000 2.1 280 15:20 17.08.2019
3307 Clear 6 1039 38 10000 1.5 10 14:41 17.08.2019
3308 Clear 6 1039 38 10000 1.5 10 14:22 17.08.2019
3309 Clear 2 1038 47 10000 2.1 10 13:48 17.08.2019
3310 Clouds 2 1038 47 10000 2.1 10 13:23 17.08.2019
3311 Clouds 1 1038 47 10000 1.5 360 12:58 17.08.2019
3312 Clouds 1 1038 47 10000 1.5 360 12:39 17.08.2019
3313 Clouds 2 1037 47 10000 1.5 10 12:19 17.08.2019
3314 Clouds 2 1037 47 10000 1.5 10 11:44 17.08.2019
3315 Clouds 2 1037 47 10000 1.5 10 11:21 17.08.2019
3316 Clouds 3 1037 44 10000 1 0 10:56 17.08.2019
3317 Clouds 3 1037 44 10000 1 0 10:38 17.08.2019
3318 Clouds 3 1037 44 10000 1 0 10:18 17.08.2019
3319 Clouds 4 1037 41 10000 2.6 20 09:44 17.08.2019
3320 Clear 4 1037 41 10000 2.6 20 09:26 17.08.2019
3321 Clear 5 1038 35 10000 3.1 20 08:54 17.08.2019
3322 Clear 5 1038 35 10000 3.1 20 08:25 17.08.2019
3323 Clear 5 1039 41 10000 2.6 10 07:46 17.08.2019
3324 Clear 5 1039 41 10000 2.6 10 07:21 17.08.2019
3325 Clear 3 1039 59 10000 1 0 06:42 17.08.2019
3326 Clear 1 1039 74 10000 3.1 100 05:31 17.08.2019
3327 Clear 4 1039 60 10000 3.6 90 04:29 17.08.2019
3328 Clouds 10 1038 31 10000 1 0 03:19 17.08.2019
3329 Clouds 11 1038 20 10000 1 0 01:42 17.08.2019
3330 Clouds 11 1038 20 10000 1 0 01:24 17.08.2019
3331 Clouds 15 1037 12 10000 3.6 100 00:54 17.08.2019
3332 Clouds 15 1037 12 10000 3.6 100 00:27 17.08.2019
3333 Clouds 17 1037 9 10000 3.1 50 23:48 16.08.2019
3334 Clouds 17 1037 9 10000 3.1 50 23:25 16.08.2019
3335 Clouds 17 1037 9 10000 3.1 120 22:46 16.08.2019
3336 Clouds 17 1037 9 10000 3.1 120 22:20 16.08.2019
3337 Clouds 17 1038 8 10000 4.1 130 21:59 16.08.2019
3338 Clouds 17 1038 8 10000 4.1 130 21:39 16.08.2019
3339 Clouds 16 1039 10 10000 4.1 160 21:19 16.08.2019
3340 Clouds 16 1039 10 10000 4.1 160 20:43 16.08.2019
3341 Clouds 16 1039 10 10000 4.1 160 20:22 16.08.2019
3342 Clouds 16 1040 12 10000 3.6 120 19:59 16.08.2019
3343 Clouds 16 1040 12 10000 3.6 120 19:40 16.08.2019
3344 Clouds 16 1040 12 10000 3.6 120 19:22 16.08.2019
3345 Clouds 14 1041 16 10000 3.6 140 18:42 16.08.2019
3346 Clouds 14 1041 16 10000 3.6 140 18:23 16.08.2019
3347 Clear 12 1041 23 10000 2.1 200 17:49 16.08.2019
3348 Clear 12 1041 23 10000 2.1 200 17:31 16.08.2019
3349 Clear 10 1041 29 8000 2.1 220 16:59 16.08.2019
3350 Clear 10 1041 29 8000 2.1 220 16:41 16.08.2019
3351 Clear 10 1041 29 8000 2.1 220 16:20 16.08.2019
3352 Clear 7 1041 36 8000 1 0 15:56 16.08.2019
3353 Clear 7 1041 36 8000 1 0 15:38 16.08.2019
3354 Clear 7 1041 36 8000 1 0 15:19 16.08.2019
3355 Clear 4 1040 38 8000 1 0 14:56 16.08.2019
3356 Clear 4 1040 38 8000 1 0 14:38 16.08.2019
3357 Clear 4 1040 38 8000 1 0 14:18 16.08.2019
3358 -273 0 0 0 0 0 13:40 16.08.2019
3359 Clear 2 1039 47 10000 1 0 13:21 16.08.2019
3360 Clear 2 1039 43 10000 2.6 360 12:41 16.08.2019
3361 Clear 2 1039 43 10000 2.6 360 12:23 16.08.2019
3362 Clouds 0 1038 82 10000 2.6 30 11:58 16.08.2019
3363 Clouds 0 1038 82 10000 2.6 30 11:39 16.08.2019
3364 Clouds 0 1038 82 10000 2.6 30 11:21 16.08.2019
3365 Clouds 2 1038 74 10000 2.6 360 10:43 16.08.2019
3366 Clouds 2 1038 74 10000 2.6 360 10:21 16.08.2019
3367 Clouds 0 1039 82 10000 1 0 09:39 16.08.2019
3368 Clouds 0 1039 80 10000 1 0 09:20 16.08.2019
3369 Clear -2 1039 79 10000 1 0 08:58 16.08.2019
3370 Clear -2 1039 79 10000 1 0 08:39 16.08.2019
3371 Clear -2 1039 79 10000 1 0 08:19 16.08.2019
3372 Clear 1 1030 86 10000 4.1 70 07:45 16.08.2019
3373 Clear 1 1030 86 10000 4.1 70 07:26 16.08.2019
3374 Clear 0 1039 80 10000 2.6 100 06:53 16.08.2019
3375 Clear 0 1039 76 10000 2.6 100 06:18 16.08.2019
3376 Clear 1 1039 74 10000 3.1 80 05:33 16.08.2019
3377 Clouds 4 1039 64 10000 3.1 60 03:20 16.08.2019
3378 Clouds 9 1038 39 10000 4.6 110 01:52 16.08.2019
3379 Clouds 9 1038 39 10000 4.6 110 01:25 16.08.2019
3380 Clouds 9 1038 39 10000 4.6 110 01:25 16.08.2019
3381 Clouds 13 1038 20 10000 5.7 90 00:50 16.08.2019
3382 Clouds 13 1038 20 10000 5.7 90 00:23 16.08.2019
3383 Clouds 14 1037 16 10000 6.2 100 23:55 15.08.2019
3384 Clouds 14 1037 16 10000 6.2 100 23:37 15.08.2019
3385 Clouds 14 1037 16 10000 6.2 100 23:18 15.08.2019
3386 Clouds 16 1038 15 10000 5.7 130 22:41 15.08.2019
3387 Clouds 16 1038 15 10000 5.7 130 22:22 15.08.2019
3388 Clouds 16 1038 18 10000 5.1 130 21:58 15.08.2019
3389 Clouds 16 1038 18 10000 5.1 130 21:39 15.08.2019
3390 Clouds 16 1038 18 10000 5.1 130 21:19 15.08.2019
3391 Clouds 15 1039 19 10000 5.1 130 20:56 15.08.2019
3392 Clouds 15 1039 19 10000 5.1 130 20:38 15.08.2019
3393 Clouds 15 1039 19 10000 5.1 130 20:19 15.08.2019
3394 Clouds 15 1040 19 10000 5.7 130 19:39 15.08.2019
3395 Clouds 15 1040 19 10000 5.7 130 19:21 15.08.2019
3396 Clouds 14 1041 26 10000 4.1 130 18:49 15.08.2019
3397 Clouds 14 1041 26 10000 4.1 130 18:24 15.08.2019
3398 Clear 13 1041 26 10000 2.1 130 17:59 15.08.2019
3399 Clear 13 1041 26 10000 2.1 130 17:39 15.08.2019
3400 Clear 13 1041 26 10000 2.1 130 17:20 15.08.2019
3401 Clear 10 1041 37 10000 2.1 210 16:58 15.08.2019
3402 Clear 10 1041 37 10000 2.1 210 16:40 15.08.2019
3403 Clear 10 1041 37 10000 2.1 210 16:22 15.08.2019
3404 Clear 8 1041 49 8000 1 0 15:39 15.08.2019
3405 Clear 8 1041 49 8000 1 0 15:20 15.08.2019
3406 Clear 4 1040 51 10000 1 0 14:57 15.08.2019
3407 Clear 4 1040 51 10000 1 0 14:39 15.08.2019
3408 Clear 4 1040 51 10000 1 0 14:20 15.08.2019
3409 Clear 0 1039 54 10000 1.5 30 13:56 15.08.2019
3410 Clear 0 1039 54 10000 1.5 30 13:38 15.08.2019
3411 Clear 0 1039 54 10000 1.5 30 13:19 15.08.2019
3412 Clear -1 1039 74 10000 1.5 10 12:40 15.08.2019
3413 Clear -1 1039 74 10000 1.5 10 12:21 15.08.2019
3414 Clouds -4 1038 92 10000 1.5 30 11:59 15.08.2019
3415 Clouds -4 1038 92 10000 1.5 30 11:39 15.08.2019
3416 Clouds -4 1038 92 10000 1.5 30 11:20 15.08.2019
3417 Clouds -2 1038 92 10000 2.1 80 10:59 15.08.2019
3418 Clouds -2 1038 92 10000 2.1 80 10:37 15.08.2019
3419 Clouds -2 1038 92 10000 2.1 80 10:18 15.08.2019
3420 Fog -1 1039 92 4000 2.6 70 09:44 15.08.2019
3421 Fog -1 1039 92 4000 2.6 70 09:22 15.08.2019
3422 Fog -1 1039 92 4000 1.5 110 08:39 15.08.2019
3423 Fog -1 1039 92 4000 1.5 110 08:21 15.08.2019
3424 Fog 1 1040 73 4000 3.1 80 07:59 15.08.2019
3425 Fog 1 1040 73 4000 3.1 80 07:40 15.08.2019
3426 Fog 1 1040 73 4000 3.1 80 07:21 15.08.2019
3427 Fog 2 1040 93 4000 4.6 90 06:48 15.08.2019
3428 Fog 2 1040 93 4000 4.6 90 06:26 15.08.2019
3429 Fog 3 1040 93 3000 4.1 90 05:31 15.08.2019
3430 Fog 3 1039 100 2000 4.1 80 04:58 15.08.2019
3431 Fog 3 1039 100 2000 4.1 80 04:19 15.08.2019
3432 Clouds 3 1039 93 10000 2.6 60 03:21 15.08.2019
3433 Clouds 5 1039 80 10000 4.6 60 02:34 15.08.2019
3434 Clouds 7 1038 60 10000 3.6 80 01:44 15.08.2019
3435 Clouds 10 1038 60 10000 3.6 90 00:58 15.08.2019
3436 Clouds 10 1038 60 10000 3.6 90 00:37 15.08.2019
3437 Clouds 14 1037 33 10000 5.7 100 00:18 15.08.2019
3438 Clouds 14 1037 33 10000 5.7 100 23:55 14.08.2019
3439 Clouds 14 1037 33 10000 5.7 100 23:37 14.08.2019
3440 Clouds 14 1037 33 10000 5.7 100 23:18 14.08.2019
3441 Clouds 15 1037 33 10000 5.7 120 22:41 14.08.2019
3442 Clouds 15 1037 33 10000 5.7 120 22:22 14.08.2019
3443 Clouds 16 1038 40 10000 5.7 120 21:57 14.08.2019
3444 Clouds 16 1038 40 10000 5.7 120 21:39 14.08.2019
3445 Clouds 16 1038 41 10000 5.7 120 21:39 14.08.2019
3446 Clouds 16 1038 31 10000 5.7 120 21:20 14.08.2019
3447 Clouds 15 1039 28 10000 4.6 110 20:56 14.08.2019
3448 Clouds 15 1039 28 10000 4.6 110 20:56 14.08.2019
3449 Clouds 15 1039 28 10000 4.6 110 20:37 14.08.2019
3450 Clouds 15 1039 28 10000 4.6 110 20:18 14.08.2019
3451 Clouds 14 1040 33 9000 4.1 90 19:40 14.08.2019
3452 Clouds 13 1041 31 9000 3.6 110 19:22 14.08.2019
3453 Clouds 13 1041 31 9000 3.6 110 18:57 14.08.2019
3454 Clouds 13 1041 31 9000 3.6 110 18:39 14.08.2019
3455 Clouds 10 1042 49 9000 3.1 120 18:21 14.08.2019
3456 Clouds 10 1042 49 9000 3.1 120 17:59 14.08.2019
3457 Clouds 10 1042 49 9000 3.1 120 17:38 14.08.2019
3458 Clouds 10 1042 49 9000 3.1 120 17:20 14.08.2019
3459 Clouds 9 1042 57 8000 4.1 90 16:55 14.08.2019
3460 Clouds 9 1042 57 8000 4.1 90 16:37 14.08.2019
3461 Clouds 9 1042 57 8000 4.1 90 16:18 14.08.2019
3462 Clouds 7 1041 65 8000 2.6 140 15:42 14.08.2019
3463 Clouds 7 1041 65 8000 2.6 140 15:18 14.08.2019
3464 Clouds 5 1041 75 8000 1 0 14:54 14.08.2019
3465 Clouds 5 1041 75 8000 1 0 14:36 14.08.2019
3466 Clouds 3 1040 85 10000 1.5 70 14:18 14.08.2019
3467 Clouds 3 1040 85 10000 1.5 70 13:43 14.08.2019
3468 Clouds 3 1040 84 10000 1.5 70 13:23 14.08.2019
3469 Clouds 3 1040 86 10000 1 0 12:56 14.08.2019
3470 Clouds 3 1040 86 10000 1 0 12:38 14.08.2019
3471 Clouds 4 1040 95 10000 2.1 10 12:20 14.08.2019
3472 Clouds 4 1040 95 10000 2.1 10 11:47 14.08.2019
3473 Clouds 4 1040 95 10000 2.1 10 11:23 14.08.2019
3474 Clouds 3 1040 95 10000 2.6 360 10:59 14.08.2019
3475 Clouds 3 1040 95 10000 2.6 360 10:39 14.08.2019
3476 Clouds 3 1040 95 10000 2.6 360 10:39 14.08.2019
3477 Clouds 3 1040 95 10000 2.6 360 10:21 14.08.2019
3478 Fog 4 1040 86 4000 1 0 09:45 14.08.2019
3479 Fog 4 1040 86 4000 1 0 09:22 14.08.2019
3480 Fog 4 1041 93 4000 1 0 08:49 14.08.2019
3481 Fog 4 1041 93 4000 1 0 08:30 14.08.2019
3482 Fog 4 1041 93 3000 2.1 60 07:57 14.08.2019
3483 Fog 4 1041 93 3000 2.1 60 07:39 14.08.2019
3484 Fog 4 1041 93 3000 2.1 60 07:20 14.08.2019
3485 Fog 4 1041 93 2500 4.6 100 06:43 14.08.2019
3486 Fog 5 1041 93 2000 4.6 90 05:47 14.08.2019
3487 Fog 3 1040 93 3000 3.1 90 04:45 14.08.2019
3488 Clouds 5 1039 75 10000 3.1 80 02:47 14.08.2019
3489 Clouds 5 1039 75 10000 3.1 80 02:25 14.08.2019
3490 Clouds 7 1039 65 10000 3.1 90 01:30 14.08.2019
3491 Clouds 10 1038 57 10000 4.1 100 00:47 14.08.2019
3492 Clouds 11 1037 53 10000 5.7 90 23:46 13.08.2019
3493 Clouds 11 1037 53 10000 5.7 90 23:20 13.08.2019
3494 Clouds 14 1037 44 10000 5.7 100 22:57 13.08.2019
3495 Clouds 14 1037 44 10000 5.7 100 22:38 13.08.2019
3496 Clouds 14 1037 44 10000 5.7 100 22:20 13.08.2019
3497 Clouds 15 1038 46 10000 5.1 100 21:56 13.08.2019
3498 Clouds 15 1038 46 10000 5.1 100 21:36 13.08.2019
3499 Clouds 15 1038 46 10000 5.1 100 21:36 13.08.2019
3500 Clouds 23 1024 35 10000 13.4 180 21:18 13.08.2019
3501 Clouds 23 1024 35 10000 13.4 180 20:43 13.08.2019
3502 Clouds 23 1024 35 10000 13.4 180 20:20 13.08.2019
3503 Clouds 13 1040 33 10000 3.1 160 19:56 13.08.2019
3504 Clouds 13 1040 33 10000 3.1 160 19:38 13.08.2019
3505 Clouds 13 1040 33 10000 3.1 160 19:20 13.08.2019
3506 Clouds 12 1041 33 9000 2.6 140 18:42 13.08.2019
3507 Clouds 12 1041 43 9000 2.6 140 18:22 13.08.2019
3508 Clouds 10 1041 43 9000 1 0 17:56 13.08.2019
3509 Clouds 10 1041 43 9000 1 0 17:38 13.08.2019
3510 Clouds 10 1041 43 9000 1 0 17:18 13.08.2019
3511 Clouds 8 1041 61 9000 1 0 16:55 13.08.2019
3512 Clouds 8 1041 61 9000 1 0 16:36 13.08.2019
3513 Clouds 8 1041 61 9000 1 0 16:18 13.08.2019
3514 Clouds 6 1041 70 10000 1 0 15:38 13.08.2019
3515 Clouds 6 1041 70 10000 1 0 15:20 13.08.2019
3516 Clouds 3 1040 93 6000 2.1 100 14:48 13.08.2019
3517 Clouds 3 1040 93 6000 2.1 100 14:21 13.08.2019
3518 Fog 1 1039 79 3000 2.1 70 13:59 13.08.2019
3519 Fog 1 1039 79 3000 2.1 70 13:41 13.08.2019
3520 Fog 1 1039 79 3000 2.1 70 13:21 13.08.2019
3521 Fog 1 1038 100 4000 3.1 80 12:57 13.08.2019
3522 Fog 1 1038 100 4000 3.1 80 12:39 13.08.2019
3523 Fog 1 1038 100 4000 3.1 80 12:21 13.08.2019
3524 Fog 2 1038 93 4000 4.1 90 11:42 13.08.2019
3525 Fog 2 1038 93 4000 4.1 90 11:23 13.08.2019
3526 Fog 1 1038 90 4000 2.1 90 10:58 13.08.2019
3527 Fog 1 1038 90 4000 2.1 90 10:38 13.08.2019
3528 Fog 1 1038 90 4000 2.1 90 10:20 13.08.2019
3529 Fog 4 1039 86 4000 2.6 80 09:46 13.08.2019
3530 Fog 4 1039 86 4000 2.6 80 09:25 13.08.2019
3531 Fog 3 1039 93 4000 2.6 80 08:59 13.08.2019
3532 Fog 3 1039 93 4000 2.6 80 08:39 13.08.2019
3533 Fog 3 1039 93 4000 2.6 80 08:20 13.08.2019
3534 Fog 2 1039 100 4000 1.5 50 07:46 13.08.2019
3535 Fog 2 1039 100 4000 1.5 50 07:25 13.08.2019
3536 Fog 3 1039 93 4000 4.6 70 06:44 13.08.2019
3537 Clear 3 1039 86 10000 3.1 80 05:58 13.08.2019
3538 Clear 3 1039 86 10000 3.1 80 05:20 13.08.2019
3539 Clouds 6 1038 60 10000 4.1 70 02:22 13.08.2019
3540 Clouds 9 1038 36 10000 4.1 90 01:38 13.08.2019
3541 Clouds 14 1037 17 10000 2.6 280 00:49 13.08.2019
3542 Clouds 14 1037 17 10000 2.6 280 00:22 13.08.2019
3543 Clouds 16 1037 14 10000 4.6 260 23:43 12.08.2019
3544 Clouds 16 1037 14 10000 4.6 260 23:21 12.08.2019
3545 Clouds 17 1037 13 10000 5.1 270 22:54 12.08.2019
3546 Clouds 17 1037 13 10000 5.1 270 22:36 12.08.2019
3547 Clouds 17 1037 13 10000 5.1 270 22:18 12.08.2019
3548 Clouds 16 1037 13 10000 4.1 280 21:54 12.08.2019
3549 Clouds 16 1037 13 10000 4.1 280 21:36 12.08.2019
3550 Clouds 16 1037 13 10000 4.1 280 21:36 12.08.2019
3551 Clouds 16 1037 13 10000 4.1 280 21:36 12.08.2019
3552 Clouds 15 1038 16 10000 5.1 300 21:18 12.08.2019
3553 Clouds 15 1038 16 10000 5.1 300 20:41 12.08.2019
3554 Clouds 15 1038 16 10000 5.1 300 20:20 12.08.2019
3555 Clouds 15 1039 18 10000 4.6 280 19:57 12.08.2019
3556 Clouds 15 1039 18 10000 4.6 280 19:39 12.08.2019
3557 Clouds 14 1040 22 10000 4.1 260 19:20 12.08.2019
3558 Clouds 14 1040 22 10000 4.1 260 18:56 12.08.2019
3559 Clouds 14 1040 22 10000 4.1 260 18:38 12.08.2019
3560 Clouds 11 1041 23 10000 3.1 220 18:20 12.08.2019
3561 Clouds 11 1041 23 10000 3.1 220 17:48 12.08.2019
3562 Clouds 11 1041 23 10000 3.1 220 17:29 12.08.2019
3563 Clouds 10 1041 23 10000 1 0 16:58 12.08.2019
3564 Clouds 10 1041 23 10000 1 0 16:39 12.08.2019
3565 Clouds 10 1041 23 10000 1 0 16:20 12.08.2019
3566 Clouds 7 1040 28 10000 1 0 15:59 12.08.2019
3567 Clouds 7 1040 28 10000 1 0 15:41 12.08.2019
3568 Clouds 7 1040 28 10000 1 0 15:41 12.08.2019
3569 Clouds 7 1040 28 10000 1 0 15:21 12.08.2019
3570 Clouds 4 1039 41 10000 1.5 10 14:57 12.08.2019
3571 Clouds 4 1039 41 10000 1.5 10 14:57 12.08.2019
3572 Clouds 4 1039 41 10000 1.5 10 14:39 12.08.2019
3573 Clouds 4 1039 41 10000 1.5 10 14:39 12.08.2019
3574 Clouds 4 1039 41 10000 1.5 10 14:20 12.08.2019
3575 Clouds 4 1039 41 10000 1.5 10 14:20 12.08.2019
3576 Clouds 0 1039 69 10000 1 0 13:47 12.08.2019
3577 Clouds 0 1039 69 10000 1 0 13:47 12.08.2019
3578 Clear 0 1039 70 10000 1 0 13:24 12.08.2019
3579 Clouds 1 1038 47 10000 2.6 20 12:59 12.08.2019
3580 Clouds 1 1038 47 10000 2.6 20 12:40 12.08.2019
3581 Clouds 1 1038 47 10000 2.6 20 12:18 12.08.2019
3582 -273 0 0 0 0 0 11:42 12.08.2019
3583 Clouds 1 1037 50 10000 2.6 10 11:41 12.08.2019
3584 -273 0 0 0 0 0 11:41 12.08.2019
3585 Clouds 1 1037 50 10000 2.6 10 11:23 12.08.2019
3586 Clouds 2 1037 47 10000 3.1 360 10:42 12.08.2019
3587 Clouds 2 1037 47 10000 3.1 360 10:23 12.08.2019
3588 Clouds 2 1037 47 10000 3.1 360 10:23 12.08.2019
3589 Clouds 2 1037 47 10000 3.1 360 10:23 12.08.2019
3590 Clouds 2 1037 51 10000 3.1 10 09:56 12.08.2019
3591 Clouds 2 1037 51 10000 3.1 10 09:38 12.08.2019
3592 Clouds 2 1037 51 10000 3.1 10 09:19 12.08.2019
3593 Clouds -2 1038 92 10000 2.6 80 08:55 12.08.2019
3594 Clouds -2 1038 92 10000 2.6 80 08:37 12.08.2019
3595 Clouds -2 1038 92 10000 2.6 80 08:19 12.08.2019
3596 Fog 0 1039 93 4000 3.1 80 07:42 12.08.2019
3597 Fog 3 1039 86 4000 2.6 70 07:20 12.08.2019
3598 Fog 3 1039 86 4000 2.6 70 06:44 12.08.2019
3599 Fog 4 1039 93 4000 3.6 90 05:37 12.08.2019
3600 Clear 6 1036 70 10000 4.6 80 02:44 12.08.2019
3601 Clouds 10 1036 27 10000 2.6 300 01:53 12.08.2019
3602 Clouds 10 1036 27 10000 2.6 300 01:20 12.08.2019
3603 Clouds 13 1036 22 10000 7.2 290 00:57 12.08.2019
3604 Clouds 13 1036 22 10000 7.2 290 00:38 12.08.2019
3605 Clouds 13 1036 22 10000 7.2 290 00:19 12.08.2019
3606 Clouds 15 1035 18 10000 7.2 290 23:42 11.08.2019
3607 Clouds 15 1035 18 10000 7.2 290 23:20 11.08.2019
3608 Clouds 16 1036 15 10000 6.7 290 22:58 11.08.2019
3609 Clouds 16 1036 15 10000 6.7 290 22:39 11.08.2019
3610 Clouds 16 1036 15 10000 6.7 290 22:19 11.08.2019
3611 Clouds 15 1036 19 10000 6.2 300 21:58 11.08.2019
3612 Clouds 15 1036 19 10000 6.2 300 21:39 11.08.2019
3613 Clouds 15 1036 19 10000 6.2 300 21:20 11.08.2019
3614 Clouds 15 1037 24 10000 5.7 290 20:45 11.08.2019
3615 Clouds 15 1037 24 10000 5.7 290 20:26 11.08.2019
3616 Clouds 14 1038 35 10000 5.1 290 19:59 11.08.2019
3617 Clouds 14 1038 35 10000 5.1 290 19:59 11.08.2019
3618 Clouds 14 1038 35 10000 5.1 290 19:41 11.08.2019
3619 Clouds 13 1039 26 10000 4.6 270 19:18 11.08.2019
3620 Clouds 13 1039 26 10000 4.6 270 18:41 11.08.2019
3621 Clouds 13 1039 47 10000 4.6 270 18:20 11.08.2019
3622 Clouds 11 1040 43 10000 6.2 270 17:56 11.08.2019
3623 Clouds 11 1040 43 10000 6.2 270 17:38 11.08.2019
3624 Clouds 11 1040 43 10000 6.2 270 17:20 11.08.2019
3625 Clouds 9 1040 49 8000 3.1 280 16:55 11.08.2019
3626 Clouds 9 1040 49 8000 3.1 280 16:37 11.08.2019
3627 Clouds 9 1040 49 8000 3.1 280 16:18 11.08.2019
3628 Clouds 6 1040 60 8000 1 0 16:18 11.08.2019
3629 Clouds 6 1040 60 8000 1 0 15:42 11.08.2019
3630 Clouds 6 1040 60 8000 1 0 15:23 11.08.2019
3631 Fog 2 1039 93 4000 3.1 70 14:56 11.08.2019
3632 Fog 2 1039 93 4000 3.1 70 14:38 11.08.2019
3633 Fog 2 1039 93 4000 3.1 70 14:19 11.08.2019
3634 Fog -4 1038 92 4000 1 0 13:43 11.08.2019
3635 Fog -4 1038 92 4000 1 0 13:24 11.08.2019
3636 Fog -4 1037 92 4000 1.5 80 12:46 11.08.2019
3637 Fog -4 1037 92 4000 1.5 80 12:22 11.08.2019
3638 Fog -3 1037 92 4000 2.1 70 11:42 11.08.2019
3639 Fog -3 1037 92 4000 2.1 70 11:23 11.08.2019
3640 Fog -1 1037 92 4000 2.6 70 10:59 11.08.2019
3641 Fog -1 1037 92 4000 2.6 70 10:40 11.08.2019
3642 Fog -1 1037 92 4000 2.6 70 10:21 11.08.2019
3643 Fog -3 1038 92 4000 2.6 90 09:56 11.08.2019
3644 Fog -3 1038 92 4000 2.6 90 09:38 11.08.2019
3645 Fog -1 1037 92 4000 3.1 80 09:19 11.08.2019
3646 Fog -3 1038 92 4000 2.6 90 09:19 11.08.2019
3647 Fog -1 1037 92 4000 3.1 80 08:43 11.08.2019
3648 Fog -1 1037 92 4000 3.1 80 08:25 11.08.2019
3649 Fog 1 1038 86 4000 2.1 40 07:49 11.08.2019
3650 Fog 1 1038 86 4000 2.1 40 07:21 11.08.2019
3651 Fog 4 1039 93 4000 1 0 06:39 11.08.2019
3652 Fog 3 1038 93 4000 2.6 110 05:34 11.08.2019
3653 Fog 2 1037 82 4000 3.1 110 03:36 11.08.2019
3654 Clear 3 1037 64 10000 2.6 80 02:45 11.08.2019
3655 Clear 5 1036 64 10000 2.6 70 01:35 11.08.2019
3656 Clouds 9 1036 57 10000 3.6 110 00:59 11.08.2019
3657 Clouds 9 1036 57 10000 3.6 110 00:40 11.08.2019
3658 Clouds 9 1036 57 10000 3.6 110 00:22 11.08.2019
3659 Clouds 10 1035 53 10000 4.6 120 23:39 10.08.2019
3660 Clouds 10 1035 53 10000 4.6 120 23:20 10.08.2019
3661 Clouds 11 1035 37 10000 4.6 90 22:42 10.08.2019
3662 Clouds 11 1035 37 10000 4.6 90 22:23 10.08.2019
3663 Clouds 11 1036 40 9000 3.1 110 21:56 10.08.2019
3664 Clouds 11 1036 40 9000 3.1 110 21:36 10.08.2019
3665 Clouds 11 1036 40 9000 3.1 110 21:18 10.08.2019
3666 Clouds 11 1036 40 9000 3.1 110 21:18 10.08.2019
3667 Clouds 13 1037 35 9000 2.1 200 20:42 10.08.2019
3668 Clouds 13 1037 35 9000 2.1 200 20:21 10.08.2019
3669 Clouds 12 1038 34 9000 1.5 320 19:56 10.08.2019
3670 Clouds 12 1038 34 9000 1.5 320 19:37 10.08.2019
3671 Clouds 11 1039 34 9000 2.1 270 19:19 10.08.2019
3672 Clouds 11 1039 34 9000 2.1 270 18:39 10.08.2019
3673 Clouds 11 1039 34 9000 2.1 270 18:20 10.08.2019
3674 Clouds 9 1040 39 8000 1.5 230 17:44 10.08.2019
3675 Clouds 9 1040 39 8000 1.5 230 17:24 10.08.2019
3676 Clouds 7 1041 52 8000 1 0 16:46 10.08.2019
3677 Clouds 7 1041 52 8000 1 0 16:28 10.08.2019
3678 Clouds 5 1040 65 8000 1 0 15:54 10.08.2019
3679 Clouds 5 1040 65 8000 1 0 15:24 10.08.2019
3680 Clouds 3 1039 83 8000 2.1 70 14:45 10.08.2019
3681 Clouds 3 1039 83 8000 2.1 70 14:21 10.08.2019
3682 Clouds 1 1039 86 10000 2.6 70 13:42 10.08.2019
3683 Clouds 1 1039 86 10000 2.6 70 13:42 10.08.2019
3684 Fog 1 1038 86 4000 2.6 80 13:21 10.08.2019
3685 Fog 1 1038 86 4000 2.6 80 12:58 10.08.2019
3686 Fog 1 1038 86 4000 2.6 80 12:39 10.08.2019
3687 Fog 1 1038 86 4000 2.6 80 12:21 10.08.2019
3688 Fog 2 1038 91 4000 3.6 80 11:42 10.08.2019
3689 Fog 2 1038 91 4000 3.6 80 11:23 10.08.2019
3690 Fog 2 1038 93 4000 4.1 90 10:58 10.08.2019
3691 Fog 2 1038 93 4000 4.1 90 10:37 10.08.2019
3692 Fog 2 1038 93 4000 4.1 90 10:19 10.08.2019
3693 Fog 2 1038 93 4000 4.1 90 09:43 10.08.2019
3694 Fog 2 1038 93 4000 4.1 90 09:23 10.08.2019
3695 Fog 0 1039 88 4000 4.1 60 08:42 10.08.2019
3696 Fog 0 1039 88 4000 4.1 60 08:22 10.08.2019
3697 Clouds -1 1039 92 10000 3.6 80 07:54 10.08.2019
3698 Clouds -1 1039 92 10000 3.6 80 07:29 10.08.2019
3699 Clouds 0 1039 88 10000 3.6 80 06:52 10.08.2019
3700 Clouds 0 1039 88 10000 3.6 80 06:30 10.08.2019
3701 Clouds 2 1039 80 10000 4.1 80 05:28 10.08.2019
3702 Clouds 1 1039 80 10000 3.6 70 04:53 10.08.2019
3703 Clouds 4 1038 64 10000 3.1 90 03:32 10.08.2019
3704 Clear 5 1037 56 10000 3.1 90 02:32 10.08.2019
3705 Clear 10 1036 15 10000 3.1 310 01:43 10.08.2019
3706 Clear 10 1036 15 10000 3.1 310 01:23 10.08.2019
3707 Clear 13 1035 15 10000 4.6 310 00:53 10.08.2019
3708 Clear 13 1035 15 10000 4.6 310 00:27 10.08.2019
3709 Clear 14 1035 11 10000 6.2 310 23:59 09.08.2019
3710 Clear 14 1035 11 10000 6.2 310 23:38 09.08.2019
3711 Clear 14 1035 11 10000 6.2 310 23:19 09.08.2019
3712 Clouds 15 1035 12 10000 7.2 310 22:41 09.08.2019
3713 Clouds 15 1035 12 10000 7.2 310 22:23 09.08.2019
3714 Clouds 14 1036 11 10000 7.2 300 21:59 09.08.2019
3715 Clouds 14 1036 11 10000 7.2 300 21:39 09.08.2019
3716 Clouds 14 1036 11 10000 7.2 300 21:21 09.08.2019
3717 Clouds 14 1036 11 10000 7.2 300 21:21 09.08.2019
3718 Clouds 14 1037 11 10000 6.2 260 20:56 09.08.2019
3719 Clouds 14 1037 11 10000 6.2 260 20:38 09.08.2019
3720 Clouds 13 1038 13 10000 4.6 250 20:18 09.08.2019
3721 Clouds 13 1038 13 10000 4.6 250 19:41 09.08.2019
3722 Clouds 13 1038 13 10000 4.6 250 19:22 09.08.2019
3723 Clear 12 1039 12 10000 3.6 290 18:42 09.08.2019
3724 Clear 12 1039 12 10000 3.6 290 18:23 09.08.2019
3725 Clear 11 1040 14 10000 3.6 260 17:59 09.08.2019
3726 Clear 11 1040 14 10000 3.6 260 17:41 09.08.2019
3727 Clear 11 1040 14 10000 3.6 260 17:22 09.08.2019
3728 Clear 9 1040 19 10000 3.1 280 16:42 09.08.2019
3729 Clear 9 1040 19 10000 3.1 280 16:42 09.08.2019
3730 Clear 9 1040 19 10000 3.1 280 16:23 09.08.2019
3731 Clouds 7 1040 45 9000 1.5 10 15:58 09.08.2019
3732 Clouds 7 1040 45 9000 1.5 10 15:39 09.08.2019
3733 Clouds 7 1040 45 9000 1.5 10 15:20 09.08.2019
3734 Clouds 2 1039 74 10000 1 0 14:55 09.08.2019
3735 Clouds 2 1039 74 10000 1 0 14:37 09.08.2019
3736 Clouds -5 1038 73 10000 1 0 14:19 09.08.2019
3737 Clouds -5 1038 73 10000 1 0 13:43 09.08.2019
3738 Clouds -5 1038 73 10000 1 0 13:20 09.08.2019
3739 Clouds -2 1038 74 10000 1.5 360 12:47 09.08.2019
3740 Fog -5 1037 92 4000 1.5 30 12:24 09.08.2019
3741 Fog -5 1037 92 4000 1.5 30 11:59 09.08.2019
3742 Fog -5 1037 92 4000 1.5 30 11:59 09.08.2019
3743 Fog -5 1037 92 4000 1.5 30 11:37 09.08.2019
3744 Fog -5 1037 92 4000 1.5 30 11:19 09.08.2019
3745 Fog -5 1037 92 4000 2.1 100 10:40 09.08.2019
3746 Fog -5 1037 92 4000 2.1 100 10:21 09.08.2019
3747 Clouds 0 1022 89 0 0.41 317.003 09:46 09.08.2019
3748 Clouds -4 1037 92 10000 3.1 70 09:20 09.08.2019
3749 Clouds -4 1037 92 10000 3.1 70 08:58 09.08.2019
3750 Clouds -4 1037 92 10000 3.1 70 08:39 09.08.2019
3751 Clouds -4 1037 92 10000 3.1 70 08:19 09.08.2019
3752 Clouds 0 1038 83 10000 1 0 07:44 09.08.2019
3753 Clouds 0 1038 83 10000 1 0 07:23 09.08.2019
3754 Clouds -1 1038 92 10000 1 0 06:56 09.08.2019
3755 Clouds -1 1038 92 10000 1 0 06:56 09.08.2019
3756 Clouds -1 1038 92 10000 1 0 06:56 09.08.2019
3757 Clouds -1 1038 92 10000 1 0 06:30 09.08.2019
3758 Clouds 0 1037 74 10000 3.1 80 05:57 09.08.2019
3759 Clouds -1 1037 74 10000 3.6 70 04:21 09.08.2019
3760 Clouds 9 1036 34 10000 3.1 350 01:58 09.08.2019
3761 Clouds 12 1036 10 10000 5.7 290 00:48 09.08.2019
3762 Clouds 12 1036 10 10000 5.7 290 00:26 09.08.2019
3763 Clear 14 1036 22 10000 2.1 100 23:59 08.08.2019
3764 Clear 14 1036 22 10000 2.1 100 23:38 08.08.2019
3765 Clear 14 1036 22 10000 2.1 100 23:19 08.08.2019
3766 Clouds 15 1036 18 10000 4.6 120 22:57 08.08.2019
3767 Clouds 15 1036 18 10000 4.6 120 22:37 08.08.2019
3768 Clouds 15 1036 18 10000 4.6 120 22:18 08.08.2019
3769 Clouds 15 1037 19 10000 3.1 180 21:57 08.08.2019
3770 Clouds 15 1037 19 10000 3.1 180 21:38 08.08.2019
3771 Clouds 16 1038 7 10000 3.1 160 21:20 08.08.2019
3772 Clouds 16 1038 7 10000 3.1 160 20:42 08.08.2019
3773 Clear 15 1039 9 10000 4.1 300 20:22 08.08.2019
3774 Clear 15 1039 9 10000 4.1 300 19:57 08.08.2019
3775 Clear 15 1039 9 10000 4.1 300 19:38 08.08.2019
3776 Clear 14 1040 10 10000 4.1 260 19:19 08.08.2019
3777 Clear 15 1039 9 10000 4.1 300 19:19 08.08.2019
3778 Clear 14 1040 10 10000 4.1 260 18:41 08.08.2019
3779 Clear 14 1040 10 10000 4.1 260 18:22 08.08.2019
3780 Clear 12 1041 11 10000 3.6 270 17:55 08.08.2019
3781 Clear 12 1041 11 10000 3.6 270 17:36 08.08.2019
3782 Clear 12 1041 11 10000 3.6 270 17:18 08.08.2019
3783 Clear 10 1041 19 10000 2.1 260 16:41 08.08.2019
3784 Clear 10 1041 19 10000 2.1 260 16:23 08.08.2019
3785 Clear 9 1040 10 10000 1 0 15:58 08.08.2019
3786 Clear 9 1040 10 10000 1 0 15:39 08.08.2019
3787 Clear 9 1040 10 10000 1 0 15:39 08.08.2019
3788 Clouds 9 1040 10 10000 1 0 15:20 08.08.2019
3789 Clouds 9 1040 10 10000 1 0 15:20 08.08.2019
3790 Clouds 9 1040 10 10000 1 0 15:20 08.08.2019
3791 Clouds 5 1039 17 10000 2.6 360 14:40 08.08.2019
3792 Clouds 5 1039 17 10000 2.6 360 14:22 08.08.2019
3793 Clouds -1 1039 33 10000 1 0 13:57 08.08.2019
3794 Clouds -1 1039 33 10000 1 0 13:36 08.08.2019
3795 Clouds -2 1038 46 10000 1.5 20 13:18 08.08.2019
3796 Clouds -2 1038 46 10000 1.5 20 12:38 08.08.2019
3797 Clear -2 1038 46 10000 1.5 20 12:19 08.08.2019
3798 Clear -5 1038 57 10000 1.5 10 11:44 08.08.2019
3799 Clear -5 1038 57 10000 1.5 10 11:26 08.08.2019
3800 Clear -6 1038 79 10000 1.5 70 10:56 08.08.2019
3801 Clear -6 1038 79 10000 1.5 70 10:38 08.08.2019
3802 Clear -6 1038 79 10000 1.5 70 10:19 08.08.2019
3803 Clear -4 1038 92 10000 3.1 60 09:41 08.08.2019
3804 Clear -4 1038 92 10000 3.1 60 09:22 08.08.2019
3805 Clear -4 1038 92 10000 3.1 60 08:44 08.08.2019
3806 Clear -4 1038 92 10000 3.1 60 08:22 08.08.2019
3807 Clear -2 1038 86 10000 2.1 100 07:58 08.08.2019
3808 Clear -2 1038 86 10000 2.1 100 07:39 08.08.2019
3809 Clear -2 1038 86 10000 2.1 100 07:18 08.08.2019
3810 Clear 1 1039 80 10000 3.1 80 06:44 08.08.2019
3811 Clear 0 1039 64 10000 3.1 70 05:58 08.08.2019
3812 Clear 0 1039 64 10000 3.1 70 05:39 08.08.2019
3813 Clear 2 1039 37 10000 2.1 60 04:18 08.08.2019
3814 Clear 5 1038 23 10000 4.1 70 03:41 08.08.2019
3815 Clear 10 1038 8 10000 3.1 10 01:47 08.08.2019
3816 Clouds 13 1037 9 10000 4.1 90 00:59 08.08.2019
3817 Clouds 13 1037 9 10000 4.1 90 00:22 08.08.2019
3818 Clouds 15 1037 9 10000 5.7 110 23:38 07.08.2019
3819 Clouds 15 1037 9 10000 5.7 110 23:18 07.08.2019
3820 Clouds 16 1037 8 10000 6.2 120 22:41 07.08.2019
3821 Clouds 16 1037 8 10000 6.2 120 22:21 07.08.2019
3822 Clouds 16 1037 8 10000 5.1 130 21:58 07.08.2019
3823 Clouds 16 1037 8 10000 5.1 130 21:40 07.08.2019
3824 Clouds 16 1037 8 10000 5.1 130 21:21 07.08.2019
3825 Clouds 16 1039 8 10000 5.1 130 20:59 07.08.2019
3826 Clouds 16 1039 8 10000 5.1 130 20:40 07.08.2019
3827 Clouds 16 1039 8 10000 5.1 130 20:20 07.08.2019
3828 Clouds 16 1039 8 10000 5.1 130 20:20 07.08.2019
3829 Clouds 16 1040 8 10000 4.1 190 19:55 07.08.2019
3830 Clouds 16 1040 8 10000 4.1 190 19:36 07.08.2019
3831 Clouds 16 1040 8 10000 4.1 190 19:18 07.08.2019
3832 Clouds 15 1041 11 10000 2.6 190 18:40 07.08.2019
3833 Clouds 15 1041 11 10000 2.6 190 18:20 07.08.2019
3834 Clear 13 1041 19 10000 2.1 210 17:55 07.08.2019
3835 Clear 13 1041 19 10000 2.1 210 17:37 07.08.2019
3836 Clear 13 1041 19 10000 2.1 210 17:18 07.08.2019
3837 Clear 9 1041 24 8000 2.1 250 16:56 07.08.2019
3838 Clear 9 1041 24 8000 2.1 250 16:37 07.08.2019
3839 Clear 9 1041 24 8000 2.1 250 16:37 07.08.2019
3840 Clear 7 1041 24 6000 1 0 16:19 07.08.2019
3841 Clear 7 1041 24 6000 1 0 15:43 07.08.2019
3842 Clear 7 1041 24 6000 1 0 15:20 07.08.2019
3843 Clear 3 1040 29 10000 1 0 14:50 07.08.2019
3844 Clear 3 1040 29 10000 1 0 14:30 07.08.2019
3845 Clear 1 1040 29 10000 2.1 10 13:59 07.08.2019
3846 Clear 1 1040 29 10000 2.1 10 13:39 07.08.2019
3847 Clear 1 1040 29 10000 2.1 10 13:19 07.08.2019
3848 Clear 1 1039 31 10000 3.6 10 12:57 07.08.2019
3849 Clear 1 1039 31 10000 3.6 10 12:38 07.08.2019
3850 Clear 1 1039 31 10000 3.6 10 12:19 07.08.2019
3851 Clear 2 1039 27 10000 3.1 10 11:55 07.08.2019
3852 Clear 2 1039 27 10000 3.1 10 11:37 07.08.2019
3853 Clear 2 1039 27 10000 3.1 10 11:18 07.08.2019
3854 Clear 2 1038 27 10000 3.1 10 10:40 07.08.2019
3855 Clear 2 1038 27 10000 3.1 10 10:19 07.08.2019
3856 Clear -1 1039 39 10000 2.6 20 09:46 07.08.2019
3857 Clear -1 1039 39 10000 2.6 20 09:24 07.08.2019
3858 Clear 0 1039 53 10000 1 0 08:59 07.08.2019
3859 Clear 0 1039 52 10000 1 0 08:41 07.08.2019
3860 Clear 0 1039 52 10000 1 0 08:23 07.08.2019
3861 Clear -2 1040 63 10000 3.1 70 07:45 07.08.2019
3862 Clear -2 1040 63 10000 3.1 70 07:26 07.08.2019
3863 Clear -1 1039 42 10000 2.6 100 06:41 07.08.2019
3864 Clear 1 1039 40 10000 2.6 50 06:20 07.08.2019
3865 Clear 1 1039 40 10000 2.6 50 05:40 07.08.2019
3866 Clear 7 1039 30 10000 3.1 40 03:23 07.08.2019
3867 Clear 7 1039 28 10000 3.1 30 02:51 07.08.2019
3868 Clear 7 1039 28 10000 3.1 30 02:26 07.08.2019
3869 Clear 11 1038 18 10000 2.6 320 01:45 07.08.2019
3870 Clear 13 1037 10 10000 4.1 110 00:52 07.08.2019
3871 Clear 13 1037 10 10000 4.1 110 00:22 07.08.2019
3872 Clouds 15 1037 9 10000 3.6 150 23:44 06.08.2019
3873 Clouds 15 1037 9 10000 3.6 150 23:23 06.08.2019
3874 Clouds 16 1037 8 10000 4.1 100 22:59 06.08.2019
3875 Clouds 16 1037 8 10000 4.1 100 22:39 06.08.2019
3876 Clouds 16 1037 8 10000 4.1 100 22:20 06.08.2019
3877 Clouds 17 1038 8 10000 3.1 100 21:44 06.08.2019
3878 Clouds 17 1038 8 10000 3.1 100 21:26 06.08.2019
3879 Clouds 17 1038 8 10000 3.1 100 21:26 06.08.2019
3880 Clouds 17 1039 5 10000 2.1 240 20:59 06.08.2019
3881 Clouds 17 1039 5 10000 2.1 240 20:41 06.08.2019
3882 Clouds 17 1039 5 10000 2.1 240 20:22 06.08.2019
3883 Clouds 15 1040 6 10000 3.1 170 19:47 06.08.2019
3884 Clouds 15 1040 6 10000 3.1 170 19:28 06.08.2019
3885 Clear 14 1041 10 10000 2.6 230 18:55 06.08.2019
3886 Clear 14 1041 10 10000 2.6 230 18:36 06.08.2019
3887 Clear 14 1041 10 10000 2.6 230 18:18 06.08.2019
3888 Clear 12 1042 13 10000 2.1 240 17:55 06.08.2019
3889 Clear 12 1042 13 10000 2.1 240 17:36 06.08.2019
3890 Clear 12 1042 13 10000 2.1 240 17:18 06.08.2019
3891 Clear 10 1041 18 10000 1.5 250 16:42 06.08.2019
3892 Clear 10 1041 18 10000 1.5 250 16:21 06.08.2019
3893 Clear 8 1041 19 10000 1 0 15:57 06.08.2019
3894 Clear 8 1041 19 10000 1 0 15:39 06.08.2019
3895 Clear 8 1041 19 10000 1 0 15:39 06.08.2019
3896 Clear 8 1041 19 10000 1 0 15:20 06.08.2019
3897 Clear 4 1040 23 10000 2.6 20 14:44 06.08.2019
3898 Clear 4 1040 23 10000 2.6 20 14:25 06.08.2019
3899 Clear 0 1040 52 10000 2.6 10 13:58 06.08.2019
3900 Clear 0 1040 52 10000 2.6 10 13:39 06.08.2019
3901 Clear -1 1039 30 10000 2.6 10 13:20 06.08.2019
3902 Clear -1 1039 30 10000 2.6 10 12:57 06.08.2019
3903 Clear -1 1039 30 10000 2.6 10 12:39 06.08.2019
3904 Clear -1 1039 30 10000 2.6 10 12:21 06.08.2019
3905 Clear -1 1039 30 10000 2.6 10 12:21 06.08.2019
3906 Clear -1 1039 26 10000 2.1 10 11:42 06.08.2019
3907 Clear -1 1039 26 10000 2.1 10 11:19 06.08.2019
3908 Clear -1 1039 23 10000 2.6 10 10:42 06.08.2019
3909 Clear -1 1039 23 10000 2.6 10 10:42 06.08.2019
3910 Clear -1 1039 23 10000 2.6 10 10:42 06.08.2019
3911 Clear -1 1039 23 10000 2.6 10 10:23 06.08.2019
3912 Clear -2 1039 30 10000 1 0 09:58 06.08.2019
3913 Clear -2 1039 30 10000 1 0 09:38 06.08.2019
3914 Clear -2 1039 30 10000 1 0 09:19 06.08.2019
3915 Clear 1 1039 24 10000 2.1 20 08:42 06.08.2019
3916 Clear 1 1039 24 10000 2.1 20 08:24 06.08.2019
3917 Clear -3 1040 35 10000 1.5 30 07:36 06.08.2019
3918 Clear -3 1040 35 10000 2.1 40 06:53 06.08.2019
3919 Clear -3 1040 35 10000 2.1 40 06:35 06.08.2019
3920 Clear -2 1040 33 10000 1.5 40 05:52 06.08.2019
3921 Clear 1 1041 29 10000 3.1 60 04:31 06.08.2019
3922 Clear 5 1039 21 10000 4.1 70 01:53 06.08.2019
3923 Clear 5 1039 21 10000 4.1 70 01:23 06.08.2019
3924 Clear 14 1039 7 10000 4.6 80 00:29 06.08.2019
3925 Clear 15 1038 8 10000 5.7 110 23:46 05.08.2019
3926 Clear 15 1038 8 10000 5.7 110 23:18 05.08.2019
3927 Clear 15 1038 8 10000 6.2 130 22:40 05.08.2019
3928 Clear 15 1038 8 10000 6.2 130 22:22 05.08.2019
3929 Clouds 15 1038 8 10000 4.6 110 21:54 05.08.2019
3930 Clouds 15 1038 8 10000 4.6 110 21:36 05.08.2019
3931 Clouds 15 1038 8 10000 4.6 110 21:18 05.08.2019
3932 Clouds 15 1039 9 10000 4.1 140 20:42 05.08.2019
3933 Clouds 15 1039 9 10000 4.1 140 20:24 05.08.2019
3934 Clouds 14 1040 12 10000 3.6 110 19:59 05.08.2019
3935 Clouds 14 1040 12 10000 3.6 110 19:39 05.08.2019
3936 Clouds 14 1040 12 10000 3.6 110 19:39 05.08.2019
3937 Clouds 14 1040 12 10000 3.6 110 19:20 05.08.2019
3938 Clouds 14 1041 15 10000 2.6 240 18:45 05.08.2019
3939 Clouds 14 1041 15 10000 2.6 240 18:22 05.08.2019
3940 Clear 12 1042 17 10000 2.6 250 17:57 05.08.2019
3941 Clear 12 1042 17 10000 2.6 250 17:39 05.08.2019
3942 Clear 12 1042 17 10000 2.6 250 17:20 05.08.2019
3943 Clear 8 1042 28 10000 3.6 230 16:43 05.08.2019
3944 Clear 8 1042 28 10000 3.6 230 16:23 05.08.2019
3945 Clear 5 1041 23 10000 1 0 15:43 05.08.2019
3946 Clouds 5 1041 23 10000 1 0 15:20 05.08.2019
3947 Clouds 3 1040 25 10000 2.1 10 14:43 05.08.2019
3948 Clouds 3 1040 25 10000 2.1 10 14:23 05.08.2019
3949 Clouds -3 1039 35 10000 1 0 13:57 05.08.2019
3950 Clouds -3 1039 35 10000 1 0 13:57 05.08.2019
3951 Clouds -3 1039 35 10000 1 0 13:38 05.08.2019
3952 Clouds -3 1039 35 10000 1 0 13:18 05.08.2019
3953 Clouds -2 1039 36 10000 2.6 20 12:42 05.08.2019
3954 Clear -3 1038 42 10000 2.1 20 12:19 05.08.2019
3955 Clear -3 1038 42 10000 2.1 20 11:43 05.08.2019
3956 Clear -3 1038 42 10000 2.1 20 11:25 05.08.2019
3957 Clear -3 1038 42 10000 1 0 10:48 05.08.2019
3958 Clear -3 1038 42 10000 1 0 10:30 05.08.2019
3959 Clear -4 1039 49 10000 1.5 20 09:57 05.08.2019
3960 Clear -6 1039 57 10000 1.5 30 09:37 05.08.2019
3961 Clouds -6 1039 57 10000 1.5 30 09:19 05.08.2019
3962 Clouds -6 1039 57 10000 1.5 30 08:44 05.08.2019
3963 Clouds -6 1039 57 10000 1.5 30 08:24 05.08.2019
3964 Clouds -5 1040 62 10000 1.5 90 07:47 05.08.2019
3965 Clouds -5 1040 62 10000 1.5 90 07:28 05.08.2019
3966 Clouds -5 1040 73 10000 2.6 90 06:53 05.08.2019
3967 Clouds -2 1040 79 10000 3.1 80 06:19 05.08.2019
3968 Clouds -2 1040 79 10000 3.1 80 05:28 05.08.2019
3969 Clouds -1 1040 74 10000 4.1 80 04:41 05.08.2019
3970 Clouds 0 1039 78 10000 3.1 80 03:50 05.08.2019
3971 Clear 5 1039 38 10000 3.1 80 02:38 05.08.2019
3972 Clear 4 1038 25 10000 3.6 80 01:47 05.08.2019
3973 Clear 12 1038 9 10000 4.6 110 00:59 05.08.2019
3974 Clear 12 1038 9 10000 4.6 110 00:39 05.08.2019
3975 Clear 14 1038 7 10000 4.6 120 00:18 05.08.2019
3976 Clear 14 1038 7 10000 4.6 120 23:41 04.08.2019
3977 Clear 14 1038 7 10000 4.6 120 23:22 04.08.2019
3978 Clear 15 1038 5 10000 5.1 120 22:57 04.08.2019
3979 Clear 15 1038 5 10000 5.1 120 22:38 04.08.2019
3980 Clear 15 1038 5 10000 5.1 120 22:19 04.08.2019
3981 Clear 15 1038 5 10000 5.1 120 22:19 04.08.2019
3982 Clear 15 1038 5 10000 5.1 120 22:19 04.08.2019
3983 Clear 16 1039 5 10000 4.6 90 21:45 04.08.2019
3984 Clouds 16 1039 5 10000 4.6 90 21:24 04.08.2019
3985 Clear 15 1040 8 10000 2.6 200 20:58 04.08.2019
3986 Clear 15 1040 8 10000 2.6 200 20:40 04.08.2019
3987 Clear 15 1040 8 10000 2.6 200 20:18 04.08.2019
3988 Clear 14 1041 10 10000 3.1 200 19:48 04.08.2019
3989 Clear 14 1041 10 10000 3.1 200 19:26 04.08.2019
3990 Clear 11 1042 14 10000 2.6 240 18:44 04.08.2019
3991 Clear 11 1042 14 10000 2.6 240 18:21 04.08.2019
3992 Clear 9 1042 24 10000 4.1 270 17:58 04.08.2019
3993 Clear 9 1042 24 10000 4.1 270 17:40 04.08.2019
3994 Clear 9 1042 24 10000 4.1 270 17:20 04.08.2019
3995 Clear 7 1042 26 10000 4.1 260 16:42 04.08.2019
3996 Clear 7 1042 26 10000 4.1 260 16:24 04.08.2019
3997 Clear 4 1041 35 10000 3.6 300 15:45 04.08.2019
3998 Clear 4 1041 35 10000 3.6 300 15:45 04.08.2019
3999 Clear 4 1041 35 10000 3.6 300 15:23 04.08.2019
4000 Clear 1 1040 19 10000 2.1 350 14:55 04.08.2019
4001 Clear 1 1040 19 10000 2.1 350 14:37 04.08.2019
4002 Clear 1 1040 19 10000 2.1 350 14:19 04.08.2019
4003 Clear -8 1040 31 10000 1 0 13:42 04.08.2019
4004 Clear -8 1040 31 10000 1 0 13:23 04.08.2019
4005 Clear -5 1039 22 10000 2.1 360 12:45 04.08.2019
4006 Clear -5 1039 22 10000 2.1 360 12:27 04.08.2019
4007 Clear -8 1039 23 10000 1 0 11:57 04.08.2019
4008 Clear -8 1039 23 10000 1 0 11:37 04.08.2019
4009 Clear -8 1039 23 10000 1 0 11:19 04.08.2019
4010 Clear -2 1039 13 10000 2.1 10 10:41 04.08.2019
4011 Clear -2 1039 13 10000 2.1 10 10:20 04.08.2019
4012 Clear -1 1039 11 10000 2.6 10 09:45 04.08.2019
4013 Clear -1 1039 11 10000 2.6 10 09:22 04.08.2019
4014 Clear -1 1039 14 10000 3.1 10 08:45 04.08.2019
4015 Clear -1 1039 14 10000 3.1 10 08:26 04.08.2019
4016 Clear -1 1040 16 10000 2.6 10 07:52 04.08.2019
4017 Clear -8 1040 34 10000 1.5 40 06:56 04.08.2019
4018 Clear -8 1040 34 10000 1.5 40 06:28 04.08.2019
4019 Clear -3 1040 23 10000 2.1 60 04:26 04.08.2019
4020 Clear 2 1039 17 10000 1 0 02:41 04.08.2019
4021 Clear 2 1038 10 10000 2.1 130 01:34 04.08.2019
4022 Clear 2 1038 10 10000 2.1 130 01:34 04.08.2019
4023 Clear 2 1038 10 10000 2.1 130 01:34 04.08.2019
4024 Clear 10 1038 6 10000 3.1 120 00:59 04.08.2019
4025 Clear 10 1038 6 10000 3.1 120 00:40 04.08.2019
4026 Clear 11 1038 6 10000 4.1 130 00:18 04.08.2019
4027 Clear 11 1038 6 10000 4.1 130 23:39 03.08.2019
4028 Clear 11 1038 6 10000 4.1 130 23:18 03.08.2019
4029 Clear 12 1038 5 10000 3.6 140 22:44 03.08.2019
4030 Clear 12 1038 5 10000 3.6 140 22:21 03.08.2019
4031 Clear 12 1039 6 10000 2.6 150 21:42 03.08.2019
4032 Clear 12 1039 6 10000 2.6 150 21:24 03.08.2019
4033 Clear 12 1040 6 10000 2.6 90 20:58 03.08.2019
4034 Clear 12 1040 6 10000 2.6 90 20:40 03.08.2019
4035 Clear 12 1040 6 10000 2.6 90 20:20 03.08.2019
4036 Clear 11 1041 8 10000 2.6 80 19:41 03.08.2019
4037 Clear 11 1041 8 10000 2.6 80 19:23 03.08.2019
4038 Clear 8 1042 16 10000 3.6 140 18:50 03.08.2019
4039 Clear 8 1042 16 10000 3.6 140 18:27 03.08.2019
4040 Clear 7 1042 19 10000 3.6 120 17:48 03.08.2019
4041 Clear 7 1042 19 10000 3.6 120 17:21 03.08.2019
4042 Clouds 5 1043 35 10000 4.6 120 16:55 03.08.2019
4043 Clouds 5 1043 35 10000 4.6 120 16:37 03.08.2019
4044 Clouds 3 1042 64 10000 5.1 120 16:18 03.08.2019
4045 Clouds 3 1042 64 10000 5.1 120 15:43 03.08.2019
4046 Clouds 3 1042 64 10000 5.1 120 15:21 03.08.2019
4047 Clouds 0 1041 80 10000 3.1 160 14:39 03.08.2019
4048 Clouds 0 1041 80 10000 3.1 160 14:20 03.08.2019
4049 Clear -2 1039 39 10000 3.1 20 13:50 03.08.2019
4050 Clouds -2 1039 39 10000 3.1 20 13:24 03.08.2019
4051 Clouds -1 1038 42 10000 3.1 10 12:57 03.08.2019
4052 Clouds -1 1038 42 10000 3.1 10 12:38 03.08.2019
4053 Clouds -1 1038 42 10000 3.1 10 12:20 03.08.2019
4054 Clouds 1 1023 91 0 1.13 11.24 11:47 03.08.2019
4055 Clouds -3 1038 49 10000 1.5 10 11:25 03.08.2019
4056 Clouds -3 1038 49 10000 1.5 10 10:40 03.08.2019
4057 Clouds -3 1038 49 10000 1.5 10 10:21 03.08.2019
4058 Clouds 1 1023 91 0 1.13 11.24 09:39 03.08.2019
4059 Clear -3 1038 68 10000 1 0 09:19 03.08.2019
4060 Clear -3 1038 68 10000 1 0 08:46 03.08.2019
4061 Clear -1 1039 68 10000 2.6 50 07:41 03.08.2019
4062 Clear -1 1039 68 10000 2.6 50 07:22 03.08.2019
4063 Clear -1 1039 68 10000 1 0 06:21 03.08.2019
4064 Clear 5 1038 48 10000 1 0 03:58 03.08.2019
4065 Clear 7 1037 39 10000 2.6 330 02:28 03.08.2019
4066 Clouds 10 1036 27 10000 4.1 300 01:22 03.08.2019
4067 Clouds 12 1035 22 10000 5.7 290 00:32 03.08.2019
4068 Clouds 14 1035 19 10000 5.7 300 23:57 02.08.2019
4069 Clouds 14 1035 19 10000 5.7 300 23:37 02.08.2019
4070 Clouds 14 1035 19 10000 5.7 300 23:18 02.08.2019
4071 Clouds 15 1035 14 10000 6.7 270 22:40 02.08.2019
4072 Clouds 15 1035 14 10000 6.7 270 22:22 02.08.2019
4073 Clouds 15 1036 13 10000 7.2 290 21:57 02.08.2019
4074 Clouds 15 1036 13 10000 7.2 290 21:39 02.08.2019
4075 Clouds 15 1036 13 10000 7.2 290 21:21 02.08.2019
4076 Clouds 14 1037 15 10000 5.1 290 20:44 02.08.2019
4077 Clouds 14 1037 15 10000 5.1 290 20:26 02.08.2019
4078 Clouds 14 1038 14 10000 4.1 290 19:55 02.08.2019
4079 Clouds 14 1038 14 10000 4.1 290 19:33 02.08.2019
4080 Clouds 12 1039 13 10000 3.1 280 18:57 02.08.2019
4081 Clouds 12 1039 13 10000 3.1 280 18:38 02.08.2019
4082 Clouds 12 1039 13 10000 3.1 280 18:18 02.08.2019
4083 Clear 11 1040 17 10000 1 0 17:41 02.08.2019
4084 Clear 11 1040 17 10000 1 0 17:22 02.08.2019
4085 Clear 8 1040 19 10000 2.1 220 16:40 02.08.2019
4086 Clear 8 1040 19 10000 2.1 220 16:21 02.08.2019
4087 Clear 6 1039 20 10000 1.5 260 15:57 02.08.2019
4088 Clear 6 1039 20 10000 1.5 260 15:37 02.08.2019
4089 Clear 6 1039 20 10000 1.5 260 15:18 02.08.2019
4090 Clear 6 1039 20 10000 1.5 260 15:18 02.08.2019
4091 Clear 3 1039 27 10000 2.1 10 14:44 02.08.2019
4092 Clear 3 1039 27 10000 2.1 10 14:18 02.08.2019
4093 Clear 0 1038 40 10000 2.6 10 13:46 02.08.2019
4094 Clear 0 1038 40 10000 2.6 10 13:23 02.08.2019
4095 Clear 0 1037 40 10000 2.6 360 12:44 02.08.2019
4096 Clear 0 1037 37 10000 2.6 360 12:21 02.08.2019
4097 Clear 0 1037 37 10000 3.1 10 11:42 02.08.2019
4098 Clear 0 1037 37 10000 3.1 10 11:24 02.08.2019
4099 Clear 1 1037 29 10000 3.6 10 10:49 02.08.2019
4100 Clear 1 1037 29 10000 3.6 10 10:24 02.08.2019
4101 Clear 2 1037 27 10000 3.1 10 09:59 02.08.2019
4102 Clear 2 1037 27 10000 3.1 10 09:41 02.08.2019
4103 Clear 2 1037 27 10000 3.1 10 09:23 02.08.2019
4104 Clear 2 1038 27 10000 2.6 10 08:42 02.08.2019
4105 Clear 2 1038 27 10000 2.6 10 08:20 02.08.2019
4106 Clear 3 1038 25 10000 2.6 350 07:46 02.08.2019
4107 Clear 3 1038 25 10000 2.6 350 07:27 02.08.2019
4108 Clear 3 1039 23 10000 1 0 06:41 02.08.2019
4109 Clear 5 1039 18 10000 1 0 05:47 02.08.2019
4110 Clear 7 1037 20 10000 3.1 280 03:42 02.08.2019
4111 Clouds 7 1037 20 10000 3.1 280 03:23 02.08.2019
4112 Clouds 11 1035 12 10000 2.1 330 01:41 02.08.2019
4113 Clouds 14 1035 12 10000 3.1 290 00:32 02.08.2019
4114 Clouds 16 1035 11 10000 4.6 290 23:45 01.08.2019
4115 Clouds 16 1035 11 10000 4.6 290 23:26 01.08.2019
4116 Clouds 16 1035 9 10000 4.1 280 22:46 01.08.2019
4117 Clouds 16 1035 9 10000 4.1 280 22:25 01.08.2019
4118 Clouds 16 1035 8 10000 3.1 300 21:59 01.08.2019
4119 Clouds 16 1035 8 10000 3.1 300 21:41 01.08.2019
4120 Clear 16 1035 8 10000 3.1 300 21:22 01.08.2019
4121 Clear 15 1037 9 10000 4.1 310 20:47 01.08.2019
4122 Clear 15 1037 9 10000 4.1 310 20:23 01.08.2019
4123 Clear 15 1038 9 10000 1 0 19:58 01.08.2019
4124 Clear 15 1038 9 10000 1 0 19:37 01.08.2019
4125 Clear 15 1038 9 10000 1 0 19:18 01.08.2019
4126 Clear 14 1039 11 10000 2.6 220 18:43 01.08.2019
4127 Clear 14 1039 11 10000 2.6 220 18:43 01.08.2019
4128 Clear 14 1039 11 10000 2.6 220 18:24 01.08.2019
4129 Clear 14 1039 11 10000 2.6 220 18:24 01.08.2019
4130 Clear 12 1039 12 10000 2.1 270 17:47 01.08.2019
4131 Clear 12 1039 12 10000 2.1 270 17:29 01.08.2019
4132 Clear 9 1039 16 10000 2.1 250 16:45 01.08.2019
4133 Clear 9 1039 16 10000 2.1 250 16:45 01.08.2019
4134 Clear 9 1039 16 10000 2.1 250 16:23 01.08.2019
4135 Clear 8 1039 19 10000 0.48 287.573 15:46 01.08.2019
4136 Clear 8 1039 19 10000 0.51 257.557 15:22 01.08.2019
4137 Clear 4 1038 27 10000 2.1 360 14:59 01.08.2019
4138 Clear 4 1038 27 10000 2.1 360 14:41 01.08.2019
4139 Clear 4 1038 27 10000 2.1 360 14:18 01.08.2019
4140 Clear 4 1038 27 10000 2.1 360 14:18 01.08.2019
4141 Clear 1 1037 31 10000 3.1 10 13:42 01.08.2019
4142 Clear 1 1037 31 10000 3.1 10 13:22 01.08.2019
4143 Clear 1 1037 40 10000 2.6 10 12:59 01.08.2019
4144 Clear 1 1037 40 10000 2.6 10 12:41 01.08.2019
4145 Clear 1 1037 40 10000 2.6 10 12:22 01.08.2019
4146 Clear 1 1037 40 10000 2.6 10 11:42 01.08.2019
4147 Clear 1 1037 40 10000 2.6 10 11:42 01.08.2019
4148 Clear 1 1037 40 10000 2.6 10 11:22 01.08.2019
4149 Clear 2 1037 40 10000 3.6 10 10:46 01.08.2019
4150 Clear 2 1037 40 10000 3.6 10 10:28 01.08.2019
4151 Clear 2 1037 43 10000 2.6 10 09:59 01.08.2019
4152 Clear 2 1037 43 10000 2.6 10 09:39 01.08.2019
4153 Clear 2 1037 43 10000 2.6 10 09:21 01.08.2019
4154 Clear 2 1038 47 10000 3.1 20 08:42 01.08.2019
4155 Clear 2 1038 47 10000 3.1 20 08:19 01.08.2019
4156 Clear 0 1039 69 10000 1 0 07:47 01.08.2019
4157 Clear 0 1039 69 10000 1 0 07:24 01.08.2019
4158 Clear -1 1039 58 10000 1.5 90 06:47 01.08.2019
4159 Clear -1 1038 50 10000 3.1 80 05:48 01.08.2019
4160 Clear 6 1038 33 10000 2.6 20 03:53 01.08.2019
4161 Clear 7 1038 28 10000 2.6 10 02:27 01.08.2019
4162 Clouds 12 1037 13 10000 4.1 110 00:41 01.08.2019
4163 Clouds 12 1037 13 10000 4.1 110 00:19 01.08.2019
4164 Clouds 14 1037 12 10000 4.1 140 23:42 31.07.2019
4165 Clouds 14 1037 12 10000 4.1 140 23:20 31.07.2019
4166 Clouds 15 1037 12 10000 3.1 120 22:47 31.07.2019
4167 Clouds 15 1037 12 10000 3.1 120 22:29 31.07.2019
4168 Clouds 15 1038 10 10000 4.1 120 21:45 31.07.2019
4169 Clouds 15 1038 10 10000 4.1 120 21:24 31.07.2019
4170 Clouds 14 1039 9 10000 3.1 160 20:56 31.07.2019
4171 Clouds 14 1039 9 10000 3.1 160 20:56 31.07.2019
4172 Clouds 14 1039 9 10000 3.1 160 20:38 31.07.2019
4173 Clouds 14 1039 9 10000 3.1 160 20:20 31.07.2019
4174 Clear 13 1040 9 10000 4.6 140 19:41 31.07.2019
4175 Clear 13 1040 9 10000 4.6 140 19:22 31.07.2019
4176 Clear 12 1041 16 10000 2.6 150 18:41 31.07.2019
4177 Clear 12 1041 16 10000 2.6 150 18:22 31.07.2019
4178 Clear 10 1042 25 10000 1 0 17:45 31.07.2019
4179 Clear 10 1042 25 10000 1 0 17:20 31.07.2019
4180 Clear 8 1041 28 10000 1 0 16:56 31.07.2019
4181 Clear 8 1041 28 10000 1 0 16:37 31.07.2019
4182 Clear 8 1041 28 10000 1 0 16:18 31.07.2019
4183 Clear 6 1041 33 10000 1 0 15:42 31.07.2019
4184 Clear 6 1041 33 10000 1 0 15:23 31.07.2019
4185 Clear 2 1040 31 10000 2.1 10 14:42 31.07.2019
4186 Clear 2 1040 31 10000 2.1 10 14:20 31.07.2019
4187 Clear -3 1039 38 10000 1.5 10 13:56 31.07.2019
4188 Clear -3 1039 38 10000 1.5 10 13:37 31.07.2019
4189 Clear -3 1039 38 10000 1.5 10 13:19 31.07.2019
4190 Clear -1 1039 30 10000 2.1 360 12:41 31.07.2019
4191 Clear -1 1039 30 10000 2.1 360 12:23 31.07.2019
4192 Clear -2 1038 36 10000 2.1 20 11:40 31.07.2019
4193 Clear -2 1038 36 10000 2.1 20 11:21 31.07.2019
4194 Clear -2 1038 54 10000 2.1 20 10:56 31.07.2019
4195 Clear -2 1038 54 10000 2.1 20 10:38 31.07.2019
4196 Clear -2 1038 54 10000 2.1 20 10:19 31.07.2019
4197 Clear 1 1022 82 0 1.31 124.615 09:42 31.07.2019
4198 Clear -5 1039 67 10000 1.5 90 09:23 31.07.2019
4199 Clear -5 1039 67 10000 1.5 90 08:43 31.07.2019
4200 Clear -5 1039 67 10000 1.5 90 08:24 31.07.2019
4201 Clear -3 1040 63 10000 2.1 90 07:47 31.07.2019
4202 Clear -3 1040 63 10000 2.1 90 07:27 31.07.2019
4203 Clear -1 1040 54 10000 2.6 70 05:20 31.07.2019
4204 Clear 6 1040 41 10000 2.1 10 03:55 31.07.2019
4205 Clouds 12 1039 16 10000 4.6 120 00:37 31.07.2019
4206 Clouds 13 1038 13 10000 5.1 130 23:47 30.07.2019
4207 Clouds 13 1038 13 10000 5.1 130 23:47 30.07.2019
4208 Clouds 13 1038 13 10000 5.1 130 23:25 30.07.2019
4209 Clouds 14 1038 12 10000 5.1 130 22:49 30.07.2019
4210 Clouds 14 1038 12 10000 5.1 130 22:26 30.07.2019
4211 Clouds 14 1038 12 10000 5.1 130 22:26 30.07.2019
4212 Clouds 15 1038 14 10000 5.1 110 21:57 30.07.2019
4213 Clouds 15 1038 14 10000 5.1 110 21:37 30.07.2019
4214 Clouds 15 1038 14 10000 5.1 110 21:19 30.07.2019
4215 Clouds 14 1039 12 10000 5.1 140 20:44 30.07.2019
4216 Clouds 14 1039 12 10000 5.1 140 20:24 30.07.2019
4217 Clouds 14 1040 14 10000 4.1 140 19:59 30.07.2019
4218 Clouds 14 1040 14 10000 4.1 140 19:40 30.07.2019
4219 Clouds 14 1040 14 10000 4.1 140 19:18 30.07.2019
4220 Clear 13 1041 17 10000 2.6 160 18:43 30.07.2019
4221 Clear 11 1042 20 10000 3.1 150 18:19 30.07.2019
4222 Clear 11 1042 20 10000 3.1 150 17:42 30.07.2019
4223 Clear 11 1042 20 10000 3.1 150 17:20 30.07.2019
4224 Clear 11 1042 20 10000 3.1 150 17:20 30.07.2019
4225 Clear 9 1042 24 10000 2.6 240 16:53 30.07.2019
4226 Clear 9 1042 24 10000 2.6 240 16:22 30.07.2019
4227 Clear 9 1042 24 10000 2.6 240 16:22 30.07.2019
4228 Clear 8 1041 26 10000 1 0 15:58 30.07.2019
4229 Clear 8 1041 26 10000 1 0 15:38 30.07.2019
4230 Clear 3 1040 32 10000 2.1 10 15:19 30.07.2019
4231 Clear 3 1040 32 10000 2.1 10 14:42 30.07.2019
4232 Clear 3 1040 32 10000 2.1 10 14:21 30.07.2019
4233 Clear 0 1040 52 10000 2.6 10 13:48 30.07.2019
4234 Clear 0 1040 52 10000 2.6 10 13:29 30.07.2019
4235 Clear -1 1039 46 10000 2.6 10 12:59 30.07.2019
4236 Clear -1 1039 46 10000 2.6 10 12:40 30.07.2019
4237 Clear -1 1039 46 10000 2.6 10 12:22 30.07.2019
4238 Clear -1 1039 46 10000 1.5 360 11:42 30.07.2019
4239 Clear -1 1039 46 10000 1.5 360 11:20 30.07.2019
4240 Clear -4 1039 58 10000 1.5 360 10:49 30.07.2019
4241 Clear -4 1039 58 10000 1.5 360 10:29 30.07.2019
4242 Clear -2 1039 54 10000 1.5 90 09:55 30.07.2019
4243 Clear -2 1039 54 10000 1.5 90 09:37 30.07.2019
4244 Clear -2 1039 54 10000 1.5 90 09:19 30.07.2019
4245 Clear -1 1039 54 10000 1.5 70 08:32 30.07.2019
4246 Clear 1 1039 47 10000 2.6 40 07:50 30.07.2019
4247 Clear 1 1039 47 10000 2.6 40 07:31 30.07.2019
4248 Clear 0 1040 47 10000 2.1 40 06:48 30.07.2019
4249 Clear 0 1040 33 10000 2.1 40 06:28 30.07.2019
4250 Clear 4 1040 38 10000 2.1 30 05:34 30.07.2019
4251 Clear 6 1039 33 10000 3.1 20 03:28 30.07.2019
4252 Clear 9 1038 15 10000 3.1 300 01:21 30.07.2019
4253 Clouds 13 1038 9 10000 2.6 280 00:22 30.07.2019
4254 Clouds 13 1038 9 10000 5.1 290 23:47 29.07.2019
4255 Clouds 13 1038 9 10000 5.1 290 23:28 29.07.2019
4256 Clouds 15 1038 6 10000 2.6 300 22:58 29.07.2019
4257 Clouds 15 1038 6 10000 2.6 300 22:39 29.07.2019
4258 Clouds 15 1038 6 10000 2.6 300 22:20 29.07.2019
4259 Clouds 14 1038 7 10000 3.6 250 21:59 29.07.2019
4260 Clouds 14 1038 7 10000 3.6 250 21:40 29.07.2019
4261 Clouds 14 1038 7 10000 3.6 250 21:21 29.07.2019
4262 Clouds 14 1039 8 10000 4.1 280 20:49 29.07.2019
4263 Clouds 14 1039 8 10000 4.1 280 20:26 29.07.2019
4264 Clouds 12 1040 8 10000 5.1 230 19:59 29.07.2019
4265 Clouds 12 1040 8 10000 5.1 230 19:41 29.07.2019
4266 Clouds 12 1040 8 10000 5.1 230 19:20 29.07.2019
4267 Clouds 11 1041 9 10000 3.6 240 18:43 29.07.2019
4268 Clouds 10 1042 10 10000 4.6 230 18:23 29.07.2019
4269 Clouds 10 1042 10 10000 4.6 230 17:53 29.07.2019
4270 Clouds 10 1042 10 10000 4.6 230 17:35 29.07.2019
4271 Clouds 10 1041 10 10000 3.6 300 16:59 29.07.2019
4272 Clouds 10 1041 10 10000 3.6 300 16:40 29.07.2019
4273 Clouds 10 1041 10 10000 3.6 300 16:22 29.07.2019
4274 Clouds 6 1040 15 10000 1 0 15:52 29.07.2019
4275 Clouds 6 1040 15 10000 1 0 15:52 29.07.2019
4276 Clouds 6 1040 15 10000 1 0 15:52 29.07.2019
4277 Clouds 6 1040 15 10000 1 0 15:33 29.07.2019
4278 Clouds 2 1040 29 10000 1 0 14:56 29.07.2019
4279 Clouds 2 1040 29 10000 1 0 14:37 29.07.2019
4280 Clouds 2 1040 29 10000 1 0 14:19 29.07.2019
4281 Clouds -2 1039 33 10000 1.09 136.63 13:41 29.07.2019
4282 Clouds -2 1039 33 10000 1.28 140.572 13:23 29.07.2019
4283 Clouds 1 1039 26 10000 2.6 10 12:42 29.07.2019
4284 Clouds 1 1039 26 10000 2.6 10 12:23 29.07.2019
4285 Clouds 1 1038 29 10000 1.5 10 11:43 29.07.2019
4286 Clouds 1 1038 29 10000 1.5 10 11:22 29.07.2019
4287 Clear 0 1039 26 10000 2.6 10 10:46 29.07.2019
4288 Clear 0 1039 26 10000 2.6 10 10:24 29.07.2019
4289 Clear -1 1039 33 10000 1.5 10 09:48 29.07.2019
4290 Clear -1 1039 33 10000 1.5 10 09:28 29.07.2019
4291 Clear 1 1039 31 10000 1.5 10 08:57 29.07.2019
4292 Clear 1 1039 31 10000 1.5 10 08:31 29.07.2019
4293 Clear 0 1040 33 10000 1 0 07:58 29.07.2019
4294 Clear 0 1040 33 10000 1 0 07:36 29.07.2019
4295 Clear -1 1039 39 10000 1.78 131.944 06:45 29.07.2019
4296 Clear 3 1040 27 10000 2.36 126.36 05:43 29.07.2019
4297 Clear 2 1039 64 10000 2.1 70 04:49 29.07.2019
4298 Clouds 10 1037 27 10000 4.1 290 01:57 29.07.2019
4299 Clouds 10 1037 27 10000 4.1 290 01:39 29.07.2019
4300 Clouds 10 1037 27 10000 4.1 290 01:18 29.07.2019
4301 Clouds 12 1036 23 10000 4.6 290 00:38 29.07.2019
4302 Clouds 12 1036 23 10000 4.6 290 00:18 29.07.2019
4303 Clouds 14 1036 16 10000 5.1 260 23:38 28.07.2019
4304 Clouds 14 1036 16 10000 6.2 270 22:58 28.07.2019
4305 Clouds 14 1036 16 10000 6.2 270 22:37 28.07.2019
4306 Clouds 14 1036 16 10000 6.2 270 22:18 28.07.2019
4307 Clouds 15 1037 13 10000 6.7 290 21:42 28.07.2019
4308 Clouds 15 1037 13 10000 6.7 290 21:18 28.07.2019
4309 Clouds 14 1038 12 10000 5.7 290 20:43 28.07.2019
4310 Clouds 14 1038 12 10000 5.7 290 20:25 28.07.2019
4311 Clouds 14 1039 15 10000 5.7 290 19:42 28.07.2019
4312 Clouds 14 1039 15 10000 5.7 290 19:42 28.07.2019
4313 Clouds 14 1039 15 10000 5.7 290 19:22 28.07.2019
4314 Clouds 13 1040 16 10000 2.1 280 18:50 28.07.2019
4315 Clear 11 1041 20 10000 2.6 270 18:29 28.07.2019
4316 Clear 11 1041 20 10000 2.6 270 17:58 28.07.2019
4317 Clear 11 1041 20 10000 2.6 270 17:40 28.07.2019
4318 Clear 11 1041 20 10000 2.6 270 17:20 28.07.2019
4319 Clear 8 1041 36 10000 2.1 240 16:46 28.07.2019
4320 Clear 8 1041 36 10000 2.1 240 16:27 28.07.2019
4321 Clear 5 1040 38 10000 1 0 15:49 28.07.2019
4322 Clear 5 1040 38 10000 1 0 15:28 28.07.2019
4323 Clouds 1 1040 64 10000 1 0 14:57 28.07.2019
4324 Clouds 1 1040 64 10000 1 0 14:37 28.07.2019
4325 Clouds 0 1039 73 10000 2.1 10 14:18 28.07.2019
4326 Clouds 0 1039 73 10000 2.1 10 13:40 28.07.2019
4327 Clouds 0 1039 72 10000 2.1 10 13:21 28.07.2019
4328 Clouds -6 1038 79 10000 1 0 12:47 28.07.2019
4329 Clouds -6 1038 79 10000 1 0 12:28 28.07.2019
4330 Clouds -6 1038 79 10000 1.5 70 11:52 28.07.2019
4331 Clouds -6 1038 79 10000 1.5 70 11:32 28.07.2019
4332 Fog -6 1038 92 4000 1.5 50 10:59 28.07.2019
4333 Fog -6 1038 92 4000 1.5 50 10:39 28.07.2019
4334 Fog -6 1038 92 4000 1.5 50 10:19 28.07.2019
4335 Fog -4 1038 85 4000 2.1 60 09:40 28.07.2019
4336 Fog -4 1038 85 4000 2.1 60 09:22 28.07.2019
4337 Fog -4 1038 192 4000 1 0 08:42 28.07.2019
4338 Fog -4 1038 192 4000 1 0 08:22 28.07.2019
4339 Clouds -2 1039 92 10000 1 0 07:44 28.07.2019
4340 Clouds -2 1039 92 10000 1 0 07:25 28.07.2019
4341 Clouds -1 1039 92 10000 4.1 70 06:36 28.07.2019
4342 Clouds -1 1039 86 10000 3.6 70 05:22 28.07.2019
4343 Clouds 2 1038 55 10000 3.6 70 02:43 28.07.2019
4344 Clouds 6 1038 41 10000 4.6 100 01:59 28.07.2019
4345 Clouds 10 1037 25 10000 2.6 90 01:18 28.07.2019
4346 Clouds 10 1037 25 10000 2.6 90 00:42 28.07.2019
4347 Clouds 13 1037 20 10000 4.1 100 23:54 27.07.2019
4348 Clouds 13 1037 20 10000 4.1 100 23:28 27.07.2019
4349 Clouds 13 1037 24 10000 3.6 120 22:47 27.07.2019
4350 Clouds 13 1037 24 10000 3.6 120 22:47 27.07.2019
4351 Clouds 13 1037 24 10000 3.6 120 22:28 27.07.2019
4352 Clouds 13 1037 24 10000 5.1 140 21:59 27.07.2019
4353 Clouds 13 1037 24 10000 5.1 140 21:37 27.07.2019
4354 Clouds 13 1037 24 10000 5.1 140 21:18 27.07.2019
4355 Clouds 12 1038 20 10000 4.1 150 20:44 27.07.2019
4356 Clouds 12 1038 20 10000 4.1 150 20:19 27.07.2019
4357 Clouds 12 1040 20 10000 3.1 140 19:41 27.07.2019
4358 Clouds 12 1040 20 10000 3.1 140 19:22 27.07.2019
4359 Clear 11 1041 25 10000 2.1 220 18:48 27.07.2019
4360 Clear 11 1041 25 10000 2.1 220 18:30 27.07.2019
4361 Clear 9 1041 21 10000 2.1 230 17:51 27.07.2019
4362 Clear 9 1041 21 10000 2.1 230 17:32 27.07.2019
4363 Clear 7 1041 33 10000 1 0 16:56 27.07.2019
4364 Clear 7 1041 33 10000 1 0 16:37 27.07.2019
4365 Clear 3 1041 55 10000 1 0 15:56 27.07.2019
4366 Clear 3 1041 55 10000 1 0 15:38 27.07.2019
4367 Clear 3 1041 55 10000 1 0 15:18 27.07.2019
4368 Clear 0 1040 66 10000 1 0 14:45 27.07.2019
4369 Clear 0 1040 66 10000 1 0 14:25 27.07.2019
4370 Clear -5 1039 73 10000 1 10 13:48 27.07.2019
4371 Clear -5 1039 73 10000 1 10 13:23 27.07.2019
4372 Clouds -4 1039 85 10000 2.1 50 12:50 27.07.2019
4373 Clouds -4 1039 85 10000 2.1 50 12:27 27.07.2019
4374 Clouds -6 1039 92 10000 3.1 80 11:56 27.07.2019
4375 Clouds -6 1039 92 10000 3.1 80 11:37 27.07.2019
4376 Clouds -6 1039 92 10000 3.1 80 11:19 27.07.2019
4377 Clouds -8 1039 85 10000 1 70 10:40 27.07.2019
4378 Clouds -8 1039 85 10000 1 70 10:21 27.07.2019
4379 Clear -6 1039 79 10000 1 0 09:41 27.07.2019
4380 Clear -6 1039 79 10000 1 0 09:22 27.07.2019
4381 Clear -4 1039 85 10000 1.5 50 08:48 27.07.2019
4382 Clear -4 1039 85 10000 1.5 50 08:29 27.07.2019
4383 Clouds -3 1040 86 10000 1.5 70 07:50 27.07.2019
4384 Clouds -3 1040 86 10000 1.5 70 07:27 27.07.2019
4385 -273 0 0 0 0 0 06:56 27.07.2019
4386 Clear -1 1040 92 10000 3.1 60 06:30 27.07.2019
4387 Clear -1 1040 58 10000 3.1 100 05:49 27.07.2019
4388 Clear -2 1039 46 10000 2.1 50 04:59 27.07.2019
4389 Clear -2 1039 46 10000 2.1 50 04:25 27.07.2019
4390 Clear 4 1039 27 10000 3.6 40 02:44 27.07.2019
4391 Clear 4 1039 27 10000 3.6 40 02:26 27.07.2019
4392 Clear 8 1038 13 10000 2.6 280 01:43 27.07.2019
4393 Clear 10 1037 11 10000 3.1 280 00:57 27.07.2019
4394 Clear 10 1037 11 10000 3.1 280 00:32 27.07.2019
4395 Clouds 13 1037 9 10000 3.6 260 23:52 26.07.2019
4396 Clouds 13 1037 9 10000 3.6 260 23:32 26.07.2019
4397 Clouds 14 1037 8 10000 3.1 280 22:46 26.07.2019
4398 Clouds 14 1037 8 10000 3.1 280 22:27 26.07.2019
4399 Clouds 13 1037 9 10000 4.6 260 21:59 26.07.2019
4400 Clouds 13 1037 9 10000 4.6 260 21:37 26.07.2019
4401 Clouds 13 1037 9 10000 4.6 260 21:18 26.07.2019
4402 Clouds 13 1037 9 10000 4.6 260 21:18 26.07.2019
4403 Clouds 13 1038 8 10000 4.6 290 20:42 26.07.2019
4404 Clouds 13 1038 8 10000 4.6 290 20:42 26.07.2019
4405 Clouds 13 1038 8 10000 4.6 290 20:22 26.07.2019
4406 Clear 12 1039 8 10000 4.1 270 19:43 26.07.2019
4407 Clear 12 1039 8 10000 4.1 270 19:24 26.07.2019
4408 -273 0 0 0 0 0 18:47 26.07.2019
4409 Clear 10 1040 10 10000 4.6 280 18:23 26.07.2019
4410 Clear 8 1041 13 10000 4.1 250 17:58 26.07.2019
4411 Clear 8 1041 13 10000 4.1 250 17:40 26.07.2019
4412 Clear 6 1041 15 10000 3.1 280 17:19 26.07.2019
4413 Clear 6 1041 15 10000 3.1 280 16:56 26.07.2019
4414 Clear 6 1041 15 10000 3.1 280 16:37 26.07.2019
4415 Clear 6 1041 15 10000 3.1 280 16:18 26.07.2019
4416 Clear 4 1040 18 10000 1 0 15:45 26.07.2019
4417 Clear -1 1040 36 10000 1 0 15:23 26.07.2019
4418 Clear -1 1040 36 10000 1 0 14:58 26.07.2019
4419 Clear -1 1040 36 10000 1 0 14:40 26.07.2019
4420 Clear -1 1040 36 10000 1 0 14:21 26.07.2019
4421 Clear -4 1039 35 10000 1.5 360 13:39 26.07.2019
4422 Clear -4 1039 35 10000 1.5 360 13:21 26.07.2019
4423 Clear -4 1038 32 10000 1 0 12:43 26.07.2019
4424 Clear -3 1038 30 10000 1 0 12:19 26.07.2019
4425 Clear -3 1038 30 10000 1 0 11:39 26.07.2019
4426 Clear -3 1038 30 10000 1 0 11:19 26.07.2019
4427 Clear -1 1038 28 10000 2.6 360 10:52 26.07.2019
4428 Clear -1 1038 28 10000 2.6 360 10:34 26.07.2019
4429 Clear -1 1038 28 10000 3.1 10 09:55 26.07.2019
4430 Clear -1 1038 28 10000 3.1 10 09:34 26.07.2019
4431 Clear -1 1039 22 10000 3.1 20 08:43 26.07.2019
4432 Clear -1 1039 22 10000 3.1 20 08:22 26.07.2019
4433 Clear 0 1039 27 10000 2.1 360 07:58 26.07.2019
4434 Clear 0 1039 27 10000 2.1 360 07:28 26.07.2019
4435 Clear 0 1040 27 10000 2.1 20 06:52 26.07.2019
4436 Clear 1 1039 12 10000 1 0 05:22 26.07.2019
4437 Clear 3 1039 12 10000 2.6 200 04:22 26.07.2019
4438 Clear 5 1037 27 10000 1 0 02:41 26.07.2019
4439 Clear 7 1036 16 10000 3.6 270 01:42 26.07.2019
4440 Clear 10 1035 9 10000 5.7 280 00:43 26.07.2019
4441 Clear 11 1035 10 10000 4.6 300 23:56 25.07.2019
4442 Clear 11 1035 10 10000 4.6 300 23:24 25.07.2019
4443 Clear 12 1035 9 10000 5.7 290 22:55 25.07.2019
4444 Clear 12 1035 9 10000 5.7 290 22:36 25.07.2019
4445 Clear 12 1036 9 10000 6.2 300 22:18 25.07.2019
4446 Clear 12 1036 9 10000 6.2 300 21:42 25.07.2019
4447 Clear 12 1036 9 10000 6.2 300 21:21 25.07.2019
4448 Clear 11 1037 14 10000 8.2 280 20:47 25.07.2019
4449 Clear 11 1037 14 10000 8.2 280 20:22 25.07.2019
4450 Clear 10 1037 16 10000 8.7 280 19:44 25.07.2019
4451 Clear 10 1037 16 10000 8.7 280 19:44 25.07.2019
4452 Clear 10 1037 16 10000 8.7 280 19:25 25.07.2019
4453 Clear 10 1038 14 10000 8.7 290 18:56 25.07.2019
4454 Clear 10 1038 14 10000 8.7 290 18:38 25.07.2019
4455 Clear 8 1039 19 10000 8.2 290 18:19 25.07.2019
4456 Clear 8 1039 19 10000 8.2 290 17:40 25.07.2019
4457 Clear 8 1039 19 10000 8.2 290 17:22 25.07.2019
4458 Clear 7 1038 24 10000 8.2 300 16:44 25.07.2019
4459 Clear 7 1038 24 10000 8.2 300 16:26 25.07.2019
4460 Clear 5 1038 27 10000 7.7 300 15:54 25.07.2019
4461 Clear 5 1038 27 10000 7.7 300 15:21 25.07.2019
4462 Clear 3 1037 34 10000 7.7 310 14:56 25.07.2019
4463 Clear 3 1037 34 10000 7.7 310 14:38 25.07.2019
4464 Clear -1 1037 46 10000 2.6 270 14:18 25.07.2019
4465 Clear -1 1037 46 10000 2.6 270 13:40 25.07.2019
4466 Clear -1 1037 46 10000 2.6 270 13:22 25.07.2019
4467 Clear 1 1036 40 10000 4.6 310 12:35 25.07.2019
4468 Clear 1 1035 47 10000 4.1 320 11:59 25.07.2019
4469 Clear 1 1035 47 10000 4.1 320 11:40 25.07.2019
4470 Clear 1 1035 47 10000 4.1 320 11:22 25.07.2019
4471 Rain 8 1022 100 10000 9.3 170 10:45 25.07.2019
4472 Rain 8 1022 100 10000 9.3 170 10:24 25.07.2019
4473 Clear 2 1036 43 10000 3.6 310 09:46 25.07.2019
4474 Clear 2 1036 43 10000 3.6 310 09:27 25.07.2019
4475 Clear 2 1036 43 10000 3.6 310 09:27 25.07.2019
4476 Clouds 2 1037 43 10000 2.1 330 08:53 25.07.2019
4477 Clouds 2 1037 43 10000 2.1 330 08:32 25.07.2019
4478 Clouds 1 1037 55 10000 1 0 07:40 25.07.2019
4479 Clouds 0 1037 85 10000 1.11 118.969 06:46 25.07.2019
4480 Clouds 4 1037 35 10000 2.6 260 06:19 25.07.2019
4481 Clouds 4 1037 35 10000 2.6 260 05:34 25.07.2019
4482 Clouds 5 1036 27 10000 3.6 280 04:45 25.07.2019
4483 Clouds 8 1034 45 10000 5.1 280 02:24 25.07.2019
4484 Clouds 11 1032 34 10000 7.7 310 01:21 25.07.2019
4485 Clouds 11 1032 34 10000 7.7 310 00:23 25.07.2019
4486 Clouds 12 1031 30 10000 10.8 300 23:56 24.07.2019
4487 Clouds 12 1031 30 10000 10.8 300 23:37 24.07.2019
4488 Clouds 12 1031 30 10000 10.8 300 23:18 24.07.2019
4489 Clouds 13 1041 28 10000 13.4 310 22:44 24.07.2019
4490 Clouds 13 1041 28 10000 13.4 310 22:22 24.07.2019
4491 Clouds 13 1031 30 10000 14.9 320 21:55 24.07.2019
4492 Clouds 13 1031 30 10000 14.9 320 21:37 24.07.2019
4493 Clouds 13 1031 30 10000 14.9 320 21:18 24.07.2019
4494 Clouds 13 1032 28 10000 13.4 310 20:40 24.07.2019
4495 Clouds 13 1032 28 10000 13.4 310 20:22 24.07.2019
4496 Clouds 13 1033 30 10000 13.4 310 19:56 24.07.2019
4497 Clouds 13 1033 30 10000 13.4 310 19:38 24.07.2019
4498 Clouds 13 1033 30 10000 13.4 310 19:19 24.07.2019
4499 Clouds 12 1034 34 10000 10.3 310 18:42 24.07.2019
4500 Clouds 12 1034 34 10000 10.3 310 18:23 24.07.2019
4501 Clouds 11 1035 40 10000 8.7 310 17:44 24.07.2019
4502 Clouds 11 1035 40 10000 8.7 310 17:20 24.07.2019
4503 Clouds 9 1035 45 10000 6.7 310 16:42 24.07.2019
4504 Clouds 9 1035 45 10000 6.7 310 16:22 24.07.2019
4505 Clouds 9 1035 45 10000 6.7 310 16:22 24.07.2019
4506 Clouds 8 1035 49 10000 3.6 340 15:42 24.07.2019
4507 Clouds 8 1035 49 10000 3.6 340 15:24 24.07.2019
4508 Clouds 5 1034 56 10000 5.1 330 14:57 24.07.2019
4509 Clouds 5 1034 56 10000 5.1 330 14:38 24.07.2019
4510 Clouds 5 1034 56 10000 5.1 330 14:38 24.07.2019
4511 Clouds 5 1034 56 10000 5.1 330 14:38 24.07.2019
4512 Clouds 5 1034 56 10000 5.1 330 14:19 24.07.2019
4513 Clouds 4 1034 69 10000 3.1 300 13:37 24.07.2019
4514 Clouds 3 1033 74 10000 2.1 360 13:19 24.07.2019
4515 Clouds 3 1033 74 10000 2.1 360 12:51 24.07.2019
4516 Clouds 3 1033 74 10000 2.1 360 12:32 24.07.2019
4517 Clouds 1 1033 100 10000 2.1 40 11:40 24.07.2019
4518 Clouds 1 1033 100 10000 2.1 40 11:20 24.07.2019
4519 Clouds 1 1033 100 10000 2.6 40 10:45 24.07.2019
4520 Clouds 1 1033 100 10000 2.6 40 10:25 24.07.2019
4521 Clouds 2 1018 91 0 0.27 187.177 09:49 24.07.2019
4522 Fog 1 1033 100 2000 2.6 80 09:25 24.07.2019
4523 Fog 1 1033 100 2000 2.6 80 08:58 24.07.2019
4524 Fog 1 1033 100 2000 2.6 80 08:58 24.07.2019
4525 Fog 1 1033 100 2000 2.6 80 08:32 24.07.2019
4526 Fog 1 1034 90 500 3.1 70 07:52 24.07.2019
4527 Fog 1 1034 90 500 3.1 70 07:24 24.07.2019
4528 Fog 1 1034 90 4000 3.1 90 06:33 24.07.2019
4529 Clouds 4 1034 86 10000 2.1 140 05:54 24.07.2019
4530 Clouds 4 1033 80 10000 3.1 100 02:52 24.07.2019
4531 Clouds 4 1033 86 10000 2.6 90 01:31 24.07.2019
4532 Clouds 8 1032 70 10000 4.6 80 00:57 24.07.2019
4533 Clouds 8 1032 70 10000 4.6 80 00:23 24.07.2019
4534 Clouds 8 1032 70 10000 4.6 80 00:23 24.07.2019
4535 Clouds 10 1032 53 10000 4.6 80 23:43 23.07.2019
4536 Clouds 10 1032 53 10000 4.6 80 23:25 23.07.2019
4537 Clouds 12 1033 40 10000 4.6 330 22:41 23.07.2019
4538 Clouds 12 1033 40 10000 4.6 330 22:20 23.07.2019
4539 Clouds 10 1034 43 10000 5.1 300 21:59 23.07.2019
4540 Clouds 10 1034 43 10000 5.1 300 21:41 23.07.2019
4541 Clouds 10 1034 43 10000 5.1 300 21:23 23.07.2019
4542 Rain 9 1035 45 8000 7.2 290 20:48 23.07.2019
4543 Rain 9 1035 45 8000 7.2 290 20:26 23.07.2019
4544 Clouds 11 1036 29 10000 6.2 300 19:43 23.07.2019
4545 Clouds 11 1036 29 10000 6.2 300 19:23 23.07.2019
4546 Clouds 11 1037 43 10000 5.1 330 18:52 23.07.2019
4547 Clouds 11 1037 43 10000 5.1 330 18:25 23.07.2019
4548 Clouds 8 1037 52 10000 5.7 320 17:56 23.07.2019
4549 Clouds 8 1037 52 10000 5.7 320 17:38 23.07.2019
4550 Clouds 8 1037 52 10000 5.7 320 17:19 23.07.2019
4551 Clouds 7 1038 70 10000 5.1 300 16:41 23.07.2019
4552 Clouds 7 1038 70 10000 5.1 300 16:21 23.07.2019
4553 Clouds 4 1038 86 10000 2.1 290 15:46 23.07.2019
4554 Clouds 4 1038 86 10000 2.1 290 15:24 23.07.2019
4555 Clouds 3 1037 86 6000 2.1 320 14:40 23.07.2019
4556 Clouds 3 1037 86 6000 2.1 320 14:22 23.07.2019
4557 Mist 2 1037 93 5000 2.6 320 13:59 23.07.2019
4558 Mist 2 1036 93 4000 2.1 260 13:40 23.07.2019
4559 Mist 2 1036 93 4000 2.1 260 13:21 23.07.2019
4560 Clouds 3 1036 93 10000 1 0 12:48 23.07.2019
4561 Clouds 3 1036 93 10000 1 0 12:26 23.07.2019
4562 Clouds 2 1036 100 10000 1 260 11:50 23.07.2019
4563 Clouds 2 1036 100 10000 1 260 11:32 23.07.2019
4564 Clouds 2 1036 93 10000 3.1 240 10:59 23.07.2019
4565 Clouds 2 1036 93 10000 3.1 240 10:40 23.07.2019
4566 Clouds 3 1036 86 10000 1 0 10:20 23.07.2019
4567 Clouds 3 1036 86 10000 1 0 09:41 23.07.2019
4568 Clouds 3 1036 86 10000 1 0 09:19 23.07.2019
4569 Fog 2 1036 100 4000 1 0 08:43 23.07.2019
4570 Fog 2 1036 100 4000 1 0 08:19 23.07.2019
4571 Clouds 2 1037 93 10000 3.6 280 07:55 23.07.2019
4572 Clouds 2 1037 93 10000 3.6 280 07:34 23.07.2019
4573 Clouds 3 1037 93 10000 5.1 290 06:44 23.07.2019
4574 Clouds 3 1037 93 10000 5.1 290 06:26 23.07.2019
4575 Clouds 6 1034 64 10000 3.6 60 02:44 23.07.2019
4576 Clouds 9 1034 49 10000 4.1 10 01:31 23.07.2019
4577 Clouds 11 1034 34 10000 5.7 270 00:30 23.07.2019
4578 Clouds 13 1034 32 10000 6.2 260 23:43 22.07.2019
4579 Clouds 13 1034 32 10000 6.2 260 23:22 22.07.2019
4580 Clouds 14 1034 28 10000 6.2 280 22:59 22.07.2019
4581 Clouds 14 1034 28 10000 6.2 280 22:41 22.07.2019
4582 Clouds 14 1034 28 10000 6.2 280 22:20 22.07.2019
4583 Clouds 14 1035 28 10000 7.2 280 21:42 22.07.2019
4584 Clouds 13 1035 32 10000 7.7 290 21:21 22.07.2019
4585 Clouds 13 1035 32 10000 7.7 290 20:48 22.07.2019
4586 Clouds 13 1035 32 10000 7.7 290 20:29 22.07.2019
4587 Clouds 13 1036 35 10000 6.2 270 19:55 22.07.2019
4588 Clouds 13 1036 35 10000 6.2 270 19:36 22.07.2019
4589 Clouds 12 1037 37 10000 7.2 290 19:18 22.07.2019
4590 Clouds 12 1037 37 10000 7.2 290 18:41 22.07.2019
4591 Clouds 12 1037 37 10000 7.2 290 18:22 22.07.2019
4592 Clouds 10 1038 46 10000 4.6 290 17:42 22.07.2019
4593 Clouds 10 1038 46 10000 4.6 290 17:24 22.07.2019
4594 Clouds 9 1038 49 10000 3.1 290 16:42 22.07.2019
4595 Clouds 9 1038 49 10000 3.1 290 16:21 22.07.2019
4596 Clouds 7 1038 52 10000 2.1 290 15:59 22.07.2019
4597 Clouds 7 1038 52 10000 2.1 290 15:38 22.07.2019
4598 Clouds 2 1037 74 10000 1.5 10 15:18 22.07.2019
4599 Clouds 2 1037 74 10000 1.5 10 14:43 22.07.2019
4600 Clouds 2 1037 74 10000 1.5 10 14:20 22.07.2019
4601 Clear -1 1037 86 10000 2.1 10 13:47 22.07.2019
4602 Clear -1 1037 86 10000 2.1 10 13:28 22.07.2019
4603 Clear -3 1036 86 10000 1 0 12:46 22.07.2019
4604 Clear -2 1036 86 10000 1 0 12:27 22.07.2019
4605 Clear -2 1036 86 10000 1 0 11:45 22.07.2019
4606 Clear -2 1036 86 10000 1 0 11:25 22.07.2019
4607 Clear -2 1036 92 10000 1 0 10:53 22.07.2019
4608 Clear -2 1036 92 10000 1 0 10:30 22.07.2019
4609 Clear 0 1036 67 10000 1 0 09:45 22.07.2019
4610 Clear 0 1036 65 10000 1 0 09:25 22.07.2019
4611 Clouds 2 1036 69 10000 1.5 20 08:47 22.07.2019
4612 Clouds 2 1036 69 10000 1.5 20 08:26 22.07.2019
4613 Clouds -1 1037 80 10000 0.88 91.043 07:59 22.07.2019
4614 Clouds -1 1037 80 10000 0.88 91.043 07:40 22.07.2019
4615 Clouds -1 1037 80 10000 0.88 91.043 07:21 22.07.2019
4616 Clouds 5 1036 56 10000 2.1 10 03:58 22.07.2019
4617 Clouds 5 1035 56 10000 1.5 30 02:43 22.07.2019
4618 Clouds 10 1035 31 10000 6.2 290 00:57 22.07.2019
4619 Clouds 10 1035 31 10000 6.2 290 00:28 22.07.2019
4620 Clouds 12 1034 27 10000 7.7 290 23:56 21.07.2019
4621 Clouds 12 1034 27 10000 7.7 290 23:36 21.07.2019
4622 Clouds 12 1035 27 10000 9.3 300 22:54 21.07.2019
4623 Clouds 12 1035 27 10000 9.3 300 22:36 21.07.2019
4624 Clouds 12 1035 32 10000 7.7 290 22:18 21.07.2019
4625 Clouds 12 1035 32 10000 8.2 300 21:43 21.07.2019
4626 Clouds 12 1035 32 10000 8.2 300 21:22 21.07.2019
4627 Clouds 11 1037 37 10000 6.7 270 20:54 21.07.2019
4628 Clouds 11 1037 37 10000 6.7 270 20:36 21.07.2019
4629 Clouds 11 1037 37 10000 6.7 270 20:18 21.07.2019
4630 Clouds 11 1037 40 10000 5.1 300 19:41 21.07.2019
4631 Clouds 11 1037 40 10000 5.1 300 19:21 21.07.2019
4632 Clouds 8 1039 61 10000 6.2 270 18:46 21.07.2019
4633 Clouds 8 1039 61 10000 6.2 270 18:25 21.07.2019
4634 Clouds 8 1039 46 10000 3.1 280 17:42 21.07.2019
4635 Clouds 8 1039 46 10000 3.1 280 17:20 21.07.2019
4636 Clouds 7 1039 46 10000 2.6 300 16:47 21.07.2019
4637 Clouds 7 1039 46 10000 2.6 300 16:25 21.07.2019
4638 Clouds 2 1038 93 10000 1 0 15:57 21.07.2019
4639 Clouds 2 1038 93 10000 1 0 15:37 21.07.2019
4640 Clouds 2 1038 93 10000 1 0 15:18 21.07.2019
4641 Clouds 0 1037 72 10000 0.51 1.356 14:41 21.07.2019
4642 Clouds 0 1037 72 10000 0.51 1.356 14:22 21.07.2019
4643 Clouds -3 1037 92 10000 1 0 13:49 21.07.2019
4644 Clouds -3 1037 92 10000 1 0 13:29 21.07.2019
4645 Clouds -2 1036 92 4000 0.71 15.745 12:43 21.07.2019
4646 Clouds -2 1036 92 4000 0.06 298.856 12:24 21.07.2019
4647 Clouds -1 1036 86 10000 0.06 298.856 11:49 21.07.2019
4648 Clouds -1 1036 86 10000 0.06 298.856 11:29 21.07.2019
4649 Clouds 0 1036 88 10000 1 0 10:56 21.07.2019
4650 Clouds 0 1036 88 10000 1 0 10:38 21.07.2019
4651 Clouds 0 1036 88 10000 1 0 10:19 21.07.2019
4652 Clouds 0 1037 88 10000 1 0 09:37 21.07.2019
4653 Clouds 0 1037 87 10000 1 0 09:19 21.07.2019
4654 Clouds 0 1037 91 10000 1 0 08:40 21.07.2019
4655 Clouds 0 1037 91 10000 1 0 08:22 21.07.2019
4656 Clouds 1 1038 91 10000 1 0 07:32 21.07.2019
4657 Clouds 1 1038 86 10000 1 0 06:42 21.07.2019
4658 Clouds 0 1038 86 10000 2.1 70 05:27 21.07.2019
4659 Clouds 2 1037 63 10000 2.6 20 02:20 21.07.2019
4660 Rain 4 1037 67 7000 6.7 210 00:51 21.07.2019
4661 Snow 4 1036 49 7000 6.2 200 00:22 21.07.2019
4662 Clouds 10 1035 43 10000 4.1 290 23:54 20.07.2019
4663 Clouds 10 1035 43 10000 4.1 290 23:36 20.07.2019
4664 Clouds 10 1035 43 10000 5.7 330 23:18 20.07.2019
4665 Clouds 10 1035 43 10000 4.1 290 23:18 20.07.2019
4666 Clouds 10 1035 43 10000 4.1 290 23:18 20.07.2019
4667 Clouds 10 1035 43 10000 5.7 330 22:41 20.07.2019
4668 Clouds 10 1035 43 10000 5.7 330 22:19 20.07.2019
4669 Clouds 9 1037 45 10000 5.1 320 21:44 20.07.2019
4670 Clouds 9 1037 45 10000 5.1 320 21:24 20.07.2019
4671 Clouds 8 1038 51 8000 4.6 360 20:44 20.07.2019
4672 Clouds 8 1038 51 8000 4.6 360 20:23 20.07.2019
4673 Thunderstorm 8 1038 49 5000 4.1 320 19:52 20.07.2019
4674 Clouds 9 1039 45 10000 2.1 310 19:33 20.07.2019
4675 Clouds 9 1039 51 10000 2.1 240 18:57 20.07.2019
4676 Clouds 9 1039 51 10000 2.1 240 18:38 20.07.2019
4677 Clouds 9 1039 58 10000 2.1 240 18:19 20.07.2019
4678 Clouds 7 1040 70 10000 2.6 190 17:46 20.07.2019
4679 Clouds 7 1040 70 10000 2.6 190 17:20 20.07.2019
4680 Clouds 6 1040 75 10000 2.1 230 16:42 20.07.2019
4681 Clouds 6 1040 75 10000 2.1 230 16:23 20.07.2019
4682 Clouds 5 1039 75 10000 1 0 15:42 20.07.2019
4683 Clouds 5 1039 75 10000 1 0 15:42 20.07.2019
4684 Clouds 5 1039 75 10000 1 0 15:21 20.07.2019
4685 Clouds 1 1039 100 10000 1 0 14:50 20.07.2019
4686 Clouds 1 1039 100 10000 1 0 14:30 20.07.2019
4687 Mist 1 1038 100 2000 1 0 13:58 20.07.2019
4688 Mist 1 1038 100 2000 1 0 13:38 20.07.2019
4689 Mist 1 1038 100 2000 1 0 13:19 20.07.2019
4690 Clouds 1 1037 83 10000 1 0 12:49 20.07.2019
4691 Clouds 1 1037 96 10000 1 0 12:19 20.07.2019
4692 Fog 1 1037 96 4000 3.1 60 11:47 20.07.2019
4693 Fog 1 1037 96 4000 3.1 60 11:21 20.07.2019
4694 Snow 1 1038 96 3000 3.1 20 10:42 20.07.2019
4695 Snow 1 1038 96 3000 3.1 20 10:23 20.07.2019
4696 Snow 1 1038 96 3000 2.6 10 09:51 20.07.2019
4697 Snow 1 1038 91 3000 2.6 10 09:25 20.07.2019
4698 Clouds 1 1039 100 4000 2.6 330 08:51 20.07.2019
4699 Clouds 1 1039 100 4000 2.6 330 08:24 20.07.2019
4700 Snow 1 1039 91 3000 1 0 07:39 20.07.2019
4701 Rain 2 1039 93 6000 3.6 210 06:46 20.07.2019
4702 Rain 3 1039 93 6000 1 0 05:25 20.07.2019
4703 Fog 3 1039 86 4000 3.1 220 04:31 20.07.2019
4704 Clouds 5 1037 75 10000 1 0 01:59 20.07.2019
4705 Clouds 5 1037 75 10000 1.5 70 00:53 20.07.2019
4706 Clouds 5 1037 75 10000 1.5 70 00:33 20.07.2019
4707 Clouds 5 1037 75 10000 3.6 60 23:59 19.07.2019
4708 Clouds 5 1037 75 10000 3.6 60 23:39 19.07.2019
4709 Clouds 5 1037 75 10000 3.6 60 23:20 19.07.2019
4710 Clouds 7 1037 70 8000 3.6 10 22:41 19.07.2019
4711 Clouds 7 1037 70 8000 3.6 10 22:22 19.07.2019
4712 Clouds 7 1037 39 10000 2.6 220 21:44 19.07.2019
4713 Clouds 7 1037 35 10000 2.6 220 21:26 19.07.2019
4714 Clouds 7 1038 35 10000 2.1 60 20:44 19.07.2019
4715 Clouds 7 1038 35 10000 2.1 60 20:26 19.07.2019
4716 Clouds 5 1040 75 8000 2.1 250 19:45 19.07.2019
4717 Clouds 5 1040 75 8000 2.1 250 19:20 19.07.2019
4718 Smoke 4 1041 35 5000 4.1 280 19:20 19.07.2019
4719 Smoke 4 1041 35 5000 4.1 280 18:42 19.07.2019
4720 Smoke 4 1040 80 5000 4.1 270 18:20 19.07.2019
4721 Clouds 5 1040 80 8000 1 0 17:47 19.07.2019
4722 Clouds 5 1040 80 8000 1 0 17:26 19.07.2019
4723 Clouds 5 1040 75 10000 1 0 16:48 19.07.2019
4724 Clouds 5 1040 75 10000 1 0 16:25 19.07.2019
4725 Clouds 4 1040 47 10000 1 0 15:49 19.07.2019
4726 Clouds 4 1040 71 10000 1 0 15:30 19.07.2019
4727 Clouds 2 1039 93 8000 1 0 14:56 19.07.2019
4728 Clouds 2 1039 93 8000 1 0 14:38 19.07.2019
4729 Clouds 0 1039 71 10000 1 0 14:20 19.07.2019
4730 Clouds 0 1039 71 10000 1 0 13:43 19.07.2019
4731 Clouds 0 1039 71 10000 1 0 13:43 19.07.2019
4732 Clouds 0 1039 73 10000 1 0 13:23 19.07.2019
4733 Clouds -3 1038 92 10000 1 0 12:49 19.07.2019
4734 Clouds -3 1038 92 10000 1 0 12:30 19.07.2019
4735 Clouds -3 1038 86 10000 1 30 11:48 19.07.2019
4736 Clouds -3 1038 86 10000 1 30 11:20 19.07.2019
4737 Clear 1 1021 80 0 1.19 131.73 10:58 19.07.2019
4738 Clear 1 1021 80 0 1.19 131.73 10:40 19.07.2019
4739 Clouds -1 1039 86 10000 1.5 40 10:20 19.07.2019
4740 Clouds -1 1039 86 10000 1.5 40 09:44 19.07.2019
4741 Clouds -1 1039 86 10000 1.5 40 09:22 19.07.2019
4742 Clouds -1 1039 86 10000 1.5 40 09:22 19.07.2019
4743 Clouds -1 1039 86 10000 1.5 40 09:22 19.07.2019
4744 Clouds -1 1039 92 10000 2.1 60 08:56 19.07.2019
4745 Clouds -1 1039 92 10000 2.1 60 08:56 19.07.2019
4746 Clouds -1 1039 92 10000 2.1 60 08:38 19.07.2019
4747 Clear -1 1039 92 10000 3.1 70 07:42 19.07.2019
4748 Clear -1 1039 92 10000 3.1 70 07:23 19.07.2019
4749 Clear 0 1040 74 10000 2.6 90 05:39 19.07.2019
4750 Clouds 3 1038 73 10000 2.1 30 01:56 19.07.2019
4751 Clouds 5 1038 75 10000 7.2 210 00:58 19.07.2019
4752 Clouds 5 1038 75 10000 7.2 210 00:21 19.07.2019
4753 Clouds 10 1037 43 10000 4.1 280 23:41 18.07.2019
4754 Clouds 10 1037 43 10000 4.1 280 23:23 18.07.2019
4755 Clouds 10 1038 46 10000 3.1 330 22:55 18.07.2019
4756 Clouds 10 1038 46 10000 3.1 330 22:36 18.07.2019
4757 Clouds 10 1038 46 10000 3.1 330 22:18 18.07.2019
4758 Clouds 9 1039 49 10000 3.6 330 21:39 18.07.2019
4759 Clouds 8 1040 52 10000 3.1 310 21:19 18.07.2019
4760 Clouds 8 1040 52 10000 3.1 310 20:46 18.07.2019
4761 Clouds 8 1040 52 10000 3.1 310 20:25 18.07.2019
4762 Clouds 8 1041 52 10000 2.6 270 19:50 18.07.2019
4763 Clouds 8 1041 52 10000 2.6 270 19:27 18.07.2019
4764 Clouds 5 1041 65 10000 2.6 320 18:52 18.07.2019
4765 Clouds 5 1041 65 10000 2.6 320 18:23 18.07.2019
4766 Rain 3 1042 86 6000 3.6 350 17:57 18.07.2019
4767 Rain 3 1042 86 6000 3.6 350 17:37 18.07.2019
4768 Clouds 3 1042 77 10000 1 0 17:19 18.07.2019
4769 Clouds 3 1042 77 10000 1 0 16:49 18.07.2019
4770 Clouds 3 1042 77 10000 1 0 16:49 18.07.2019
4771 Clouds 3 1042 77 10000 1 0 16:25 18.07.2019
4772 Clouds 2 1041 93 6000 1.5 70 15:56 18.07.2019
4773 Clouds 2 1041 93 6000 1.5 70 15:36 18.07.2019
4774 Rain 1 1040 100 6000 1.5 80 14:56 18.07.2019
4775 Rain 1 1040 100 6000 1.5 80 14:37 18.07.2019
4776 Rain 1 1040 100 6000 1.5 80 14:37 18.07.2019
4777 Snow 1 1040 95 6000 1 0 13:59 18.07.2019
4778 Snow 1 1040 95 6000 1 0 13:37 18.07.2019
4779 Snow 1 1040 99 6000 1 0 13:18 18.07.2019
4780 Snow 1 1039 100 4000 2.1 110 12:44 18.07.2019
4781 Snow 1 1039 98 4000 1 0 12:20 18.07.2019
4782 Snow 1 1039 98 4000 1 0 11:50 18.07.2019
4783 Snow 1 1039 98 4000 1 0 11:32 18.07.2019
4784 Snow 1 1039 100 4000 1 0 10:52 18.07.2019
4785 Snow 1 1040 98 3000 1 0 10:23 18.07.2019
4786 Snow 1 1040 98 3000 1 0 09:44 18.07.2019
4787 Snow 1 1040 96 3000 1 0 09:23 18.07.2019
4788 Snow 1 1040 97 4000 2.1 70 08:43 18.07.2019
4789 Snow 1 1040 97 4000 2.1 70 08:19 18.07.2019
4790 Snow 1 1041 97 1500 1 0 07:37 18.07.2019
4791 Snow 1 1041 97 700 1 0 06:59 18.07.2019
4792 Snow 1 1041 97 700 1 0 06:34 18.07.2019
4793 Snow 2 1040 93 5000 3.6 50 04:19 18.07.2019
4794 Thunderstorm 5 1038 80 10000 3.1 190 02:52 18.07.2019
4795 Clouds 7 1037 70 10000 4.6 110 01:37 18.07.2019
4796 Clouds 9 1036 49 10000 5.1 120 00:24 18.07.2019
4797 Clouds 9 1036 49 10000 5.1 120 23:45 17.07.2019
4798 Clouds 11 1037 29 10000 2.1 110 23:18 17.07.2019
4799 Clouds 11 1037 29 10000 2.1 110 22:42 17.07.2019
4800 Clouds 11 1037 29 10000 2.1 110 22:23 17.07.2019
4801 Clouds 11 1037 29 10000 2.1 110 22:23 17.07.2019
4802 Smoke 11 1037 32 4000 2.6 90 21:58 17.07.2019
4803 Smoke 11 1037 32 4000 2.6 90 21:38 17.07.2019
4804 Clouds 12 1038 32 10000 4.1 120 21:20 17.07.2019
4805 Clouds 12 1038 32 10000 4.1 120 20:56 17.07.2019
4806 Clouds 12 1038 32 10000 4.1 120 20:38 17.07.2019
4807 Clouds 11 1039 40 10000 4.6 150 20:19 17.07.2019
4808 Clouds 11 1039 40 10000 4.6 150 19:42 17.07.2019
4809 Clouds 11 1039 40 10000 4.6 150 19:20 17.07.2019
4810 Clouds 9 1040 49 10000 4.6 120 18:45 17.07.2019
4811 Clouds 8 1040 49 10000 4.6 140 18:21 17.07.2019
4812 Clouds 8 1040 49 10000 4.6 140 17:57 17.07.2019
4813 Clouds 8 1040 49 10000 4.6 140 17:39 17.07.2019
4814 Clouds 7 1041 56 10000 3.6 130 17:20 17.07.2019
4815 Clouds 7 1041 56 10000 3.6 130 16:40 17.07.2019
4816 Clouds 5 1040 47 6000 3.6 110 16:20 17.07.2019
4817 Clouds 5 1040 47 6000 3.6 110 15:51 17.07.2019
4818 Clouds 5 1040 83 6000 3.6 110 15:31 17.07.2019
4819 Clouds 3 1039 93 6000 2.1 110 14:57 17.07.2019
4820 Clouds 3 1039 93 6000 2.1 110 14:38 17.07.2019
4821 Fog 2 1039 83 4000 3.1 90 14:19 17.07.2019
4822 Fog 2 1039 83 4000 3.1 90 13:48 17.07.2019
4823 Fog 2 1039 83 4000 3.1 90 13:30 17.07.2019
4824 Fog 2 1038 93 4000 2.1 90 12:44 17.07.2019
4825 Fog 3 1038 86 4000 2.6 120 12:24 17.07.2019
4826 Fog 3 1038 86 4000 2.6 120 11:59 17.07.2019
4827 Fog 3 1038 86 4000 2.6 120 11:39 17.07.2019
4828 Fog 3 1038 86 4000 3.1 110 11:19 17.07.2019
4829 Fog 3 1038 86 4000 3.1 110 10:43 17.07.2019
4830 Fog 1 1039 100 4000 3.1 80 10:20 17.07.2019
4831 Fog 1 1039 100 4000 3.1 80 09:44 17.07.2019
4832 Fog 1 1039 100 4000 3.1 80 09:26 17.07.2019
4833 Fog 2 1039 93 4000 3.1 70 08:44 17.07.2019
4834 Fog 2 1039 93 4000 3.1 70 08:22 17.07.2019
4835 Fog 1 1039 94 4000 2.6 70 07:51 17.07.2019
4836 Fog 1 1039 94 4000 2.6 70 07:27 17.07.2019
4837 Fog 2 1039 100 4000 3.1 60 06:58 17.07.2019
4838 Fog 2 1039 100 4000 3.1 60 06:31 17.07.2019
4839 Fog 2 1039 100 4000 3.1 60 06:31 17.07.2019
4840 Fog 2 1039 93 4000 1 0 05:59 17.07.2019
4841 Fog 2 1039 93 4000 1 0 05:32 17.07.2019
4842 Fog 1 1038 100 4000 2.6 70 04:48 17.07.2019
4843 Fog 3 1037 86 4000 3.1 80 03:46 17.07.2019
4844 Clouds 3 1037 86 10000 3.1 70 02:31 17.07.2019
4845 Clouds 6 1036 70 10000 3.6 100 01:28 17.07.2019
4846 Clouds 9 1036 75 10000 3.6 100 00:59 17.07.2019
4847 Clouds 9 1036 75 10000 3.6 100 00:59 17.07.2019
4848 Clouds 9 1036 75 10000 3.6 100 00:37 17.07.2019
4849 Clouds 12 1035 25 9000 4.1 280 00:19 17.07.2019
4850 Clouds 12 1035 25 9000 4.1 280 23:41 16.07.2019
4851 Clouds 13 1035 26 9000 4.1 260 23:21 16.07.2019
4852 Clouds 13 1035 26 9000 4.1 260 22:43 16.07.2019
4853 Clouds 13 1036 22 9000 4.6 260 22:24 16.07.2019
4854 Clouds 13 1036 22 9000 4.6 260 21:48 16.07.2019
4855 Clouds 13 1036 22 9000 4.6 260 21:25 16.07.2019
4856 Clouds 14 1037 24 9000 3.1 270 20:59 16.07.2019
4857 Clouds 14 1037 24 9000 3.1 270 20:40 16.07.2019
4858 Clouds 13 1038 28 9000 2.1 240 20:22 16.07.2019
4859 Clouds 13 1038 28 9000 2.1 240 19:54 16.07.2019
4860 Clouds 13 1038 28 9000 2.1 240 19:30 16.07.2019
4861 Clouds 12 1039 32 9000 2.1 240 18:58 16.07.2019
4862 Clouds 12 1039 32 9000 2.1 240 18:39 16.07.2019
4863 Clouds 10 1040 43 8000 2.1 260 18:20 16.07.2019
4864 Clouds 10 1040 43 8000 2.1 260 17:44 16.07.2019
4865 Clouds 10 1040 43 8000 2.1 260 17:44 16.07.2019
4866 Clouds 7 1040 51 8000 1 0 17:24 16.07.2019
4867 Clouds 7 1040 51 8000 1 0 16:49 16.07.2019
4868 Clouds 7 1040 51 8000 1 0 16:25 16.07.2019
4869 Clouds 5 1040 51 8000 1 0 15:56 16.07.2019
4870 Clouds 5 1040 51 8000 1 0 15:38 16.07.2019
4871 Clouds 0 1038 89 8000 0.85 112.365 15:18 16.07.2019
4872 Clouds 0 1038 89 8000 0.85 112.365 14:45 16.07.2019
4873 Clouds 0 1038 89 8000 0.85 112.365 14:27 16.07.2019
4874 Clouds -5 1038 85 9000 0.85 112.365 13:46 16.07.2019
4875 Clouds -5 1038 85 9000 0.8 149.049 13:27 16.07.2019
4876 Clouds -4 1037 85 10000 1 0 12:56 16.07.2019
4877 Clouds -4 1037 85 10000 1 0 12:38 16.07.2019
4878 Clouds -3 1037 86 10000 1.5 10 12:19 16.07.2019
4879 Clouds -3 1037 86 10000 1.5 10 11:44 16.07.2019
4880 Clouds -3 1037 86 10000 1.5 10 11:24 16.07.2019
4881 Fog -2 1037 92 4000 2.6 60 10:57 16.07.2019
4882 Fog -2 1037 92 4000 2.6 60 10:38 16.07.2019
4883 Fog 0 1037 93 4000 3.6 80 10:18 16.07.2019
4884 Fog 0 1037 93 4000 3.6 80 10:18 16.07.2019
4885 Fog 0 1037 93 4000 3.6 80 09:42 16.07.2019
4886 Fog 2 1038 93 4000 3.6 80 09:19 16.07.2019
4887 Fog 2 1038 93 4000 3.6 80 08:43 16.07.2019
4888 Fog 2 1038 93 4000 3.6 70 08:22 16.07.2019
4889 Fog 2 1038 93 4000 3.6 70 07:48 16.07.2019
4890 Fog 2 1038 93 4000 3.6 70 07:30 16.07.2019
4891 Fog 0 1038 90 4000 3.6 70 06:49 16.07.2019
4892 Clouds -1 1038 92 10000 3.1 80 06:31 16.07.2019
4893 Clouds -1 1038 92 10000 3.1 80 05:39 16.07.2019
4894 Clear 0 1037 83 10000 3.1 60 05:21 16.07.2019
4895 Clear 3 1037 74 10000 3.6 60 04:19 16.07.2019
4896 Clear 3 1036 55 10000 3.1 100 03:21 16.07.2019
4897 Clear 3 1036 55 10000 3.1 100 02:31 16.07.2019
4898 Clear 7 1036 30 10000 2.1 60 01:49 16.07.2019
4899 Clouds 12 1035 14 10000 2.1 230 00:47 16.07.2019
4900 Clouds 15 1035 12 10000 4.1 260 00:22 16.07.2019
4901 Clouds 15 1035 12 10000 4.1 260 23:53 15.07.2019
4902 Clouds 15 1035 12 10000 4.1 260 23:34 15.07.2019
4903 Clouds 14 1035 12 10000 6.2 240 22:49 15.07.2019
4904 Clouds 14 1035 12 10000 6.2 240 22:23 15.07.2019
4905 Clouds 15 1036 12 10000 6.2 260 21:59 15.07.2019
4906 Clouds 15 1036 12 10000 6.2 260 21:41 15.07.2019
4907 Clouds 15 1037 11 10000 5.1 280 21:20 15.07.2019
4908 Clouds 15 1037 11 10000 5.1 280 20:57 15.07.2019
4909 Clouds 15 1037 11 10000 5.1 280 20:57 15.07.2019
4910 Clouds 15 1037 11 10000 5.1 280 20:57 15.07.2019
4911 Clouds 15 1037 11 10000 5.1 280 20:38 15.07.2019
4912 Clouds 14 1038 12 10000 4.6 280 20:19 15.07.2019
4913 Clouds 14 1038 12 10000 4.6 280 19:43 15.07.2019
4914 Clouds 13 1039 13 10000 3.1 270 19:21 15.07.2019
4915 Clouds 13 1039 13 10000 3.1 270 18:55 15.07.2019
4916 Clouds 13 1039 13 10000 3.1 270 18:36 15.07.2019
4917 Clear 12 1040 16 10000 2.1 250 18:18 15.07.2019
4918 Clear 12 1040 16 10000 2.1 250 17:42 15.07.2019
4919 Clear 12 1040 16 10000 2.1 250 17:23 15.07.2019
4920 Clear 10 1040 16 10000 2.6 210 16:59 15.07.2019
4921 Clear 10 1040 16 10000 2.6 210 16:38 15.07.2019
4922 Clear 9 1039 18 10000 1 0 16:20 15.07.2019
4923 Clear 9 1039 18 10000 1 0 15:54 15.07.2019
4924 Clear 9 1039 18 10000 1 0 15:36 15.07.2019
4925 Clear 4 1038 27 10000 2.1 10 15:18 15.07.2019
4926 Clear 4 1038 27 10000 2.1 10 14:41 15.07.2019
4927 Clear 1 1037 34 10000 3.1 10 14:22 15.07.2019
4928 Clear 1 1037 34 10000 3.1 10 13:49 15.07.2019
4929 Clear 1 1037 34 10000 3.1 10 13:21 15.07.2019
4930 Clear 1 1037 34 10000 3.1 10 12:57 15.07.2019
4931 Clear 1 1037 34 10000 3.1 10 12:39 15.07.2019
4932 Clear 1 1036 34 10000 3.1 10 12:20 15.07.2019
4933 Clear 1 1036 34 10000 3.1 10 11:41 15.07.2019
4934 Clear 1 1036 37 10000 2.6 10 11:21 15.07.2019
4935 Clear 1 1036 37 10000 2.6 10 10:43 15.07.2019
4936 Clear 1 1036 37 10000 2.6 10 10:24 15.07.2019
4937 Clear 1 1037 34 10000 1 0 09:44 15.07.2019
4938 Clear 1 1037 34 10000 1 0 09:25 15.07.2019
4939 Clear 1 1037 43 10000 2.1 20 08:47 15.07.2019
4940 Clear 1 1037 43 10000 2.1 20 08:27 15.07.2019
4941 Clear 2 1037 51 10000 2.1 20 07:55 15.07.2019
4942 Clear 2 1037 51 10000 2.1 20 07:33 15.07.2019
4943 Clear -1 1038 86 10000 3.6 50 06:48 15.07.2019
4944 Clear -1 1038 86 10000 3.6 50 06:30 15.07.2019
4945 Clear 1 1037 50 10000 1.5 123.807 05:43 15.07.2019
4946 Clear 0 1037 80 10000 1.5 70 04:48 15.07.2019
4947 Clear 0 1037 80 10000 1.5 70 04:29 15.07.2019
4948 Clear 1 1036 55 10000 2.6 80 03:29 15.07.2019
4949 Clear 5 1035 41 10000 3.1 90 02:23 15.07.2019
4950 Clear 7 1035 26 10000 3.1 60 01:35 15.07.2019
4951 Clear 7 1035 26 10000 3.1 60 01:35 15.07.2019
4952 Clouds 12 1034 13 10000 4.6 290 00:54 15.07.2019
4953 Clouds 12 1034 13 10000 4.6 290 00:28 15.07.2019
4954 Clouds 15 1034 11 10000 3.6 230 23:59 14.07.2019
4955 Clouds 15 1034 11 10000 3.6 230 23:40 14.07.2019
4956 Clouds 16 1034 9 10000 4.6 220 23:20 14.07.2019
4957 Clouds 16 1034 9 10000 4.6 220 22:57 14.07.2019
4958 Clouds 16 1034 9 10000 4.6 220 22:38 14.07.2019
4959 Clouds 15 1035 11 10000 3.1 350 22:20 14.07.2019
4960 Clouds 15 1035 11 10000 3.1 350 21:43 14.07.2019
4961 Clouds 15 1036 10 10000 3.1 240 21:19 14.07.2019
4962 Clouds 15 1036 10 10000 3.1 240 20:58 14.07.2019
4963 Clouds 15 1036 10 10000 3.1 240 20:38 14.07.2019
4964 Clouds 14 1037 10 10000 2.6 200 20:20 14.07.2019
4965 Clouds 14 1037 10 10000 2.6 200 19:46 14.07.2019
4966 Clouds 14 1037 10 10000 2.6 200 19:28 14.07.2019
4967 Clouds 13 1038 10 10000 3.1 230 18:58 14.07.2019
4968 Clouds 13 1038 10 10000 3.1 230 18:39 14.07.2019
4969 Clear 12 1039 16 10000 1 0 18:21 14.07.2019
4970 Clear 12 1039 16 10000 1 0 17:54 14.07.2019
4971 Clear 9 1039 19 10000 2.6 240 17:22 14.07.2019
4972 Clear 9 1039 19 10000 2.6 240 17:22 14.07.2019
4973 Clear 9 1039 19 10000 2.6 240 16:52 14.07.2019
4974 Clear 9 1039 19 10000 2.6 240 16:24 14.07.2019
4975 Clear 8 1038 16 10000 1 0 15:56 14.07.2019
4976 Clear 8 1038 16 10000 1 0 15:34 14.07.2019
4977 Clear 4 1037 29 10000 2.1 10 14:55 14.07.2019
4978 Clear 4 1037 29 10000 2.1 10 14:36 14.07.2019
4979 Clear -1 1036 39 10000 1 0 14:18 14.07.2019
4980 Clear -1 1036 39 10000 1 0 13:44 14.07.2019
4981 Clear -1 1036 33 10000 2.1 10 13:21 14.07.2019
4982 Clear -1 1036 33 10000 2.1 10 12:43 14.07.2019
4983 Clear 1 1036 29 10000 3.1 10 12:22 14.07.2019
4984 Clear 1 1036 29 10000 3.1 10 12:22 14.07.2019
4985 Clear 1 1036 29 10000 3.1 10 11:56 14.07.2019
4986 Clear 1 1036 29 10000 3.1 10 11:37 14.07.2019
4987 Clear 1 1035 31 10000 2.6 20 11:19 14.07.2019
4988 Clear 1 1035 31 10000 2.6 20 10:42 14.07.2019
4989 Clear 1 1035 31 10000 2.6 20 10:42 14.07.2019
4990 Clear 2 1036 31 10000 2.6 10 10:19 14.07.2019
4991 Clear 2 1036 31 10000 2.6 10 09:44 14.07.2019
4992 Clear 2 1036 31 10000 2.6 10 09:24 14.07.2019
4993 Clear -1 1037 46 10000 2.1 20 08:44 14.07.2019
4994 Clear 1 1037 43 10000 2.1 10 07:58 14.07.2019
4995 Clear 1 1037 43 10000 2.1 10 07:39 14.07.2019
4996 Clear -3 1037 63 10000 2.6 60 06:57 14.07.2019
4997 Clear -2 1038 79 10000 2.6 80 05:45 14.07.2019
4998 Clear 2 1036 64 10000 3.6 70 03:48 14.07.2019
4999 Clear 2 1036 64 10000 3.6 70 03:29 14.07.2019
5000 Clear 6 1035 38 10000 4.6 90 02:41 14.07.2019
5001 Clouds 7 1035 30 10000 3.1 80 02:21 14.07.2019
5002 Clouds 7 1035 30 10000 3.1 80 01:32 14.07.2019
5003 Clouds 13 1034 13 10000 3.1 300 00:56 14.07.2019
5004 Clouds 13 1034 13 10000 3.1 300 00:37 14.07.2019
5005 Clouds 15 1034 14 10000 4.6 300 00:19 14.07.2019
5006 Clouds 15 1034 14 10000 4.6 300 23:43 13.07.2019
5007 Clouds 15 1034 14 10000 5.1 270 23:23 13.07.2019
5008 Clouds 15 1034 14 10000 5.1 270 22:47 13.07.2019
5009 Clouds 16 1035 12 10000 5.1 260 22:23 13.07.2019
5010 Clouds 16 1035 12 10000 5.1 260 21:55 13.07.2019
5011 Clouds 16 1035 12 10000 5.1 260 21:24 13.07.2019
5012 Clouds 15 1036 10 10000 4.6 260 20:59 13.07.2019
5013 Clouds 15 1036 10 10000 4.6 260 20:40 13.07.2019
5014 Clouds 15 1036 10 10000 4.6 260 20:40 13.07.2019
5015 Clouds 15 1036 10 10000 4.6 260 20:40 13.07.2019
5016 Clouds 15 1036 10 10000 4.6 260 20:21 13.07.2019
5017 Clear 15 1037 11 10000 2.1 260 19:43 13.07.2019
5018 Clear 13 1038 13 8000 3.1 280 19:23 13.07.2019
5019 Clear 13 1038 13 8000 3.1 280 18:41 13.07.2019
5020 Clear 11 1039 18 8000 2.1 240 18:20 13.07.2019
5021 Clear 11 1039 18 8000 2.1 240 17:38 13.07.2019
5022 Clear 11 1039 18 8000 2.1 240 17:38 13.07.2019
5023 Clear 10 1039 21 8000 2.1 230 17:19 13.07.2019
5024 Clear 10 1039 21 8000 2.1 230 16:46 13.07.2019
5025 Clear 10 1039 21 8000 2.1 230 16:26 13.07.2019
5026 Clear 8 1038 22 8000 1 0 15:50 13.07.2019
5027 Clear 8 1038 22 8000 1 0 15:50 13.07.2019
5028 Clear 8 1038 22 8000 1 0 15:25 13.07.2019
5029 Clear 4 1037 27 10000 2.1 10 14:59 13.07.2019
5030 Clear 4 1037 27 10000 2.1 10 14:41 13.07.2019
5031 Clear -1 1037 39 10000 1 0 14:20 13.07.2019
5032 Clear -1 1037 39 10000 1 0 13:44 13.07.2019
5033 Clear 0 1036 74 10000 2.6 20 13:19 13.07.2019
5034 Clear 0 1036 74 10000 2.6 20 12:42 13.07.2019
5035 Clear 0 1036 83 10000 2.6 20 12:23 13.07.2019
5036 Clear 0 1036 83 10000 2.1 10 11:57 13.07.2019
5037 Clear 0 1036 83 10000 2.1 10 11:37 13.07.2019
5038 Clear 1 1036 29 10000 2.6 20 11:18 13.07.2019
5039 Clear 1 1036 29 10000 2.6 20 10:40 13.07.2019
5040 Clear 1 1036 29 10000 3.1 20 10:22 13.07.2019
5041 Clear 1 1036 29 10000 3.1 20 09:42 13.07.2019
5042 Clear 1 1036 29 10000 3.1 20 09:24 13.07.2019
5043 Clear -4 1036 38 10000 1 0 08:55 13.07.2019
5044 Clear -4 1036 38 10000 1 0 08:27 13.07.2019
5045 Clear -1 1037 30 10000 1 0 07:50 13.07.2019
5046 Clear -1 1037 30 10000 1 0 07:23 13.07.2019
5047 Clear 3 1037 25 10000 2.6 20 06:29 13.07.2019
5048 Clear 1 1037 31 10000 2.1 60 05:46 13.07.2019
5049 Clear 2 1037 29 10000 1.5 10 04:39 13.07.2019
5050 Clear 4 1036 21 10000 3.6 60 04:19 13.07.2019
5051 Clear 4 1036 21 10000 3.6 60 03:40 13.07.2019
5052 Clear 7 1036 19 10000 2.1 360 02:52 13.07.2019
5053 Clear 9 1036 16 10000 3.6 310 01:53 13.07.2019
5054 Clear 12 1035 12 10000 4.1 280 01:21 13.07.2019
5055 Clear 12 1035 12 10000 4.1 280 00:58 13.07.2019
5056 Clear 15 1035 8 10000 3.6 270 00:21 13.07.2019
5057 Clear 15 1035 8 10000 3.6 270 23:49 12.07.2019
5058 Clear 15 1035 8 10000 3.6 270 23:30 12.07.2019
5059 Clouds 16 1035 8 10000 3.1 290 22:57 12.07.2019
5060 Clouds 16 1035 8 10000 3.1 290 22:38 12.07.2019
5061 Clouds 15 1036 9 10000 2.1 210 22:18 12.07.2019
5062 Clouds 15 1036 9 10000 2.1 210 21:41 12.07.2019
5063 Clouds 15 1037 10 10000 3.6 260 21:19 12.07.2019
5064 Clouds 15 1037 10 10000 3.6 260 21:19 12.07.2019
5065 Clouds 15 1037 10 10000 3.6 260 20:43 12.07.2019
5066 Clear 15 1038 9 10000 3.1 220 20:22 12.07.2019
5067 Clear 15 1038 9 10000 3.1 220 19:42 12.07.2019
5068 Clear 15 1038 9 10000 3.1 220 19:24 12.07.2019
5069 Clear 14 1039 11 9000 2.1 230 18:49 12.07.2019
5070 Clear 12 1039 13 9000 3.1 160 18:22 12.07.2019
5071 Clear 12 1039 13 9000 3.1 160 17:55 12.07.2019
5072 Clear 12 1039 13 9000 3.1 160 17:37 12.07.2019
5073 Clear 10 1039 18 8000 2.1 220 17:19 12.07.2019
5074 Clear 10 1039 18 8000 2.1 220 16:36 12.07.2019
5075 Clear 6 1039 24 8000 1 0 16:18 12.07.2019
5076 Clear 6 1039 24 8000 1 0 15:38 12.07.2019
5077 Clouds 4 1038 29 9000 1.5 20 15:19 12.07.2019
5078 Clouds 4 1038 29 9000 1.5 20 14:44 12.07.2019
5079 Clouds 0 1037 50 10000 3.1 10 14:21 12.07.2019
5080 Clouds 0 1037 50 10000 3.1 10 13:47 12.07.2019
5081 Clouds 1 1037 31 10000 3.1 20 13:23 12.07.2019
5082 Clouds 1 1037 31 10000 3.1 20 12:43 12.07.2019
5083 Clouds 1 1037 31 10000 3.1 20 12:23 12.07.2019
5084 Clouds 0 1036 65 10000 1 0 11:47 12.07.2019
5085 Clouds 0 1036 65 10000 1 0 11:24 12.07.2019
5086 Clouds 0 1036 65 10000 1 0 11:24 12.07.2019
5087 Clouds 2 1036 29 10000 1 0 10:59 12.07.2019
5088 Clouds 2 1036 29 10000 1 0 10:41 12.07.2019
5089 Clouds 2 1036 29 10000 1 0 10:23 12.07.2019
5090 Clouds 1 1037 34 10000 1 0 09:53 12.07.2019
5091 Clouds 1 1037 34 10000 1 0 09:27 12.07.2019
5092 Clouds 3 1037 32 10000 2.6 360 08:50 12.07.2019
5093 Clouds 3 1037 34 10000 2.1 360 08:24 12.07.2019
5094 Clouds 3 1037 34 10000 2.1 360 07:51 12.07.2019
5095 Clouds 3 1037 34 10000 2.1 360 07:29 12.07.2019
5096 Clouds 3 1037 32 10000 2.1 20 06:32 12.07.2019
5097 Clear 4 1037 29 10000 1 0 05:52 12.07.2019
5098 Clear 5 1037 30 10000 2.1 10 04:52 12.07.2019
5099 Clear 10 1035 19 10000 2.6 310 01:54 12.07.2019
5100 Clear 10 1035 19 10000 2.6 310 01:34 12.07.2019
5101 Clouds 13 1035 13 10000 4.1 260 00:37 12.07.2019
5102 Clouds 16 1035 8 10000 3.1 280 00:18 12.07.2019
5103 Clouds 16 1035 8 10000 3.1 280 23:41 11.07.2019
5104 Clouds 16 1035 8 10000 4.1 270 23:21 11.07.2019
5105 Clouds 16 1035 8 10000 4.1 270 22:45 11.07.2019
5106 Clouds 16 1035 8 10000 4.1 270 22:24 11.07.2019
5107 Clouds 16 1035 8 10000 2.6 260 21:44 11.07.2019
5108 Clouds 16 1036 11 9000 2.6 260 21:20 11.07.2019
5109 Clouds 16 1036 11 9000 2.6 260 20:59 11.07.2019
5110 Clouds 16 1036 11 9000 2.6 260 20:41 11.07.2019
5111 Clear 16 1037 11 9000 1 0 20:22 11.07.2019
5112 Clear 16 1037 11 9000 1 0 19:55 11.07.2019
5113 Clear 16 1037 11 9000 1 0 19:37 11.07.2019
5114 Clear 14 1038 14 9000 2.1 230 19:19 11.07.2019
5115 Clear 14 1038 14 9000 2.1 230 18:39 11.07.2019
5116 Clear 12 1039 14 8000 3.1 250 18:21 11.07.2019
5117 Clear 12 1039 14 8000 3.1 250 17:46 11.07.2019
5118 Clear 12 1039 14 8000 3.1 250 17:28 11.07.2019
5119 Clear 10 1039 16 8000 2.1 250 16:52 11.07.2019
5120 Clear 10 1039 16 8000 2.1 250 16:24 11.07.2019
5121 Clear 9 1039 18 10000 1 0 15:55 11.07.2019
5122 Clear 9 1039 18 10000 1 0 15:37 11.07.2019
5123 Clear 9 1039 18 10000 1 0 15:37 11.07.2019
5124 Clear 4 1038 23 10000 2.1 360 15:19 11.07.2019
5125 Clear 4 1038 23 10000 2.1 360 14:43 11.07.2019
5126 Clear -3 1037 32 10000 1.5 10 14:22 11.07.2019
5127 Clear -3 1037 32 10000 1.5 10 13:47 11.07.2019
5128 Clear -3 1037 32 10000 1.5 10 13:28 11.07.2019
5129 Clear 0 1037 65 10000 3.6 10 12:46 11.07.2019
5130 Clear 0 1037 79 10000 3.6 10 12:28 11.07.2019
5131 Clear -1 1037 26 10000 2.6 10 11:58 11.07.2019
5132 Clear -1 1037 26 10000 2.6 10 11:39 11.07.2019
5133 Clear -2 1037 25 10000 1.5 10 11:21 11.07.2019
5134 Clear -2 1037 25 10000 1.5 10 10:45 11.07.2019
5135 Clear -2 1037 25 10000 1 0 10:19 11.07.2019
5136 Clear -2 1037 25 10000 1 0 09:44 11.07.2019
5137 Clear -1 1038 22 10000 1.18 150.057 09:26 11.07.2019
5138 Clear -1 1038 22 10000 1.37 154.388 08:52 11.07.2019
5139 Clear -1 1038 22 10000 1.37 154.388 08:26 11.07.2019
5140 Clear 4 1038 15 10000 3.1 20 07:52 11.07.2019
5141 Clear 4 1038 15 10000 3.1 20 07:34 11.07.2019
5142 Clear 3 1038 17 10000 2.1 30 06:35 11.07.2019
5143 Clear -1 1038 22 10000 2.6 40 05:48 11.07.2019
5144 Clear -1 1038 22 10000 2.6 40 05:29 11.07.2019
5145 Clear 2 1038 21 10000 2.1 30 04:54 11.07.2019
5146 Clear 7 1038 17 10000 2.1 20 02:40 11.07.2019
5147 Clear 12 1037 9 10000 5.1 110 01:27 11.07.2019
5148 Clear 16 1037 8 10000 4.1 90 00:26 11.07.2019
5149 Clear 16 1037 8 10000 4.1 90 23:37 10.07.2019
5150 Clear 16 1037 8 10000 4.6 120 23:18 10.07.2019
5151 Clear 16 1037 8 10000 4.6 120 22:42 10.07.2019
5152 Clouds 16 1038 8 10000 4.6 130 22:19 10.07.2019
5153 Clouds 16 1038 8 10000 4.6 130 21:44 10.07.2019
5154 Clouds 16 1038 8 10000 4.6 130 21:26 10.07.2019
5155 Clouds 15 1039 4 10000 4.6 140 20:56 10.07.2019
5156 Clouds 15 1039 4 10000 4.6 140 20:37 10.07.2019
5157 Clouds 15 1039 4 10000 4.6 140 20:37 10.07.2019
5158 Clouds 14 1072 5 10000 4.6 150 20:18 10.07.2019
5159 Clouds 14 1072 5 10000 4.6 150 19:42 10.07.2019
5160 Clear 14 1041 8 10000 3.1 200 19:22 10.07.2019
5161 Clear 14 1041 8 10000 3.1 200 18:48 10.07.2019
5162 Clear 11 1042 17 10000 1 0 18:25 10.07.2019
5163 Clear 11 1042 17 10000 1 0 17:59 10.07.2019
5164 Clear 11 1042 17 10000 1 0 17:59 10.07.2019
5165 Clear 11 1042 17 10000 1 0 17:40 10.07.2019
5166 Clear 7 1042 19 8000 2.1 230 17:19 10.07.2019
5167 Clear 5 1041 20 8000 2.1 220 16:22 10.07.2019
5168 Clear 5 1041 20 8000 2.1 220 15:58 10.07.2019
5169 Clear 5 1041 20 8000 2.1 220 15:39 10.07.2019
5170 Clear 3 1041 15 10000 0.36 135.671 15:18 10.07.2019
5171 Clear 3 1041 15 10000 0.36 135.671 14:39 10.07.2019
5172 Clear 1 1040 15 10000 3.6 20 14:20 10.07.2019
5173 Clear 1 1040 15 10000 3.6 20 13:43 10.07.2019
5174 Clear 1 1040 11 10000 3.6 10 13:19 10.07.2019
5175 Clear 1 1040 11 10000 3.6 10 12:42 10.07.2019
5176 Clear 0 1039 80 10000 3.1 20 12:22 10.07.2019
5177 Clear 0 1039 80 10000 3.1 20 11:51 10.07.2019
5178 Clear 0 1039 80 10000 3.1 20 11:22 10.07.2019
5179 Clear -1 1040 18 10000 2.6 10 10:58 10.07.2019
5180 Clear -1 1040 18 10000 2.6 10 10:58 10.07.2019
5181 Clear -3 1039 14 10000 1.5 20 10:25 10.07.2019
5182 Clear -3 1039 14 10000 1.5 20 09:59 10.07.2019
5183 Clear -3 1039 14 10000 1.5 20 09:41 10.07.2019
5184 Clear -3 1040 17 10000 1.5 30 09:20 10.07.2019
5185 Clear -3 1040 17 10000 1.5 30 08:49 10.07.2019
5186 Clear -3 1040 17 10000 1.5 30 08:26 10.07.2019
5187 Clear -4 1040 25 10000 1.5 30 07:51 10.07.2019
5188 Clear -3 1040 32 10000 2.1 90 07:24 10.07.2019
5189 Clear -3 1040 32 10000 2.1 90 06:40 10.07.2019
5190 Clear 0 1041 70 10000 2.6 80 05:42 10.07.2019
5191 Clear 2 1040 19 10000 2.6 20 04:33 10.07.2019
5192 Clear 6 1039 17 10000 3.6 70 02:20 10.07.2019
5193 Clear 12 1039 14 10000 4.6 110 00:44 10.07.2019
5194 Clear 14 1038 11 10000 4.6 150 23:42 09.07.2019
5195 Clear 14 1038 11 10000 4.6 150 23:24 09.07.2019
5196 Clouds 16 1038 9 10000 4.6 130 22:57 09.07.2019
5197 Clouds 16 1038 9 10000 4.6 130 22:38 09.07.2019
5198 Clouds 15 1039 10 10000 5.1 140 22:20 09.07.2019
5199 Clouds 15 1039 10 10000 5.1 140 21:46 09.07.2019
5200 Clouds 15 1039 10 10000 5.1 140 21:26 09.07.2019
5201 Clear 15 1040 10 10000 5.7 140 20:45 09.07.2019
5202 Clear 15 1040 10 10000 5.7 140 20:26 09.07.2019
5203 Clear 15 1041 12 10000 5.7 140 19:56 09.07.2019
5204 Clear 15 1041 12 10000 5.7 140 19:36 09.07.2019
5205 Clear 14 1042 14 10000 4.6 130 19:18 09.07.2019
5206 Clear 14 1042 14 10000 4.6 130 18:38 09.07.2019
5207 Clear 12 1042 16 10000 5.7 120 18:19 09.07.2019
5208 Clear 12 1042 16 10000 5.7 120 17:43 09.07.2019
5209 Clear 11 1042 17 10000 4.6 110 17:21 09.07.2019
5210 Clear 11 1042 17 10000 4.6 110 16:51 09.07.2019
5211 Clear 11 1042 17 10000 4.6 110 16:26 09.07.2019
5212 Clear 7 1042 20 10000 1 0 15:57 09.07.2019
5213 Clear 7 1042 20 10000 1 0 15:36 09.07.2019
5214 Clear 4 1041 21 10000 2.1 10 14:59 09.07.2019
5215 Clear 4 1041 21 10000 2.1 10 14:40 09.07.2019
5216 Clear 0 1040 41 10000 3.1 10 14:21 09.07.2019
5217 Clear 0 1040 41 10000 3.1 10 13:46 09.07.2019
5218 Clear 0 1040 42 10000 3.1 10 13:27 09.07.2019
5219 Clear 0 1040 42 10000 2.6 10 12:43 09.07.2019
5220 Clear -2 1039 28 10000 1.5 10 12:24 09.07.2019
5221 Clear -2 1039 28 10000 1.5 10 11:59 09.07.2019
5222 Clear -2 1039 28 10000 1.5 10 11:41 09.07.2019
5223 Clear -3 1039 27 10000 1 0 11:22 09.07.2019
5224 Clear -3 1039 27 10000 1 0 10:58 09.07.2019
5225 Clear -3 1039 27 10000 1 0 10:34 09.07.2019
5226 Clear 0 1039 52 10000 3.1 40 09:56 09.07.2019
5227 Clear 0 1039 52 10000 3.1 40 09:37 09.07.2019
5228 Clear -3 1040 27 10000 1 0 09:18 09.07.2019
5229 Clear -3 1040 27 10000 1 0 08:41 09.07.2019
5230 Clear 2 1037 22 10000 1 0 04:18 05.07.2019
5231 Clear 2 1037 22 10000 1 0 03:38 05.07.2019
5232 Clear 6 1036 17 10000 2.1 20 03:19 05.07.2019
5233 Clear 6 1036 17 10000 2.1 20 02:49 05.07.2019
5234 Clear 10 1035 11 10000 1.5 330 01:52 05.07.2019
5235 Clear 10 1035 11 10000 1.5 330 01:25 05.07.2019
5236 Clear 14 1035 7 10000 2.1 310 00:48 05.07.2019
5237 Clear 14 1035 7 10000 2.1 310 00:25 05.07.2019
5238 Clear 15 1035 8 10000 4.1 290 23:23 04.07.2019
5239 Clear 15 1035 8 10000 4.1 290 23:23 04.07.2019
5240 Clear 15 1035 8 10000 4.1 290 23:23 04.07.2019
5241 Clear 16 1035 7 10000 4.6 260 22:59 04.07.2019
5242 Clear 16 1035 7 10000 4.6 260 22:40 04.07.2019
5243 Clear 16 1035 9 10000 5.1 260 22:19 04.07.2019
5244 Clear 16 1035 9 10000 5.1 260 21:41 04.07.2019
5245 Clear 15 1035 12 10000 5.7 270 21:22 04.07.2019
5246 Clear 15 1035 12 10000 5.7 270 20:58 04.07.2019
5247 Clear 15 1035 12 10000 5.7 270 20:37 04.07.2019
5248 Clear 14 1036 11 10000 5.7 300 20:18 04.07.2019
5249 Clear 14 1036 11 10000 5.7 300 20:18 04.07.2019
5250 Clear 14 1036 11 10000 5.7 300 19:41 04.07.2019
5251 Clear 12 1037 14 10000 7.2 290 19:21 04.07.2019
5252 Clear 12 1037 14 10000 7.2 290 18:46 04.07.2019
5253 Clear 10 1037 15 10000 5.7 280 18:27 04.07.2019
5254 Clear 10 1037 15 10000 5.7 280 17:56 04.07.2019
5255 Clear 10 1037 15 10000 5.7 280 17:37 04.07.2019
5256 Clear 9 1037 21 10000 2.6 260 17:18 04.07.2019
5257 Clear 5 1037 25 10000 2.1 280 15:43 04.07.2019
5258 Clear 5 1037 25 10000 2.1 280 15:24 04.07.2019
5259 Clear 2 1035 34 10000 1 0 14:58 04.07.2019
5260 Clear 2 1035 34 10000 1 0 14:38 04.07.2019
5261 Clear -7 1034 48 10000 1 0 14:19 04.07.2019
5262 Clear -7 1034 48 10000 1 0 13:55 04.07.2019
5263 Clear -7 1034 48 10000 1 0 13:37 04.07.2019
5264 Clear -2 1034 39 10000 1.5 10 13:18 04.07.2019
5265 Clear -2 1034 39 10000 1.5 10 12:38 04.07.2019
5266 Clear -5 1033 53 10000 1 0 12:19 04.07.2019
5267 Clear -5 1033 53 10000 1 0 11:42 04.07.2019
5268 Clear -6 1034 67 10000 1 0 11:20 04.07.2019
5269 Clear -6 1034 67 10000 1 0 10:45 04.07.2019
5270 Clear -6 1034 67 10000 1 0 10:27 04.07.2019
5271 Clouds -5 1034 79 10000 2.6 60 09:46 04.07.2019
5272 Clouds -5 1034 79 10000 2.6 60 09:26 04.07.2019
5273 Clouds -5 1034 73 10000 1.5 50 08:57 04.07.2019
5274 Clouds -5 1034 73 10000 1.5 50 08:29 04.07.2019
5275 Clouds -3 1035 86 10000 1 0 07:47 04.07.2019
5276 Clouds -3 1035 86 10000 1 0 07:47 04.07.2019
5277 Clouds -3 1035 86 10000 1 0 07:23 04.07.2019
5278 Clouds -2 1035 86 10000 2.6 80 06:56 04.07.2019
5279 Clouds -1 1035 80 10000 2.6 60 05:55 04.07.2019
5280 Clouds -1 1035 80 10000 2.6 60 05:36 04.07.2019
5281 Clear 6 1034 17 10000 3.1 10 03:30 04.07.2019
5282 Clear 10 1033 15 10000 3.6 300 01:45 04.07.2019
5283 Clear 13 1033 8 10000 4.6 290 01:23 04.07.2019
5284 Clear 13 1033 8 10000 4.6 290 00:28 04.07.2019
5285 Clear 16 1033 6 10000 3.1 290 23:47 03.07.2019
5286 Clear 16 1033 6 10000 5.1 300 23:20 03.07.2019
5287 Clear 16 1033 6 10000 5.1 300 22:55 03.07.2019
5288 Clear 16 1033 6 10000 5.1 300 22:36 03.07.2019
5289 Clear 16 1033 10 10000 7.2 270 22:18 03.07.2019
5290 Clear 16 1033 10 10000 7.2 270 21:45 03.07.2019
5291 Clear 16 1033 10 10000 7.2 270 21:26 03.07.2019
5292 Clear 16 1033 17 10000 6.7 280 20:46 03.07.2019
5293 Clear 16 1034 15 10000 6.2 280 20:24 03.07.2019
5294 Clear 16 1034 15 10000 6.2 280 19:51 03.07.2019
5295 Clear 16 1034 15 10000 6.2 280 19:33 03.07.2019
5296 Clear 14 1035 17 10000 5.7 290 18:50 03.07.2019
5297 Clear 14 1035 17 10000 5.7 290 18:30 03.07.2019
5298 Clear 13 1036 24 10000 5.1 280 17:58 03.07.2019
5299 Clear 13 1036 24 10000 5.1 280 17:39 03.07.2019
5300 Clear 10 1037 25 10000 3.1 240 17:18 03.07.2019
5301 Clear 10 1037 25 10000 3.1 240 16:43 03.07.2019
5302 Clear 10 1037 25 10000 3.1 240 16:22 03.07.2019
5303 Clear 9 1036 21 10000 3.1 310 15:49 03.07.2019
5304 Clear 9 1036 21 10000 3.1 310 15:31 03.07.2019
5305 Clear 8 1035 20 10000 2.6 320 14:57 03.07.2019
5306 Clear 2 1035 34 10000 1 0 14:38 03.07.2019
5307 Clear -4 1035 41 10000 0.76 296.632 14:18 03.07.2019
5308 Clear -4 1035 41 10000 1.39 300.545 13:35 03.07.2019
5309 Clear -2 1034 42 10000 1 0 12:55 03.07.2019
5310 Clear -4 1034 45 10000 2.1 320 12:22 03.07.2019
5311 Clear -4 1034 45 10000 2.1 320 11:59 03.07.2019
5312 Clear -4 1034 45 10000 2.1 320 11:40 03.07.2019
5313 Clear -4 1034 45 10000 2.1 320 11:21 03.07.2019
5314 Clear -1 1034 36 10000 1 0 10:42 03.07.2019
5315 Clear -1 1034 36 10000 1 0 10:23 03.07.2019
5316 Clouds 6 1019 58 10000 1.05 297.296 09:43 03.07.2019
5317 Clouds 6 1019 47 10000 0.87 355.471 09:22 03.07.2019
5318 Clear 6 1035 22 10000 3.1 320 08:57 03.07.2019
5319 Clear 6 1035 22 10000 3.1 320 08:38 03.07.2019
5320 Clear 5 1036 25 10000 3.1 330 08:18 03.07.2019
5321 Clear 5 1036 25 10000 3.1 330 07:37 03.07.2019
5322 Clear 4 1037 35 10000 1 0 06:55 03.07.2019
5323 Clear 5 1037 35 10000 2.1 360 05:56 03.07.2019
5324 Clear 6 1038 30 10000 1 0 05:24 03.07.2019
5325 Clear 7 1038 28 10000 1 0 03:55 03.07.2019
5326 Clear 8 1037 33 10000 4.1 260 02:47 03.07.2019
5327 Clear 11 1036 27 10000 2.1 340 01:37 03.07.2019
5328 Clear 11 1036 27 10000 2.1 340 01:19 03.07.2019
5329 Clouds 14 1035 20 10000 3.6 320 00:40 03.07.2019
5330 Clouds 14 1035 15 10000 5.7 290 23:54 02.07.2019
5331 Clouds 14 1035 15 10000 5.7 290 23:36 02.07.2019
5332 Clouds 14 1035 15 10000 5.7 290 23:18 02.07.2019
5333 Clouds 17 1035 17 10000 5.7 290 22:41 02.07.2019
5334 Clouds 17 1035 17 10000 5.7 290 22:23 02.07.2019
5335 Clouds 16 1036 23 10000 5.7 250 21:57 02.07.2019
5336 Clouds 16 1036 23 10000 5.7 250 21:38 02.07.2019
5337 Clouds 16 1036 23 10000 5.7 250 21:19 02.07.2019
5338 Clouds 16 1037 23 10000 3.6 250 20:42 02.07.2019
5339 Clouds 16 1037 23 10000 3.6 250 20:24 02.07.2019
5340 Clouds 14 1038 30 10000 3.6 250 19:59 02.07.2019
5341 Clouds 14 1038 30 10000 3.6 250 19:40 02.07.2019
5342 Clouds 13 1039 35 10000 4.1 290 19:20 02.07.2019
5343 Clouds 13 1039 35 10000 4.1 290 18:45 02.07.2019
5344 Clouds 13 1039 35 10000 4.1 290 18:18 02.07.2019
5345 Clouds 11 1040 50 10000 2.6 390 17:41 02.07.2019
5346 Clouds 9 1040 45 10000 1 0 17:21 02.07.2019
5347 Clouds 9 1040 45 10000 1 0 16:47 02.07.2019
5348 Clouds 9 1040 45 10000 1 0 16:29 02.07.2019
5349 Clouds 7 1039 38 10000 1 0 15:44 02.07.2019
5350 Clear 2 1038 85 10000 1 0 15:24 02.07.2019
5351 Clear 2 1038 85 10000 1 0 14:50 02.07.2019
5352 Clear 2 1038 85 10000 1 0 14:32 02.07.2019
5353 Clouds 0 1037 85 10000 2.1 280 13:46 02.07.2019
5354 Clouds 0 1037 84 10000 2.1 280 13:23 02.07.2019
5355 Clouds -1 1036 54 10000 1.5 20 12:59 02.07.2019
5356 Clouds -1 1036 54 10000 1.5 20 12:40 02.07.2019
5357 Clouds -1 1036 54 10000 1.5 20 12:18 02.07.2019
5358 Clouds -2 1036 63 10000 2.1 280 11:42 02.07.2019
5359 Clouds -1 1036 58 10000 1.5 10 11:21 02.07.2019
5360 Clouds -1 1036 58 10000 1.5 10 10:45 02.07.2019
5361 Clouds 0 1037 90 10000 1.5 320 10:24 02.07.2019
5362 Clouds 0 1037 90 10000 1.5 320 09:44 02.07.2019
5363 Clouds -1 1038 86 10000 1 0 09:21 02.07.2019
5364 Clouds -1 1038 86 10000 1 0 08:42 02.07.2019
5365 Clouds -1 1038 86 10000 1 0 08:42 02.07.2019
5366 Clouds -1 1038 86 10000 1 0 08:20 02.07.2019
5367 Clouds 0 1038 87 10000 3.1 60 07:53 02.07.2019
5368 Clouds 0 1038 87 10000 3.1 60 07:21 02.07.2019
5369 Fog 2 1038 93 4000 4.1 70 06:49 02.07.2019
5370 Fog 2 1038 93 4000 4.1 70 06:26 02.07.2019
5371 Fog 2 1038 93 4000 4.1 70 06:26 02.07.2019
5372 Clouds 2 1038 64 10000 2.1 60 04:57 02.07.2019
5373 Clouds 10 1037 37 10000 1 0 01:37 02.07.2019
5374 Clouds 16 1037 21 10000 2.1 250 23:49 01.07.2019
5375 Clouds 15 1037 24 10000 2.6 210 23:22 01.07.2019
5376 Clouds 15 1037 24 10000 2.6 210 22:46 01.07.2019
5377 Clouds 15 1037 24 10000 2.6 210 22:27 01.07.2019
5378 Clouds 16 1037 23 10000 2.1 280 21:47 01.07.2019
5379 Clouds 16 1037 23 10000 2.1 280 21:26 01.07.2019
5380 Clouds 15 1039 26 10000 3.1 240 20:51 01.07.2019
5381 Clouds 15 1039 26 10000 3.1 240 20:51 01.07.2019
5382 Clouds 15 1039 26 10000 3.1 240 20:22 01.07.2019
5383 Clouds 15 1039 26 10000 3.1 240 19:59 01.07.2019
5384 Clouds 14 1040 26 10000 3.6 240 19:40 01.07.2019
5385 Clouds 14 1040 26 10000 3.6 240 19:22 01.07.2019
5386 Clouds 12 1041 37 10000 3.6 200 18:53 01.07.2019
5387 Clouds 12 1041 37 10000 3.6 200 18:31 01.07.2019
5388 Clouds 10 1041 46 10000 2.6 220 17:58 01.07.2019
5389 Clouds 10 1041 46 10000 2.6 220 17:40 01.07.2019
5390 Clouds 10 1041 46 10000 2.6 220 17:21 01.07.2019
5391 Clouds 8 1041 61 10000 2.6 150 16:46 01.07.2019
5392 Clouds 8 1041 61 10000 2.6 150 16:25 01.07.2019
5393 Clouds 7 1041 70 9000 2.1 100 15:47 01.07.2019
5394 Clouds 7 1041 70 9000 2.1 100 15:28 01.07.2019
5395 Clouds 1 1040 100 8000 1.5 50 14:59 01.07.2019
5396 Clouds 1 1040 100 8000 1.5 50 14:39 01.07.2019
5397 Fog -4 1040 92 4000 2.1 50 14:19 01.07.2019
5398 Fog -4 1040 92 4000 2.1 50 13:40 01.07.2019
5399 Fog -4 1040 92 4000 2.1 50 13:21 01.07.2019
5400 Fog -3 1039 79 4000 1 0 12:42 01.07.2019
5401 Fog -4 1039 92 4000 1.5 30 12:23 01.07.2019
5402 Fog -4 1039 92 4000 1.5 30 11:58 01.07.2019
5403 Fog -4 1039 92 4000 1.5 30 11:38 01.07.2019
5404 Fog -4 1038 92 3000 1.5 360 11:18 01.07.2019
5405 Fog -4 1038 92 3000 1.5 360 10:42 01.07.2019
5406 Fog -4 1038 92 3000 1.5 360 10:20 01.07.2019
5407 Fog 0 1038 91 4000 2.1 50 09:45 01.07.2019
5408 -273 0 0 0 0 0 09:26 01.07.2019
5409 Fog -1 1038 100 4000 2.1 70 08:44 01.07.2019
5410 Fog -1 1038 100 4000 2.1 70 08:25 01.07.2019
5411 Fog 1 1039 100 4000 1.5 80 07:34 01.07.2019
5412 Fog 1 1039 100 4000 3.1 60 06:51 01.07.2019
5413 Clear 3 1039 74 10000 3.6 100 04:44 01.07.2019
5414 Clouds 9 1037 45 10000 3.6 20 01:20 01.07.2019
5415 Rain 11 1037 34 10000 4.6 10 00:41 01.07.2019
5416 Rain 11 1037 34 10000 4.6 10 00:20 01.07.2019
5417 Clouds 12 1037 37 10000 5.7 310 23:25 30.06.2019
5418 Clouds 13 1036 35 10000 5.1 280 22:56 30.06.2019
5419 Clouds 13 1036 35 10000 5.1 280 22:24 30.06.2019
5420 Clouds 15 1037 30 10000 3.1 240 21:59 30.06.2019
5421 Clouds 15 1037 30 10000 3.1 240 21:41 30.06.2019
5422 Clouds 14 1038 35 10000 1 0 21:18 30.06.2019
5423 Clouds 14 1038 35 10000 1 0 20:41 30.06.2019
5424 Clouds 14 1038 35 10000 1 0 20:23 30.06.2019
5425 Clouds 15 1039 38 10000 2.6 290 19:51 30.06.2019
5426 Clouds 15 1039 38 10000 2.6 290 19:26 30.06.2019
5427 Clouds 15 1040 38 10000 2.6 260 18:53 30.06.2019
5428 Clouds 15 1040 38 10000 2.6 260 18:23 30.06.2019
5429 Clouds 12 1040 46 10000 2.6 240 17:41 30.06.2019
5430 Clouds 10 1040 49 10000 1 0 17:20 30.06.2019
5431 Clouds 10 1040 49 10000 1 0 16:56 30.06.2019
5432 Clouds 10 1040 49 10000 1 0 16:37 30.06.2019
5433 Clouds 8 1040 61 10000 1 0 16:18 30.06.2019
5434 Clouds 8 1040 61 10000 1 0 15:36 30.06.2019
5435 Clouds 4 1039 64 10000 2.1 20 15:18 30.06.2019
5436 Clouds 4 1039 64 10000 2.1 20 15:18 30.06.2019
5437 Clouds 4 1039 64 10000 2.1 20 14:43 30.06.2019
5438 Clouds -1 1038 86 10000 1 0 14:24 30.06.2019
5439 Clouds -1 1038 86 10000 1 0 13:43 30.06.2019
5440 Clear 1 1037 74 10000 1 0 13:20 30.06.2019
5441 Clear 1 1037 74 10000 1 0 12:48 30.06.2019
5442 Clear 1 1037 74 10000 1 0 12:24 30.06.2019
5443 Clear 1 1037 80 10000 2.6 30 11:48 30.06.2019
5444 Clear 1 1037 80 10000 2.6 30 11:24 30.06.2019
5445 Clear 1 1037 80 10000 2.1 10 10:59 30.06.2019
5446 Clear 1 1037 80 10000 2.1 10 10:38 30.06.2019
5447 Clear 2 1020 81 0 1.03 136.657 10:18 30.06.2019
5448 Fog 0 1037 81 2000 2.6 90 09:43 30.06.2019
5449 Fog 0 1037 81 2000 2.6 90 09:23 30.06.2019
5450 Fog 0 1037 81 2000 2.6 90 08:57 30.06.2019
5451 Fog 3 1038 100 500 3.1 80 08:29 30.06.2019
5452 Fog 1 1038 100 500 3.1 80 07:56 30.06.2019
5453 Fog 1 1038 100 1100 2.6 60 07:28 30.06.2019
5454 Fog 0 1038 83 4000 2.6 70 06:40 30.06.2019
5455 Clouds 2 1038 80 10000 1.5 30 05:33 30.06.2019
5456 Clouds 5 1036 65 10000 4.1 70 02:50 30.06.2019
5457 Clouds 7 1036 48 10000 2.1 70 01:27 30.06.2019
5458 Clouds 14 1035 24 10000 2.6 290 00:29 30.06.2019
5459 Clouds 16 1035 25 10000 3.6 290 23:53 29.06.2019
5460 Clouds 16 1035 25 10000 3.6 290 23:24 29.06.2019
5461 Clouds 16 1036 26 10000 5.7 300 22:56 29.06.2019
5462 Clouds 16 1036 26 10000 5.7 300 22:25 29.06.2019
5463 Clouds 14 1036 28 10000 5.1 290 21:59 29.06.2019
5464 Clouds 14 1036 28 10000 5.1 290 21:40 29.06.2019
5465 Clouds 15 1037 33 10000 5.1 280 21:20 29.06.2019
5466 Clouds 15 1037 33 10000 5.1 280 20:40 29.06.2019
5467 Clouds 14 1038 34 10000 4.1 270 20:22 29.06.2019
5468 Clouds 14 1038 34 10000 4.1 270 19:48 29.06.2019
5469 Clouds 14 1039 34 10000 2.6 260 19:23 29.06.2019
5470 Clouds 14 1039 34 10000 2.6 260 18:48 29.06.2019
5471 Clouds 14 1039 40 10000 2.6 260 18:25 29.06.2019
5472 Clouds 11 1040 40 10000 2.1 250 17:40 29.06.2019
5473 Clouds 8 1040 61 9000 2.6 230 17:22 29.06.2019
5474 Clouds 8 1040 61 9000 2.6 230 16:51 29.06.2019
5475 Clouds 8 1040 61 9000 2.6 230 16:28 29.06.2019
5476 Clouds 6 1039 40 9000 1 0 15:37 29.06.2019
5477 Clouds 2 1038 65 10000 1.03 132.473 15:19 29.06.2019
5478 Clouds 2 1038 65 10000 1.03 132.473 14:41 29.06.2019
5479 Clouds 2 1038 65 10000 1.03 132.473 14:23 29.06.2019
5480 Clouds -3 1037 79 10000 1.03 132.473 13:44 29.06.2019
5481 Clouds -3 1037 79 10000 1.03 138.557 13:26 29.06.2019
5482 Clouds -2 1037 86 10000 1.5 10 12:45 29.06.2019
5483 Clouds -2 1037 86 10000 1.5 10 12:26 29.06.2019
5484 Clouds -2 1037 86 10000 2.1 50 11:51 29.06.2019
5485 Clouds -2 1037 86 10000 2.1 50 11:29 29.06.2019
5486 Clouds -3 1036 86 10000 1 0 10:52 29.06.2019
5487 Clouds -3 1036 86 10000 1 0 10:29 29.06.2019
5488 Clouds -2 1036 86 10000 1.5 40 09:58 29.06.2019
5489 Clouds -2 1036 86 10000 1.5 40 09:31 29.06.2019
5490 Clouds -1 1037 92 10000 1 0 08:41 29.06.2019
5491 Clouds -1 1038 86 10000 2.6 60 07:46 29.06.2019
5492 Clouds 2 1038 74 10000 2.1 40 07:19 29.06.2019
5493 Clouds 2 1038 74 10000 2.1 40 06:42 29.06.2019
5494 Clouds 4 1038 80 10000 1 0 06:20 29.06.2019
5495 Clouds 4 1035 41 10000 1.5 70 02:26 29.06.2019
5496 Clouds 13 1034 26 10000 5.1 270 00:57 29.06.2019
5497 Clouds 14 1034 22 10000 6.2 300 23:58 28.06.2019
5498 Clouds 14 1034 22 10000 6.2 300 23:23 28.06.2019
5499 Clouds 14 1034 24 10000 7.2 300 22:52 28.06.2019
5500 Clouds 14 1034 24 10000 7.2 300 22:27 28.06.2019
5501 Clouds 15 1035 22 10000 7.7 290 21:46 28.06.2019
5502 Clouds 14 1036 24 10000 7.2 280 21:20 28.06.2019
5503 Clouds 14 1036 24 10000 7.2 280 20:44 28.06.2019
5504 Clouds 14 1036 24 10000 7.2 280 20:21 28.06.2019
5505 Clouds 14 1037 24 10000 6.2 280 19:45 28.06.2019
5506 Clouds 14 1037 24 10000 6.2 280 19:27 28.06.2019
5507 Clouds 12 1038 27 10000 5.1 300 18:44 28.06.2019
5508 Clouds 11 1038 27 10000 2.6 310 18:22 28.06.2019
5509 Clouds 11 1038 27 10000 2.6 310 17:56 28.06.2019
5510 Clouds 11 1038 27 10000 2.6 310 17:56 28.06.2019
5511 Clouds 11 1038 27 10000 2.6 310 17:29 28.06.2019
5512 Clouds 9 1039 29 10000 2.6 300 16:49 28.06.2019
5513 Clouds 9 1039 29 10000 2.6 300 16:24 28.06.2019
5514 Clouds 7 1039 28 10000 1 0 15:48 28.06.2019
5515 Clouds 7 1039 28 10000 1 0 15:22 28.06.2019
5516 Clouds 3 1038 51 10000 2.1 10 14:42 28.06.2019
5517 Clouds 1 1037 59 10000 2.6 360 14:22 28.06.2019
5518 Clouds 1 1037 59 10000 2.6 360 13:51 28.06.2019
5519 Clouds 1 1037 59 10000 2.6 360 13:30 28.06.2019
5520 Clouds 0 1036 47 10000 2.6 360 12:58 28.06.2019
5521 Clouds 0 1036 47 10000 2.6 360 12:40 28.06.2019
5522 Clouds 0 1035 52 10000 2.6 10 11:50 28.06.2019
5523 Clouds -1 1035 50 10000 1 0 11:19 28.06.2019
5524 Clouds -1 1035 50 10000 1 0 10:43 28.06.2019
5525 Clouds -1 1035 50 10000 1 0 10:21 28.06.2019
5526 Clouds -2 1035 50 10000 1 0 09:47 28.06.2019
5527 Clouds -2 1035 50 10000 1 0 09:29 28.06.2019
5528 Clouds -1 1036 50 10000 2.1 20 08:44 28.06.2019
5529 Clouds -1 1036 50 10000 2.1 20 08:24 28.06.2019
5530 Smoke -3 1036 58 10000 1 0 07:45 28.06.2019
5531 Clouds -3 1036 63 10000 1 0 06:57 28.06.2019
5532 Clear 0 1036 35 10000 2.1 110 05:18 28.06.2019
5533 Clear 10 1033 19 10000 3.1 290 01:21 28.06.2019
5534 Clear 10 1033 19 10000 3.1 290 00:23 28.06.2019
5535 Clear 12 1033 18 10000 3.1 270 23:47 27.06.2019
5536 Clear 12 1033 18 10000 3.1 270 23:25 27.06.2019
5537 Clouds 14 1033 15 10000 5.1 300 22:44 27.06.2019
5538 Clouds 14 1033 15 10000 5.1 300 22:25 27.06.2019
5539 Clouds 14 1033 16 10000 7.2 290 21:58 27.06.2019
5540 Clouds 14 1033 16 10000 7.2 290 21:40 27.06.2019
5541 Clouds 14 1033 16 10000 7.2 290 21:20 27.06.2019
5542 Clouds 14 1034 15 10000 6.7 280 20:49 27.06.2019
5543 Clouds 14 1034 15 10000 6.7 280 20:31 27.06.2019
5544 Clouds 14 1035 11 10000 6.7 270 19:50 27.06.2019
5545 Clouds 14 1035 11 10000 6.7 270 19:29 27.06.2019
5546 Clouds 12 1036 16 10000 5.7 290 18:53 27.06.2019
5547 Clouds 12 1036 16 10000 5.7 290 18:32 27.06.2019
5548 Clear 11 1036 13 10000 5.1 280 17:58 27.06.2019
5549 Clear 11 1036 13 10000 5.1 280 17:37 27.06.2019
5550 Clear 8 1037 16 10000 3.1 240 17:19 27.06.2019
5551 Clear 8 1037 16 10000 3.1 240 16:39 27.06.2019
5552 Clear 6 1036 20 10000 1 0 16:19 27.06.2019
5553 Clear 6 1036 20 10000 1 0 15:45 27.06.2019
5554 Clear 6 1036 20 10000 1 0 15:24 27.06.2019
5555 Clear 1 1036 29 10000 0.85 335.456 14:48 27.06.2019
5556 Clear 1 1036 29 10000 0.85 335.456 14:29 27.06.2019
5557 Clear -2 1035 30 10000 3.1 10 13:50 27.06.2019
5558 Clear -2 1035 30 10000 3.1 10 13:31 27.06.2019
5559 Clear -1 1035 28 10000 3.1 360 12:58 27.06.2019
5560 Clear -1 1035 28 10000 3.1 360 12:38 27.06.2019
5561 Clear -1 1034 30 10000 3.1 10 12:18 27.06.2019
5562 Clear -1 1034 30 10000 3.1 10 11:42 27.06.2019
5563 Clear -1 1034 30 10000 3.1 10 11:21 27.06.2019
5564 Clear -1 1034 28 10000 2.6 360 10:46 27.06.2019
5565 Clear 0 1034 37 10000 3.1 10 10:22 27.06.2019
5566 Clear 0 1034 37 10000 3.1 10 09:56 27.06.2019
5567 Clear 0 1034 32 10000 3.1 10 09:22 27.06.2019
5568 Clear 0 1035 32 10000 2.6 20 08:55 27.06.2019
5569 Clear 0 1035 32 10000 2.6 20 08:37 27.06.2019
5570 Clear 1 1035 29 10000 2.6 20 08:19 27.06.2019
5571 Clear 1 1035 29 10000 2.6 20 07:31 27.06.2019
5572 Clear 2 1036 24 10000 3.6 10 06:53 27.06.2019
5573 Clear 2 1036 24 10000 3.6 10 06:24 27.06.2019
5574 Clear 5 1033 20 10000 2.6 10 02:45 27.06.2019
5575 Clear 7 1033 19 10000 2.6 320 01:50 27.06.2019
5576 Clear 10 1032 12 10000 4.6 310 00:58 27.06.2019
5577 Clear 10 1032 12 10000 4.6 310 00:39 27.06.2019
5578 Clear 12 1032 12 10000 6.2 280 00:18 27.06.2019
5579 Clear 12 1032 12 10000 6.2 280 23:40 26.06.2019
5580 Clear 12 1032 12 10000 6.2 280 23:20 26.06.2019
5581 Clear 13 1032 15 10000 6.7 280 22:43 26.06.2019
5582 Clear 13 1032 15 10000 6.7 280 22:25 26.06.2019
5583 Clear 13 1032 15 10000 7.2 280 21:56 26.06.2019
5584 Clear 13 1032 15 10000 7.2 280 21:37 26.06.2019
5585 Clear 13 1033 20 10000 5.7 290 21:19 26.06.2019
5586 Clear 13 1033 20 10000 5.7 290 20:44 26.06.2019
5587 Clear 13 1033 20 10000 5.7 290 20:26 26.06.2019
5588 Clear 12 1035 22 10000 6.7 280 19:49 26.06.2019
5589 Clear 12 1035 22 10000 6.7 280 19:31 26.06.2019
5590 Clear 11 1035 21 10000 8.2 290 18:55 26.06.2019
5591 Clear 11 1035 21 10000 8.2 290 18:55 26.06.2019
5592 Clear 11 1035 21 10000 8.2 290 18:37 26.06.2019
5593 Clear 10 1036 23 10000 5.7 270 18:18 26.06.2019
5594 Clear 10 1036 23 10000 5.7 270 17:41 26.06.2019
5595 Clear 10 1036 23 10000 5.7 270 17:23 26.06.2019
5596 Clear 7 1036 24 10000 4.6 260 16:50 26.06.2019
5597 Clear 7 1036 24 10000 4.6 260 16:28 26.06.2019
5598 Clear 4 1036 25 10000 3.1 250 15:48 26.06.2019
5599 Clear 4 1036 25 10000 3.1 250 15:27 26.06.2019
5600 Clouds 1 1035 37 10000 1 0 14:39 26.06.2019
5601 Clouds -4 1035 41 10000 1 0 14:20 26.06.2019
5602 Clouds -8 1034 52 10000 1 0 13:45 26.06.2019
5603 Clouds -1 1034 39 10000 2.1 320 13:21 26.06.2019
5604 Clouds -1 1034 39 10000 2.1 320 12:45 26.06.2019
5605 Clouds -1 1034 39 10000 2.1 320 12:26 26.06.2019
5606 Clouds -2 1034 36 10000 2.1 10 11:54 26.06.2019
5607 Clouds -2 1034 36 10000 2.1 10 11:23 26.06.2019
5608 Clouds -5 1034 38 10000 2.1 40 10:48 26.06.2019
5609 Clouds -5 1034 38 10000 2.1 40 10:29 26.06.2019
5610 Clouds -1 1034 36 10000 1.5 10 09:51 26.06.2019
5611 Clouds -1 1034 36 10000 1.5 10 09:26 26.06.2019
5612 Clouds -3 1035 35 10000 1 0 08:49 26.06.2019
5613 Clear -3 1035 35 10000 1 0 08:20 26.06.2019
5614 Clear 1 1035 29 10000 2.6 10 07:52 26.06.2019
5615 Clear 1 1035 29 10000 2.6 10 07:34 26.06.2019
5616 Clear -1 1036 33 10000 1 0 06:32 26.06.2019
5617 Clouds 8 1033 16 10000 2.6 300 01:31 26.06.2019
5618 Clouds 10 1033 12 10000 4.6 290 00:25 26.06.2019
5619 Clouds 12 1032 13 10000 6.7 300 23:47 25.06.2019
5620 Clouds 12 1032 13 10000 6.7 300 23:28 25.06.2019
5621 Clouds 13 1032 12 10000 6.7 290 22:57 25.06.2019
5622 Clouds 13 1032 12 10000 6.7 290 22:39 25.06.2019
5623 Clouds 14 1033 11 10000 7.2 280 22:20 25.06.2019
5624 Clouds 14 1033 11 10000 7.2 280 21:44 25.06.2019
5625 Clear 14 1033 11 10000 7.2 280 21:22 25.06.2019
5626 Clouds 14 1033 8 10000 7.2 270 20:47 25.06.2019
5627 Clouds 14 1033 8 10000 7.2 270 20:46 25.06.2019
5628 Clouds 14 1033 8 10000 7.2 270 20:23 25.06.2019
5629 Clouds 12 1034 9 10000 6.7 300 19:54 25.06.2019
5630 Clouds 12 1034 9 10000 6.7 300 19:36 25.06.2019
5631 Clouds 11 1035 10 10000 6.7 270 19:18 25.06.2019
5632 Clouds 11 1035 10 10000 6.7 270 18:40 25.06.2019
5633 Clear 10 1036 11 10000 7.7 290 18:21 25.06.2019
5634 -273 0 0 0 0 0 17:32 25.06.2019
5635 -273 0 0 0 0 0 17:32 25.06.2019
5636 Clear 8 1037 12 10000 6.7 290 16:59 25.06.2019
5637 Clear 8 1037 12 10000 6.7 290 16:40 25.06.2019
5638 Clear 8 1037 12 10000 6.7 290 16:22 25.06.2019
5639 Clear 6 1036 14 10000 5.7 300 15:42 25.06.2019
5640 Clear 6 1036 14 10000 5.7 300 15:24 25.06.2019
5641 Clear 4 1035 15 10000 3.6 320 14:54 25.06.2019
5642 Clear 4 1035 15 10000 3.6 320 14:35 25.06.2019
5643 Clear -6 1035 41 10000 0.05 303.366 13:47 25.06.2019
5644 Clear -6 1035 41 10000 0.13 134.683 13:29 25.06.2019
5645 Clear -1 1035 30 10000 2.6 290 12:55 25.06.2019
5646 Clear -1 1035 30 10000 2.6 290 12:36 25.06.2019
5647 Clear -4 1034 49 10000 1.5 350 12:18 25.06.2019
5648 Clear -4 1034 49 10000 1.5 350 11:41 25.06.2019
5649 Clear -1 1034 46 10000 2.6 360 11:20 25.06.2019
5650 Clear -1 1034 46 10000 2.6 360 10:43 25.06.2019
5651 Clear -1 1034 46 10000 2.6 360 10:22 25.06.2019
5652 Clear -4 1035 53 10000 1.5 360 09:55 25.06.2019
5653 Clear -4 1035 53 10000 1.5 360 09:37 25.06.2019
5654 Clear -3 1035 42 10000 1 0 09:18 25.06.2019
5655 Clear -3 1035 42 10000 1 0 08:37 25.06.2019
5656 Clear 2 1035 31 10000 2.1 360 08:19 25.06.2019
5657 Clear 2 1035 31 10000 2.1 360 07:39 25.06.2019
5658 Clear 2 1036 29 10000 2.6 360 06:53 25.06.2019
5659 Clear 2 1036 29 10000 2.6 360 06:28 25.06.2019
5660 Clear 6 1034 26 10000 2.6 10 02:46 25.06.2019
5661 Clear 8 1034 17 10000 2.1 320 01:40 25.06.2019
5662 Clear 11 1034 25 9000 4.1 310 00:35 25.06.2019
5663 Clear 14 1034 11 9000 3.6 290 23:53 24.06.2019
5664 Clear 14 1034 11 9000 3.6 290 23:34 24.06.2019
5665 Clear 14 1035 10 8000 4.6 280 22:59 24.06.2019
5666 Clear 14 1035 10 8000 4.6 280 22:39 24.06.2019
5667 Clear 15 1035 13 8000 3.1 260 22:19 24.06.2019
5668 Clear 15 1035 13 8000 3.1 260 21:39 24.06.2019
5669 Clear 14 1037 12 8000 2.6 270 21:19 24.06.2019
5670 Clear 14 1037 12 8000 2.6 270 20:55 24.06.2019
5671 Clear 14 1037 12 8000 2.6 270 20:37 24.06.2019
5672 Clear 13 1038 12 7000 2.6 270 20:18 24.06.2019
5673 Clear 13 1038 12 7000 2.6 270 19:41 24.06.2019
5674 Clear 13 1038 12 7000 2.6 270 19:21 24.06.2019
5675 Clear 11 1039 17 6000 3.1 290 18:43 24.06.2019
5676 Smoke 9 1039 23 5000 2.6 260 18:24 24.06.2019
5677 Smoke 9 1039 23 5000 2.6 260 17:42 24.06.2019
5678 Smoke 9 1039 23 5000 2.6 260 17:24 24.06.2019
5679 Smoke 8 1039 20 4000 2.6 270 16:45 24.06.2019
5680 Smoke 8 1039 20 4000 2.6 270 16:20 24.06.2019
5681 Smoke 6 1039 26 5000 2.6 280 15:46 24.06.2019
5682 Smoke 6 1039 26 5000 2.6 280 15:27 24.06.2019
5683 Clear 2 1039 24 8000 2.1 20 14:42 24.06.2019
5684 Clear 2 1039 24 8000 2.1 20 14:24 24.06.2019
5685 Clear -1 1038 30 7000 2.1 10 13:44 24.06.2019
5686 Clear -1 1038 30 7000 2.1 10 13:23 24.06.2019
5687 Clear -4 1037 35 7000 1 0 12:42 24.06.2019
5688 Clear -4 1037 38 7000 2.1 20 12:21 24.06.2019
5689 Clear -4 1037 38 7000 2.1 20 11:45 24.06.2019
5690 Clear -4 1037 38 7000 2.1 20 11:27 24.06.2019
5691 Clear -1 1037 28 6000 3.1 10 10:53 24.06.2019
5692 Clear -1 1037 28 6000 3.1 10 10:53 24.06.2019
5693 Clear -1 1037 28 6000 3.1 10 10:34 24.06.2019
5694 Smoke -2 1038 28 5000 2.6 20 09:57 24.06.2019
5695 Smoke -2 1038 28 5000 2.6 20 09:57 24.06.2019
5696 Smoke -2 1038 28 5000 2.6 20 09:38 24.06.2019
5697 Smoke 1 1038 24 5000 2.6 20 09:18 24.06.2019
5698 Smoke 1 1038 24 5000 2.6 20 08:36 24.06.2019
5699 Smoke -4 1038 38 5000 2.6 40 07:58 24.06.2019
5700 Smoke -4 1038 38 5000 2.6 40 07:40 24.06.2019
5701 Smoke -4 1038 32 5000 1 0 07:21 24.06.2019
5702 Smoke -4 1038 32 5000 1 0 06:23 24.06.2019
5703 Clear -2 1039 36 6000 1 0 05:32 24.06.2019
5704 Clear -4 1039 38 6000 1 0 04:35 24.06.2019
5705 Clear -2 1039 33 8000 1 0 03:44 24.06.2019
5706 Clear 2 1038 29 8000 1.5 360 02:35 24.06.2019
5707 Clear 2 1038 24 9000 3.1 90 01:54 24.06.2019
5708 Clear 2 1038 24 9000 3.1 90 01:28 24.06.2019
5709 Clear 10 1038 12 9000 4.6 120 00:46 24.06.2019
5710 Clear 13 1038 8 9000 5.1 130 00:20 24.06.2019
5711 Clear 13 1038 8 9000 5.1 130 23:47 23.06.2019
5712 Clear 13 1038 8 9000 5.1 130 23:28 23.06.2019
5713 Clear 15 1038 8 10000 3.6 120 22:55 23.06.2019
5714 Clear 15 1038 8 10000 3.6 120 22:37 23.06.2019
5715 Clear 15 1039 8 10000 3.6 130 22:19 23.06.2019
5716 Clear 15 1039 8 10000 3.6 130 21:40 23.06.2019
5717 Clouds 15 1039 8 10000 3.6 130 21:21 23.06.2019
5718 Clouds 14 1040 7 10000 2.6 150 20:45 23.06.2019
5719 Clear 14 1040 7 10000 2.6 150 20:26 23.06.2019
5720 Clear 14 1042 6 10000 2.1 140 19:46 23.06.2019
5721 Clear 11 1042 9 10000 2.6 180 19:21 23.06.2019
5722 Clear 11 1042 9 10000 2.6 180 18:54 23.06.2019
5723 Clouds 11 1042 9 10000 2.6 180 18:24 23.06.2019
5724 Clouds 8 1043 16 10000 1 0 17:53 23.06.2019
5725 Clouds 8 1043 16 10000 1 0 17:27 23.06.2019
5726 Clouds 5 1043 21 10000 2.1 240 16:59 23.06.2019
5727 Clouds 5 1043 21 10000 2.1 240 16:40 23.06.2019
5728 Clouds 5 1043 21 10000 2.1 240 16:21 23.06.2019
5729 Clouds 4 1043 23 10000 1 0 15:41 23.06.2019
5730 Clear 4 1043 23 10000 1 0 15:22 23.06.2019
5731 Clear 2 1043 29 10000 1.5 350 14:42 23.06.2019
5732 Clear 2 1043 29 10000 1.5 350 14:23 23.06.2019
5733 Clear -2 1042 36 10000 2.6 360 13:58 23.06.2019
5734 Clear -2 1042 36 10000 2.6 360 13:40 23.06.2019
5735 Clear -2 1041 36 10000 3.1 360 13:19 23.06.2019
5736 Clear -2 1041 36 10000 3.1 360 13:19 23.06.2019
5737 Clear -2 1041 36 10000 3.1 360 13:19 23.06.2019
5738 Clear -2 1041 36 10000 3.1 360 13:19 23.06.2019
5739 Clear -2 1041 36 10000 3.1 360 12:44 23.06.2019
5740 Clear -2 1041 36 10000 3.1 360 12:23 23.06.2019
5741 Clear -3 1041 42 10000 2.1 360 11:55 23.06.2019
5742 Clear -3 1041 42 10000 2.1 360 11:37 23.06.2019
5743 Clear -7 1041 48 10000 1.5 10 11:19 23.06.2019
5744 Clear -7 1041 48 10000 1.5 10 10:43 23.06.2019
5745 Clear -1 1025 74 0 1.33 142.442 10:18 23.06.2019
5746 Clear -1 1025 74 0 1.33 142.442 09:39 23.06.2019
5747 Clear -7 1042 37 10000 1.8 126.927 09:20 23.06.2019
5748 Clear -7 1042 37 10000 1.8 126.927 08:44 23.06.2019
5749 Clear -7 1042 37 10000 1.73 125.561 08:26 23.06.2019
5750 Clear -6 1042 31 10000 1.73 125.561 07:53 23.06.2019
5751 Clear -5 1042 35 10000 2.6 40 07:21 23.06.2019
5752 Clear -5 1042 35 10000 2.6 40 06:54 23.06.2019
5753 Clear -3 1043 32 10000 2.1 70 05:54 23.06.2019
5754 Clear 1 1042 40 10000 4.6 70 03:41 23.06.2019
5755 Clear 6 1041 28 10000 5.7 90 01:52 23.06.2019
5756 Clear 6 1041 28 10000 5.7 90 01:33 23.06.2019
5757 Clear 11 1041 14 10000 4.6 130 00:34 23.06.2019
5758 Clear 14 1041 11 10000 4.6 130 23:53 22.06.2019
5759 Clear 14 1041 11 10000 4.6 130 23:27 22.06.2019
5760 Clear 15 1041 10 10000 2.54 116.858 22:49 22.06.2019
5761 Clear 15 1041 10 10000 2.54 116.858 22:29 22.06.2019
5762 Clear 15 1041 10 10000 5.7 140 21:59 22.06.2019
5763 Clear 15 1041 10 10000 5.7 140 21:37 22.06.2019
5764 Clear 15 1041 8 10000 4.1 130 21:18 22.06.2019
5765 Clear 15 1041 8 10000 4.1 130 20:48 22.06.2019
5766 Clear 15 1041 8 10000 4.1 130 20:25 22.06.2019
5767 Clear 14 1043 10 10000 4.6 120 19:44 22.06.2019
5768 Clear 14 1043 10 10000 4.6 120 19:22 22.06.2019
5769 Clear 14 1043 12 10000 5.1 130 18:47 22.06.2019
5770 Clear 14 1043 12 10000 5.1 130 18:29 22.06.2019
5771 Clear 13 1044 13 10000 4.6 130 17:52 22.06.2019
5772 Clear 13 1044 13 10000 4.6 130 17:31 22.06.2019
5773 Clear 11 1044 17 10000 3.1 140 16:47 22.06.2019
5774 Clear 11 1044 17 10000 3.1 140 16:24 22.06.2019
5775 Clear 8 1044 19 10000 4.2 127.094 15:49 22.06.2019
5776 Clear 8 1044 19 10000 4.2 127.094 15:29 22.06.2019
5777 Clear 2 1043 29 10000 1 0 14:52 22.06.2019
5778 Clear 2 1043 29 10000 1 0 14:33 22.06.2019
5779 Clear -3 1042 30 10000 2.1 20 13:58 22.06.2019
5780 Clear -3 1042 30 10000 2.1 20 13:39 22.06.2019
5781 Clear -1 1042 30 10000 2.6 360 13:19 22.06.2019
5782 Clear -1 1042 30 10000 2.6 360 12:45 22.06.2019
5783 Clear -1 1042 30 10000 2.6 360 12:26 22.06.2019
5784 Clear -2 1042 33 10000 2.1 10 11:45 22.06.2019
5785 Clear -2 1042 33 10000 2.1 10 11:27 22.06.2019
5786 Clear -3 1042 35 10000 2.1 10 10:23 22.06.2019
5787 Clear -4 1042 29 10000 2.1 10 09:58 22.06.2019
5788 Clear -4 1042 29 10000 2.1 10 09:36 22.06.2019
5789 Clear -2 1043 23 10000 2.1 30 08:49 22.06.2019
5790 Clear -2 1043 23 10000 2.1 30 08:31 22.06.2019
5791 Clear -5 1043 27 10000 2.03 141.186 07:52 22.06.2019
5792 Clear -5 1043 27 10000 2.03 141.186 07:24 22.06.2019
5793 Clear 0 1043 55 10000 1 0 06:41 22.06.2019
5794 Clear -3 1043 32 10000 2.6 80 03:42 22.06.2019
5795 Clear -1 1042 36 10000 3.1 60 02:24 22.06.2019
5796 Clear 12 1041 11 10000 4.1 120 00:54 22.06.2019
5797 Clear 12 1041 11 10000 4.1 120 00:30 22.06.2019
5798 Clear 14 1041 9 10000 4.6 120 23:50 21.06.2019
5799 Clear 14 1041 9 10000 4.6 120 23:23 21.06.2019
5800 Clear 15 1041 8 10000 4.1 130 22:56 21.06.2019
5801 Clear 15 1041 8 10000 4.1 130 22:32 21.06.2019
5802 Clear 15 1041 8 10000 4.6 120 21:58 21.06.2019
5803 Clear 15 1041 8 10000 4.6 120 21:38 21.06.2019
5804 Clear 15 1041 8 10000 4.6 120 21:38 21.06.2019
5805 Clear 15 1042 11 10000 3.1 140 21:19 21.06.2019
5806 Clear 15 1042 11 10000 3.1 140 20:47 21.06.2019
5807 Clear 15 1042 11 10000 3.1 140 20:24 21.06.2019
5808 Clear 14 1043 11 10000 3.6 130 19:38 21.06.2019
5809 Clear 13 1044 13 10000 1 0 18:56 21.06.2019
5810 Clear 13 1044 13 10000 1 0 18:35 21.06.2019
5811 Clear 10 1045 21 10000 1.5 220 17:57 21.06.2019
5812 Clear 10 1045 21 10000 1.5 220 17:30 21.06.2019
5813 Clear 7 1045 26 10000 1 0 16:43 21.06.2019
5814 Clear 7 1045 26 10000 1 0 16:43 21.06.2019
5815 Clear 5 1044 25 10000 1 0 16:23 21.06.2019
5816 Clear 5 1044 25 10000 1 0 15:53 21.06.2019
5817 Clear 5 1044 25 10000 1 0 15:33 21.06.2019
5818 Clouds 2 1043 22 10000 1.5 360 14:53 21.06.2019
5819 Clouds 2 1043 22 10000 1.5 360 14:31 21.06.2019
5820 Clouds -6 1042 37 10000 1 0 13:59 21.06.2019
5821 Clouds -6 1042 37 10000 1 0 13:37 21.06.2019
5822 Clear -2 1042 28 10000 2.6 10 13:18 21.06.2019
5823 Clear -2 1042 28 10000 2.6 10 12:42 21.06.2019
5824 Clear -2 1042 28 10000 2.1 360 12:22 21.06.2019
5825 Clear -2 1042 28 10000 2.1 360 11:48 21.06.2019
5826 Clear -2 1042 28 10000 2.1 360 11:27 21.06.2019
5827 Clear -5 1041 45 10000 1 0 10:56 21.06.2019
5828 Clear -5 1041 45 10000 1 0 10:38 21.06.2019
5829 Clear -2 1042 42 10000 2.1 10 10:19 21.06.2019
5830 Clear -2 1042 42 10000 2.1 10 09:41 21.06.2019
5831 Clouds -4 1042 68 10000 1 0 09:21 21.06.2019
5832 Clouds -4 1042 68 10000 1 0 08:44 21.06.2019
5833 Clouds -4 1042 68 10000 1 0 08:24 21.06.2019
5834 Clouds -3 1042 79 10000 2.1 60 07:54 21.06.2019
5835 Clouds -3 1042 79 10000 2.1 60 07:36 21.06.2019
5836 Clouds -2 1042 86 10000 1.5 60 06:54 21.06.2019
5837 Clouds -3 1042 79 10000 1.5 120 06:21 21.06.2019
5838 Clouds -3 1042 79 10000 1.5 120 05:26 21.06.2019
5839 Clear -3 1043 42 10000 2.1 100 04:29 21.06.2019
5840 Clear 2 1042 29 10000 3.6 50 03:34 21.06.2019
5841 Clear 4 1041 44 10000 5.7 60 02:52 21.06.2019
5842 Clear 6 1041 38 10000 4.1 70 01:49 21.06.2019
5843 Clouds 11 1040 25 10000 5.7 100 00:55 21.06.2019
5844 Clouds 11 1040 25 10000 5.7 100 00:23 21.06.2019
5845 Clouds 13 1040 22 10000 5.7 130 23:49 20.06.2019
5846 Clouds 13 1040 22 10000 5.7 130 23:23 20.06.2019
5847 Clouds 15 1040 21 10000 5.7 130 22:58 20.06.2019
5848 Clouds 15 1040 21 10000 5.7 130 22:58 20.06.2019
5849 Clouds 15 1040 21 10000 5.7 130 22:38 20.06.2019
5850 Clouds 15 1040 24 10000 6.2 110 22:20 20.06.2019
5851 Clouds 15 1040 24 10000 6.2 110 21:48 20.06.2019
5852 Clouds 15 1041 19 10000 4.6 130 21:19 20.06.2019
5853 Clouds 15 1041 19 10000 4.6 130 20:48 20.06.2019
5854 Clouds 15 1041 19 10000 4.6 130 20:27 20.06.2019
5855 Clear 14 1042 26 10000 3.1 150 19:58 20.06.2019
5856 Clear 14 1042 26 10000 3.1 150 19:39 20.06.2019
5857 Clear 14 1043 26 10000 2.1 280 19:18 20.06.2019
5858 Clear 14 1043 26 10000 2.1 280 18:43 20.06.2019
5859 Clear 14 1043 26 10000 2.1 280 18:23 20.06.2019
5860 Clear 11 1043 37 10000 2.1 210 17:55 20.06.2019
5861 Clear 11 1043 37 10000 2.1 210 17:37 20.06.2019
5862 Clear 8 1043 42 10000 2.1 250 16:57 20.06.2019
5863 Clear 8 1043 42 10000 2.1 250 16:39 20.06.2019
5864 Clear 5 1043 41 10000 1 0 16:18 20.06.2019
5865 Clear 5 1043 41 10000 1 0 15:41 20.06.2019
5866 Clouds 5 1043 41 10000 1 0 15:22 20.06.2019
5867 Clouds 2 1042 79 10000 1 0 14:47 20.06.2019
5868 Clouds 2 1042 79 10000 1 0 14:23 20.06.2019
5869 Clouds -2 1041 86 10000 1 0 13:42 20.06.2019
5870 Clouds -2 1041 86 10000 1 0 13:42 20.06.2019
5871 Clouds -2 1041 86 10000 1 0 13:21 20.06.2019
5872 Clouds -4 1041 85 10000 1 0 12:50 20.06.2019
5873 Clouds -4 1041 85 10000 1 0 12:25 20.06.2019
5874 Fog -2 1040 92 4000 2.6 50 11:58 20.06.2019
5875 Fog -2 1040 92 4000 2.6 50 11:38 20.06.2019
5876 Fog -2 1040 92 4000 2.6 50 11:20 20.06.2019
5877 Clouds -4 1040 85 10000 2.1 100 10:41 20.06.2019
5878 Clouds -4 1040 85 10000 2.1 100 10:22 20.06.2019
5879 Clouds -3 1040 92 10000 2.6 90 09:40 20.06.2019
5880 Clouds -3 1040 92 10000 2.6 90 09:22 20.06.2019
5881 Fog -1 1041 100 4000 3.6 80 08:47 20.06.2019
5882 Fog -1 1041 100 4000 3.6 80 08:27 20.06.2019
5883 Fog 1 1041 91 4000 3.1 90 07:54 20.06.2019
5884 Fog 1 1041 91 4000 3.1 90 07:30 20.06.2019
5885 Fog 2 1041 100 3000 3.1 70 06:38 20.06.2019
5886 Fog 2 1041 100 2000 3.6 90 05:54 20.06.2019
5887 Clear 4 1040 64 10000 2.6 60 03:37 20.06.2019
5888 Clouds 10 1039 37 10000 5.1 120 00:34 20.06.2019
5889 Clouds 14 1038 20 10000 3.6 130 23:59 19.06.2019
5890 Clouds 14 1038 20 10000 3.6 130 23:41 19.06.2019
5891 Clouds 14 1038 20 10000 3.6 130 23:23 19.06.2019
5892 Clouds 14 1038 20 10000 3.6 130 23:23 19.06.2019
5893 Clouds 16 1038 18 10000 3.6 150 22:47 19.06.2019
5894 Clouds 16 1038 18 10000 3.6 150 22:20 19.06.2019
5895 Clouds 16 1039 17 10000 2.6 130 21:47 19.06.2019
5896 Clouds 16 1039 17 10000 2.6 130 21:26 19.06.2019
5897 Clouds 16 1040 17 10000 2.6 150 20:57 19.06.2019
5898 Clouds 16 1040 17 10000 2.6 150 20:37 19.06.2019
5899 Clouds 15 1041 18 10000 2.6 110 20:19 19.06.2019
5900 Clouds 15 1041 18 10000 2.6 110 19:41 19.06.2019
5901 Clear 14 1042 15 10000 2.1 130 19:21 19.06.2019
5902 Clear 14 1042 15 10000 2.1 130 18:49 19.06.2019
5903 Clear 12 1042 23 10000 2.1 200 18:21 19.06.2019
5904 Clear 12 1042 23 10000 2.1 200 17:38 19.06.2019
5905 Clear 9 1042 29 10000 1 0 17:18 19.06.2019
5906 Clear 9 1042 29 10000 1 0 16:40 19.06.2019
5907 Clear 8 1042 26 10000 1 0 16:21 19.06.2019
5908 Clear 8 1042 26 10000 1 0 15:54 19.06.2019
5909 Clear 8 1042 26 10000 1 0 15:28 19.06.2019
5910 Clear 5 1042 35 10000 2.1 350 14:57 19.06.2019
5911 Clear 5 1042 35 10000 2.1 350 14:57 19.06.2019
5912 Clear 5 1042 35 10000 2.1 350 14:38 19.06.2019
5913 Clear 5 1042 35 10000 2.1 350 14:20 19.06.2019
5914 Clear -1 1041 50 10000 2.6 30 13:43 19.06.2019
5915 Clouds 1 1040 47 10000 3.1 10 13:24 19.06.2019
5916 Clouds 1 1040 47 10000 3.1 10 12:44 19.06.2019
5917 Clear 1 1040 47 10000 3.1 10 12:22 19.06.2019
5918 Clear -1 1040 50 10000 1.5 20 11:56 19.06.2019
5919 Clear -1 1040 50 10000 1.5 20 11:37 19.06.2019
5920 Clear 1 1040 47 10000 2.6 10 11:19 19.06.2019
5921 Clear 1 1040 47 10000 2.6 10 10:43 19.06.2019
5922 Clear 1 1040 47 10000 2.6 10 10:43 19.06.2019
5923 Clear -4 1040 62 10000 1.5 20 10:24 19.06.2019
5924 Clear -4 1040 62 10000 1.5 20 09:42 19.06.2019
5925 Clear -2 1040 50 10000 1 0 09:22 19.06.2019
5926 Clear -2 1040 50 10000 1 0 08:51 19.06.2019
5927 Clear -2 1040 50 10000 1 0 08:29 19.06.2019
5928 Clear -2 1040 46 10000 1 0 07:49 19.06.2019
5929 Clear -2 1040 46 10000 1 0 07:30 19.06.2019
5930 Clear 2 1040 37 10000 1 0 06:55 19.06.2019
5931 Clear 2 1040 37 10000 1 0 06:30 19.06.2019
5932 Clear 5 1040 30 10000 2.6 30 05:50 19.06.2019
5933 Clear 6 1040 30 10000 3.1 20 04:41 19.06.2019
5934 Clear 6 1040 33 10000 3.1 10 03:36 19.06.2019
5935 Clear 7 1039 30 10000 3.1 20 02:28 19.06.2019
5936 Clear 9 1039 31 10000 2.6 280 01:27 19.06.2019
5937 Clear 12 1039 27 10000 4.1 260 00:43 19.06.2019
5938 Clouds 14 1038 24 10000 4.6 270 00:20 19.06.2019
5939 Clouds 14 1038 24 10000 4.6 270 23:53 18.06.2019
5940 Clouds 16 1038 19 10000 5.1 270 23:28 18.06.2019
5941 Clouds 16 1038 19 10000 5.1 270 22:49 18.06.2019
5942 Clouds 16 1038 19 10000 5.1 270 22:25 18.06.2019
5943 Clouds 16 1039 19 10000 4.6 290 21:58 18.06.2019
5944 Clouds 16 1039 19 10000 4.6 290 21:39 18.06.2019
5945 Clouds 15 1039 22 10000 3.6 290 21:21 18.06.2019
5946 Clouds 15 1039 22 10000 3.6 290 20:44 18.06.2019
5947 Clouds 15 1039 22 10000 3.6 290 20:25 18.06.2019
5948 Clouds 15 1040 22 10000 3.1 270 19:42 18.06.2019
5949 Clouds 15 1040 22 10000 3.1 270 19:24 18.06.2019
5950 Clouds 13 1041 24 10000 4.1 250 18:59 18.06.2019
5951 Clouds 13 1041 24 10000 4.1 250 18:39 18.06.2019
5952 Clouds 13 1042 26 10000 2.1 250 18:20 18.06.2019
5953 Clouds 13 1042 26 10000 2.1 250 17:39 18.06.2019
5954 Clouds 11 1042 23 10000 2.1 290 17:20 18.06.2019
5955 Clouds 11 1042 23 10000 2.1 290 16:43 18.06.2019
5956 Clouds 11 1042 23 10000 2.1 290 16:43 18.06.2019
5957 Clouds 10 1042 25 10000 1 0 16:24 18.06.2019
5958 Clouds 10 1042 25 10000 1 0 15:43 18.06.2019
5959 Clouds 10 1042 25 10000 1 0 15:25 18.06.2019
5960 Clouds 5 1041 41 10000 2.6 10 14:59 18.06.2019
5961 Clouds 5 1041 41 10000 2.6 10 14:41 18.06.2019
5962 Clouds 2 1040 51 10000 2.6 10 14:20 18.06.2019
5963 Clouds 2 1040 51 10000 2.6 10 13:52 18.06.2019
5964 Clouds 2 1040 51 10000 2.6 10 13:31 18.06.2019
5965 Clouds 1 1040 59 10000 1 0 12:48 18.06.2019
5966 Clouds 1 1040 59 10000 1 0 12:29 18.06.2019
5967 Clouds 0 1039 69 10000 2.1 10 11:58 18.06.2019
5968 Clouds 0 1039 69 10000 2.1 10 11:39 18.06.2019
5969 Clouds 0 1039 69 10000 2.1 10 11:20 18.06.2019
5970 Clouds 2 1039 55 10000 2.6 20 10:43 18.06.2019
5971 Clear 2 1040 59 10000 2.1 20 10:22 18.06.2019
5972 Clear 2 1040 59 10000 2.1 20 09:52 18.06.2019
5973 Clouds 2 1040 59 10000 2.1 20 09:25 18.06.2019
5974 Clouds 3 1040 64 10000 3.1 10 08:58 18.06.2019
5975 Clouds 3 1040 64 10000 3.1 10 08:58 18.06.2019
5976 Clouds 3 1040 64 10000 3.1 10 08:39 18.06.2019
5977 Clouds 3 1040 64 10000 3.1 10 08:20 18.06.2019
5978 Clouds 2 1040 69 10000 2.1 30 07:27 18.06.2019
5979 Clouds 0 1040 78 10000 2.1 360 06:57 18.06.2019
5980 Clouds 2 1041 64 10000 2.6 10 05:27 18.06.2019
5981 Clouds 2 1041 64 10000 2.6 10 05:27 18.06.2019
5982 Clouds 2 1041 93 10000 2.6 70 04:22 18.06.2019
5983 Clouds 5 1039 48 10000 2.1 60 02:49 18.06.2019
5984 Clouds 9 1038 39 10000 2.6 330 01:28 18.06.2019
5985 Clouds 12 1038 34 10000 5.1 300 00:58 18.06.2019
5986 Clouds 12 1038 34 10000 5.1 300 00:39 18.06.2019
5987 Clouds 13 1038 32 10000 7.2 280 00:18 18.06.2019
5988 Clouds 13 1038 32 10000 7.2 280 23:38 17.06.2019
5989 Clouds 13 1038 32 10000 7.2 280 23:38 17.06.2019
5990 Clouds 14 1039 30 10000 6.7 250 23:18 17.06.2019
5991 Clouds 14 1039 30 10000 6.7 250 22:41 17.06.2019
5992 Clouds 14 1039 30 10000 6.7 250 22:21 17.06.2019
5993 Clouds 14 1039 33 10000 6.2 280 21:46 17.06.2019
5994 Clouds 14 1040 35 10000 6.7 280 21:24 17.06.2019
5995 Clouds 14 1039 33 10000 6.2 280 21:24 17.06.2019
5996 Clouds 14 1040 35 10000 6.7 280 20:44 17.06.2019
5997 Clouds 14 1040 35 10000 6.7 280 20:44 17.06.2019
5998 Clouds 14 1040 35 10000 6.7 280 20:25 17.06.2019
5999 Clouds 13 1041 44 10000 4.1 300 19:58 17.06.2019
6000 Clouds 13 1041 44 10000 4.1 300 19:39 17.06.2019
6001 Clouds 12 1042 54 10000 4.1 290 19:21 17.06.2019
6002 Clouds 12 1042 54 10000 4.1 290 18:39 17.06.2019
6003 Clouds 9 1043 66 10000 3.6 240 18:18 17.06.2019
6004 Clouds 9 1043 66 10000 3.6 240 17:58 17.06.2019
6005 Clouds 9 1043 66 10000 3.6 240 17:39 17.06.2019
6006 Clouds 8 1043 70 10000 1 0 17:20 17.06.2019
6007 Clouds 8 1043 70 10000 1 0 16:42 17.06.2019
6008 Clouds 8 1043 70 10000 1 0 16:24 17.06.2019
6009 Clouds 7 1042 75 9000 1 0 15:45 17.06.2019
6010 Clouds 3 1041 100 10000 1 0 15:20 17.06.2019
6011 Clouds 3 1041 100 10000 1 0 14:58 17.06.2019
6012 Clouds 3 1041 100 10000 1 0 14:40 17.06.2019
6013 Clouds 1 1040 100 10000 1 0 14:21 17.06.2019
6014 Clouds 1 1040 100 10000 1 0 13:42 17.06.2019
6015 Fog 3 1040 93 4000 3.6 90 13:21 17.06.2019
6016 Fog 3 1040 93 4000 3.6 90 12:46 17.06.2019
6017 Rain 3 1040 93 4000 1 0 12:22 17.06.2019
6018 Rain 3 1040 93 4000 1 0 11:45 17.06.2019
6019 Rain 3 1040 93 4000 1 0 11:26 17.06.2019
6020 Rain 3 1040 93 3000 1.5 60 10:49 17.06.2019
6021 Rain 3 1040 93 3000 1.5 60 10:30 17.06.2019
6022 Fog 3 1040 93 3000 2.1 80 09:57 17.06.2019
6023 Fog 3 1040 93 3000 2.1 80 09:39 17.06.2019
6024 Fog 2 1041 93 3000 1 0 09:20 17.06.2019
6025 Fog 2 1041 93 3000 1 0 08:39 17.06.2019
6026 Fog 2 1042 93 3000 1 0 08:21 17.06.2019
6027 Fog 2 1042 93 3000 1 0 07:40 17.06.2019
6028 Rain 13 1020 100 4000 7.7 180 07:20 17.06.2019
6029 Rain 13 1020 100 4000 7.7 180 06:29 17.06.2019
6030 Rain 4 1041 93 4000 2.1 150 05:31 17.06.2019
6031 Rain 4 1041 93 4000 2.1 150 04:33 17.06.2019
6032 Fog 4 1041 93 4000 4.1 170 03:33 17.06.2019
6033 Fog 5 1040 93 4000 3.1 140 02:49 17.06.2019
6034 Fog 5 1040 93 4000 3.1 140 02:31 17.06.2019
6035 Fog 5 1038 93 4000 4.6 120 01:38 17.06.2019
6036 Clouds 7 1037 75 10000 4.1 70 00:58 17.06.2019
6037 Clouds 7 1037 75 10000 4.1 70 00:38 17.06.2019
6038 Clouds 8 1037 65 10000 4.6 80 00:19 17.06.2019
6039 Clouds 8 1037 65 10000 4.6 80 23:40 16.06.2019
6040 Clouds 9 1036 57 10000 4.6 90 23:20 16.06.2019
6041 Clouds 9 1036 57 10000 4.6 90 22:45 16.06.2019
6042 Clouds 9 1037 70 6000 6.2 80 22:21 16.06.2019
6043 Clouds 9 1037 70 6000 6.2 80 21:58 16.06.2019
6044 Clouds 9 1037 70 6000 6.2 80 21:40 16.06.2019
6045 Clouds 8 1038 70 6000 6.7 110 21:21 16.06.2019
6046 Clouds 8 1038 70 6000 6.7 110 20:40 16.06.2019
6047 Clouds 9 1038 66 10000 5.7 110 20:19 16.06.2019
6048 Clouds 9 1038 66 10000 5.7 110 19:58 16.06.2019
6049 Clouds 9 1038 66 10000 5.7 110 19:39 16.06.2019
6050 Clouds 9 1038 66 10000 5.7 110 19:21 16.06.2019
6051 Clouds 8 1038 65 10000 8.2 80 18:42 16.06.2019
6052 Clouds 7 1040 70 6000 2.6 160 18:21 16.06.2019
6053 Clouds 7 1040 70 6000 2.6 160 17:58 16.06.2019
6054 Clouds 7 1040 70 6000 2.6 160 17:40 16.06.2019
6055 Clouds 7 1040 70 6000 3.6 130 17:21 16.06.2019
6056 Clouds 7 1040 70 6000 3.6 130 16:55 16.06.2019
6057 Clouds 7 1040 70 6000 3.6 130 16:37 16.06.2019
6058 Clouds 6 1040 48 10000 4.6 70 16:18 16.06.2019
6059 Clouds 6 1040 48 10000 4.6 70 15:40 16.06.2019
6060 Clouds 4 1039 80 10000 3.6 50 15:21 16.06.2019
6061 Clouds 4 1039 80 10000 3.6 50 14:40 16.06.2019
6062 Clouds 2 1039 93 10000 1 0 14:21 16.06.2019
6063 Clouds 2 1039 93 10000 1 0 13:50 16.06.2019
6064 Clouds 3 1039 86 10000 4.1 300 13:25 16.06.2019
6065 Clouds 3 1039 86 10000 4.1 300 12:47 16.06.2019
6066 Clouds 4 1039 80 10000 1 0 12:24 16.06.2019
6067 Clouds 4 1039 80 10000 1 0 11:59 16.06.2019
6068 Clouds 4 1039 80 10000 1 0 11:38 16.06.2019
6069 Clouds 5 1038 91 10000 2.6 280 11:19 16.06.2019
6070 Clouds 5 1038 91 10000 2.6 280 10:45 16.06.2019
6071 Clouds 5 1038 91 10000 2.6 310 10:20 16.06.2019
6072 Clouds 5 1038 91 10000 2.6 310 09:46 16.06.2019
6073 Clouds 5 1038 82 10000 2.6 310 09:25 16.06.2019
6074 Clouds 5 1038 75 10000 3.1 330 08:50 16.06.2019
6075 Clouds 5 1039 75 10000 2.1 350 08:21 16.06.2019
6076 Clouds 5 1039 75 10000 2.1 350 07:49 16.06.2019
6077 Clouds 5 1039 75 10000 2.1 350 07:31 16.06.2019
6078 Clouds 4 1039 80 10000 2.1 10 06:55 16.06.2019
6079 Clouds 4 1039 80 10000 2.1 230 05:57 16.06.2019
6080 Clouds 4 1039 80 10000 2.1 230 05:24 16.06.2019
6081 Clouds 4 1039 77 10000 2.1 110 04:22 16.06.2019
6082 Clouds 4 1039 77 10000 2.1 110 03:43 16.06.2019
6083 Clouds 5 1038 75 10000 3.6 180 03:22 16.06.2019
6084 Clouds 8 1037 65 10000 3.1 230 01:49 16.06.2019
6085 Clouds 8 1037 65 10000 3.1 230 01:30 16.06.2019
6086 Clouds 9 1036 49 10000 2.6 310 00:44 16.06.2019
6087 Clouds 9 1036 49 10000 2.6 310 00:25 16.06.2019
6088 Clouds 9 1035 57 10000 1.5 70 23:58 15.06.2019
6089 Clouds 9 1035 57 10000 1.5 70 23:39 15.06.2019
6090 Clouds 10 1035 53 10000 4.6 110 23:20 15.06.2019
6091 Clouds 10 1035 53 10000 4.6 110 22:44 15.06.2019
6092 Clouds 10 1036 57 10000 5.1 100 22:25 15.06.2019
6093 Clouds 10 1036 57 10000 5.1 100 21:45 15.06.2019
6094 Clouds 13 1036 30 10000 2.1 80 21:21 15.06.2019
6095 Clouds 13 1036 29 10000 2.1 80 20:46 15.06.2019
6096 Clouds 11 1038 50 10000 2.6 280 20:23 15.06.2019
6097 Clouds 11 1038 50 10000 2.6 280 19:50 15.06.2019
6098 Clouds 11 1038 50 10000 2.6 280 19:28 15.06.2019
6099 Clouds 11 1039 53 10000 4.1 260 18:45 15.06.2019
6100 Clouds 10 1039 53 10000 2.6 270 18:26 15.06.2019
6101 Clouds 10 1039 53 10000 2.6 270 17:47 15.06.2019
6102 Clouds 10 1039 53 10000 2.6 270 17:29 15.06.2019
6103 Clouds 9 1040 49 10000 1 0 16:50 15.06.2019
6104 Clouds 6 1040 56 10000 0.66 328.517 16:22 15.06.2019
6105 Clouds 6 1040 56 10000 0.66 328.517 15:58 15.06.2019
6106 Clouds 6 1040 56 10000 0.66 328.517 15:40 15.06.2019
6107 Clouds 4 1039 55 10000 1 0 15:20 15.06.2019
6108 Clouds 4 1039 55 10000 1 0 14:38 15.06.2019
6109 Clouds 1 1038 64 10000 0.5 0 14:18 15.06.2019
6110 Clouds 1 1038 64 10000 0.5 0 14:18 15.06.2019
6111 Clouds 1 1038 64 10000 0.5 0 13:43 15.06.2019
6112 Clouds 3 1038 59 10000 1 0 13:20 15.06.2019
6113 Clouds 3 1038 59 10000 1 0 12:57 15.06.2019
6114 Clouds 2 1038 64 10000 2.1 30 12:37 15.06.2019
6115 Clouds 2 1038 64 10000 2.1 30 12:19 15.06.2019
6116 Clouds 2 1038 64 10000 2.1 30 11:41 15.06.2019
6117 Clouds 2 1038 64 10000 2.1 30 11:41 15.06.2019
6118 Clouds 3 1038 59 10000 1.5 360 11:23 15.06.2019
6119 Clouds 3 1038 59 10000 1.5 360 10:42 15.06.2019
6120 Clouds 2 1038 64 10000 1 0 10:24 15.06.2019
6121 Clouds 2 1038 64 10000 1 0 09:47 15.06.2019
6122 Clouds 3 1039 64 10000 1.5 10 09:25 15.06.2019
6123 Clouds 3 1039 64 10000 1.5 10 08:54 15.06.2019
6124 Clouds 3 1039 64 10000 1.5 10 08:33 15.06.2019
6125 Clouds 3 1039 59 10000 2.1 60 07:52 15.06.2019
6126 Clouds 3 1039 59 10000 2.1 60 07:25 15.06.2019
6127 Clouds 3 1040 74 10000 1.09 140.033 06:44 15.06.2019
6128 Clouds 6 1039 70 10000 2.1 300 06:19 15.06.2019
6129 Clouds 6 1039 70 10000 2.1 300 05:27 15.06.2019
6130 Clouds 7 1039 39 10000 1.36 108.595 04:44 15.06.2019
6131 Clouds 7 1039 45 10000 2.1 70 03:47 15.06.2019
6132 Clouds 8 1037 33 10000 3.1 60 02:56 15.06.2019
6133 Clouds 9 1037 34 10000 2.6 60 02:23 15.06.2019
6134 Clouds 9 1037 34 10000 2.6 60 01:49 15.06.2019
6135 Clouds 12 1037 32 10000 3.6 80 00:58 15.06.2019
6136 Clouds 12 1037 32 10000 3.6 80 00:39 15.06.2019
6137 Clouds 14 1036 28 10000 3.6 80 23:55 14.06.2019
6138 Clouds 14 1036 28 10000 3.6 80 23:26 14.06.2019
6139 Clouds 15 1037 26 10000 2.6 70 22:46 14.06.2019
6140 Clouds 16 1037 25 10000 2.6 70 22:23 14.06.2019
6141 Clouds 16 1037 25 10000 2.6 70 22:00 14.06.2019
6142 Clouds 16 1037 25 10000 2.6 70 21:40 14.06.2019
6143 Clouds 17 1038 23 10000 2.6 130 21:21 14.06.2019
6144 Clouds 17 1038 23 10000 2.6 130 20:42 14.06.2019
6145 Clouds 16 1039 26 10000 1.5 120 20:18 14.06.2019
6146 Clouds 16 1039 26 10000 1.5 120 19:54 14.06.2019
6147 Clouds 16 1039 26 10000 1.5 120 19:23 14.06.2019
6148 Clouds 16 1039 26 10000 1.5 120 18:59 14.06.2019
6149 Clouds 15 1040 28 10000 1.5 130 18:41 14.06.2019
6150 Clouds 13 1041 30 10000 2.1 130 18:22 14.06.2019
6151 Clouds 13 1041 30 10000 2.1 130 17:48 14.06.2019
6152 Clouds 13 1041 30 10000 2.1 130 17:30 14.06.2019
6153 Clouds 11 1041 37 10000 2.1 170 16:58 14.06.2019
6154 Clouds 11 1041 37 10000 2.1 170 16:40 14.06.2019
6155 Clouds 11 1041 37 10000 2.1 170 16:40 14.06.2019
6156 Clouds 8 1041 45 10000 1 0 16:19 14.06.2019
6157 Clouds 8 1041 45 10000 1 0 15:40 14.06.2019
6158 Clouds 5 1040 56 10000 2.1 30 15:22 14.06.2019
6159 Clouds 5 1040 56 10000 2.1 30 14:54 14.06.2019
6160 Clouds 5 1040 56 10000 2.1 30 14:34 14.06.2019
6161 Clouds 0 1040 73 10000 1 0 13:56 14.06.2019
6162 Clouds 0 1040 73 10000 1 0 13:56 14.06.2019
6163 Clouds 0 1040 73 10000 1 0 13:56 14.06.2019
6164 Clouds 0 1040 73 10000 1 0 13:56 14.06.2019
6165 Clouds 0 1040 76 10000 1 0 13:37 14.06.2019
6166 Clouds 3 1039 59 10000 2.6 10 13:19 14.06.2019
6167 Clouds 3 1039 59 10000 2.6 10 12:41 14.06.2019
6168 Clear 3 1039 64 10000 2.6 10 12:23 14.06.2019
6169 Clear 3 1039 64 10000 2.6 10 11:47 14.06.2019
6170 Clear 3 1039 64 10000 2.6 10 11:24 14.06.2019
6171 Clear 0 1039 87 10000 1 0 10:58 14.06.2019
6172 Clear 0 1039 87 10000 1 0 10:39 14.06.2019
6173 Clear 1 1039 87 10000 1 0 10:18 14.06.2019
6174 Clouds 1 1039 85 10000 1 0 09:39 14.06.2019
6175 Clouds 1 1039 85 10000 1 0 09:39 14.06.2019
6176 Fog -1 1040 100 4000 3.1 70 09:20 14.06.2019
6177 Fog -1 1040 100 4000 3.1 70 08:41 14.06.2019
6178 Fog 0 1040 84 4000 1.5 40 08:18 14.06.2019
6179 Fog 0 1040 84 4000 1.5 40 07:46 14.06.2019
6180 Clouds 2 1041 80 10000 2.1 90 07:19 14.06.2019
6181 Clear 2 1041 80 10000 2.1 90 06:31 14.06.2019
6182 Clear 3 1041 86 10000 3.1 70 05:55 14.06.2019
6183 Clear 3 1041 86 10000 3.1 70 05:55 14.06.2019
6184 Clouds 2 1040 69 10000 2.6 60 04:57 14.06.2019
6185 Clouds 2 1040 69 10000 2.6 60 04:36 14.06.2019
6186 Clouds 7 1040 48 10000 1.5 10 03:49 14.06.2019
6187 -273 0 0 0 0 0 03:24 14.06.2019
6188 Clouds 5 1039 93 10000 2.1 80 02:47 14.06.2019
6189 Clouds 10 1038 37 10000 2.1 270 01:57 14.06.2019
6190 Clouds 13 1038 30 10000 4.6 260 00:49 14.06.2019
6191 Clouds 16 1038 23 10000 4.1 300 00:22 14.06.2019
6192 Clouds 16 1038 23 10000 4.1 300 23:53 13.06.2019
6193 Clouds 16 1038 23 10000 4.1 300 23:27 13.06.2019
6194 Clouds 17 1038 23 10000 3.6 260 22:58 13.06.2019
6195 Clouds 17 1038 23 10000 3.6 260 22:38 13.06.2019
6196 Clouds 17 1038 21 10000 3.1 300 22:19 13.06.2019
6197 Clouds 17 1038 21 10000 3.1 300 21:38 13.06.2019
6198 Clouds 17 1038 21 10000 3.1 300 21:38 13.06.2019
6199 Clouds 17 1040 21 10000 3.6 260 21:19 13.06.2019
6200 Clouds 17 1040 21 10000 3.6 260 20:45 13.06.2019
6201 Clouds 16 1041 23 10000 4.1 270 20:21 13.06.2019
6202 Clouds 16 1041 23 10000 4.1 270 19:55 13.06.2019
6203 Clouds 16 1041 23 10000 4.1 270 19:36 13.06.2019
6204 Clouds 14 1042 24 10000 2.1 200 19:18 13.06.2019
6205 Clouds 14 1042 24 10000 2.1 200 18:43 13.06.2019
6206 Clouds 14 1042 24 10000 2.1 200 18:25 13.06.2019
6207 Clouds 13 1043 32 10000 2.6 220 17:57 13.06.2019
6208 Clouds 13 1043 32 10000 2.6 220 17:57 13.06.2019
6209 Clouds 13 1043 32 10000 2.6 220 17:38 13.06.2019
6210 Clouds 11 1043 37 10000 2.6 250 17:19 13.06.2019
6211 Clouds 11 1043 37 10000 2.6 250 16:44 13.06.2019
6212 Clouds 8 1042 49 9000 1 0 16:21 13.06.2019
6213 Clouds 8 1042 49 9000 1 0 15:43 13.06.2019
6214 Clouds 6 1041 52 10000 2.1 360 15:24 13.06.2019
6215 Clouds 6 1041 52 10000 2.1 360 14:56 13.06.2019
6216 Clouds 6 1041 52 10000 2.1 360 14:31 13.06.2019
6217 Clouds 6 1041 52 10000 2.1 360 14:31 13.06.2019
6218 Clouds 2 1040 64 10000 1.5 20 13:59 13.06.2019
6219 Clouds 2 1040 64 10000 1.5 20 13:40 13.06.2019
6220 Clouds 2 1040 64 10000 3.6 10 13:21 13.06.2019
6221 Clouds 2 1040 64 10000 3.6 10 12:42 13.06.2019
6222 Clouds 1 1040 69 10000 0.84 223.399 12:22 13.06.2019
6223 Clouds 1 1040 69 10000 0.84 223.399 11:48 13.06.2019
6224 Clouds 1 1040 69 10000 0.84 223.399 11:30 13.06.2019
6225 Clouds 2 1039 64 10000 1.5 10 10:55 13.06.2019
6226 Clouds 2 1039 64 10000 1.5 10 10:55 13.06.2019
6227 Clouds 2 1039 64 10000 1.5 10 10:37 13.06.2019
6228 Clouds 2 1040 89 10000 1.5 30 10:18 13.06.2019
6229 Clouds 2 1040 89 10000 1.5 30 09:42 13.06.2019
6230 Fog 1 1040 81 4000 2.6 90 09:22 13.06.2019
6231 Fog 1 1040 81 4000 2.6 90 08:44 13.06.2019
6232 Fog 1 1040 86 4000 2.6 50 08:23 13.06.2019
6233 Fog 1 1040 86 4000 2.6 50 07:50 13.06.2019
6234 Fog 1 1040 86 4000 2.6 50 07:25 13.06.2019
6235 Clouds 3 1040 74 10000 1 0 06:45 13.06.2019
6236 Clouds 1 1040 86 10000 3.1 70 06:22 13.06.2019
6237 Clouds 1 1040 86 10000 3.1 70 05:54 13.06.2019
6238 Clouds 1 1040 86 10000 3.1 70 05:36 13.06.2019
6239 Clouds 2 1040 69 10000 2.1 70 04:55 13.06.2019
6240 Clouds 10 1038 62 10000 2.1 260 02:23 13.06.2019
6241 Clouds 13 1037 35 10000 3.1 280 00:47 13.06.2019
6242 Clouds 16 1037 26 10000 4.6 260 23:49 12.06.2019
6243 Clouds 18 1037 20 10000 3.6 290 23:22 12.06.2019
6244 Clouds 18 1037 20 10000 3.6 290 22:43 12.06.2019
6245 Clouds 18 1037 20 10000 3.6 290 22:24 12.06.2019
6246 Clouds 18 1037 18 10000 1.5 120 21:56 12.06.2019
6247 Clouds 18 1037 18 10000 1.5 120 21:36 12.06.2019
6248 Clouds 17 1039 20 10000 2.6 240 21:18 12.06.2019
6249 Clouds 17 1039 20 10000 2.6 240 20:37 12.06.2019
6250 Clouds 17 1039 20 10000 2.6 240 20:37 12.06.2019
6251 Clouds 15 1040 22 10000 3.1 250 20:19 12.06.2019
6252 Clouds 15 1040 22 10000 3.1 250 19:42 12.06.2019
6253 Clouds 15 1041 21 10000 3.6 210 19:23 12.06.2019
6254 Clouds 15 1041 21 10000 3.6 210 18:55 12.06.2019
6255 Clouds 15 1041 21 10000 3.6 210 18:37 12.06.2019
6256 Clouds 12 1041 30 10000 3.1 220 18:18 12.06.2019
6257 Clouds 12 1041 30 10000 3.1 220 17:43 12.06.2019
6258 Clear 11 1041 34 9000 3.1 220 17:20 12.06.2019
6259 Clear 11 1041 34 9000 3.1 220 16:42 12.06.2019
6260 Clear 10 1041 31 10000 2.1 40 16:23 12.06.2019
6261 Clear 10 1041 31 10000 2.1 40 15:52 12.06.2019
6262 Clear 10 1041 31 10000 2.1 40 15:32 12.06.2019
6263 Clear 6 1040 41 10000 2.6 10 14:46 12.06.2019
6264 Clear 6 1040 41 10000 2.6 10 14:27 12.06.2019
6265 Clear 1 1040 69 10000 1.5 40 13:43 12.06.2019
6266 Clear -3 1039 73 10000 1.5 80 13:20 12.06.2019
6267 Clear -3 1039 73 10000 1.5 80 12:58 12.06.2019
6268 Clear -3 1039 73 10000 1.5 80 12:38 12.06.2019
6269 Clear -3 1039 73 10000 1.5 80 12:38 12.06.2019
6270 Clear 1 1039 59 10000 2.1 20 12:19 12.06.2019
6271 Clear 1 1039 59 10000 2.1 20 12:19 12.06.2019
6272 Clear 1 1039 59 10000 2.1 20 12:19 12.06.2019
6273 Clear 1 1039 59 10000 2.1 20 11:46 12.06.2019
6274 Clear 1 1039 59 10000 2.1 20 11:27 12.06.2019
6275 Clear 4 1039 48 10000 3.1 10 10:51 12.06.2019
6276 Clear 4 1039 48 10000 3.1 10 10:29 12.06.2019
6277 Clear 3 1039 51 10000 2.6 20 09:45 12.06.2019
6278 Clouds 3 1039 51 10000 2.6 20 09:23 12.06.2019
6279 Clouds 3 1039 55 10000 2.6 20 08:56 12.06.2019
6280 Clouds 3 1039 55 10000 2.6 20 08:56 12.06.2019
6281 Clouds -1 1039 80 10000 2.6 70 08:23 12.06.2019
6282 Clouds -1 1039 80 10000 2.6 70 07:46 12.06.2019
6283 Clouds 2 1039 80 10000 2.6 100 06:54 12.06.2019
6284 Clear 0 1039 80 10000 3.6 70 05:27 12.06.2019
6285 Clear 1 1038 59 10000 2.6 90 04:54 12.06.2019
6286 Clouds 10 1037 21 10000 2.1 340 01:44 12.06.2019
6287 Clouds 12 1037 18 10000 3.6 290 00:40 12.06.2019
6288 Clouds 12 1037 18 10000 3.6 290 00:40 12.06.2019
6289 Clouds 15 1037 16 10000 4.1 260 23:48 11.06.2019
6290 Clouds 15 1037 16 10000 4.1 260 23:30 11.06.2019
6291 Clouds 17 1037 13 10000 4.1 270 22:44 11.06.2019
6292 Clouds 17 1037 13 10000 3.1 240 22:21 11.06.2019
6293 Clouds 17 1037 13 10000 3.1 240 21:57 11.06.2019
6294 Clouds 17 1037 13 10000 3.1 240 21:38 11.06.2019
6295 Clouds 16 1038 11 10000 2.6 310 21:20 11.06.2019
6296 Clouds 16 1038 11 10000 2.6 310 20:48 11.06.2019
6297 Clouds 15 1040 11 10000 3.1 240 20:26 11.06.2019
6298 Clouds 15 1040 11 10000 3.1 240 19:56 11.06.2019
6299 Clouds 15 1040 11 10000 3.1 240 19:35 11.06.2019
6300 Clouds 15 1040 8 10000 2.1 220 18:58 11.06.2019
6301 Clouds 15 1040 8 10000 2.1 220 18:23 11.06.2019
6302 Clouds 15 1040 8 10000 2.1 220 18:23 11.06.2019
6303 Clouds 13 1041 10 10000 1 0 17:42 11.06.2019
6304 Clouds 11 1041 18 10000 1 0 17:24 11.06.2019
6305 Clouds 11 1041 18 10000 1 0 16:59 11.06.2019
6306 Clouds 11 1041 18 10000 1 0 16:40 11.06.2019
6307 Clouds 9 1041 23 10000 1 0 16:22 11.06.2019
6308 Clouds 9 1041 23 10000 1 0 15:42 11.06.2019
6309 Clouds 9 1041 23 10000 1 0 15:24 11.06.2019
6310 Clouds 4 1040 32 10000 2.6 10 14:52 11.06.2019
6311 -273 0 0 0 0 0 14:23 11.06.2019
6312 Clouds -1 1040 42 10000 0.88 260.527 14:23 11.06.2019
6313 Clouds -1 1040 42 10000 0.88 260.527 13:55 11.06.2019
6314 Clouds -1 1040 42 10000 0.88 260.527 13:36 11.06.2019
6315 Clouds 1 1039 37 10000 2.6 10 13:18 11.06.2019
6316 Clouds 1 1039 37 10000 2.6 10 12:40 11.06.2019
6317 Clear 1 1039 43 10000 2.6 360 12:20 11.06.2019
6318 Clear 1 1039 43 10000 2.6 360 11:40 11.06.2019
6319 Clear 2 1039 47 10000 2.6 10 11:20 11.06.2019
6320 Clear 2 1039 47 10000 2.6 10 10:46 11.06.2019
6321 Clear 2 1039 47 10000 2.6 10 10:26 11.06.2019
6322 Clear 2 1039 47 10000 2.6 10 10:26 11.06.2019
6323 Clear 2 1039 47 10000 1.5 10 09:49 11.06.2019
6324 Clear 2 1039 47 10000 2.1 20 09:24 11.06.2019
6325 Clear 2 1039 47 10000 2.1 20 08:46 11.06.2019
6326 Clear 2 1039 47 10000 2.1 20 08:28 11.06.2019
6327 Clear -2 1039 58 10000 1.5 30 07:46 11.06.2019
6328 Clear -2 1039 58 10000 1.5 30 07:27 11.06.2019
6329 Clear -1 1039 54 10000 0.89 155.604 06:50 11.06.2019
6330 Clear 2 1039 59 10000 3.1 70 04:55 11.06.2019
6331 Clear 3 1039 40 10000 2.1 40 03:42 11.06.2019
6332 Clear 10 1038 25 10000 2.6 10 01:41 11.06.2019
6333 Clouds 12 1037 22 10000 4.6 300 00:47 11.06.2019
6334 Clouds 14 1037 19 10000 6.7 280 23:48 10.06.2019
6335 Clouds 14 1037 19 10000 6.7 280 23:25 10.06.2019
6336 Clouds 15 1037 18 10000 6.2 280 22:56 10.06.2019
6337 Clouds 15 1037 18 10000 6.2 280 22:37 10.06.2019
6338 Clouds 15 1038 16 10000 6.2 280 22:19 10.06.2019
6339 Clouds 15 1038 16 10000 6.2 280 21:40 10.06.2019
6340 Clouds 15 1038 15 10000 6.7 290 21:22 10.06.2019
6341 Clouds 15 1038 15 10000 6.7 290 20:46 10.06.2019
6342 Clouds 15 1038 15 10000 6.7 290 20:25 10.06.2019
6343 Clouds 15 1040 15 10000 6.7 290 19:55 10.06.2019
6344 Clouds 15 1040 15 10000 6.7 290 19:36 10.06.2019
6345 Clear 13 1040 16 10000 3.6 260 19:18 10.06.2019
6346 Clear 13 1040 16 10000 3.6 260 18:54 10.06.2019
6347 Clear 13 1040 16 10000 3.6 260 18:36 10.06.2019
6348 Clear 13 1041 16 10000 2.1 230 18:18 10.06.2019
6349 Clear 13 1041 16 10000 2.1 230 17:39 10.06.2019
6350 Clear 10 1041 21 10000 2.1 230 17:19 10.06.2019
6351 Clear 10 1041 21 10000 2.1 230 16:42 10.06.2019
6352 Clear 10 1041 21 10000 2.1 230 16:24 10.06.2019
6353 Clear 9 1041 23 10000 1 0 15:42 10.06.2019
6354 Clear 5 1040 32 10000 2.6 20 15:24 10.06.2019
6355 Clear 5 1040 32 10000 2.6 20 14:55 10.06.2019
6356 Clear 5 1040 32 10000 2.6 20 14:36 10.06.2019
6357 Clear 2 1039 37 10000 3.6 10 14:18 10.06.2019
6358 Clear 2 1039 37 10000 3.6 10 13:42 10.06.2019
6359 Clear 1 1039 40 10000 3.1 20 13:21 10.06.2019
6360 Clouds 1 1039 40 10000 3.1 20 12:42 10.06.2019
6361 Clear 2 1039 34 10000 3.1 10 12:23 10.06.2019
6362 Clear 2 1039 34 10000 3.1 10 11:44 10.06.2019
6363 Clear 2 1039 34 10000 3.1 10 11:24 10.06.2019
6364 Clear 2 1039 40 10000 2.1 350 10:43 10.06.2019
6365 Clear 3 1039 34 10000 3.6 10 10:21 10.06.2019
6366 Clear 3 1039 34 10000 3.6 10 09:57 10.06.2019
6367 Clear 3 1039 34 10000 3.6 10 09:38 10.06.2019
6368 Clear 3 1039 34 10000 3.6 10 09:19 10.06.2019
6369 Clear 3 1039 34 10000 3.6 10 08:44 10.06.2019
6370 Clear 3 1039 40 10000 2.6 10 08:23 10.06.2019
6371 Clear 4 1039 44 10000 2.6 10 06:56 10.06.2019
6372 Clear 1 1039 59 10000 3.6 70 04:29 10.06.2019
6373 Clear 9 1038 23 10000 2.1 310 01:58 10.06.2019
6374 Clear 9 1038 23 10000 2.1 310 01:26 10.06.2019
6375 Clear 12 1038 17 10000 4.1 270 00:55 10.06.2019
6376 Clouds 14 1038 12 10000 6.2 290 00:19 10.06.2019
6377 Clouds 14 1038 12 10000 6.2 290 23:42 09.06.2019
6378 Clouds 15 1037 13 10000 5.7 290 23:19 09.06.2019
6379 Clouds 15 1037 13 10000 5.7 290 22:43 09.06.2019
6380 Clouds 15 1037 13 10000 5.7 290 22:25 09.06.2019
6381 Clouds 15 1038 14 10000 5.7 280 21:43 09.06.2019
6382 Clouds 15 1038 14 10000 4.6 300 21:23 09.06.2019
6383 Clouds 15 1038 14 10000 4.6 300 20:43 09.06.2019
6384 Clouds 15 1040 14 10000 3.6 270 20:23 09.06.2019
6385 Clouds 15 1040 14 10000 3.6 270 19:47 09.06.2019
6386 Clouds 14 1040 16 10000 3.1 280 19:19 09.06.2019
6387 Clouds 14 1040 16 10000 3.1 280 18:58 09.06.2019
6388 Clouds 14 1040 16 10000 3.1 280 18:58 09.06.2019
6389 Clouds 14 1040 16 10000 3.1 280 18:40 09.06.2019
6390 Clear 11 1041 21 10000 2.6 210 18:22 09.06.2019
6391 Clear 11 1041 21 10000 2.6 210 17:46 09.06.2019
6392 Clear 11 1041 21 10000 2.6 210 17:27 09.06.2019
6393 Clear 9 1041 29 10000 2.6 230 16:54 09.06.2019
6394 Clear 9 1041 29 10000 2.6 230 16:36 09.06.2019
6395 Clear 7 1040 28 10000 1 0 16:18 09.06.2019
6396 Clear 7 1040 28 10000 1 0 15:42 09.06.2019
6397 Clear 3 1040 44 10000 1 0 15:20 09.06.2019
6398 Clear 3 1040 44 10000 1 0 14:43 09.06.2019
6399 Clear -5 1039 67 10000 2.1 40 14:21 09.06.2019
6400 Clear -5 1039 67 10000 2.1 40 13:50 09.06.2019
6401 Clear -6 1038 79 10000 2.1 50 13:22 09.06.2019
6402 Clear -6 1038 79 10000 2.1 50 12:41 09.06.2019
6403 Clouds -5 1038 85 10000 3.1 90 12:22 09.06.2019
6404 Clouds -5 1038 85 10000 3.1 90 11:39 09.06.2019
6405 Clear -5 1038 62 10000 2.1 60 11:21 09.06.2019
6406 Clear -5 1038 62 10000 2.1 60 10:45 09.06.2019
6407 Clear -3 1038 86 10000 2.1 20 10:23 09.06.2019
6408 Clear -3 1038 86 10000 2.1 20 09:41 09.06.2019
6409 Clear -3 1038 86 10000 2.1 20 09:41 09.06.2019
6410 Clear -4 1039 92 10000 2.6 70 09:22 09.06.2019
6411 Clear -4 1039 92 10000 2.6 70 08:47 09.06.2019
6412 Clear -4 1039 92 10000 2.6 70 08:47 09.06.2019
6413 Clear -4 1039 92 10000 2.6 70 08:28 09.06.2019
6414 Clear -2 1038 50 10000 3.6 80 07:21 09.06.2019
6415 Clear -2 1038 50 10000 3.6 80 06:30 09.06.2019
6416 Clear 5 1038 23 10000 3.1 40 04:57 09.06.2019
6417 Clear 10 1037 13 10000 3.6 300 01:39 09.06.2019
6418 Clear 10 1037 13 10000 3.6 300 01:39 09.06.2019
6419 Clouds 12 1036 12 10000 4.6 290 01:21 09.06.2019
6420 Clouds 12 1036 12 10000 4.6 290 01:21 09.06.2019
6421 Clouds 12 1036 12 10000 4.6 290 00:58 09.06.2019
6422 Clouds 15 1036 14 10000 3.6 290 23:44 08.06.2019
6423 Clouds 16 1036 11 10000 4.1 290 23:24 08.06.2019
6424 Clouds 16 1036 11 10000 4.1 290 22:57 08.06.2019
6425 Clouds 16 1036 11 10000 4.1 290 22:39 08.06.2019
6426 Clouds 16 1037 10 10000 3.6 230 22:19 08.06.2019
6427 Clouds 16 1037 10 10000 3.6 230 22:19 08.06.2019
6428 Clouds 16 1037 10 10000 3.6 230 21:51 08.06.2019
6429 Clouds 15 1038 12 10000 3.1 250 21:26 08.06.2019
6430 Clouds 15 1038 12 10000 3.1 250 20:49 08.06.2019
6431 Clouds 15 1038 12 10000 3.1 250 20:26 08.06.2019
6432 Clear 15 1039 11 10000 2.6 280 19:59 08.06.2019
6433 Clear 15 1039 11 10000 2.6 280 19:39 08.06.2019
6434 Clear 13 1040 17 10000 4.6 280 19:20 08.06.2019
6435 Clear 13 1040 17 10000 4.6 280 18:56 08.06.2019
6436 Clear 13 1040 17 10000 4.6 280 18:34 08.06.2019
6437 Clear 12 1040 23 10000 3.6 280 17:49 08.06.2019
6438 Clear 12 1040 23 10000 3.6 280 17:49 08.06.2019
6439 Clear 12 1040 23 10000 3.6 280 17:25 08.06.2019
6440 Clear 10 1040 25 10000 3.1 270 16:57 08.06.2019
6441 Clear 10 1040 25 10000 3.1 270 16:38 08.06.2019
6442 Clear 8 1040 28 10000 3.1 300 15:57 08.06.2019
6443 Clear 8 1040 28 10000 3.1 300 15:36 08.06.2019
6444 Clear 8 1040 28 10000 3.1 300 15:36 08.06.2019
6445 Clear 4 1039 32 10000 1.5 360 14:49 08.06.2019
6446 Clear 4 1039 32 10000 1.5 360 14:31 08.06.2019
6447 Clear -5 1038 53 10000 1.5 360 13:53 08.06.2019
6448 Clear 0 1038 69 10000 1.5 10 12:57 08.06.2019
6449 Clear 0 1038 69 10000 1.5 10 12:39 08.06.2019
6450 -273 0 0 0 0 0 11:57 08.06.2019
6451 Clear 0 1037 83 10000 3.1 10 11:38 08.06.2019
6452 Clear -1 1037 42 10000 1.5 10 11:20 08.06.2019
6453 Clear -1 1037 42 10000 1.5 10 10:43 08.06.2019
6454 Clear -5 1037 49 10000 1 0 10:22 08.06.2019
6455 Clear -5 1037 49 10000 1 0 09:36 08.06.2019
6456 Clear -2 1037 46 10000 0.5 0 08:58 08.06.2019
6457 Clear -3 1037 49 10000 2.1 40 08:22 08.06.2019
6458 Clear -3 1037 49 10000 2.1 40 07:39 08.06.2019
6459 Clear 0 1037 82 10000 1 0 06:45 08.06.2019
6460 Clear 4 1037 38 10000 1.5 50 03:40 08.06.2019
6461 Clear 9 1037 34 10000 3.6 300 02:20 08.06.2019
6462 Clear 11 1036 21 10000 1 0 00:32 08.06.2019
6463 Clouds 14 1035 10 10000 2.6 260 23:59 07.06.2019
6464 Clouds 15 1035 8 10000 2.1 200 23:21 07.06.2019
6465 Clouds 15 1035 8 10000 2.1 200 23:21 07.06.2019
6466 Clouds 15 1035 8 10000 2.1 200 22:54 07.06.2019
6467 Clouds 15 1035 8 10000 2.1 200 22:35 07.06.2019
6468 Clouds 17 1036 8 10000 3.1 250 21:56 07.06.2019
6469 Clouds 17 1036 8 10000 3.1 250 21:38 07.06.2019
6470 Clouds 15 1037 8 10000 2.1 100 21:20 07.06.2019
6471 Clouds 15 1037 8 10000 2.1 100 20:42 07.06.2019
6472 Clouds 14 1038 10 10000 2.6 250 20:23 07.06.2019
6473 Clouds 14 1038 10 10000 2.6 250 19:46 07.06.2019
6474 Clouds 13 1039 13 10000 2.6 250 19:19 07.06.2019
6475 Clouds 13 1039 13 10000 2.6 250 18:43 07.06.2019
6476 Clouds 11 1039 18 10000 2.6 260 18:25 07.06.2019
6477 Clouds 11 1039 18 10000 2.6 260 17:45 07.06.2019
6478 Clear 9 1039 23 10000 1.5 260 17:23 07.06.2019
6479 Clear 9 1039 23 10000 1.5 260 16:42 07.06.2019
6480 Clear 5 1039 27 10000 1.5 230 16:21 07.06.2019
6481 Clear 5 1039 27 10000 1.5 230 15:48 07.06.2019
6482 Clear 4 1038 23 10000 2.6 10 15:20 07.06.2019
6483 Clear 4 1038 23 10000 2.6 10 14:45 07.06.2019
6484 Clear 1 1038 29 10000 3.1 10 14:22 07.06.2019
6485 Clear 1 1038 29 10000 3.1 10 13:29 07.06.2019
6486 Clear 1 1037 29 10000 3.1 10 12:56 07.06.2019
6487 Clear 1 1037 29 10000 3.1 10 12:37 07.06.2019
6488 Clear 1 1037 34 10000 3.1 10 12:18 07.06.2019
6489 Clear 1 1037 34 10000 3.1 10 11:39 07.06.2019
6490 Clear 0 1038 58 10000 3.1 360 11:21 07.06.2019
6491 Clear 0 1038 58 10000 3.1 360 10:43 07.06.2019
6492 Clear 0 1038 58 10000 2.6 10 10:21 07.06.2019
6493 Clear 0 1038 58 10000 2.6 10 09:49 07.06.2019
6494 Clear 0 1038 35 10000 2.6 10 09:27 07.06.2019
6495 Clear 0 1038 37 10000 1 0 08:49 07.06.2019
6496 Clear 0 1038 37 10000 1 0 08:28 07.06.2019
6497 Clear 3 1038 25 10000 3.1 10 07:52 07.06.2019
6498 Clear 3 1038 27 10000 3.6 20 07:22 07.06.2019
6499 Clear 3 1038 27 10000 3.6 20 06:48 07.06.2019
6500 Clear 3 1039 29 10000 2.6 20 06:24 07.06.2019
6501 Clear 3 1039 29 10000 2.6 20 05:44 07.06.2019
6502 Clear 5 1038 23 10000 1.5 350 02:43 07.06.2019
6503 Clear 9 1038 15 10000 2.6 310 01:38 07.06.2019
6504 Clear 11 1037 12 10000 3.6 260 00:48 07.06.2019
6505 Clear 15 1037 8 10000 4.1 260 23:46 06.06.2019
6506 Clear 15 1037 9 10000 3.6 230 23:25 06.06.2019
6507 Clear 15 1037 9 10000 3.6 230 22:59 06.06.2019
6508 Clear 15 1037 9 10000 3.6 230 22:37 06.06.2019
6509 Clear 15 1038 8 10000 3.1 120 22:19 06.06.2019
6510 Clear 15 1038 8 10000 3.1 120 21:45 06.06.2019
6511 Clear 15 1039 7 10000 2.1 240 21:22 06.06.2019
6512 Clear 15 1039 7 10000 2.1 240 20:55 06.06.2019
6513 Clear 15 1039 7 10000 2.1 240 20:34 06.06.2019
6514 Clear 14 1040 9 10000 2.6 240 19:59 06.06.2019
6515 Clear 14 1040 9 10000 2.6 240 19:37 06.06.2019
6516 Clear 14 1040 9 10000 2.6 240 19:19 06.06.2019
6517 Clear 12 1041 12 10000 2.1 220 18:44 06.06.2019
6518 Clear 11 1041 15 10000 2.1 230 18:24 06.06.2019
6519 Clear 11 1041 15 10000 2.1 230 17:49 06.06.2019
6520 Clear 9 1042 18 10000 1 0 17:26 06.06.2019
6521 Clear 9 1042 18 10000 1 0 16:57 06.06.2019
6522 Clear 9 1042 18 10000 1 0 16:38 06.06.2019
6523 Clear 7 1041 22 10000 1 0 16:20 06.06.2019
6524 Clear 7 1041 22 10000 1 0 15:40 06.06.2019
6525 Clear 3 1040 21 10000 2.6 10 15:21 06.06.2019
6526 Clear 3 1040 21 10000 2.6 10 14:43 06.06.2019
6527 Clear -5 1040 22 10000 1 0 14:20 06.06.2019
6528 Clear -5 1040 22 10000 1 0 13:50 06.06.2019
6529 Clear -5 1040 22 10000 1 0 13:30 06.06.2019
6530 Clear -3 1039 25 10000 2.6 10 12:48 06.06.2019
6531 Clear -3 1039 25 10000 2.6 10 12:29 06.06.2019
6532 Clear -6 1039 20 10000 1 0 11:58 06.06.2019
6533 Clear -6 1039 20 10000 1 0 11:58 06.06.2019
6534 Clear -6 1039 20 10000 1 0 11:40 06.06.2019
6535 Clear -1 1039 12 10000 3.1 20 11:20 06.06.2019
6536 Clear -1 1039 12 10000 3.1 20 11:20 06.06.2019
6537 Clear -1 1039 12 10000 3.1 20 10:45 06.06.2019
6538 Clear 0 1039 77 10000 3.6 10 10:25 06.06.2019
6539 Clear 0 1039 77 10000 3.6 10 10:25 06.06.2019
6540 Clear 0 1039 77 10000 3.6 10 09:44 06.06.2019
6541 Clear 1 1040 29 10000 4.1 20 09:24 06.06.2019
6542 Clear 1 1040 29 10000 4.1 20 08:50 06.06.2019
6543 Clear 1 1040 29 10000 4.1 20 08:24 06.06.2019
6544 Clear 1 1040 34 10000 4.1 20 07:52 06.06.2019
6545 Clear 1 1041 34 10000 3.1 20 07:25 06.06.2019
6546 Clear 1 1041 34 10000 3.1 20 06:48 06.06.2019
6547 Clear -5 1041 20 10000 2.1 20 05:38 06.06.2019
6548 Clear 0 1040 71 10000 2.1 30 04:33 06.06.2019
6549 Clear 5 1040 11 10000 4.6 60 02:21 06.06.2019
6550 Clear 5 1040 11 10000 4.6 60 01:44 06.06.2019
6551 Clear 10 1040 27 10000 5.1 40 00:48 06.06.2019
6552 Clear 10 1040 27 10000 5.1 40 00:29 06.06.2019
6553 Clear 14 1039 9 10000 5.1 50 23:41 05.06.2019
6554 Clear 15 1039 9 10000 3.6 50 23:19 05.06.2019
6555 Clear 15 1039 9 10000 3.6 50 22:40 05.06.2019
6556 Clear 16 1040 13 10000 3.1 70 22:21 05.06.2019
6557 Clear 16 1040 13 10000 3.1 70 21:44 05.06.2019
6558 Clear 16 1040 13 10000 3.1 70 21:26 05.06.2019
6559 Clear 16 1040 13 10000 3.1 70 21:26 05.06.2019
6560 Clear 14 1041 16 10000 4.6 130 20:54 05.06.2019
6561 Clear 14 1041 16 10000 4.6 130 20:35 05.06.2019
6562 Clear 13 1041 16 10000 3.1 100 19:56 05.06.2019
6563 Clear 13 1041 16 10000 3.1 100 19:37 05.06.2019
6564 Clear 13 1041 16 10000 3.1 100 19:19 05.06.2019
6565 Clear 11 1042 18 10000 4.1 150 18:42 05.06.2019
6566 Clear 10 1043 29 10000 2.6 170 18:23 05.06.2019
6567 Clear 10 1043 29 10000 2.6 170 17:46 05.06.2019
6568 Clear 8 1043 31 10000 2.6 240 17:21 05.06.2019
6569 Clear 8 1043 31 10000 2.6 240 16:41 05.06.2019
6570 Clear 7 1042 28 10000 1 0 16:19 05.06.2019
6571 Clear 7 1042 28 10000 1 0 15:43 05.06.2019
6572 Clear 4 1041 44 10000 1 0 15:25 05.06.2019
6573 Clear 4 1041 44 10000 1 0 14:58 05.06.2019
6574 Clear 4 1041 44 10000 1 0 14:37 05.06.2019
6575 Clear -2 1041 54 10000 2.1 10 14:19 05.06.2019
6576 Clear -2 1041 54 10000 2.1 10 13:40 05.06.2019
6577 Clear -4 1040 58 10000 1.5 360 13:21 05.06.2019
6578 Clear -4 1040 58 10000 1.5 360 12:49 05.06.2019
6579 Clear -5 1040 62 10000 1.5 10 12:21 05.06.2019
6580 Clear -5 1040 62 10000 1.5 10 12:21 05.06.2019
6581 Clear -5 1040 62 10000 1.5 10 11:48 05.06.2019
6582 Clear -4 1040 62 10000 1.5 20 11:23 05.06.2019
6583 Clear -4 1040 62 10000 1.5 20 10:57 05.06.2019
6584 Clear -4 1040 62 10000 1.5 20 10:37 05.06.2019
6585 Clear -1 1041 58 10000 2.1 20 10:18 05.06.2019
6586 Clear -1 1041 58 10000 2.1 20 09:29 05.06.2019
6587 Clear -1 1041 58 10000 1.5 10 08:56 05.06.2019
6588 Clear -3 1042 68 10000 1.5 20 08:25 05.06.2019
6589 Clear -3 1042 68 10000 1.5 20 07:38 05.06.2019
6590 Clear -2 1042 74 10000 1.5 10 06:54 05.06.2019
6591 Clear -2 1042 79 10000 1.5 90 06:21 05.06.2019
6592 Clear -2 1042 79 10000 1.5 90 05:41 05.06.2019
6593 Clear 6 1041 56 10000 4.1 80 02:35 05.06.2019
6594 Clouds 6 1040 45 10000 2.1 80 01:31 05.06.2019
6595 Clouds 11 1040 23 10000 5.1 90 00:48 05.06.2019
6596 Clouds 13 1040 17 10000 5.1 140 00:18 05.06.2019
6597 Clouds 13 1040 17 10000 5.1 140 23:42 04.06.2019
6598 Clouds 14 1040 15 10000 4.1 140 23:22 04.06.2019
6599 Clouds 14 1040 15 10000 4.1 140 22:44 04.06.2019
6600 Clouds 14 1040 15 10000 4.1 140 22:26 04.06.2019
6601 Clouds 14 1040 17 10000 3.1 120 21:57 04.06.2019
6602 Clouds 14 1040 17 10000 3.1 120 21:39 04.06.2019
6603 Clouds 13 1042 22 10000 4.1 140 21:20 04.06.2019
6604 Clouds 13 1042 22 10000 4.1 140 20:39 04.06.2019
6605 Clouds 12 1043 23 10000 3.1 140 20:20 04.06.2019
6606 Clouds 12 1043 23 10000 3.1 140 20:20 04.06.2019
6607 Clouds 12 1043 23 10000 3.1 140 19:49 04.06.2019
6608 Clouds 12 1043 32 10000 2.6 150 19:24 04.06.2019
6609 Clouds 12 1043 32 10000 2.6 150 18:52 04.06.2019
6610 Clouds 11 1044 43 8000 1 0 18:28 04.06.2019
6611 Clouds 11 1044 43 8000 1 0 17:58 04.06.2019
6612 Clouds 11 1044 43 8000 1 0 17:39 04.06.2019
6613 Clouds 8 1044 49 8000 1 0 17:20 04.06.2019
6614 Clouds 6 1044 10 8000 1 0 16:28 04.06.2019
6615 Clouds 6 1044 10 8000 1 0 15:59 04.06.2019
6616 Clouds 6 1044 10 8000 1 0 15:40 04.06.2019
6617 Clouds 3 1043 69 10000 2.1 10 15:22 04.06.2019
6618 Clouds 3 1043 69 10000 2.1 10 14:38 04.06.2019
6619 Clouds 3 1043 69 10000 2.1 10 14:38 04.06.2019
6620 Clouds 0 1042 49 10000 2.1 360 14:19 04.06.2019
6621 Clouds 0 1042 49 10000 2.1 360 13:44 04.06.2019
6622 Fog -2 1041 92 4000 1 0 13:20 04.06.2019
6623 Fog -2 1041 92 4000 1 0 12:41 04.06.2019
6624 Fog 0 1041 67 4000 1 0 12:22 04.06.2019
6625 Fog 0 1041 67 4000 1 0 11:44 04.06.2019
6626 Fog -1 1041 100 4000 1.5 20 11:21 04.06.2019
6627 Fog -1 1041 100 4000 1.5 20 10:52 04.06.2019
6628 Fog 0 1041 67 4000 2.6 60 10:20 04.06.2019
6629 Fog 0 1041 67 4000 2.6 60 09:44 04.06.2019
6630 Fog 0 1041 68 4000 1 0 09:23 04.06.2019
6631 Fog 0 1041 68 4000 1 0 08:56 04.06.2019
6632 Fog 0 1041 68 4000 1 0 08:38 04.06.2019
6633 Fog 2 1042 93 4000 2.6 70 08:19 04.06.2019
6634 Fog 2 1042 93 4000 2.6 70 07:43 04.06.2019
6635 Fog 1 1042 72 4000 3.1 70 07:20 04.06.2019
6636 Fog 1 1042 72 4000 3.1 70 06:45 04.06.2019
6637 Fog 2 1042 93 4000 3.1 90 06:26 04.06.2019
6638 Fog 2 1042 93 4000 3.1 90 05:45 04.06.2019
6639 Clear 1 1042 66 10000 3.1 70 04:50 04.06.2019
6640 Clear 4 1041 66 10000 3.1 70 03:58 04.06.2019
6641 Clouds 4 1041 60 10000 3.1 70 02:51 04.06.2019
6642 Clouds 4 1041 60 10000 3.1 70 02:30 04.06.2019
6643 Clouds 7 1040 56 10000 2.1 30 01:35 04.06.2019
6644 Clouds 8 1039 52 10000 4.1 40 00:45 04.06.2019
6645 Clouds 10 1038 46 10000 4.1 60 23:59 03.06.2019
6646 Clouds 10 1038 46 10000 4.1 60 23:38 03.06.2019
6647 Clouds 13 1039 10 10000 4.6 90 23:20 03.06.2019
6648 Clouds 13 1039 10 10000 4.6 90 22:45 03.06.2019
6649 Clouds 13 1039 10 10000 4.6 90 22:26 03.06.2019
6650 Clouds 13 1039 37 10000 3.6 90 21:55 03.06.2019
6651 Clouds 13 1039 37 10000 3.6 90 21:55 03.06.2019
6652 Clouds 13 1039 37 10000 3.6 90 21:37 03.06.2019
6653 Clouds 13 1040 32 10000 1 0 21:18 03.06.2019
6654 Clouds 13 1040 32 10000 1 0 20:40 03.06.2019
6655 Clouds 13 1040 32 10000 1 0 20:22 03.06.2019
6656 Clouds 13 1040 32 10000 1 0 19:57 03.06.2019
6657 Clouds 12 1041 40 10000 2.1 150 19:38 03.06.2019
6658 Clouds 12 1041 40 10000 2.1 150 19:18 03.06.2019
6659 Clouds 13 1042 35 10000 1 0 18:47 03.06.2019
6660 Clouds 13 1042 35 10000 1 0 18:25 03.06.2019
6661 Clouds 10 1043 11 10000 2.1 260 17:48 03.06.2019
6662 Clouds 10 1043 11 10000 2.1 260 17:28 03.06.2019
6663 Clouds 9 1042 49 10000 1 0 16:59 03.06.2019
6664 Clouds 9 1042 49 10000 1 0 16:37 03.06.2019
6665 Clouds 6 1042 70 10000 1 0 16:18 03.06.2019
6666 Clouds 6 1042 70 10000 1 0 15:44 03.06.2019
6667 Clouds 4 1042 69 10000 1 0 15:24 03.06.2019
6668 Clouds 4 1042 69 10000 1 0 14:48 03.06.2019
6669 Clouds 0 1041 52 6000 1.5 360 14:26 03.06.2019
6670 Clouds 0 1041 52 6000 1.5 360 13:43 03.06.2019
6671 Clouds -1 1040 100 10000 3.1 70 13:21 03.06.2019
6672 Clouds -1 1040 100 10000 3.1 70 12:54 03.06.2019
6673 Clouds -1 1040 100 10000 3.1 70 12:36 03.06.2019
6674 Fog -2 1040 100 4000 3.1 70 12:18 03.06.2019
6675 Fog -2 1040 100 4000 3.1 70 11:42 03.06.2019
6676 Fog 0 1039 78 4000 2.6 70 11:21 03.06.2019
6677 Fog 0 1039 78 4000 2.6 70 10:43 03.06.2019
6678 Fog 0 1039 78 4000 2.6 70 10:23 03.06.2019
6679 Fog 3 1040 93 4000 2.6 80 09:51 03.06.2019
6680 Fog 3 1040 93 4000 2.6 80 09:51 03.06.2019
6681 Fog 3 1040 93 4000 2.6 80 09:33 03.06.2019
6682 Fog 0 1040 69 4000 4.1 80 08:46 03.06.2019
6683 Fog 0 1040 69 4000 4.1 80 08:25 03.06.2019
6684 Fog -1 1040 92 4000 2.6 80 07:35 03.06.2019
6685 Fog 1 1040 70 4000 2.6 70 06:45 03.06.2019
6686 Clear 6 1038 52 10000 2.6 70 02:39 03.06.2019
6687 Clear 10 1037 21 10000 3.1 280 01:40 03.06.2019
6688 Clear 12 1036 16 10000 3.1 290 00:39 03.06.2019
6689 Clouds 14 1036 14 10000 5.1 280 00:20 03.06.2019
6690 Clouds 14 1036 14 10000 5.1 280 00:20 03.06.2019
6691 Clouds 14 1036 14 10000 5.1 280 00:20 03.06.2019
6692 Clouds 14 1036 14 10000 5.1 280 00:20 03.06.2019
6693 Clouds 14 1036 14 10000 5.1 280 00:20 03.06.2019
6694 Clouds 14 1036 14 10000 5.1 280 23:59 02.06.2019
6695 Clouds 14 1036 14 10000 5.1 280 23:41 02.06.2019
6696 Clouds 14 1036 14 10000 5.1 280 23:23 02.06.2019
6697 Clouds 15 1036 16 10000 5.1 290 22:33 02.06.2019
6698 Clouds 15 1036 16 10000 5.1 290 21:59 02.06.2019
6699 Clouds 16 1037 13 10000 6.7 270 21:41 02.06.2019
6700 Clouds 15 1037 16 10000 5.7 270 21:19 02.06.2019
6701 Clouds 15 1037 16 10000 5.7 270 20:42 02.06.2019
6702 Clouds 15 1038 15 10000 5.1 300 20:20 02.06.2019
6703 Clouds 15 1038 15 10000 5.1 300 19:55 02.06.2019
6704 Clouds 15 1038 15 10000 5.1 300 19:36 02.06.2019
6705 Clouds 13 1039 17 10000 2.6 310 19:18 02.06.2019
6706 Clouds 13 1039 17 10000 2.6 310 19:18 02.06.2019
6707 Clouds 13 1039 17 10000 2.6 310 18:40 02.06.2019
6708 Clouds 12 1040 20 10000 2.1 240 18:18 02.06.2019
6709 Clouds 12 1040 20 10000 2.1 240 17:41 02.06.2019
6710 Clouds 11 1040 20 10000 1 0 17:22 02.06.2019
6711 Clouds 11 1040 20 10000 1 0 16:57 02.06.2019
6712 Clouds 11 1040 20 10000 1 0 16:38 02.06.2019
6713 Clouds 8 1040 26 10000 1 0 16:19 02.06.2019
6714 Clouds 8 1040 26 10000 1 0 15:42 02.06.2019
6715 Clouds 4 1039 44 10000 1 0 15:21 02.06.2019
6716 Clouds 4 1039 44 10000 1 0 14:55 02.06.2019
6717 Clouds 4 1039 44 10000 1 0 14:36 02.06.2019
6718 Clouds -3 1038 68 10000 1 0 14:18 02.06.2019
6719 Clouds -3 1038 68 10000 1 0 13:42 02.06.2019
6720 Clouds 0 1037 74 10000 2.6 20 13:23 02.06.2019
6721 Clouds 0 1037 74 10000 2.6 20 12:42 02.06.2019
6722 Fog -3 1037 86 4000 3.1 40 12:24 02.06.2019
6723 Fog -3 1037 86 4000 3.1 40 11:52 02.06.2019
6724 Clouds -4 1036 85 10000 1.5 100 11:22 02.06.2019
6725 Clouds -4 1036 85 10000 1.5 100 11:22 02.06.2019
6726 Clouds -4 1036 85 10000 1.5 100 10:59 02.06.2019
6727 Clouds -4 1036 85 10000 1.5 100 10:41 02.06.2019
6728 Clouds -3 1037 79 10000 2.1 80 10:20 02.06.2019
6729 Clouds -3 1037 79 10000 2.1 80 09:41 02.06.2019
6730 Clouds -1 1038 80 10000 2.1 50 09:22 02.06.2019
6731 Clouds -1 1038 80 10000 2.1 50 08:57 02.06.2019
6732 Clouds -1 1038 80 10000 2.1 50 08:38 02.06.2019
6733 Clouds -1 1038 80 10000 2.6 30 08:18 02.06.2019
6734 Clouds -1 1038 80 10000 2.6 30 07:42 02.06.2019
6735 Clouds 0 1038 86 10000 2.6 70 07:21 02.06.2019
6736 Clouds 0 1038 86 10000 2.6 70 06:50 02.06.2019
6737